<?xml version="1.0" encoding="UTF-8" standalone="yes"?>
<?xml-stylesheet type="text/xsl" href="details.xsl"?>
<gpx
 version="1.1"
 creator="My Tracks for the G1 running Android"
 xmlns:xsi="http://www.w3.org/2001/XMLSchema-instance"
 xmlns="http://www.topografix.com/GPX/1/1"
 xmlns:topografix="http://www.topografix.com/GPX/Private/TopoGrafix/0/1" xsi:schemaLocation="http://www.topografix.com/GPX/1/1 http://www.topografix.com/GPX/1/1/gpx.xsd http://www.topografix.com/GPX/Private/TopoGrafix/0/1 http://www.topografix.com/GPX/Private/TopoGrafix/0/1/topografix.xsd">
<trk>
<name><![CDATA[2011-05-01 11:45]]></name>
<desc><![CDATA[]]></desc>
<number>18</number>
<extensions><topografix:color>c0c0c0</topografix:color></extensions>
<trkseg>
<trkpt lat="45.50492" lon="13.59695">
<ele>103</ele>
<time>2011-05-01T09:45:07Z</time>
</trkpt>
<trkpt lat="45.50492" lon="13.59695">
<ele>103</ele>
<time>2011-05-01T09:45:07Z</time>
</trkpt>
<trkpt lat="45.50492" lon="13.59695">
<ele>103</ele>
<time>2011-05-01T09:45:14Z</time>
</trkpt>
<trkpt lat="45.50495" lon="13.59683">
<ele>82</ele>
<time>2011-05-01T09:45:15Z</time>
</trkpt>
<trkpt lat="45.50495" lon="13.59683">
<ele>82</ele>
<time>2011-05-01T09:45:15Z</time>
</trkpt>
<trkpt lat="45.50495" lon="13.59683">
<ele>82</ele>
<time>2011-05-01T09:45:23Z</time>
</trkpt>
<trkpt lat="45.50499" lon="13.59671">
<ele>59</ele>
<time>2011-05-01T09:45:24Z</time>
</trkpt>
<trkpt lat="45.50499" lon="13.59671">
<ele>59</ele>
<time>2011-05-01T09:45:24Z</time>
</trkpt>
<trkpt lat="45.50499" lon="13.59671">
<ele>59</ele>
<time>2011-05-01T09:45:30Z</time>
</trkpt>
<trkpt lat="45.50502" lon="13.59664">
<ele>53</ele>
<time>2011-05-01T09:45:31Z</time>
</trkpt>
<trkpt lat="45.50498" lon="13.59661">
<ele>52</ele>
<time>2011-05-01T09:46:08Z</time>
</trkpt>
<trkpt lat="45.50494" lon="13.59665">
<ele>52</ele>
<time>2011-05-01T09:46:21Z</time>
</trkpt>
<trkpt lat="45.50498" lon="13.59661">
<ele>53</ele>
<time>2011-05-01T09:46:59Z</time>
</trkpt>
<trkpt lat="45.50502" lon="13.5966">
<ele>53</ele>
<time>2011-05-01T09:48:57Z</time>
</trkpt>
<trkpt lat="45.50498" lon="13.59662">
<ele>53</ele>
<time>2011-05-01T09:54:43Z</time>
</trkpt>
<trkpt lat="45.50493" lon="13.59661">
<ele>53</ele>
<time>2011-05-01T09:54:53Z</time>
</trkpt>
<trkpt lat="45.50488" lon="13.59658">
<ele>52</ele>
<time>2011-05-01T09:55:00Z</time>
</trkpt>
<trkpt lat="45.50484" lon="13.59654">
<ele>52</ele>
<time>2011-05-01T09:55:08Z</time>
</trkpt>
<trkpt lat="45.50484" lon="13.59646">
<ele>52</ele>
<time>2011-05-01T09:55:13Z</time>
</trkpt>
<trkpt lat="45.50484" lon="13.59639">
<ele>52</ele>
<time>2011-05-01T09:55:17Z</time>
</trkpt>
<trkpt lat="45.50484" lon="13.59632">
<ele>52</ele>
<time>2011-05-01T09:55:21Z</time>
</trkpt>
<trkpt lat="45.50486" lon="13.59624">
<ele>52</ele>
<time>2011-05-01T09:55:25Z</time>
</trkpt>
<trkpt lat="45.50487" lon="13.59616">
<ele>52</ele>
<time>2011-05-01T09:55:29Z</time>
</trkpt>
<trkpt lat="45.50489" lon="13.59608">
<ele>52</ele>
<time>2011-05-01T09:55:33Z</time>
</trkpt>
<trkpt lat="45.5049" lon="13.596">
<ele>52</ele>
<time>2011-05-01T09:55:37Z</time>
</trkpt>
<trkpt lat="45.50493" lon="13.59592">
<ele>52</ele>
<time>2011-05-01T09:55:41Z</time>
</trkpt>
<trkpt lat="45.50495" lon="13.59584">
<ele>52</ele>
<time>2011-05-01T09:55:45Z</time>
</trkpt>
<trkpt lat="45.50499" lon="13.59578">
<ele>52</ele>
<time>2011-05-01T09:55:49Z</time>
</trkpt>
<trkpt lat="45.50502" lon="13.59571">
<ele>52</ele>
<time>2011-05-01T09:55:53Z</time>
</trkpt>
<trkpt lat="45.50506" lon="13.59564">
<ele>52</ele>
<time>2011-05-01T09:55:57Z</time>
</trkpt>
<trkpt lat="45.50509" lon="13.59558">
<ele>52</ele>
<time>2011-05-01T09:56:01Z</time>
</trkpt>
<trkpt lat="45.50512" lon="13.59551">
<ele>52</ele>
<time>2011-05-01T09:56:05Z</time>
</trkpt>
<trkpt lat="45.50515" lon="13.59545">
<ele>52</ele>
<time>2011-05-01T09:56:09Z</time>
</trkpt>
<trkpt lat="45.50518" lon="13.59539">
<ele>52</ele>
<time>2011-05-01T09:56:13Z</time>
</trkpt>
<trkpt lat="45.50521" lon="13.59534">
<ele>52</ele>
<time>2011-05-01T09:56:17Z</time>
</trkpt>
<trkpt lat="45.50524" lon="13.59529">
<ele>52</ele>
<time>2011-05-01T09:56:21Z</time>
</trkpt>
<trkpt lat="45.50527" lon="13.59523">
<ele>52</ele>
<time>2011-05-01T09:56:25Z</time>
</trkpt>
<trkpt lat="45.5053" lon="13.59517">
<ele>52</ele>
<time>2011-05-01T09:56:29Z</time>
</trkpt>
<trkpt lat="45.50533" lon="13.59511">
<ele>52</ele>
<time>2011-05-01T09:56:33Z</time>
</trkpt>
<trkpt lat="45.50536" lon="13.59504">
<ele>52</ele>
<time>2011-05-01T09:56:37Z</time>
</trkpt>
<trkpt lat="45.50539" lon="13.59498">
<ele>52</ele>
<time>2011-05-01T09:56:41Z</time>
</trkpt>
<trkpt lat="45.50542" lon="13.5949">
<ele>52</ele>
<time>2011-05-01T09:56:45Z</time>
</trkpt>
<trkpt lat="45.50543" lon="13.59482">
<ele>52</ele>
<time>2011-05-01T09:56:49Z</time>
</trkpt>
<trkpt lat="45.50544" lon="13.59474">
<ele>52</ele>
<time>2011-05-01T09:56:53Z</time>
</trkpt>
<trkpt lat="45.50544" lon="13.59467">
<ele>52</ele>
<time>2011-05-01T09:56:56Z</time>
</trkpt>
<trkpt lat="45.50545" lon="13.5946">
<ele>52</ele>
<time>2011-05-01T09:56:59Z</time>
</trkpt>
<trkpt lat="45.50547" lon="13.59452">
<ele>52</ele>
<time>2011-05-01T09:57:03Z</time>
</trkpt>
<trkpt lat="45.50549" lon="13.59445">
<ele>52</ele>
<time>2011-05-01T09:57:07Z</time>
</trkpt>
<trkpt lat="45.5055" lon="13.59438">
<ele>52</ele>
<time>2011-05-01T09:57:11Z</time>
</trkpt>
<trkpt lat="45.50552" lon="13.59431">
<ele>52</ele>
<time>2011-05-01T09:57:15Z</time>
</trkpt>
<trkpt lat="45.50553" lon="13.59425">
<ele>52</ele>
<time>2011-05-01T09:57:19Z</time>
</trkpt>
<trkpt lat="45.50555" lon="13.59417">
<ele>52</ele>
<time>2011-05-01T09:57:24Z</time>
</trkpt>
<trkpt lat="45.50557" lon="13.5941">
<ele>52</ele>
<time>2011-05-01T09:57:29Z</time>
</trkpt>
<trkpt lat="45.50559" lon="13.59403">
<ele>51</ele>
<time>2011-05-01T09:57:34Z</time>
</trkpt>
<trkpt lat="45.5056" lon="13.59396">
<ele>51</ele>
<time>2011-05-01T09:57:39Z</time>
</trkpt>
<trkpt lat="45.5056" lon="13.59389">
<ele>51</ele>
<time>2011-05-01T09:57:44Z</time>
</trkpt>
<trkpt lat="45.50561" lon="13.59382">
<ele>51</ele>
<time>2011-05-01T09:57:49Z</time>
</trkpt>
<trkpt lat="45.50562" lon="13.59375">
<ele>51</ele>
<time>2011-05-01T09:57:53Z</time>
</trkpt>
<trkpt lat="45.50562" lon="13.59368">
<ele>51</ele>
<time>2011-05-01T09:57:57Z</time>
</trkpt>
<trkpt lat="45.50564" lon="13.59361">
<ele>51</ele>
<time>2011-05-01T09:58:01Z</time>
</trkpt>
<trkpt lat="45.50565" lon="13.59353">
<ele>51</ele>
<time>2011-05-01T09:58:05Z</time>
</trkpt>
<trkpt lat="45.50566" lon="13.59347">
<ele>51</ele>
<time>2011-05-01T09:58:08Z</time>
</trkpt>
<trkpt lat="45.50568" lon="13.5934">
<ele>51</ele>
<time>2011-05-01T09:58:11Z</time>
</trkpt>
<trkpt lat="45.50569" lon="13.59332">
<ele>51</ele>
<time>2011-05-01T09:58:15Z</time>
</trkpt>
<trkpt lat="45.5057" lon="13.59324">
<ele>51</ele>
<time>2011-05-01T09:58:19Z</time>
</trkpt>
<trkpt lat="45.50572" lon="13.59316">
<ele>51</ele>
<time>2011-05-01T09:58:22Z</time>
</trkpt>
<trkpt lat="45.50572" lon="13.59308">
<ele>51</ele>
<time>2011-05-01T09:58:26Z</time>
</trkpt>
<trkpt lat="45.50574" lon="13.593">
<ele>51</ele>
<time>2011-05-01T09:58:30Z</time>
</trkpt>
<trkpt lat="45.50575" lon="13.59294">
<ele>51</ele>
<time>2011-05-01T09:58:33Z</time>
</trkpt>
<trkpt lat="45.50576" lon="13.59287">
<ele>51</ele>
<time>2011-05-01T09:58:36Z</time>
</trkpt>
<trkpt lat="45.50576" lon="13.59281">
<ele>51</ele>
<time>2011-05-01T09:58:39Z</time>
</trkpt>
<trkpt lat="45.50578" lon="13.59274">
<ele>51</ele>
<time>2011-05-01T09:58:42Z</time>
</trkpt>
<trkpt lat="45.50579" lon="13.59267">
<ele>51</ele>
<time>2011-05-01T09:58:45Z</time>
</trkpt>
<trkpt lat="45.50581" lon="13.59261">
<ele>51</ele>
<time>2011-05-01T09:58:48Z</time>
</trkpt>
<trkpt lat="45.50582" lon="13.59254">
<ele>51</ele>
<time>2011-05-01T09:58:51Z</time>
</trkpt>
<trkpt lat="45.50583" lon="13.59247">
<ele>51</ele>
<time>2011-05-01T09:58:54Z</time>
</trkpt>
<trkpt lat="45.50584" lon="13.5924">
<ele>51</ele>
<time>2011-05-01T09:58:57Z</time>
</trkpt>
<trkpt lat="45.50585" lon="13.59233">
<ele>51</ele>
<time>2011-05-01T09:59:00Z</time>
</trkpt>
<trkpt lat="45.50586" lon="13.59227">
<ele>51</ele>
<time>2011-05-01T09:59:03Z</time>
</trkpt>
<trkpt lat="45.50587" lon="13.5922">
<ele>51</ele>
<time>2011-05-01T09:59:06Z</time>
</trkpt>
<trkpt lat="45.50588" lon="13.59213">
<ele>51</ele>
<time>2011-05-01T09:59:09Z</time>
</trkpt>
<trkpt lat="45.5059" lon="13.59206">
<ele>51</ele>
<time>2011-05-01T09:59:12Z</time>
</trkpt>
<trkpt lat="45.50591" lon="13.592">
<ele>51</ele>
<time>2011-05-01T09:59:15Z</time>
</trkpt>
<trkpt lat="45.50592" lon="13.59193">
<ele>51</ele>
<time>2011-05-01T09:59:18Z</time>
</trkpt>
<trkpt lat="45.50593" lon="13.59186">
<ele>51</ele>
<time>2011-05-01T09:59:21Z</time>
</trkpt>
<trkpt lat="45.50594" lon="13.5918">
<ele>51</ele>
<time>2011-05-01T09:59:24Z</time>
</trkpt>
<trkpt lat="45.50596" lon="13.59173">
<ele>51</ele>
<time>2011-05-01T09:59:27Z</time>
</trkpt>
<trkpt lat="45.50597" lon="13.59166">
<ele>51</ele>
<time>2011-05-01T09:59:30Z</time>
</trkpt>
<trkpt lat="45.50598" lon="13.5916">
<ele>51</ele>
<time>2011-05-01T09:59:33Z</time>
</trkpt>
<trkpt lat="45.506" lon="13.59153">
<ele>51</ele>
<time>2011-05-01T09:59:36Z</time>
</trkpt>
<trkpt lat="45.50602" lon="13.59146">
<ele>51</ele>
<time>2011-05-01T09:59:39Z</time>
</trkpt>
<trkpt lat="45.50604" lon="13.5914">
<ele>51</ele>
<time>2011-05-01T09:59:42Z</time>
</trkpt>
<trkpt lat="45.50606" lon="13.59133">
<ele>51</ele>
<time>2011-05-01T09:59:45Z</time>
</trkpt>
<trkpt lat="45.50608" lon="13.59127">
<ele>51</ele>
<time>2011-05-01T09:59:48Z</time>
</trkpt>
<trkpt lat="45.50611" lon="13.59121">
<ele>51</ele>
<time>2011-05-01T09:59:51Z</time>
</trkpt>
<trkpt lat="45.50612" lon="13.59115">
<ele>51</ele>
<time>2011-05-01T09:59:54Z</time>
</trkpt>
<trkpt lat="45.50615" lon="13.59108">
<ele>51</ele>
<time>2011-05-01T09:59:58Z</time>
</trkpt>
<trkpt lat="45.50618" lon="13.59101">
<ele>51</ele>
<time>2011-05-01T10:00:02Z</time>
</trkpt>
<trkpt lat="45.50621" lon="13.59093">
<ele>51</ele>
<time>2011-05-01T10:00:06Z</time>
</trkpt>
<trkpt lat="45.50623" lon="13.59087">
<ele>51</ele>
<time>2011-05-01T10:00:09Z</time>
</trkpt>
<trkpt lat="45.50625" lon="13.59081">
<ele>51</ele>
<time>2011-05-01T10:00:12Z</time>
</trkpt>
<trkpt lat="45.50628" lon="13.59075">
<ele>51</ele>
<time>2011-05-01T10:00:15Z</time>
</trkpt>
<trkpt lat="45.5063" lon="13.59068">
<ele>51</ele>
<time>2011-05-01T10:00:18Z</time>
</trkpt>
<trkpt lat="45.50632" lon="13.59062">
<ele>51</ele>
<time>2011-05-01T10:00:21Z</time>
</trkpt>
<trkpt lat="45.50634" lon="13.59056">
<ele>51</ele>
<time>2011-05-01T10:00:24Z</time>
</trkpt>
<trkpt lat="45.50637" lon="13.5905">
<ele>51</ele>
<time>2011-05-01T10:00:27Z</time>
</trkpt>
<trkpt lat="45.50639" lon="13.59044">
<ele>51</ele>
<time>2011-05-01T10:00:30Z</time>
</trkpt>
<trkpt lat="45.50642" lon="13.59038">
<ele>51</ele>
<time>2011-05-01T10:00:33Z</time>
</trkpt>
<trkpt lat="45.50644" lon="13.59031">
<ele>51</ele>
<time>2011-05-01T10:00:36Z</time>
</trkpt>
<trkpt lat="45.50647" lon="13.59025">
<ele>51</ele>
<time>2011-05-01T10:00:39Z</time>
</trkpt>
<trkpt lat="45.50649" lon="13.59019">
<ele>51</ele>
<time>2011-05-01T10:00:42Z</time>
</trkpt>
<trkpt lat="45.50652" lon="13.59013">
<ele>51</ele>
<time>2011-05-01T10:00:45Z</time>
</trkpt>
<trkpt lat="45.50654" lon="13.59007">
<ele>50</ele>
<time>2011-05-01T10:00:48Z</time>
</trkpt>
<trkpt lat="45.50656" lon="13.59001">
<ele>50</ele>
<time>2011-05-01T10:00:51Z</time>
</trkpt>
<trkpt lat="45.50659" lon="13.58995">
<ele>50</ele>
<time>2011-05-01T10:00:54Z</time>
</trkpt>
<trkpt lat="45.50661" lon="13.58989">
<ele>50</ele>
<time>2011-05-01T10:00:57Z</time>
</trkpt>
<trkpt lat="45.50663" lon="13.58982">
<ele>50</ele>
<time>2011-05-01T10:01:00Z</time>
</trkpt>
<trkpt lat="45.50666" lon="13.58976">
<ele>50</ele>
<time>2011-05-01T10:01:03Z</time>
</trkpt>
<trkpt lat="45.50668" lon="13.5897">
<ele>50</ele>
<time>2011-05-01T10:01:06Z</time>
</trkpt>
<trkpt lat="45.5067" lon="13.58964">
<ele>50</ele>
<time>2011-05-01T10:01:09Z</time>
</trkpt>
<trkpt lat="45.50672" lon="13.58958">
<ele>50</ele>
<time>2011-05-01T10:01:12Z</time>
</trkpt>
<trkpt lat="45.50674" lon="13.58951">
<ele>50</ele>
<time>2011-05-01T10:01:15Z</time>
</trkpt>
<trkpt lat="45.50677" lon="13.58945">
<ele>50</ele>
<time>2011-05-01T10:01:18Z</time>
</trkpt>
<trkpt lat="45.50679" lon="13.58938">
<ele>50</ele>
<time>2011-05-01T10:01:21Z</time>
</trkpt>
<trkpt lat="45.50682" lon="13.58931">
<ele>50</ele>
<time>2011-05-01T10:01:24Z</time>
</trkpt>
<trkpt lat="45.50685" lon="13.58925">
<ele>50</ele>
<time>2011-05-01T10:01:27Z</time>
</trkpt>
<trkpt lat="45.50687" lon="13.58918">
<ele>50</ele>
<time>2011-05-01T10:01:30Z</time>
</trkpt>
<trkpt lat="45.5069" lon="13.58912">
<ele>50</ele>
<time>2011-05-01T10:01:33Z</time>
</trkpt>
<trkpt lat="45.50693" lon="13.58906">
<ele>50</ele>
<time>2011-05-01T10:01:36Z</time>
</trkpt>
<trkpt lat="45.50696" lon="13.58899">
<ele>50</ele>
<time>2011-05-01T10:01:39Z</time>
</trkpt>
<trkpt lat="45.50699" lon="13.58892">
<ele>50</ele>
<time>2011-05-01T10:01:42Z</time>
</trkpt>
<trkpt lat="45.50702" lon="13.58885">
<ele>50</ele>
<time>2011-05-01T10:01:45Z</time>
</trkpt>
<trkpt lat="45.50706" lon="13.58879">
<ele>50</ele>
<time>2011-05-01T10:01:48Z</time>
</trkpt>
<trkpt lat="45.50708" lon="13.58872">
<ele>50</ele>
<time>2011-05-01T10:01:51Z</time>
</trkpt>
<trkpt lat="45.50711" lon="13.58866">
<ele>50</ele>
<time>2011-05-01T10:01:54Z</time>
</trkpt>
<trkpt lat="45.50714" lon="13.58859">
<ele>50</ele>
<time>2011-05-01T10:01:57Z</time>
</trkpt>
<trkpt lat="45.50716" lon="13.58853">
<ele>50</ele>
<time>2011-05-01T10:02:00Z</time>
</trkpt>
<trkpt lat="45.50718" lon="13.58847">
<ele>50</ele>
<time>2011-05-01T10:02:03Z</time>
</trkpt>
<trkpt lat="45.50721" lon="13.58841">
<ele>50</ele>
<time>2011-05-01T10:02:06Z</time>
</trkpt>
<trkpt lat="45.50723" lon="13.58835">
<ele>50</ele>
<time>2011-05-01T10:02:09Z</time>
</trkpt>
<trkpt lat="45.50725" lon="13.58828">
<ele>50</ele>
<time>2011-05-01T10:02:12Z</time>
</trkpt>
<trkpt lat="45.50728" lon="13.58822">
<ele>50</ele>
<time>2011-05-01T10:02:15Z</time>
</trkpt>
<trkpt lat="45.5073" lon="13.58816">
<ele>50</ele>
<time>2011-05-01T10:02:18Z</time>
</trkpt>
<trkpt lat="45.50733" lon="13.5881">
<ele>50</ele>
<time>2011-05-01T10:02:21Z</time>
</trkpt>
<trkpt lat="45.50735" lon="13.58804">
<ele>50</ele>
<time>2011-05-01T10:02:24Z</time>
</trkpt>
<trkpt lat="45.50738" lon="13.58798">
<ele>50</ele>
<time>2011-05-01T10:02:27Z</time>
</trkpt>
<trkpt lat="45.5074" lon="13.58792">
<ele>50</ele>
<time>2011-05-01T10:02:30Z</time>
</trkpt>
<trkpt lat="45.50743" lon="13.58786">
<ele>50</ele>
<time>2011-05-01T10:02:33Z</time>
</trkpt>
<trkpt lat="45.50745" lon="13.5878">
<ele>50</ele>
<time>2011-05-01T10:02:36Z</time>
</trkpt>
<trkpt lat="45.50748" lon="13.58774">
<ele>50</ele>
<time>2011-05-01T10:02:39Z</time>
</trkpt>
<trkpt lat="45.50751" lon="13.58767">
<ele>50</ele>
<time>2011-05-01T10:02:42Z</time>
</trkpt>
<trkpt lat="45.50753" lon="13.58761">
<ele>50</ele>
<time>2011-05-01T10:02:45Z</time>
</trkpt>
<trkpt lat="45.50756" lon="13.58755">
<ele>50</ele>
<time>2011-05-01T10:02:48Z</time>
</trkpt>
<trkpt lat="45.50758" lon="13.58749">
<ele>50</ele>
<time>2011-05-01T10:02:51Z</time>
</trkpt>
<trkpt lat="45.50761" lon="13.58744">
<ele>49</ele>
<time>2011-05-01T10:02:54Z</time>
</trkpt>
<trkpt lat="45.50763" lon="13.58738">
<ele>49</ele>
<time>2011-05-01T10:02:57Z</time>
</trkpt>
<trkpt lat="45.50766" lon="13.58732">
<ele>49</ele>
<time>2011-05-01T10:03:00Z</time>
</trkpt>
<trkpt lat="45.50769" lon="13.58725">
<ele>49</ele>
<time>2011-05-01T10:03:03Z</time>
</trkpt>
<trkpt lat="45.50771" lon="13.58719">
<ele>49</ele>
<time>2011-05-01T10:03:06Z</time>
</trkpt>
<trkpt lat="45.50774" lon="13.58713">
<ele>49</ele>
<time>2011-05-01T10:03:09Z</time>
</trkpt>
<trkpt lat="45.50776" lon="13.58707">
<ele>49</ele>
<time>2011-05-01T10:03:12Z</time>
</trkpt>
<trkpt lat="45.50778" lon="13.58701">
<ele>49</ele>
<time>2011-05-01T10:03:15Z</time>
</trkpt>
<trkpt lat="45.50781" lon="13.58695">
<ele>49</ele>
<time>2011-05-01T10:03:18Z</time>
</trkpt>
<trkpt lat="45.50783" lon="13.58688">
<ele>49</ele>
<time>2011-05-01T10:03:21Z</time>
</trkpt>
<trkpt lat="45.50786" lon="13.58681">
<ele>49</ele>
<time>2011-05-01T10:03:24Z</time>
</trkpt>
<trkpt lat="45.50788" lon="13.58672">
<ele>49</ele>
<time>2011-05-01T10:03:27Z</time>
</trkpt>
<trkpt lat="45.50791" lon="13.58666">
<ele>49</ele>
<time>2011-05-01T10:03:29Z</time>
</trkpt>
<trkpt lat="45.50792" lon="13.5866">
<ele>49</ele>
<time>2011-05-01T10:03:31Z</time>
</trkpt>
<trkpt lat="45.50794" lon="13.58654">
<ele>49</ele>
<time>2011-05-01T10:03:33Z</time>
</trkpt>
<trkpt lat="45.50796" lon="13.58647">
<ele>49</ele>
<time>2011-05-01T10:03:35Z</time>
</trkpt>
<trkpt lat="45.50798" lon="13.58641">
<ele>49</ele>
<time>2011-05-01T10:03:37Z</time>
</trkpt>
<trkpt lat="45.508" lon="13.58635">
<ele>49</ele>
<time>2011-05-01T10:03:39Z</time>
</trkpt>
<trkpt lat="45.50802" lon="13.58628">
<ele>49</ele>
<time>2011-05-01T10:03:41Z</time>
</trkpt>
<trkpt lat="45.50804" lon="13.58621">
<ele>49</ele>
<time>2011-05-01T10:03:43Z</time>
</trkpt>
<trkpt lat="45.50806" lon="13.58614">
<ele>49</ele>
<time>2011-05-01T10:03:45Z</time>
</trkpt>
<trkpt lat="45.50808" lon="13.58608">
<ele>49</ele>
<time>2011-05-01T10:03:47Z</time>
</trkpt>
<trkpt lat="45.5081" lon="13.58601">
<ele>49</ele>
<time>2011-05-01T10:03:49Z</time>
</trkpt>
<trkpt lat="45.50811" lon="13.58594">
<ele>49</ele>
<time>2011-05-01T10:03:51Z</time>
</trkpt>
<trkpt lat="45.50813" lon="13.58587">
<ele>49</ele>
<time>2011-05-01T10:03:53Z</time>
</trkpt>
<trkpt lat="45.50815" lon="13.5858">
<ele>49</ele>
<time>2011-05-01T10:03:55Z</time>
</trkpt>
<trkpt lat="45.50816" lon="13.58573">
<ele>49</ele>
<time>2011-05-01T10:03:57Z</time>
</trkpt>
<trkpt lat="45.50818" lon="13.58566">
<ele>49</ele>
<time>2011-05-01T10:03:59Z</time>
</trkpt>
<trkpt lat="45.5082" lon="13.58559">
<ele>49</ele>
<time>2011-05-01T10:04:01Z</time>
</trkpt>
<trkpt lat="45.50822" lon="13.58552">
<ele>49</ele>
<time>2011-05-01T10:04:03Z</time>
</trkpt>
<trkpt lat="45.50824" lon="13.58544">
<ele>49</ele>
<time>2011-05-01T10:04:05Z</time>
</trkpt>
<trkpt lat="45.50825" lon="13.58537">
<ele>49</ele>
<time>2011-05-01T10:04:07Z</time>
</trkpt>
<trkpt lat="45.50827" lon="13.5853">
<ele>49</ele>
<time>2011-05-01T10:04:09Z</time>
</trkpt>
<trkpt lat="45.50828" lon="13.58523">
<ele>49</ele>
<time>2011-05-01T10:04:11Z</time>
</trkpt>
<trkpt lat="45.5083" lon="13.58516">
<ele>49</ele>
<time>2011-05-01T10:04:13Z</time>
</trkpt>
<trkpt lat="45.50832" lon="13.58509">
<ele>49</ele>
<time>2011-05-01T10:04:15Z</time>
</trkpt>
<trkpt lat="45.50833" lon="13.58502">
<ele>50</ele>
<time>2011-05-01T10:04:17Z</time>
</trkpt>
<trkpt lat="45.50835" lon="13.58494">
<ele>50</ele>
<time>2011-05-01T10:04:19Z</time>
</trkpt>
<trkpt lat="45.50836" lon="13.58487">
<ele>50</ele>
<time>2011-05-01T10:04:21Z</time>
</trkpt>
<trkpt lat="45.50838" lon="13.5848">
<ele>50</ele>
<time>2011-05-01T10:04:23Z</time>
</trkpt>
<trkpt lat="45.50839" lon="13.58472">
<ele>50</ele>
<time>2011-05-01T10:04:25Z</time>
</trkpt>
<trkpt lat="45.50841" lon="13.58465">
<ele>50</ele>
<time>2011-05-01T10:04:27Z</time>
</trkpt>
<trkpt lat="45.50842" lon="13.58458">
<ele>50</ele>
<time>2011-05-01T10:04:29Z</time>
</trkpt>
<trkpt lat="45.50844" lon="13.58451">
<ele>50</ele>
<time>2011-05-01T10:04:31Z</time>
</trkpt>
<trkpt lat="45.50845" lon="13.58443">
<ele>50</ele>
<time>2011-05-01T10:04:33Z</time>
</trkpt>
<trkpt lat="45.50847" lon="13.58436">
<ele>50</ele>
<time>2011-05-01T10:04:35Z</time>
</trkpt>
<trkpt lat="45.50849" lon="13.58428">
<ele>50</ele>
<time>2011-05-01T10:04:37Z</time>
</trkpt>
<trkpt lat="45.50851" lon="13.58421">
<ele>50</ele>
<time>2011-05-01T10:04:39Z</time>
</trkpt>
<trkpt lat="45.50853" lon="13.58414">
<ele>50</ele>
<time>2011-05-01T10:04:41Z</time>
</trkpt>
<trkpt lat="45.50854" lon="13.58406">
<ele>50</ele>
<time>2011-05-01T10:04:43Z</time>
</trkpt>
<trkpt lat="45.50856" lon="13.58398">
<ele>50</ele>
<time>2011-05-01T10:04:45Z</time>
</trkpt>
<trkpt lat="45.50858" lon="13.58391">
<ele>50</ele>
<time>2011-05-01T10:04:47Z</time>
</trkpt>
<trkpt lat="45.5086" lon="13.58383">
<ele>50</ele>
<time>2011-05-01T10:04:49Z</time>
</trkpt>
<trkpt lat="45.50862" lon="13.58376">
<ele>50</ele>
<time>2011-05-01T10:04:51Z</time>
</trkpt>
<trkpt lat="45.50864" lon="13.58368">
<ele>51</ele>
<time>2011-05-01T10:04:53Z</time>
</trkpt>
<trkpt lat="45.50866" lon="13.5836">
<ele>51</ele>
<time>2011-05-01T10:04:55Z</time>
</trkpt>
<trkpt lat="45.50868" lon="13.58353">
<ele>51</ele>
<time>2011-05-01T10:04:57Z</time>
</trkpt>
<trkpt lat="45.5087" lon="13.58346">
<ele>51</ele>
<time>2011-05-01T10:04:59Z</time>
</trkpt>
<trkpt lat="45.50871" lon="13.58338">
<ele>51</ele>
<time>2011-05-01T10:05:01Z</time>
</trkpt>
<trkpt lat="45.50873" lon="13.58331">
<ele>51</ele>
<time>2011-05-01T10:05:03Z</time>
</trkpt>
<trkpt lat="45.50875" lon="13.58324">
<ele>51</ele>
<time>2011-05-01T10:05:05Z</time>
</trkpt>
<trkpt lat="45.50876" lon="13.58316">
<ele>51</ele>
<time>2011-05-01T10:05:07Z</time>
</trkpt>
<trkpt lat="45.50878" lon="13.58309">
<ele>51</ele>
<time>2011-05-01T10:05:09Z</time>
</trkpt>
<trkpt lat="45.50879" lon="13.58301">
<ele>51</ele>
<time>2011-05-01T10:05:11Z</time>
</trkpt>
<trkpt lat="45.5088" lon="13.58294">
<ele>51</ele>
<time>2011-05-01T10:05:13Z</time>
</trkpt>
<trkpt lat="45.50881" lon="13.58286">
<ele>51</ele>
<time>2011-05-01T10:05:15Z</time>
</trkpt>
<trkpt lat="45.50882" lon="13.58279">
<ele>51</ele>
<time>2011-05-01T10:05:17Z</time>
</trkpt>
<trkpt lat="45.50883" lon="13.58272">
<ele>51</ele>
<time>2011-05-01T10:05:19Z</time>
</trkpt>
<trkpt lat="45.50885" lon="13.58264">
<ele>51</ele>
<time>2011-05-01T10:05:21Z</time>
</trkpt>
<trkpt lat="45.50886" lon="13.58257">
<ele>51</ele>
<time>2011-05-01T10:05:23Z</time>
</trkpt>
<trkpt lat="45.50887" lon="13.58249">
<ele>51</ele>
<time>2011-05-01T10:05:25Z</time>
</trkpt>
<trkpt lat="45.50888" lon="13.58241">
<ele>51</ele>
<time>2011-05-01T10:05:27Z</time>
</trkpt>
<trkpt lat="45.5089" lon="13.58234">
<ele>51</ele>
<time>2011-05-01T10:05:29Z</time>
</trkpt>
<trkpt lat="45.50891" lon="13.58226">
<ele>51</ele>
<time>2011-05-01T10:05:31Z</time>
</trkpt>
<trkpt lat="45.50892" lon="13.58219">
<ele>51</ele>
<time>2011-05-01T10:05:33Z</time>
</trkpt>
<trkpt lat="45.50892" lon="13.58211">
<ele>51</ele>
<time>2011-05-01T10:05:35Z</time>
</trkpt>
<trkpt lat="45.50893" lon="13.58204">
<ele>51</ele>
<time>2011-05-01T10:05:37Z</time>
</trkpt>
<trkpt lat="45.50894" lon="13.58197">
<ele>51</ele>
<time>2011-05-01T10:05:39Z</time>
</trkpt>
<trkpt lat="45.50895" lon="13.58189">
<ele>51</ele>
<time>2011-05-01T10:05:41Z</time>
</trkpt>
<trkpt lat="45.50895" lon="13.58182">
<ele>51</ele>
<time>2011-05-01T10:05:43Z</time>
</trkpt>
<trkpt lat="45.50896" lon="13.58174">
<ele>51</ele>
<time>2011-05-01T10:05:45Z</time>
</trkpt>
<trkpt lat="45.50896" lon="13.58166">
<ele>51</ele>
<time>2011-05-01T10:05:47Z</time>
</trkpt>
<trkpt lat="45.50897" lon="13.58158">
<ele>51</ele>
<time>2011-05-01T10:05:49Z</time>
</trkpt>
<trkpt lat="45.50897" lon="13.5815">
<ele>51</ele>
<time>2011-05-01T10:05:51Z</time>
</trkpt>
<trkpt lat="45.50897" lon="13.58142">
<ele>51</ele>
<time>2011-05-01T10:05:53Z</time>
</trkpt>
<trkpt lat="45.50897" lon="13.58134">
<ele>51</ele>
<time>2011-05-01T10:05:55Z</time>
</trkpt>
<trkpt lat="45.50897" lon="13.58126">
<ele>51</ele>
<time>2011-05-01T10:05:57Z</time>
</trkpt>
<trkpt lat="45.50897" lon="13.58119">
<ele>51</ele>
<time>2011-05-01T10:05:59Z</time>
</trkpt>
<trkpt lat="45.50897" lon="13.58111">
<ele>51</ele>
<time>2011-05-01T10:06:01Z</time>
</trkpt>
<trkpt lat="45.50897" lon="13.58104">
<ele>51</ele>
<time>2011-05-01T10:06:03Z</time>
</trkpt>
<trkpt lat="45.50897" lon="13.58098">
<ele>52</ele>
<time>2011-05-01T10:06:05Z</time>
</trkpt>
<trkpt lat="45.50897" lon="13.58089">
<ele>52</ele>
<time>2011-05-01T10:06:08Z</time>
</trkpt>
<trkpt lat="45.50896" lon="13.5808">
<ele>52</ele>
<time>2011-05-01T10:06:11Z</time>
</trkpt>
<trkpt lat="45.50896" lon="13.58073">
<ele>52</ele>
<time>2011-05-01T10:06:14Z</time>
</trkpt>
<trkpt lat="45.50895" lon="13.58066">
<ele>52</ele>
<time>2011-05-01T10:06:17Z</time>
</trkpt>
<trkpt lat="45.50895" lon="13.58057">
<ele>52</ele>
<time>2011-05-01T10:06:21Z</time>
</trkpt>
<trkpt lat="45.50895" lon="13.58049">
<ele>52</ele>
<time>2011-05-01T10:06:25Z</time>
</trkpt>
<trkpt lat="45.50895" lon="13.58041">
<ele>52</ele>
<time>2011-05-01T10:06:29Z</time>
</trkpt>
<trkpt lat="45.50895" lon="13.58034">
<ele>52</ele>
<time>2011-05-01T10:06:33Z</time>
</trkpt>
<trkpt lat="45.50895" lon="13.58027">
<ele>52</ele>
<time>2011-05-01T10:06:37Z</time>
</trkpt>
<trkpt lat="45.50896" lon="13.5802">
<ele>52</ele>
<time>2011-05-01T10:06:42Z</time>
</trkpt>
<trkpt lat="45.50896" lon="13.58012">
<ele>52</ele>
<time>2011-05-01T10:06:48Z</time>
</trkpt>
<trkpt lat="45.50896" lon="13.58006">
<ele>52</ele>
<time>2011-05-01T10:06:53Z</time>
</trkpt>
<trkpt lat="45.50896" lon="13.58">
<ele>52</ele>
<time>2011-05-01T10:06:59Z</time>
</trkpt>
<trkpt lat="45.50896" lon="13.57993">
<ele>52</ele>
<time>2011-05-01T10:07:06Z</time>
</trkpt>
<trkpt lat="45.50896" lon="13.57986">
<ele>52</ele>
<time>2011-05-01T10:07:14Z</time>
</trkpt>
<trkpt lat="45.50896" lon="13.57979">
<ele>52</ele>
<time>2011-05-01T10:07:24Z</time>
</trkpt>
<trkpt lat="45.50897" lon="13.57972">
<ele>52</ele>
<time>2011-05-01T10:07:35Z</time>
</trkpt>
<trkpt lat="45.50897" lon="13.57966">
<ele>52</ele>
<time>2011-05-01T10:07:55Z</time>
</trkpt>
<trkpt lat="45.50896" lon="13.57972">
<ele>52</ele>
<time>2011-05-01T10:08:18Z</time>
</trkpt>
<trkpt lat="45.50896" lon="13.57979">
<ele>53</ele>
<time>2011-05-01T10:08:25Z</time>
</trkpt>
<trkpt lat="45.50897" lon="13.57985">
<ele>53</ele>
<time>2011-05-01T10:08:32Z</time>
</trkpt>
<trkpt lat="45.50898" lon="13.57992">
<ele>53</ele>
<time>2011-05-01T10:08:39Z</time>
</trkpt>
<trkpt lat="45.509" lon="13.57998">
<ele>53</ele>
<time>2011-05-01T10:08:47Z</time>
</trkpt>
<trkpt lat="45.50896" lon="13.57994">
<ele>53</ele>
<time>2011-05-01T10:09:06Z</time>
</trkpt>
<trkpt lat="45.50896" lon="13.57987">
<ele>53</ele>
<time>2011-05-01T10:09:10Z</time>
</trkpt>
<trkpt lat="45.50897" lon="13.5798">
<ele>53</ele>
<time>2011-05-01T10:09:14Z</time>
</trkpt>
<trkpt lat="45.50899" lon="13.57973">
<ele>53</ele>
<time>2011-05-01T10:09:18Z</time>
</trkpt>
<trkpt lat="45.509" lon="13.57966">
<ele>53</ele>
<time>2011-05-01T10:09:22Z</time>
</trkpt>
<trkpt lat="45.50901" lon="13.57959">
<ele>53</ele>
<time>2011-05-01T10:09:26Z</time>
</trkpt>
<trkpt lat="45.50903" lon="13.57951">
<ele>53</ele>
<time>2011-05-01T10:09:30Z</time>
</trkpt>
<trkpt lat="45.50904" lon="13.57944">
<ele>53</ele>
<time>2011-05-01T10:09:33Z</time>
</trkpt>
<trkpt lat="45.50906" lon="13.57938">
<ele>53</ele>
<time>2011-05-01T10:09:36Z</time>
</trkpt>
<trkpt lat="45.50907" lon="13.57932">
<ele>53</ele>
<time>2011-05-01T10:09:39Z</time>
</trkpt>
<trkpt lat="45.50909" lon="13.57926">
<ele>53</ele>
<time>2011-05-01T10:09:42Z</time>
</trkpt>
<trkpt lat="45.50911" lon="13.57919">
<ele>53</ele>
<time>2011-05-01T10:09:45Z</time>
</trkpt>
<trkpt lat="45.50913" lon="13.57913">
<ele>53</ele>
<time>2011-05-01T10:09:48Z</time>
</trkpt>
<trkpt lat="45.50915" lon="13.57907">
<ele>53</ele>
<time>2011-05-01T10:09:51Z</time>
</trkpt>
<trkpt lat="45.50918" lon="13.57901">
<ele>53</ele>
<time>2011-05-01T10:09:54Z</time>
</trkpt>
<trkpt lat="45.5092" lon="13.57896">
<ele>53</ele>
<time>2011-05-01T10:09:57Z</time>
</trkpt>
<trkpt lat="45.50922" lon="13.5789">
<ele>53</ele>
<time>2011-05-01T10:10:00Z</time>
</trkpt>
<trkpt lat="45.50925" lon="13.57884">
<ele>53</ele>
<time>2011-05-01T10:10:03Z</time>
</trkpt>
<trkpt lat="45.50928" lon="13.57877">
<ele>53</ele>
<time>2011-05-01T10:10:06Z</time>
</trkpt>
<trkpt lat="45.5093" lon="13.5787">
<ele>53</ele>
<time>2011-05-01T10:10:09Z</time>
</trkpt>
<trkpt lat="45.50933" lon="13.57864">
<ele>53</ele>
<time>2011-05-01T10:10:12Z</time>
</trkpt>
<trkpt lat="45.50935" lon="13.57857">
<ele>53</ele>
<time>2011-05-01T10:10:15Z</time>
</trkpt>
<trkpt lat="45.50937" lon="13.5785">
<ele>53</ele>
<time>2011-05-01T10:10:18Z</time>
</trkpt>
<trkpt lat="45.50939" lon="13.57843">
<ele>53</ele>
<time>2011-05-01T10:10:21Z</time>
</trkpt>
<trkpt lat="45.5094" lon="13.57836">
<ele>53</ele>
<time>2011-05-01T10:10:24Z</time>
</trkpt>
<trkpt lat="45.50941" lon="13.57829">
<ele>53</ele>
<time>2011-05-01T10:10:27Z</time>
</trkpt>
<trkpt lat="45.50943" lon="13.57822">
<ele>53</ele>
<time>2011-05-01T10:10:30Z</time>
</trkpt>
<trkpt lat="45.50944" lon="13.57815">
<ele>53</ele>
<time>2011-05-01T10:10:33Z</time>
</trkpt>
<trkpt lat="45.50945" lon="13.57808">
<ele>53</ele>
<time>2011-05-01T10:10:36Z</time>
</trkpt>
<trkpt lat="45.50947" lon="13.57801">
<ele>53</ele>
<time>2011-05-01T10:10:39Z</time>
</trkpt>
<trkpt lat="45.50948" lon="13.57794">
<ele>53</ele>
<time>2011-05-01T10:10:42Z</time>
</trkpt>
<trkpt lat="45.5095" lon="13.57786">
<ele>53</ele>
<time>2011-05-01T10:10:45Z</time>
</trkpt>
<trkpt lat="45.50951" lon="13.57779">
<ele>53</ele>
<time>2011-05-01T10:10:48Z</time>
</trkpt>
<trkpt lat="45.50953" lon="13.57772">
<ele>52</ele>
<time>2011-05-01T10:10:51Z</time>
</trkpt>
<trkpt lat="45.50954" lon="13.57765">
<ele>52</ele>
<time>2011-05-01T10:10:54Z</time>
</trkpt>
<trkpt lat="45.50956" lon="13.57758">
<ele>52</ele>
<time>2011-05-01T10:10:57Z</time>
</trkpt>
<trkpt lat="45.50957" lon="13.57751">
<ele>52</ele>
<time>2011-05-01T10:11:00Z</time>
</trkpt>
<trkpt lat="45.50959" lon="13.57744">
<ele>52</ele>
<time>2011-05-01T10:11:03Z</time>
</trkpt>
<trkpt lat="45.5096" lon="13.57737">
<ele>52</ele>
<time>2011-05-01T10:11:06Z</time>
</trkpt>
<trkpt lat="45.50962" lon="13.5773">
<ele>52</ele>
<time>2011-05-01T10:11:09Z</time>
</trkpt>
<trkpt lat="45.50963" lon="13.57722">
<ele>52</ele>
<time>2011-05-01T10:11:12Z</time>
</trkpt>
<trkpt lat="45.50965" lon="13.57715">
<ele>52</ele>
<time>2011-05-01T10:11:15Z</time>
</trkpt>
<trkpt lat="45.50966" lon="13.57707">
<ele>52</ele>
<time>2011-05-01T10:11:18Z</time>
</trkpt>
<trkpt lat="45.50968" lon="13.577">
<ele>52</ele>
<time>2011-05-01T10:11:21Z</time>
</trkpt>
<trkpt lat="45.50969" lon="13.57693">
<ele>52</ele>
<time>2011-05-01T10:11:24Z</time>
</trkpt>
<trkpt lat="45.50971" lon="13.57686">
<ele>52</ele>
<time>2011-05-01T10:11:27Z</time>
</trkpt>
<trkpt lat="45.50972" lon="13.57679">
<ele>52</ele>
<time>2011-05-01T10:11:30Z</time>
</trkpt>
<trkpt lat="45.50975" lon="13.57672">
<ele>52</ele>
<time>2011-05-01T10:11:33Z</time>
</trkpt>
<trkpt lat="45.50977" lon="13.57666">
<ele>52</ele>
<time>2011-05-01T10:11:36Z</time>
</trkpt>
<trkpt lat="45.5098" lon="13.5766">
<ele>52</ele>
<time>2011-05-01T10:11:39Z</time>
</trkpt>
<trkpt lat="45.50982" lon="13.57653">
<ele>52</ele>
<time>2011-05-01T10:11:42Z</time>
</trkpt>
<trkpt lat="45.50985" lon="13.57646">
<ele>52</ele>
<time>2011-05-01T10:11:45Z</time>
</trkpt>
<trkpt lat="45.50988" lon="13.57638">
<ele>52</ele>
<time>2011-05-01T10:11:48Z</time>
</trkpt>
<trkpt lat="45.50991" lon="13.57632">
<ele>52</ele>
<time>2011-05-01T10:11:50Z</time>
</trkpt>
<trkpt lat="45.50994" lon="13.57626">
<ele>52</ele>
<time>2011-05-01T10:11:52Z</time>
</trkpt>
<trkpt lat="45.50996" lon="13.5762">
<ele>52</ele>
<time>2011-05-01T10:11:54Z</time>
</trkpt>
<trkpt lat="45.50999" lon="13.57614">
<ele>52</ele>
<time>2011-05-01T10:11:56Z</time>
</trkpt>
<trkpt lat="45.51001" lon="13.57608">
<ele>52</ele>
<time>2011-05-01T10:11:58Z</time>
</trkpt>
<trkpt lat="45.51004" lon="13.57602">
<ele>52</ele>
<time>2011-05-01T10:12:00Z</time>
</trkpt>
<trkpt lat="45.51006" lon="13.57596">
<ele>52</ele>
<time>2011-05-01T10:12:02Z</time>
</trkpt>
<trkpt lat="45.51009" lon="13.57589">
<ele>52</ele>
<time>2011-05-01T10:12:04Z</time>
</trkpt>
<trkpt lat="45.51012" lon="13.57582">
<ele>51</ele>
<time>2011-05-01T10:12:06Z</time>
</trkpt>
<trkpt lat="45.51015" lon="13.57576">
<ele>51</ele>
<time>2011-05-01T10:12:08Z</time>
</trkpt>
<trkpt lat="45.51017" lon="13.57569">
<ele>51</ele>
<time>2011-05-01T10:12:10Z</time>
</trkpt>
<trkpt lat="45.5102" lon="13.57563">
<ele>51</ele>
<time>2011-05-01T10:12:12Z</time>
</trkpt>
<trkpt lat="45.51023" lon="13.57557">
<ele>51</ele>
<time>2011-05-01T10:12:14Z</time>
</trkpt>
<trkpt lat="45.51026" lon="13.5755">
<ele>51</ele>
<time>2011-05-01T10:12:16Z</time>
</trkpt>
<trkpt lat="45.51028" lon="13.57544">
<ele>51</ele>
<time>2011-05-01T10:12:18Z</time>
</trkpt>
<trkpt lat="45.51031" lon="13.57538">
<ele>51</ele>
<time>2011-05-01T10:12:20Z</time>
</trkpt>
<trkpt lat="45.51034" lon="13.57532">
<ele>51</ele>
<time>2011-05-01T10:12:22Z</time>
</trkpt>
<trkpt lat="45.51037" lon="13.57526">
<ele>51</ele>
<time>2011-05-01T10:12:24Z</time>
</trkpt>
<trkpt lat="45.5104" lon="13.5752">
<ele>51</ele>
<time>2011-05-01T10:12:26Z</time>
</trkpt>
<trkpt lat="45.51043" lon="13.57513">
<ele>51</ele>
<time>2011-05-01T10:12:28Z</time>
</trkpt>
<trkpt lat="45.51046" lon="13.57507">
<ele>51</ele>
<time>2011-05-01T10:12:30Z</time>
</trkpt>
<trkpt lat="45.5105" lon="13.57501">
<ele>51</ele>
<time>2011-05-01T10:12:32Z</time>
</trkpt>
<trkpt lat="45.51053" lon="13.57495">
<ele>51</ele>
<time>2011-05-01T10:12:34Z</time>
</trkpt>
<trkpt lat="45.51056" lon="13.57489">
<ele>51</ele>
<time>2011-05-01T10:12:36Z</time>
</trkpt>
<trkpt lat="45.51059" lon="13.57483">
<ele>51</ele>
<time>2011-05-01T10:12:38Z</time>
</trkpt>
<trkpt lat="45.51062" lon="13.57477">
<ele>51</ele>
<time>2011-05-01T10:12:40Z</time>
</trkpt>
<trkpt lat="45.51065" lon="13.57471">
<ele>51</ele>
<time>2011-05-01T10:12:42Z</time>
</trkpt>
<trkpt lat="45.51068" lon="13.57465">
<ele>51</ele>
<time>2011-05-01T10:12:44Z</time>
</trkpt>
<trkpt lat="45.51071" lon="13.57459">
<ele>51</ele>
<time>2011-05-01T10:12:46Z</time>
</trkpt>
<trkpt lat="45.51074" lon="13.57453">
<ele>51</ele>
<time>2011-05-01T10:12:48Z</time>
</trkpt>
<trkpt lat="45.51078" lon="13.57447">
<ele>51</ele>
<time>2011-05-01T10:12:50Z</time>
</trkpt>
<trkpt lat="45.5108" lon="13.57441">
<ele>51</ele>
<time>2011-05-01T10:12:52Z</time>
</trkpt>
<trkpt lat="45.51084" lon="13.57435">
<ele>51</ele>
<time>2011-05-01T10:12:54Z</time>
</trkpt>
<trkpt lat="45.51087" lon="13.57429">
<ele>51</ele>
<time>2011-05-01T10:12:56Z</time>
</trkpt>
<trkpt lat="45.51091" lon="13.57422">
<ele>51</ele>
<time>2011-05-01T10:12:58Z</time>
</trkpt>
<trkpt lat="45.51094" lon="13.57416">
<ele>51</ele>
<time>2011-05-01T10:13:00Z</time>
</trkpt>
<trkpt lat="45.51097" lon="13.57409">
<ele>51</ele>
<time>2011-05-01T10:13:02Z</time>
</trkpt>
<trkpt lat="45.51101" lon="13.57402">
<ele>51</ele>
<time>2011-05-01T10:13:04Z</time>
</trkpt>
<trkpt lat="45.51104" lon="13.57396">
<ele>51</ele>
<time>2011-05-01T10:13:06Z</time>
</trkpt>
<trkpt lat="45.51107" lon="13.5739">
<ele>51</ele>
<time>2011-05-01T10:13:08Z</time>
</trkpt>
<trkpt lat="45.51111" lon="13.57383">
<ele>51</ele>
<time>2011-05-01T10:13:10Z</time>
</trkpt>
<trkpt lat="45.51114" lon="13.57376">
<ele>51</ele>
<time>2011-05-01T10:13:12Z</time>
</trkpt>
<trkpt lat="45.51118" lon="13.57369">
<ele>51</ele>
<time>2011-05-01T10:13:14Z</time>
</trkpt>
<trkpt lat="45.51121" lon="13.57362">
<ele>51</ele>
<time>2011-05-01T10:13:16Z</time>
</trkpt>
<trkpt lat="45.51125" lon="13.57356">
<ele>51</ele>
<time>2011-05-01T10:13:18Z</time>
</trkpt>
<trkpt lat="45.51128" lon="13.57349">
<ele>51</ele>
<time>2011-05-01T10:13:20Z</time>
</trkpt>
<trkpt lat="45.51132" lon="13.57342">
<ele>51</ele>
<time>2011-05-01T10:13:22Z</time>
</trkpt>
<trkpt lat="45.51135" lon="13.57335">
<ele>51</ele>
<time>2011-05-01T10:13:24Z</time>
</trkpt>
<trkpt lat="45.51138" lon="13.57328">
<ele>51</ele>
<time>2011-05-01T10:13:26Z</time>
</trkpt>
<trkpt lat="45.51141" lon="13.57321">
<ele>51</ele>
<time>2011-05-01T10:13:28Z</time>
</trkpt>
<trkpt lat="45.51145" lon="13.57314">
<ele>51</ele>
<time>2011-05-01T10:13:30Z</time>
</trkpt>
<trkpt lat="45.51148" lon="13.57307">
<ele>51</ele>
<time>2011-05-01T10:13:32Z</time>
</trkpt>
<trkpt lat="45.51151" lon="13.573">
<ele>51</ele>
<time>2011-05-01T10:13:34Z</time>
</trkpt>
<trkpt lat="45.51154" lon="13.57293">
<ele>51</ele>
<time>2011-05-01T10:13:36Z</time>
</trkpt>
<trkpt lat="45.51157" lon="13.57285">
<ele>51</ele>
<time>2011-05-01T10:13:38Z</time>
</trkpt>
<trkpt lat="45.5116" lon="13.57278">
<ele>51</ele>
<time>2011-05-01T10:13:40Z</time>
</trkpt>
<trkpt lat="45.51162" lon="13.57271">
<ele>51</ele>
<time>2011-05-01T10:13:42Z</time>
</trkpt>
<trkpt lat="45.51165" lon="13.57264">
<ele>50</ele>
<time>2011-05-01T10:13:44Z</time>
</trkpt>
<trkpt lat="45.51168" lon="13.57257">
<ele>50</ele>
<time>2011-05-01T10:13:46Z</time>
</trkpt>
<trkpt lat="45.51171" lon="13.5725">
<ele>50</ele>
<time>2011-05-01T10:13:48Z</time>
</trkpt>
<trkpt lat="45.51174" lon="13.57243">
<ele>50</ele>
<time>2011-05-01T10:13:50Z</time>
</trkpt>
<trkpt lat="45.51177" lon="13.57237">
<ele>50</ele>
<time>2011-05-01T10:13:52Z</time>
</trkpt>
<trkpt lat="45.51179" lon="13.5723">
<ele>50</ele>
<time>2011-05-01T10:13:54Z</time>
</trkpt>
<trkpt lat="45.51182" lon="13.57223">
<ele>50</ele>
<time>2011-05-01T10:13:56Z</time>
</trkpt>
<trkpt lat="45.51185" lon="13.57216">
<ele>50</ele>
<time>2011-05-01T10:13:58Z</time>
</trkpt>
<trkpt lat="45.51188" lon="13.57209">
<ele>50</ele>
<time>2011-05-01T10:14:00Z</time>
</trkpt>
<trkpt lat="45.51191" lon="13.57203">
<ele>49</ele>
<time>2011-05-01T10:14:02Z</time>
</trkpt>
<trkpt lat="45.51194" lon="13.57196">
<ele>49</ele>
<time>2011-05-01T10:14:04Z</time>
</trkpt>
<trkpt lat="45.51197" lon="13.5719">
<ele>49</ele>
<time>2011-05-01T10:14:06Z</time>
</trkpt>
<trkpt lat="45.512" lon="13.57183">
<ele>49</ele>
<time>2011-05-01T10:14:08Z</time>
</trkpt>
<trkpt lat="45.51202" lon="13.57176">
<ele>49</ele>
<time>2011-05-01T10:14:10Z</time>
</trkpt>
<trkpt lat="45.51205" lon="13.5717">
<ele>49</ele>
<time>2011-05-01T10:14:12Z</time>
</trkpt>
<trkpt lat="45.51208" lon="13.57163">
<ele>49</ele>
<time>2011-05-01T10:14:14Z</time>
</trkpt>
<trkpt lat="45.51211" lon="13.57156">
<ele>49</ele>
<time>2011-05-01T10:14:16Z</time>
</trkpt>
<trkpt lat="45.51215" lon="13.5715">
<ele>49</ele>
<time>2011-05-01T10:14:18Z</time>
</trkpt>
<trkpt lat="45.51218" lon="13.57144">
<ele>49</ele>
<time>2011-05-01T10:14:20Z</time>
</trkpt>
<trkpt lat="45.51221" lon="13.57137">
<ele>49</ele>
<time>2011-05-01T10:14:22Z</time>
</trkpt>
<trkpt lat="45.51224" lon="13.5713">
<ele>49</ele>
<time>2011-05-01T10:14:24Z</time>
</trkpt>
<trkpt lat="45.51227" lon="13.57123">
<ele>49</ele>
<time>2011-05-01T10:14:26Z</time>
</trkpt>
<trkpt lat="45.5123" lon="13.57117">
<ele>48</ele>
<time>2011-05-01T10:14:28Z</time>
</trkpt>
<trkpt lat="45.51233" lon="13.5711">
<ele>48</ele>
<time>2011-05-01T10:14:30Z</time>
</trkpt>
<trkpt lat="45.51237" lon="13.57104">
<ele>48</ele>
<time>2011-05-01T10:14:32Z</time>
</trkpt>
<trkpt lat="45.5124" lon="13.57098">
<ele>48</ele>
<time>2011-05-01T10:14:34Z</time>
</trkpt>
<trkpt lat="45.51244" lon="13.57092">
<ele>48</ele>
<time>2011-05-01T10:14:36Z</time>
</trkpt>
<trkpt lat="45.51247" lon="13.57086">
<ele>48</ele>
<time>2011-05-01T10:14:38Z</time>
</trkpt>
<trkpt lat="45.51251" lon="13.5708">
<ele>48</ele>
<time>2011-05-01T10:14:40Z</time>
</trkpt>
<trkpt lat="45.51254" lon="13.57074">
<ele>48</ele>
<time>2011-05-01T10:14:42Z</time>
</trkpt>
<trkpt lat="45.51257" lon="13.57068">
<ele>48</ele>
<time>2011-05-01T10:14:44Z</time>
</trkpt>
<trkpt lat="45.51261" lon="13.57063">
<ele>48</ele>
<time>2011-05-01T10:14:46Z</time>
</trkpt>
<trkpt lat="45.51264" lon="13.57057">
<ele>48</ele>
<time>2011-05-01T10:14:48Z</time>
</trkpt>
<trkpt lat="45.51267" lon="13.57052">
<ele>48</ele>
<time>2011-05-01T10:14:50Z</time>
</trkpt>
<trkpt lat="45.5127" lon="13.57046">
<ele>48</ele>
<time>2011-05-01T10:14:52Z</time>
</trkpt>
<trkpt lat="45.51274" lon="13.5704">
<ele>48</ele>
<time>2011-05-01T10:14:54Z</time>
</trkpt>
<trkpt lat="45.51277" lon="13.57035">
<ele>48</ele>
<time>2011-05-01T10:14:56Z</time>
</trkpt>
<trkpt lat="45.51281" lon="13.57029">
<ele>48</ele>
<time>2011-05-01T10:14:58Z</time>
</trkpt>
<trkpt lat="45.51285" lon="13.57023">
<ele>48</ele>
<time>2011-05-01T10:15:00Z</time>
</trkpt>
<trkpt lat="45.51289" lon="13.57017">
<ele>48</ele>
<time>2011-05-01T10:15:02Z</time>
</trkpt>
<trkpt lat="45.51293" lon="13.57012">
<ele>48</ele>
<time>2011-05-01T10:15:04Z</time>
</trkpt>
<trkpt lat="45.51297" lon="13.57006">
<ele>48</ele>
<time>2011-05-01T10:15:06Z</time>
</trkpt>
<trkpt lat="45.51302" lon="13.57">
<ele>48</ele>
<time>2011-05-01T10:15:08Z</time>
</trkpt>
<trkpt lat="45.51306" lon="13.56993">
<ele>48</ele>
<time>2011-05-01T10:15:10Z</time>
</trkpt>
<trkpt lat="45.5131" lon="13.56987">
<ele>48</ele>
<time>2011-05-01T10:15:12Z</time>
</trkpt>
<trkpt lat="45.51314" lon="13.56981">
<ele>48</ele>
<time>2011-05-01T10:15:14Z</time>
</trkpt>
<trkpt lat="45.51318" lon="13.56975">
<ele>48</ele>
<time>2011-05-01T10:15:16Z</time>
</trkpt>
<trkpt lat="45.51323" lon="13.56969">
<ele>48</ele>
<time>2011-05-01T10:15:18Z</time>
</trkpt>
<trkpt lat="45.51327" lon="13.56963">
<ele>48</ele>
<time>2011-05-01T10:15:20Z</time>
</trkpt>
<trkpt lat="45.5133" lon="13.56958">
<ele>48</ele>
<time>2011-05-01T10:15:22Z</time>
</trkpt>
<trkpt lat="45.51334" lon="13.56952">
<ele>48</ele>
<time>2011-05-01T10:15:24Z</time>
</trkpt>
<trkpt lat="45.51338" lon="13.56947">
<ele>48</ele>
<time>2011-05-01T10:15:26Z</time>
</trkpt>
<trkpt lat="45.51341" lon="13.56941">
<ele>48</ele>
<time>2011-05-01T10:15:28Z</time>
</trkpt>
<trkpt lat="45.51345" lon="13.56936">
<ele>48</ele>
<time>2011-05-01T10:15:30Z</time>
</trkpt>
<trkpt lat="45.51349" lon="13.5693">
<ele>48</ele>
<time>2011-05-01T10:15:32Z</time>
</trkpt>
<trkpt lat="45.51353" lon="13.56925">
<ele>48</ele>
<time>2011-05-01T10:15:34Z</time>
</trkpt>
<trkpt lat="45.51357" lon="13.56919">
<ele>48</ele>
<time>2011-05-01T10:15:36Z</time>
</trkpt>
<trkpt lat="45.51361" lon="13.56913">
<ele>48</ele>
<time>2011-05-01T10:15:38Z</time>
</trkpt>
<trkpt lat="45.51365" lon="13.56908">
<ele>48</ele>
<time>2011-05-01T10:15:40Z</time>
</trkpt>
<trkpt lat="45.5137" lon="13.56902">
<ele>49</ele>
<time>2011-05-01T10:15:42Z</time>
</trkpt>
<trkpt lat="45.51374" lon="13.56896">
<ele>49</ele>
<time>2011-05-01T10:15:44Z</time>
</trkpt>
<trkpt lat="45.51379" lon="13.56891">
<ele>49</ele>
<time>2011-05-01T10:15:46Z</time>
</trkpt>
<trkpt lat="45.51383" lon="13.56886">
<ele>49</ele>
<time>2011-05-01T10:15:48Z</time>
</trkpt>
<trkpt lat="45.51388" lon="13.5688">
<ele>49</ele>
<time>2011-05-01T10:15:50Z</time>
</trkpt>
<trkpt lat="45.51392" lon="13.56875">
<ele>49</ele>
<time>2011-05-01T10:15:52Z</time>
</trkpt>
<trkpt lat="45.51396" lon="13.5687">
<ele>49</ele>
<time>2011-05-01T10:15:54Z</time>
</trkpt>
<trkpt lat="45.514" lon="13.56865">
<ele>49</ele>
<time>2011-05-01T10:15:56Z</time>
</trkpt>
<trkpt lat="45.51404" lon="13.56861">
<ele>49</ele>
<time>2011-05-01T10:15:58Z</time>
</trkpt>
<trkpt lat="45.51408" lon="13.56856">
<ele>49</ele>
<time>2011-05-01T10:16:00Z</time>
</trkpt>
<trkpt lat="45.51413" lon="13.56852">
<ele>49</ele>
<time>2011-05-01T10:16:02Z</time>
</trkpt>
<trkpt lat="45.51417" lon="13.56847">
<ele>49</ele>
<time>2011-05-01T10:16:04Z</time>
</trkpt>
<trkpt lat="45.51422" lon="13.56843">
<ele>49</ele>
<time>2011-05-01T10:16:06Z</time>
</trkpt>
<trkpt lat="45.51426" lon="13.56839">
<ele>49</ele>
<time>2011-05-01T10:16:08Z</time>
</trkpt>
<trkpt lat="45.51431" lon="13.56835">
<ele>49</ele>
<time>2011-05-01T10:16:10Z</time>
</trkpt>
<trkpt lat="45.51436" lon="13.56831">
<ele>50</ele>
<time>2011-05-01T10:16:12Z</time>
</trkpt>
<trkpt lat="45.51441" lon="13.56827">
<ele>50</ele>
<time>2011-05-01T10:16:14Z</time>
</trkpt>
<trkpt lat="45.51446" lon="13.56823">
<ele>50</ele>
<time>2011-05-01T10:16:16Z</time>
</trkpt>
<trkpt lat="45.51451" lon="13.56819">
<ele>50</ele>
<time>2011-05-01T10:16:18Z</time>
</trkpt>
<trkpt lat="45.51456" lon="13.56815">
<ele>50</ele>
<time>2011-05-01T10:16:20Z</time>
</trkpt>
<trkpt lat="45.51461" lon="13.56811">
<ele>50</ele>
<time>2011-05-01T10:16:22Z</time>
</trkpt>
<trkpt lat="45.51466" lon="13.56807">
<ele>50</ele>
<time>2011-05-01T10:16:24Z</time>
</trkpt>
<trkpt lat="45.51471" lon="13.56803">
<ele>50</ele>
<time>2011-05-01T10:16:26Z</time>
</trkpt>
<trkpt lat="45.51476" lon="13.568">
<ele>50</ele>
<time>2011-05-01T10:16:28Z</time>
</trkpt>
<trkpt lat="45.51481" lon="13.56796">
<ele>50</ele>
<time>2011-05-01T10:16:30Z</time>
</trkpt>
<trkpt lat="45.51486" lon="13.56792">
<ele>50</ele>
<time>2011-05-01T10:16:32Z</time>
</trkpt>
<trkpt lat="45.51491" lon="13.56789">
<ele>50</ele>
<time>2011-05-01T10:16:34Z</time>
</trkpt>
<trkpt lat="45.51496" lon="13.56786">
<ele>50</ele>
<time>2011-05-01T10:16:36Z</time>
</trkpt>
<trkpt lat="45.51501" lon="13.56783">
<ele>50</ele>
<time>2011-05-01T10:16:38Z</time>
</trkpt>
<trkpt lat="45.51506" lon="13.56781">
<ele>50</ele>
<time>2011-05-01T10:16:40Z</time>
</trkpt>
<trkpt lat="45.51511" lon="13.56778">
<ele>51</ele>
<time>2011-05-01T10:16:42Z</time>
</trkpt>
<trkpt lat="45.51516" lon="13.56774">
<ele>51</ele>
<time>2011-05-01T10:16:44Z</time>
</trkpt>
<trkpt lat="45.51521" lon="13.56772">
<ele>51</ele>
<time>2011-05-01T10:16:46Z</time>
</trkpt>
<trkpt lat="45.51527" lon="13.56769">
<ele>51</ele>
<time>2011-05-01T10:16:48Z</time>
</trkpt>
<trkpt lat="45.51532" lon="13.56767">
<ele>51</ele>
<time>2011-05-01T10:16:50Z</time>
</trkpt>
<trkpt lat="45.51537" lon="13.56765">
<ele>51</ele>
<time>2011-05-01T10:16:52Z</time>
</trkpt>
<trkpt lat="45.51543" lon="13.56763">
<ele>51</ele>
<time>2011-05-01T10:16:54Z</time>
</trkpt>
<trkpt lat="45.51548" lon="13.56761">
<ele>51</ele>
<time>2011-05-01T10:16:56Z</time>
</trkpt>
<trkpt lat="45.51553" lon="13.56759">
<ele>51</ele>
<time>2011-05-01T10:16:58Z</time>
</trkpt>
<trkpt lat="45.51559" lon="13.56756">
<ele>51</ele>
<time>2011-05-01T10:17:00Z</time>
</trkpt>
<trkpt lat="45.51564" lon="13.56754">
<ele>51</ele>
<time>2011-05-01T10:17:02Z</time>
</trkpt>
<trkpt lat="45.5157" lon="13.56752">
<ele>51</ele>
<time>2011-05-01T10:17:04Z</time>
</trkpt>
<trkpt lat="45.51576" lon="13.56749">
<ele>51</ele>
<time>2011-05-01T10:17:06Z</time>
</trkpt>
<trkpt lat="45.51581" lon="13.56747">
<ele>51</ele>
<time>2011-05-01T10:17:08Z</time>
</trkpt>
<trkpt lat="45.51586" lon="13.56745">
<ele>51</ele>
<time>2011-05-01T10:17:10Z</time>
</trkpt>
<trkpt lat="45.51592" lon="13.56743">
<ele>51</ele>
<time>2011-05-01T10:17:12Z</time>
</trkpt>
<trkpt lat="45.51597" lon="13.56741">
<ele>51</ele>
<time>2011-05-01T10:17:14Z</time>
</trkpt>
<trkpt lat="45.51603" lon="13.56739">
<ele>51</ele>
<time>2011-05-01T10:17:16Z</time>
</trkpt>
<trkpt lat="45.51608" lon="13.56737">
<ele>51</ele>
<time>2011-05-01T10:17:18Z</time>
</trkpt>
<trkpt lat="45.51613" lon="13.56735">
<ele>51</ele>
<time>2011-05-01T10:17:20Z</time>
</trkpt>
<trkpt lat="45.51618" lon="13.56732">
<ele>51</ele>
<time>2011-05-01T10:17:22Z</time>
</trkpt>
<trkpt lat="45.51624" lon="13.5673">
<ele>51</ele>
<time>2011-05-01T10:17:24Z</time>
</trkpt>
<trkpt lat="45.51629" lon="13.56728">
<ele>51</ele>
<time>2011-05-01T10:17:26Z</time>
</trkpt>
<trkpt lat="45.51634" lon="13.56726">
<ele>51</ele>
<time>2011-05-01T10:17:28Z</time>
</trkpt>
<trkpt lat="45.51639" lon="13.56724">
<ele>51</ele>
<time>2011-05-01T10:17:30Z</time>
</trkpt>
<trkpt lat="45.51644" lon="13.56722">
<ele>51</ele>
<time>2011-05-01T10:17:32Z</time>
</trkpt>
<trkpt lat="45.51649" lon="13.5672">
<ele>51</ele>
<time>2011-05-01T10:17:34Z</time>
</trkpt>
<trkpt lat="45.51654" lon="13.56718">
<ele>51</ele>
<time>2011-05-01T10:17:36Z</time>
</trkpt>
<trkpt lat="45.51659" lon="13.56715">
<ele>52</ele>
<time>2011-05-01T10:17:38Z</time>
</trkpt>
<trkpt lat="45.51664" lon="13.56713">
<ele>52</ele>
<time>2011-05-01T10:17:40Z</time>
</trkpt>
<trkpt lat="45.5167" lon="13.56711">
<ele>52</ele>
<time>2011-05-01T10:17:42Z</time>
</trkpt>
<trkpt lat="45.51675" lon="13.56708">
<ele>52</ele>
<time>2011-05-01T10:17:44Z</time>
</trkpt>
<trkpt lat="45.5168" lon="13.56706">
<ele>52</ele>
<time>2011-05-01T10:17:46Z</time>
</trkpt>
<trkpt lat="45.51685" lon="13.56704">
<ele>52</ele>
<time>2011-05-01T10:17:48Z</time>
</trkpt>
<trkpt lat="45.5169" lon="13.56702">
<ele>52</ele>
<time>2011-05-01T10:17:50Z</time>
</trkpt>
<trkpt lat="45.51695" lon="13.56699">
<ele>52</ele>
<time>2011-05-01T10:17:52Z</time>
</trkpt>
<trkpt lat="45.517" lon="13.56697">
<ele>52</ele>
<time>2011-05-01T10:17:54Z</time>
</trkpt>
<trkpt lat="45.51705" lon="13.56694">
<ele>52</ele>
<time>2011-05-01T10:17:56Z</time>
</trkpt>
<trkpt lat="45.5171" lon="13.56692">
<ele>52</ele>
<time>2011-05-01T10:17:58Z</time>
</trkpt>
<trkpt lat="45.51715" lon="13.5669">
<ele>52</ele>
<time>2011-05-01T10:18:00Z</time>
</trkpt>
<trkpt lat="45.5172" lon="13.56687">
<ele>52</ele>
<time>2011-05-01T10:18:02Z</time>
</trkpt>
<trkpt lat="45.51724" lon="13.56684">
<ele>52</ele>
<time>2011-05-01T10:18:04Z</time>
</trkpt>
<trkpt lat="45.51729" lon="13.56682">
<ele>52</ele>
<time>2011-05-01T10:18:06Z</time>
</trkpt>
<trkpt lat="45.51734" lon="13.56679">
<ele>52</ele>
<time>2011-05-01T10:18:08Z</time>
</trkpt>
<trkpt lat="45.51739" lon="13.56676">
<ele>52</ele>
<time>2011-05-01T10:18:10Z</time>
</trkpt>
<trkpt lat="45.51744" lon="13.56672">
<ele>51</ele>
<time>2011-05-01T10:18:12Z</time>
</trkpt>
<trkpt lat="45.51749" lon="13.56669">
<ele>51</ele>
<time>2011-05-01T10:18:14Z</time>
</trkpt>
<trkpt lat="45.51754" lon="13.56666">
<ele>51</ele>
<time>2011-05-01T10:18:16Z</time>
</trkpt>
<trkpt lat="45.51759" lon="13.56662">
<ele>51</ele>
<time>2011-05-01T10:18:18Z</time>
</trkpt>
<trkpt lat="45.51764" lon="13.56659">
<ele>51</ele>
<time>2011-05-01T10:18:20Z</time>
</trkpt>
<trkpt lat="45.51769" lon="13.56656">
<ele>51</ele>
<time>2011-05-01T10:18:22Z</time>
</trkpt>
<trkpt lat="45.51774" lon="13.56653">
<ele>51</ele>
<time>2011-05-01T10:18:24Z</time>
</trkpt>
<trkpt lat="45.51779" lon="13.5665">
<ele>51</ele>
<time>2011-05-01T10:18:26Z</time>
</trkpt>
<trkpt lat="45.51784" lon="13.56647">
<ele>51</ele>
<time>2011-05-01T10:18:28Z</time>
</trkpt>
<trkpt lat="45.51789" lon="13.56644">
<ele>52</ele>
<time>2011-05-01T10:18:30Z</time>
</trkpt>
<trkpt lat="45.51794" lon="13.5664">
<ele>52</ele>
<time>2011-05-01T10:18:32Z</time>
</trkpt>
<trkpt lat="45.51799" lon="13.56637">
<ele>52</ele>
<time>2011-05-01T10:18:34Z</time>
</trkpt>
<trkpt lat="45.51804" lon="13.56634">
<ele>52</ele>
<time>2011-05-01T10:18:36Z</time>
</trkpt>
<trkpt lat="45.51809" lon="13.56631">
<ele>52</ele>
<time>2011-05-01T10:18:38Z</time>
</trkpt>
<trkpt lat="45.51814" lon="13.56627">
<ele>52</ele>
<time>2011-05-01T10:18:40Z</time>
</trkpt>
<trkpt lat="45.51819" lon="13.56624">
<ele>52</ele>
<time>2011-05-01T10:18:42Z</time>
</trkpt>
<trkpt lat="45.51823" lon="13.5662">
<ele>52</ele>
<time>2011-05-01T10:18:44Z</time>
</trkpt>
<trkpt lat="45.51828" lon="13.56617">
<ele>52</ele>
<time>2011-05-01T10:18:46Z</time>
</trkpt>
<trkpt lat="45.51833" lon="13.56615">
<ele>52</ele>
<time>2011-05-01T10:18:48Z</time>
</trkpt>
<trkpt lat="45.51838" lon="13.56612">
<ele>52</ele>
<time>2011-05-01T10:18:50Z</time>
</trkpt>
<trkpt lat="45.51843" lon="13.5661">
<ele>52</ele>
<time>2011-05-01T10:18:52Z</time>
</trkpt>
<trkpt lat="45.51848" lon="13.56608">
<ele>52</ele>
<time>2011-05-01T10:18:54Z</time>
</trkpt>
<trkpt lat="45.51853" lon="13.56606">
<ele>52</ele>
<time>2011-05-01T10:18:56Z</time>
</trkpt>
<trkpt lat="45.51859" lon="13.56603">
<ele>52</ele>
<time>2011-05-01T10:18:58Z</time>
</trkpt>
<trkpt lat="45.51864" lon="13.56601">
<ele>52</ele>
<time>2011-05-01T10:19:00Z</time>
</trkpt>
<trkpt lat="45.51869" lon="13.56598">
<ele>53</ele>
<time>2011-05-01T10:19:02Z</time>
</trkpt>
<trkpt lat="45.51875" lon="13.56595">
<ele>53</ele>
<time>2011-05-01T10:19:04Z</time>
</trkpt>
<trkpt lat="45.5188" lon="13.56592">
<ele>53</ele>
<time>2011-05-01T10:19:06Z</time>
</trkpt>
<trkpt lat="45.51886" lon="13.56589">
<ele>53</ele>
<time>2011-05-01T10:19:08Z</time>
</trkpt>
<trkpt lat="45.51891" lon="13.56586">
<ele>53</ele>
<time>2011-05-01T10:19:10Z</time>
</trkpt>
<trkpt lat="45.51896" lon="13.56583">
<ele>53</ele>
<time>2011-05-01T10:19:12Z</time>
</trkpt>
<trkpt lat="45.51901" lon="13.5658">
<ele>53</ele>
<time>2011-05-01T10:19:14Z</time>
</trkpt>
<trkpt lat="45.51906" lon="13.56577">
<ele>53</ele>
<time>2011-05-01T10:19:16Z</time>
</trkpt>
<trkpt lat="45.51912" lon="13.56575">
<ele>53</ele>
<time>2011-05-01T10:19:18Z</time>
</trkpt>
<trkpt lat="45.51917" lon="13.56573">
<ele>53</ele>
<time>2011-05-01T10:19:20Z</time>
</trkpt>
<trkpt lat="45.51923" lon="13.5657">
<ele>53</ele>
<time>2011-05-01T10:19:22Z</time>
</trkpt>
<trkpt lat="45.51928" lon="13.56568">
<ele>53</ele>
<time>2011-05-01T10:19:24Z</time>
</trkpt>
<trkpt lat="45.51933" lon="13.56566">
<ele>53</ele>
<time>2011-05-01T10:19:26Z</time>
</trkpt>
<trkpt lat="45.51939" lon="13.56563">
<ele>53</ele>
<time>2011-05-01T10:19:28Z</time>
</trkpt>
<trkpt lat="45.51944" lon="13.56561">
<ele>53</ele>
<time>2011-05-01T10:19:30Z</time>
</trkpt>
<trkpt lat="45.51949" lon="13.56559">
<ele>53</ele>
<time>2011-05-01T10:19:32Z</time>
</trkpt>
<trkpt lat="45.51954" lon="13.56557">
<ele>53</ele>
<time>2011-05-01T10:19:34Z</time>
</trkpt>
<trkpt lat="45.51959" lon="13.56554">
<ele>53</ele>
<time>2011-05-01T10:19:36Z</time>
</trkpt>
<trkpt lat="45.51964" lon="13.56552">
<ele>53</ele>
<time>2011-05-01T10:19:38Z</time>
</trkpt>
<trkpt lat="45.51969" lon="13.5655">
<ele>53</ele>
<time>2011-05-01T10:19:40Z</time>
</trkpt>
<trkpt lat="45.51974" lon="13.56548">
<ele>53</ele>
<time>2011-05-01T10:19:42Z</time>
</trkpt>
<trkpt lat="45.51979" lon="13.56546">
<ele>53</ele>
<time>2011-05-01T10:19:44Z</time>
</trkpt>
<trkpt lat="45.51984" lon="13.56543">
<ele>53</ele>
<time>2011-05-01T10:19:46Z</time>
</trkpt>
<trkpt lat="45.51989" lon="13.56541">
<ele>53</ele>
<time>2011-05-01T10:19:48Z</time>
</trkpt>
<trkpt lat="45.51994" lon="13.56539">
<ele>54</ele>
<time>2011-05-01T10:19:50Z</time>
</trkpt>
<trkpt lat="45.52" lon="13.56538">
<ele>54</ele>
<time>2011-05-01T10:19:52Z</time>
</trkpt>
<trkpt lat="45.52005" lon="13.56537">
<ele>54</ele>
<time>2011-05-01T10:19:54Z</time>
</trkpt>
<trkpt lat="45.5201" lon="13.56536">
<ele>54</ele>
<time>2011-05-01T10:19:56Z</time>
</trkpt>
<trkpt lat="45.52016" lon="13.56535">
<ele>54</ele>
<time>2011-05-01T10:19:58Z</time>
</trkpt>
<trkpt lat="45.52021" lon="13.56534">
<ele>54</ele>
<time>2011-05-01T10:20:00Z</time>
</trkpt>
<trkpt lat="45.52026" lon="13.56534">
<ele>54</ele>
<time>2011-05-01T10:20:02Z</time>
</trkpt>
<trkpt lat="45.52032" lon="13.56533">
<ele>54</ele>
<time>2011-05-01T10:20:04Z</time>
</trkpt>
<trkpt lat="45.52037" lon="13.56532">
<ele>54</ele>
<time>2011-05-01T10:20:06Z</time>
</trkpt>
<trkpt lat="45.52043" lon="13.5653">
<ele>54</ele>
<time>2011-05-01T10:20:08Z</time>
</trkpt>
<trkpt lat="45.52048" lon="13.56529">
<ele>54</ele>
<time>2011-05-01T10:20:10Z</time>
</trkpt>
<trkpt lat="45.52054" lon="13.56527">
<ele>54</ele>
<time>2011-05-01T10:20:12Z</time>
</trkpt>
<trkpt lat="45.52059" lon="13.56526">
<ele>54</ele>
<time>2011-05-01T10:20:14Z</time>
</trkpt>
<trkpt lat="45.52065" lon="13.56524">
<ele>54</ele>
<time>2011-05-01T10:20:16Z</time>
</trkpt>
<trkpt lat="45.5207" lon="13.56523">
<ele>54</ele>
<time>2011-05-01T10:20:18Z</time>
</trkpt>
<trkpt lat="45.52076" lon="13.56522">
<ele>54</ele>
<time>2011-05-01T10:20:20Z</time>
</trkpt>
<trkpt lat="45.52082" lon="13.56521">
<ele>54</ele>
<time>2011-05-01T10:20:22Z</time>
</trkpt>
<trkpt lat="45.52088" lon="13.5652">
<ele>54</ele>
<time>2011-05-01T10:20:24Z</time>
</trkpt>
<trkpt lat="45.52093" lon="13.56519">
<ele>54</ele>
<time>2011-05-01T10:20:26Z</time>
</trkpt>
<trkpt lat="45.52099" lon="13.56517">
<ele>54</ele>
<time>2011-05-01T10:20:28Z</time>
</trkpt>
<trkpt lat="45.52105" lon="13.56516">
<ele>54</ele>
<time>2011-05-01T10:20:30Z</time>
</trkpt>
<trkpt lat="45.5211" lon="13.56515">
<ele>54</ele>
<time>2011-05-01T10:20:32Z</time>
</trkpt>
<trkpt lat="45.52116" lon="13.56514">
<ele>54</ele>
<time>2011-05-01T10:20:34Z</time>
</trkpt>
<trkpt lat="45.52122" lon="13.56513">
<ele>54</ele>
<time>2011-05-01T10:20:36Z</time>
</trkpt>
<trkpt lat="45.52127" lon="13.56511">
<ele>54</ele>
<time>2011-05-01T10:20:38Z</time>
</trkpt>
<trkpt lat="45.52132" lon="13.5651">
<ele>54</ele>
<time>2011-05-01T10:20:40Z</time>
</trkpt>
<trkpt lat="45.52138" lon="13.56508">
<ele>54</ele>
<time>2011-05-01T10:20:42Z</time>
</trkpt>
<trkpt lat="45.52142" lon="13.56506">
<ele>54</ele>
<time>2011-05-01T10:20:44Z</time>
</trkpt>
<trkpt lat="45.52147" lon="13.56504">
<ele>54</ele>
<time>2011-05-01T10:20:46Z</time>
</trkpt>
<trkpt lat="45.52152" lon="13.56502">
<ele>54</ele>
<time>2011-05-01T10:20:48Z</time>
</trkpt>
<trkpt lat="45.52157" lon="13.56501">
<ele>54</ele>
<time>2011-05-01T10:20:50Z</time>
</trkpt>
<trkpt lat="45.52162" lon="13.56499">
<ele>54</ele>
<time>2011-05-01T10:20:52Z</time>
</trkpt>
<trkpt lat="45.52168" lon="13.56496">
<ele>55</ele>
<time>2011-05-01T10:20:54Z</time>
</trkpt>
<trkpt lat="45.52173" lon="13.56494">
<ele>55</ele>
<time>2011-05-01T10:20:56Z</time>
</trkpt>
<trkpt lat="45.52178" lon="13.56493">
<ele>55</ele>
<time>2011-05-01T10:20:58Z</time>
</trkpt>
<trkpt lat="45.52183" lon="13.56491">
<ele>55</ele>
<time>2011-05-01T10:21:00Z</time>
</trkpt>
<trkpt lat="45.52189" lon="13.56488">
<ele>55</ele>
<time>2011-05-01T10:21:02Z</time>
</trkpt>
<trkpt lat="45.52194" lon="13.56487">
<ele>55</ele>
<time>2011-05-01T10:21:04Z</time>
</trkpt>
<trkpt lat="45.522" lon="13.56485">
<ele>55</ele>
<time>2011-05-01T10:21:06Z</time>
</trkpt>
<trkpt lat="45.52205" lon="13.56482">
<ele>55</ele>
<time>2011-05-01T10:21:08Z</time>
</trkpt>
<trkpt lat="45.5221" lon="13.5648">
<ele>55</ele>
<time>2011-05-01T10:21:10Z</time>
</trkpt>
<trkpt lat="45.52216" lon="13.56478">
<ele>55</ele>
<time>2011-05-01T10:21:12Z</time>
</trkpt>
<trkpt lat="45.52221" lon="13.56475">
<ele>55</ele>
<time>2011-05-01T10:21:14Z</time>
</trkpt>
<trkpt lat="45.52226" lon="13.56472">
<ele>55</ele>
<time>2011-05-01T10:21:16Z</time>
</trkpt>
<trkpt lat="45.52231" lon="13.5647">
<ele>55</ele>
<time>2011-05-01T10:21:18Z</time>
</trkpt>
<trkpt lat="45.52236" lon="13.56467">
<ele>55</ele>
<time>2011-05-01T10:21:20Z</time>
</trkpt>
<trkpt lat="45.52242" lon="13.56465">
<ele>55</ele>
<time>2011-05-01T10:21:22Z</time>
</trkpt>
<trkpt lat="45.52247" lon="13.56463">
<ele>55</ele>
<time>2011-05-01T10:21:24Z</time>
</trkpt>
<trkpt lat="45.52252" lon="13.5646">
<ele>55</ele>
<time>2011-05-01T10:21:26Z</time>
</trkpt>
<trkpt lat="45.52257" lon="13.56458">
<ele>55</ele>
<time>2011-05-01T10:21:28Z</time>
</trkpt>
<trkpt lat="45.52262" lon="13.56455">
<ele>55</ele>
<time>2011-05-01T10:21:30Z</time>
</trkpt>
<trkpt lat="45.52267" lon="13.56452">
<ele>55</ele>
<time>2011-05-01T10:21:32Z</time>
</trkpt>
<trkpt lat="45.52272" lon="13.56448">
<ele>55</ele>
<time>2011-05-01T10:21:34Z</time>
</trkpt>
<trkpt lat="45.52277" lon="13.56445">
<ele>55</ele>
<time>2011-05-01T10:21:36Z</time>
</trkpt>
<trkpt lat="45.52282" lon="13.56442">
<ele>55</ele>
<time>2011-05-01T10:21:38Z</time>
</trkpt>
<trkpt lat="45.52287" lon="13.56439">
<ele>55</ele>
<time>2011-05-01T10:21:40Z</time>
</trkpt>
<trkpt lat="45.52292" lon="13.56436">
<ele>55</ele>
<time>2011-05-01T10:21:42Z</time>
</trkpt>
<trkpt lat="45.52297" lon="13.56433">
<ele>55</ele>
<time>2011-05-01T10:21:44Z</time>
</trkpt>
<trkpt lat="45.52302" lon="13.5643">
<ele>55</ele>
<time>2011-05-01T10:21:46Z</time>
</trkpt>
<trkpt lat="45.52307" lon="13.56427">
<ele>54</ele>
<time>2011-05-01T10:21:48Z</time>
</trkpt>
<trkpt lat="45.52311" lon="13.56425">
<ele>54</ele>
<time>2011-05-01T10:21:50Z</time>
</trkpt>
<trkpt lat="45.52317" lon="13.56422">
<ele>54</ele>
<time>2011-05-01T10:21:53Z</time>
</trkpt>
<trkpt lat="45.52322" lon="13.56419">
<ele>54</ele>
<time>2011-05-01T10:21:56Z</time>
</trkpt>
<trkpt lat="45.52327" lon="13.56416">
<ele>54</ele>
<time>2011-05-01T10:21:59Z</time>
</trkpt>
<trkpt lat="45.52332" lon="13.56413">
<ele>54</ele>
<time>2011-05-01T10:22:02Z</time>
</trkpt>
<trkpt lat="45.52336" lon="13.5641">
<ele>54</ele>
<time>2011-05-01T10:22:05Z</time>
</trkpt>
<trkpt lat="45.5234" lon="13.56406">
<ele>54</ele>
<time>2011-05-01T10:22:08Z</time>
</trkpt>
<trkpt lat="45.52345" lon="13.56403">
<ele>54</ele>
<time>2011-05-01T10:22:12Z</time>
</trkpt>
<trkpt lat="45.52349" lon="13.564">
<ele>54</ele>
<time>2011-05-01T10:22:16Z</time>
</trkpt>
<trkpt lat="45.52354" lon="13.56398">
<ele>54</ele>
<time>2011-05-01T10:22:20Z</time>
</trkpt>
<trkpt lat="45.52359" lon="13.56395">
<ele>54</ele>
<time>2011-05-01T10:22:24Z</time>
</trkpt>
<trkpt lat="45.52363" lon="13.56393">
<ele>54</ele>
<time>2011-05-01T10:22:28Z</time>
</trkpt>
<trkpt lat="45.52367" lon="13.5639">
<ele>54</ele>
<time>2011-05-01T10:22:33Z</time>
</trkpt>
<trkpt lat="45.52372" lon="13.56388">
<ele>54</ele>
<time>2011-05-01T10:22:38Z</time>
</trkpt>
<trkpt lat="45.52377" lon="13.56386">
<ele>54</ele>
<time>2011-05-01T10:22:44Z</time>
</trkpt>
<trkpt lat="45.52382" lon="13.56384">
<ele>54</ele>
<time>2011-05-01T10:22:50Z</time>
</trkpt>
<trkpt lat="45.52386" lon="13.56384">
<ele>53</ele>
<time>2011-05-01T10:22:56Z</time>
</trkpt>
<trkpt lat="45.52391" lon="13.56383">
<ele>53</ele>
<time>2011-05-01T10:23:02Z</time>
</trkpt>
<trkpt lat="45.52396" lon="13.56383">
<ele>53</ele>
<time>2011-05-01T10:23:09Z</time>
</trkpt>
<trkpt lat="45.524" lon="13.56384">
<ele>53</ele>
<time>2011-05-01T10:23:17Z</time>
</trkpt>
<trkpt lat="45.52405" lon="13.56385">
<ele>52</ele>
<time>2011-05-01T10:23:28Z</time>
</trkpt>
<trkpt lat="45.5241" lon="13.56386">
<ele>52</ele>
<time>2011-05-01T10:23:38Z</time>
</trkpt>
<trkpt lat="45.52414" lon="13.56388">
<ele>52</ele>
<time>2011-05-01T10:23:48Z</time>
</trkpt>
<trkpt lat="45.52418" lon="13.5639">
<ele>51</ele>
<time>2011-05-01T10:24:00Z</time>
</trkpt>
<trkpt lat="45.52422" lon="13.56393">
<ele>51</ele>
<time>2011-05-01T10:24:20Z</time>
</trkpt>
<trkpt lat="45.52427" lon="13.56395">
<ele>51</ele>
<time>2011-05-01T10:24:29Z</time>
</trkpt>
<trkpt lat="45.52431" lon="13.56395">
<ele>50</ele>
<time>2011-05-01T10:24:36Z</time>
</trkpt>
<trkpt lat="45.52436" lon="13.56394">
<ele>50</ele>
<time>2011-05-01T10:24:42Z</time>
</trkpt>
<trkpt lat="45.52441" lon="13.56392">
<ele>50</ele>
<time>2011-05-01T10:24:48Z</time>
</trkpt>
<trkpt lat="45.52446" lon="13.5639">
<ele>50</ele>
<time>2011-05-01T10:24:53Z</time>
</trkpt>
<trkpt lat="45.52451" lon="13.56387">
<ele>50</ele>
<time>2011-05-01T10:24:58Z</time>
</trkpt>
<trkpt lat="45.52455" lon="13.56383">
<ele>50</ele>
<time>2011-05-01T10:25:02Z</time>
</trkpt>
<trkpt lat="45.52459" lon="13.5638">
<ele>50</ele>
<time>2011-05-01T10:25:06Z</time>
</trkpt>
<trkpt lat="45.52464" lon="13.56376">
<ele>49</ele>
<time>2011-05-01T10:25:11Z</time>
</trkpt>
<trkpt lat="45.52468" lon="13.56372">
<ele>49</ele>
<time>2011-05-01T10:25:16Z</time>
</trkpt>
<trkpt lat="45.52472" lon="13.56367">
<ele>49</ele>
<time>2011-05-01T10:25:21Z</time>
</trkpt>
<trkpt lat="45.52476" lon="13.56363">
<ele>49</ele>
<time>2011-05-01T10:25:26Z</time>
</trkpt>
<trkpt lat="45.5248" lon="13.56358">
<ele>49</ele>
<time>2011-05-01T10:25:31Z</time>
</trkpt>
<trkpt lat="45.52484" lon="13.56354">
<ele>49</ele>
<time>2011-05-01T10:25:36Z</time>
</trkpt>
<trkpt lat="45.52488" lon="13.56351">
<ele>50</ele>
<time>2011-05-01T10:25:41Z</time>
</trkpt>
<trkpt lat="45.52492" lon="13.56347">
<ele>50</ele>
<time>2011-05-01T10:25:46Z</time>
</trkpt>
<trkpt lat="45.52496" lon="13.56342">
<ele>50</ele>
<time>2011-05-01T10:25:51Z</time>
</trkpt>
<trkpt lat="45.525" lon="13.56337">
<ele>50</ele>
<time>2011-05-01T10:25:56Z</time>
</trkpt>
<trkpt lat="45.52503" lon="13.56331">
<ele>50</ele>
<time>2011-05-01T10:26:01Z</time>
</trkpt>
<trkpt lat="45.52505" lon="13.56324">
<ele>50</ele>
<time>2011-05-01T10:26:06Z</time>
</trkpt>
<trkpt lat="45.52507" lon="13.56317">
<ele>50</ele>
<time>2011-05-01T10:26:11Z</time>
</trkpt>
<trkpt lat="45.52507" lon="13.56309">
<ele>50</ele>
<time>2011-05-01T10:26:16Z</time>
</trkpt>
<trkpt lat="45.52507" lon="13.56302">
<ele>50</ele>
<time>2011-05-01T10:26:21Z</time>
</trkpt>
<trkpt lat="45.52505" lon="13.56296">
<ele>50</ele>
<time>2011-05-01T10:26:26Z</time>
</trkpt>
<trkpt lat="45.52502" lon="13.5629">
<ele>50</ele>
<time>2011-05-01T10:26:31Z</time>
</trkpt>
<trkpt lat="45.52498" lon="13.56287">
<ele>50</ele>
<time>2011-05-01T10:26:36Z</time>
</trkpt>
<trkpt lat="45.52493" lon="13.56286">
<ele>50</ele>
<time>2011-05-01T10:26:40Z</time>
</trkpt>
<trkpt lat="45.52487" lon="13.56286">
<ele>50</ele>
<time>2011-05-01T10:26:44Z</time>
</trkpt>
<trkpt lat="45.52482" lon="13.56288">
<ele>50</ele>
<time>2011-05-01T10:26:47Z</time>
</trkpt>
<trkpt lat="45.52477" lon="13.56289">
<ele>49</ele>
<time>2011-05-01T10:26:50Z</time>
</trkpt>
<trkpt lat="45.52473" lon="13.5629">
<ele>49</ele>
<time>2011-05-01T10:26:53Z</time>
</trkpt>
<trkpt lat="45.52468" lon="13.5629">
<ele>49</ele>
<time>2011-05-01T10:26:56Z</time>
</trkpt>
<trkpt lat="45.52463" lon="13.56291">
<ele>49</ele>
<time>2011-05-01T10:26:59Z</time>
</trkpt>
<trkpt lat="45.52457" lon="13.56292">
<ele>49</ele>
<time>2011-05-01T10:27:02Z</time>
</trkpt>
<trkpt lat="45.52451" lon="13.56293">
<ele>49</ele>
<time>2011-05-01T10:27:05Z</time>
</trkpt>
<trkpt lat="45.52444" lon="13.56294">
<ele>49</ele>
<time>2011-05-01T10:27:08Z</time>
</trkpt>
<trkpt lat="45.5244" lon="13.56294">
<ele>49</ele>
<time>2011-05-01T10:27:10Z</time>
</trkpt>
<trkpt lat="45.52435" lon="13.56295">
<ele>49</ele>
<time>2011-05-01T10:27:12Z</time>
</trkpt>
<trkpt lat="45.52429" lon="13.56295">
<ele>49</ele>
<time>2011-05-01T10:27:14Z</time>
</trkpt>
<trkpt lat="45.52424" lon="13.56296">
<ele>49</ele>
<time>2011-05-01T10:27:16Z</time>
</trkpt>
<trkpt lat="45.52418" lon="13.56296">
<ele>49</ele>
<time>2011-05-01T10:27:18Z</time>
</trkpt>
<trkpt lat="45.52413" lon="13.56297">
<ele>49</ele>
<time>2011-05-01T10:27:20Z</time>
</trkpt>
<trkpt lat="45.52408" lon="13.56297">
<ele>49</ele>
<time>2011-05-01T10:27:22Z</time>
</trkpt>
<trkpt lat="45.52402" lon="13.56297">
<ele>49</ele>
<time>2011-05-01T10:27:24Z</time>
</trkpt>
<trkpt lat="45.52397" lon="13.56297">
<ele>49</ele>
<time>2011-05-01T10:27:26Z</time>
</trkpt>
<trkpt lat="45.52391" lon="13.56298">
<ele>49</ele>
<time>2011-05-01T10:27:28Z</time>
</trkpt>
<trkpt lat="45.52386" lon="13.56298">
<ele>49</ele>
<time>2011-05-01T10:27:30Z</time>
</trkpt>
<trkpt lat="45.5238" lon="13.56299">
<ele>49</ele>
<time>2011-05-01T10:27:32Z</time>
</trkpt>
<trkpt lat="45.52375" lon="13.56299">
<ele>49</ele>
<time>2011-05-01T10:27:34Z</time>
</trkpt>
<trkpt lat="45.5237" lon="13.563">
<ele>48</ele>
<time>2011-05-01T10:27:36Z</time>
</trkpt>
<trkpt lat="45.52364" lon="13.56301">
<ele>48</ele>
<time>2011-05-01T10:27:38Z</time>
</trkpt>
<trkpt lat="45.52359" lon="13.56302">
<ele>48</ele>
<time>2011-05-01T10:27:40Z</time>
</trkpt>
<trkpt lat="45.52355" lon="13.56303">
<ele>48</ele>
<time>2011-05-01T10:27:42Z</time>
</trkpt>
<trkpt lat="45.5235" lon="13.56303">
<ele>48</ele>
<time>2011-05-01T10:27:44Z</time>
</trkpt>
<trkpt lat="45.52344" lon="13.56304">
<ele>48</ele>
<time>2011-05-01T10:27:47Z</time>
</trkpt>
<trkpt lat="45.52337" lon="13.56304">
<ele>48</ele>
<time>2011-05-01T10:27:50Z</time>
</trkpt>
<trkpt lat="45.52332" lon="13.56304">
<ele>48</ele>
<time>2011-05-01T10:27:53Z</time>
</trkpt>
<trkpt lat="45.52326" lon="13.56305">
<ele>48</ele>
<time>2011-05-01T10:27:56Z</time>
</trkpt>
<trkpt lat="45.5232" lon="13.56305">
<ele>48</ele>
<time>2011-05-01T10:27:59Z</time>
</trkpt>
<trkpt lat="45.52315" lon="13.56305">
<ele>47</ele>
<time>2011-05-01T10:28:02Z</time>
</trkpt>
<trkpt lat="45.52309" lon="13.56306">
<ele>47</ele>
<time>2011-05-01T10:28:05Z</time>
</trkpt>
<trkpt lat="45.52304" lon="13.56305">
<ele>47</ele>
<time>2011-05-01T10:28:08Z</time>
</trkpt>
<trkpt lat="45.52299" lon="13.56306">
<ele>47</ele>
<time>2011-05-01T10:28:11Z</time>
</trkpt>
<trkpt lat="45.52294" lon="13.56306">
<ele>47</ele>
<time>2011-05-01T10:28:14Z</time>
</trkpt>
<trkpt lat="45.52288" lon="13.56306">
<ele>47</ele>
<time>2011-05-01T10:28:17Z</time>
</trkpt>
<trkpt lat="45.52283" lon="13.56306">
<ele>47</ele>
<time>2011-05-01T10:28:20Z</time>
</trkpt>
<trkpt lat="45.52278" lon="13.56308">
<ele>47</ele>
<time>2011-05-01T10:28:23Z</time>
</trkpt>
<trkpt lat="45.52274" lon="13.56313">
<ele>47</ele>
<time>2011-05-01T10:28:26Z</time>
</trkpt>
<trkpt lat="45.52272" lon="13.56319">
<ele>47</ele>
<time>2011-05-01T10:28:29Z</time>
</trkpt>
<trkpt lat="45.52272" lon="13.56326">
<ele>47</ele>
<time>2011-05-01T10:28:32Z</time>
</trkpt>
<trkpt lat="45.52273" lon="13.56334">
<ele>47</ele>
<time>2011-05-01T10:28:35Z</time>
</trkpt>
<trkpt lat="45.52276" lon="13.56339">
<ele>47</ele>
<time>2011-05-01T10:28:38Z</time>
</trkpt>
<trkpt lat="45.52281" lon="13.56341">
<ele>47</ele>
<time>2011-05-01T10:28:41Z</time>
</trkpt>
<trkpt lat="45.52286" lon="13.56342">
<ele>47</ele>
<time>2011-05-01T10:28:44Z</time>
</trkpt>
<trkpt lat="45.52291" lon="13.56341">
<ele>46</ele>
<time>2011-05-01T10:28:48Z</time>
</trkpt>
<trkpt lat="45.52295" lon="13.56341">
<ele>46</ele>
<time>2011-05-01T10:28:52Z</time>
</trkpt>
<trkpt lat="45.523" lon="13.56342">
<ele>46</ele>
<time>2011-05-01T10:28:56Z</time>
</trkpt>
<trkpt lat="45.52304" lon="13.56344">
<ele>46</ele>
<time>2011-05-01T10:29:00Z</time>
</trkpt>
<trkpt lat="45.52308" lon="13.56347">
<ele>46</ele>
<time>2011-05-01T10:29:04Z</time>
</trkpt>
<trkpt lat="45.52312" lon="13.56351">
<ele>46</ele>
<time>2011-05-01T10:29:08Z</time>
</trkpt>
<trkpt lat="45.52316" lon="13.56355">
<ele>46</ele>
<time>2011-05-01T10:29:12Z</time>
</trkpt>
<trkpt lat="45.5232" lon="13.56359">
<ele>46</ele>
<time>2011-05-01T10:29:16Z</time>
</trkpt>
<trkpt lat="45.52324" lon="13.56363">
<ele>45</ele>
<time>2011-05-01T10:29:20Z</time>
</trkpt>
<trkpt lat="45.52329" lon="13.56368">
<ele>45</ele>
<time>2011-05-01T10:29:24Z</time>
</trkpt>
<trkpt lat="45.52334" lon="13.56371">
<ele>45</ele>
<time>2011-05-01T10:29:28Z</time>
</trkpt>
<trkpt lat="45.52339" lon="13.56373">
<ele>45</ele>
<time>2011-05-01T10:29:32Z</time>
</trkpt>
<trkpt lat="45.52344" lon="13.56375">
<ele>45</ele>
<time>2011-05-01T10:29:36Z</time>
</trkpt>
<trkpt lat="45.52349" lon="13.56377">
<ele>45</ele>
<time>2011-05-01T10:29:40Z</time>
</trkpt>
<trkpt lat="45.52355" lon="13.56379">
<ele>45</ele>
<time>2011-05-01T10:29:44Z</time>
</trkpt>
<trkpt lat="45.5236" lon="13.56381">
<ele>45</ele>
<time>2011-05-01T10:29:48Z</time>
</trkpt>
<trkpt lat="45.52366" lon="13.56384">
<ele>45</ele>
<time>2011-05-01T10:29:52Z</time>
</trkpt>
<trkpt lat="45.52371" lon="13.56386">
<ele>45</ele>
<time>2011-05-01T10:29:56Z</time>
</trkpt>
<trkpt lat="45.52376" lon="13.5639">
<ele>45</ele>
<time>2011-05-01T10:30:00Z</time>
</trkpt>
<trkpt lat="45.52381" lon="13.56393">
<ele>46</ele>
<time>2011-05-01T10:30:04Z</time>
</trkpt>
<trkpt lat="45.52386" lon="13.56397">
<ele>46</ele>
<time>2011-05-01T10:30:08Z</time>
</trkpt>
<trkpt lat="45.52391" lon="13.564">
<ele>46</ele>
<time>2011-05-01T10:30:12Z</time>
</trkpt>
<trkpt lat="45.52396" lon="13.56404">
<ele>46</ele>
<time>2011-05-01T10:30:16Z</time>
</trkpt>
<trkpt lat="45.524" lon="13.56406">
<ele>46</ele>
<time>2011-05-01T10:30:19Z</time>
</trkpt>
<trkpt lat="45.52405" lon="13.56409">
<ele>46</ele>
<time>2011-05-01T10:30:22Z</time>
</trkpt>
<trkpt lat="45.52409" lon="13.56412">
<ele>46</ele>
<time>2011-05-01T10:30:25Z</time>
</trkpt>
<trkpt lat="45.52413" lon="13.56416">
<ele>46</ele>
<time>2011-05-01T10:30:29Z</time>
</trkpt>
<trkpt lat="45.52418" lon="13.5642">
<ele>46</ele>
<time>2011-05-01T10:30:33Z</time>
</trkpt>
<trkpt lat="45.52422" lon="13.56425">
<ele>46</ele>
<time>2011-05-01T10:30:37Z</time>
</trkpt>
<trkpt lat="45.52427" lon="13.5643">
<ele>46</ele>
<time>2011-05-01T10:30:41Z</time>
</trkpt>
<trkpt lat="45.5243" lon="13.56434">
<ele>47</ele>
<time>2011-05-01T10:30:44Z</time>
</trkpt>
<trkpt lat="45.52433" lon="13.56439">
<ele>47</ele>
<time>2011-05-01T10:30:47Z</time>
</trkpt>
<trkpt lat="45.52436" lon="13.56443">
<ele>47</ele>
<time>2011-05-01T10:30:50Z</time>
</trkpt>
<trkpt lat="45.5244" lon="13.56448">
<ele>47</ele>
<time>2011-05-01T10:30:53Z</time>
</trkpt>
<trkpt lat="45.52443" lon="13.56451">
<ele>47</ele>
<time>2011-05-01T10:30:56Z</time>
</trkpt>
<trkpt lat="45.52448" lon="13.56456">
<ele>47</ele>
<time>2011-05-01T10:31:00Z</time>
</trkpt>
<trkpt lat="45.52452" lon="13.56461">
<ele>47</ele>
<time>2011-05-01T10:31:04Z</time>
</trkpt>
<trkpt lat="45.52456" lon="13.56465">
<ele>47</ele>
<time>2011-05-01T10:31:07Z</time>
</trkpt>
<trkpt lat="45.5246" lon="13.5647">
<ele>47</ele>
<time>2011-05-01T10:31:11Z</time>
</trkpt>
<trkpt lat="45.52464" lon="13.56475">
<ele>47</ele>
<time>2011-05-01T10:31:14Z</time>
</trkpt>
<trkpt lat="45.52467" lon="13.56479">
<ele>47</ele>
<time>2011-05-01T10:31:17Z</time>
</trkpt>
<trkpt lat="45.52472" lon="13.56484">
<ele>47</ele>
<time>2011-05-01T10:31:21Z</time>
</trkpt>
<trkpt lat="45.52476" lon="13.5649">
<ele>47</ele>
<time>2011-05-01T10:31:25Z</time>
</trkpt>
<trkpt lat="45.5248" lon="13.56495">
<ele>47</ele>
<time>2011-05-01T10:31:29Z</time>
</trkpt>
<trkpt lat="45.52484" lon="13.565">
<ele>47</ele>
<time>2011-05-01T10:31:33Z</time>
</trkpt>
<trkpt lat="45.52488" lon="13.56505">
<ele>47</ele>
<time>2011-05-01T10:31:37Z</time>
</trkpt>
<trkpt lat="45.52493" lon="13.5651">
<ele>47</ele>
<time>2011-05-01T10:31:41Z</time>
</trkpt>
<trkpt lat="45.52497" lon="13.56515">
<ele>48</ele>
<time>2011-05-01T10:31:45Z</time>
</trkpt>
<trkpt lat="45.52501" lon="13.5652">
<ele>48</ele>
<time>2011-05-01T10:31:49Z</time>
</trkpt>
<trkpt lat="45.52505" lon="13.56526">
<ele>48</ele>
<time>2011-05-01T10:31:53Z</time>
</trkpt>
<trkpt lat="45.52509" lon="13.56531">
<ele>48</ele>
<time>2011-05-01T10:31:57Z</time>
</trkpt>
<trkpt lat="45.52514" lon="13.56536">
<ele>48</ele>
<time>2011-05-01T10:32:01Z</time>
</trkpt>
<trkpt lat="45.52518" lon="13.56541">
<ele>48</ele>
<time>2011-05-01T10:32:05Z</time>
</trkpt>
<trkpt lat="45.52523" lon="13.56546">
<ele>48</ele>
<time>2011-05-01T10:32:09Z</time>
</trkpt>
<trkpt lat="45.52527" lon="13.56551">
<ele>48</ele>
<time>2011-05-01T10:32:13Z</time>
</trkpt>
<trkpt lat="45.52531" lon="13.56556">
<ele>48</ele>
<time>2011-05-01T10:32:17Z</time>
</trkpt>
<trkpt lat="45.52535" lon="13.56562">
<ele>48</ele>
<time>2011-05-01T10:32:21Z</time>
</trkpt>
<trkpt lat="45.52539" lon="13.56568">
<ele>48</ele>
<time>2011-05-01T10:32:25Z</time>
</trkpt>
<trkpt lat="45.52542" lon="13.56573">
<ele>48</ele>
<time>2011-05-01T10:32:28Z</time>
</trkpt>
<trkpt lat="45.52545" lon="13.5658">
<ele>48</ele>
<time>2011-05-01T10:32:32Z</time>
</trkpt>
<trkpt lat="45.52549" lon="13.56586">
<ele>48</ele>
<time>2011-05-01T10:32:36Z</time>
</trkpt>
<trkpt lat="45.52552" lon="13.56592">
<ele>48</ele>
<time>2011-05-01T10:32:40Z</time>
</trkpt>
<trkpt lat="45.52556" lon="13.56599">
<ele>48</ele>
<time>2011-05-01T10:32:44Z</time>
</trkpt>
<trkpt lat="45.52559" lon="13.56603">
<ele>48</ele>
<time>2011-05-01T10:32:47Z</time>
</trkpt>
<trkpt lat="45.52562" lon="13.56608">
<ele>48</ele>
<time>2011-05-01T10:32:50Z</time>
</trkpt>
<trkpt lat="45.52565" lon="13.56613">
<ele>48</ele>
<time>2011-05-01T10:32:53Z</time>
</trkpt>
<trkpt lat="45.52568" lon="13.56617">
<ele>48</ele>
<time>2011-05-01T10:32:56Z</time>
</trkpt>
<trkpt lat="45.52571" lon="13.56622">
<ele>48</ele>
<time>2011-05-01T10:32:59Z</time>
</trkpt>
<trkpt lat="45.52574" lon="13.56626">
<ele>48</ele>
<time>2011-05-01T10:33:02Z</time>
</trkpt>
<trkpt lat="45.52578" lon="13.56632">
<ele>48</ele>
<time>2011-05-01T10:33:06Z</time>
</trkpt>
<trkpt lat="45.52583" lon="13.56637">
<ele>48</ele>
<time>2011-05-01T10:33:10Z</time>
</trkpt>
<trkpt lat="45.52588" lon="13.56641">
<ele>48</ele>
<time>2011-05-01T10:33:14Z</time>
</trkpt>
<trkpt lat="45.52593" lon="13.56644">
<ele>48</ele>
<time>2011-05-01T10:33:18Z</time>
</trkpt>
<trkpt lat="45.52598" lon="13.56648">
<ele>48</ele>
<time>2011-05-01T10:33:22Z</time>
</trkpt>
<trkpt lat="45.52603" lon="13.56651">
<ele>48</ele>
<time>2011-05-01T10:33:26Z</time>
</trkpt>
<trkpt lat="45.52608" lon="13.56654">
<ele>48</ele>
<time>2011-05-01T10:33:30Z</time>
</trkpt>
<trkpt lat="45.52612" lon="13.56657">
<ele>48</ele>
<time>2011-05-01T10:33:34Z</time>
</trkpt>
<trkpt lat="45.52616" lon="13.5666">
<ele>48</ele>
<time>2011-05-01T10:33:38Z</time>
</trkpt>
<trkpt lat="45.5262" lon="13.56663">
<ele>48</ele>
<time>2011-05-01T10:33:42Z</time>
</trkpt>
<trkpt lat="45.52624" lon="13.56667">
<ele>48</ele>
<time>2011-05-01T10:33:46Z</time>
</trkpt>
<trkpt lat="45.52628" lon="13.56671">
<ele>48</ele>
<time>2011-05-01T10:33:50Z</time>
</trkpt>
<trkpt lat="45.52631" lon="13.56676">
<ele>48</ele>
<time>2011-05-01T10:33:54Z</time>
</trkpt>
<trkpt lat="45.52633" lon="13.56682">
<ele>49</ele>
<time>2011-05-01T10:34:00Z</time>
</trkpt>
<trkpt lat="45.5263" lon="13.56688">
<ele>49</ele>
<time>2011-05-01T10:34:05Z</time>
</trkpt>
<trkpt lat="45.52626" lon="13.56692">
<ele>49</ele>
<time>2011-05-01T10:34:10Z</time>
</trkpt>
<trkpt lat="45.52622" lon="13.56694">
<ele>49</ele>
<time>2011-05-01T10:34:15Z</time>
</trkpt>
<trkpt lat="45.52617" lon="13.56695">
<ele>49</ele>
<time>2011-05-01T10:34:22Z</time>
</trkpt>
<trkpt lat="45.52613" lon="13.56697">
<ele>49</ele>
<time>2011-05-01T10:34:30Z</time>
</trkpt>
<trkpt lat="45.52608" lon="13.56699">
<ele>49</ele>
<time>2011-05-01T10:34:41Z</time>
</trkpt>
<trkpt lat="45.52604" lon="13.56702">
<ele>49</ele>
<time>2011-05-01T10:34:55Z</time>
</trkpt>
<trkpt lat="45.526" lon="13.56706">
<ele>49</ele>
<time>2011-05-01T10:35:09Z</time>
</trkpt>
<trkpt lat="45.52597" lon="13.56711">
<ele>49</ele>
<time>2011-05-01T10:35:23Z</time>
</trkpt>
<trkpt lat="45.52593" lon="13.56715">
<ele>49</ele>
<time>2011-05-01T10:35:41Z</time>
</trkpt>
<trkpt lat="45.52594" lon="13.56709">
<ele>49</ele>
<time>2011-05-01T10:41:09Z</time>
</trkpt>
<trkpt lat="45.52592" lon="13.56714">
<ele>50</ele>
<time>2011-05-01T10:41:56Z</time>
</trkpt>
<trkpt lat="45.52596" lon="13.56713">
<ele>48</ele>
<time>2011-05-01T11:10:10Z</time>
</trkpt>
<trkpt lat="45.52601" lon="13.56711">
<ele>48</ele>
<time>2011-05-01T11:10:20Z</time>
</trkpt>
<trkpt lat="45.52606" lon="13.56711">
<ele>47</ele>
<time>2011-05-01T11:10:28Z</time>
</trkpt>
<trkpt lat="45.52611" lon="13.56711">
<ele>47</ele>
<time>2011-05-01T11:10:35Z</time>
</trkpt>
<trkpt lat="45.52615" lon="13.56711">
<ele>47</ele>
<time>2011-05-01T11:10:40Z</time>
</trkpt>
<trkpt lat="45.5262" lon="13.56713">
<ele>46</ele>
<time>2011-05-01T11:10:45Z</time>
</trkpt>
<trkpt lat="45.52625" lon="13.56716">
<ele>46</ele>
<time>2011-05-01T11:10:50Z</time>
</trkpt>
<trkpt lat="45.5263" lon="13.56719">
<ele>46</ele>
<time>2011-05-01T11:10:55Z</time>
</trkpt>
<trkpt lat="45.52634" lon="13.56723">
<ele>46</ele>
<time>2011-05-01T11:11:00Z</time>
</trkpt>
<trkpt lat="45.52638" lon="13.56727">
<ele>46</ele>
<time>2011-05-01T11:11:05Z</time>
</trkpt>
<trkpt lat="45.52642" lon="13.56731">
<ele>45</ele>
<time>2011-05-01T11:11:11Z</time>
</trkpt>
<trkpt lat="45.52636" lon="13.56732">
<ele>45</ele>
<time>2011-05-01T11:11:19Z</time>
</trkpt>
<trkpt lat="45.52633" lon="13.56727">
<ele>45</ele>
<time>2011-05-01T11:11:23Z</time>
</trkpt>
<trkpt lat="45.52631" lon="13.56719">
<ele>45</ele>
<time>2011-05-01T11:11:27Z</time>
</trkpt>
<trkpt lat="45.52631" lon="13.56712">
<ele>44</ele>
<time>2011-05-01T11:11:30Z</time>
</trkpt>
<trkpt lat="45.52632" lon="13.56705">
<ele>44</ele>
<time>2011-05-01T11:11:33Z</time>
</trkpt>
<trkpt lat="45.52632" lon="13.56698">
<ele>44</ele>
<time>2011-05-01T11:11:36Z</time>
</trkpt>
<trkpt lat="45.52631" lon="13.5669">
<ele>44</ele>
<time>2011-05-01T11:11:40Z</time>
</trkpt>
<trkpt lat="45.5263" lon="13.56684">
<ele>44</ele>
<time>2011-05-01T11:11:44Z</time>
</trkpt>
<trkpt lat="45.52628" lon="13.56677">
<ele>44</ele>
<time>2011-05-01T11:11:48Z</time>
</trkpt>
<trkpt lat="45.52626" lon="13.5667">
<ele>44</ele>
<time>2011-05-01T11:11:52Z</time>
</trkpt>
<trkpt lat="45.52623" lon="13.56664">
<ele>44</ele>
<time>2011-05-01T11:11:56Z</time>
</trkpt>
<trkpt lat="45.52619" lon="13.56659">
<ele>44</ele>
<time>2011-05-01T11:12:00Z</time>
</trkpt>
<trkpt lat="45.52615" lon="13.56654">
<ele>44</ele>
<time>2011-05-01T11:12:04Z</time>
</trkpt>
<trkpt lat="45.5261" lon="13.5665">
<ele>44</ele>
<time>2011-05-01T11:12:08Z</time>
</trkpt>
<trkpt lat="45.52606" lon="13.56645">
<ele>44</ele>
<time>2011-05-01T11:12:12Z</time>
</trkpt>
<trkpt lat="45.52602" lon="13.5664">
<ele>44</ele>
<time>2011-05-01T11:12:16Z</time>
</trkpt>
<trkpt lat="45.52597" lon="13.56636">
<ele>44</ele>
<time>2011-05-01T11:12:20Z</time>
</trkpt>
<trkpt lat="45.52592" lon="13.5663">
<ele>44</ele>
<time>2011-05-01T11:12:24Z</time>
</trkpt>
<trkpt lat="45.52589" lon="13.56626">
<ele>44</ele>
<time>2011-05-01T11:12:27Z</time>
</trkpt>
<trkpt lat="45.52585" lon="13.56621">
<ele>44</ele>
<time>2011-05-01T11:12:30Z</time>
</trkpt>
<trkpt lat="45.52582" lon="13.56617">
<ele>44</ele>
<time>2011-05-01T11:12:33Z</time>
</trkpt>
<trkpt lat="45.52578" lon="13.56612">
<ele>44</ele>
<time>2011-05-01T11:12:36Z</time>
</trkpt>
<trkpt lat="45.52576" lon="13.56606">
<ele>44</ele>
<time>2011-05-01T11:12:39Z</time>
</trkpt>
<trkpt lat="45.52572" lon="13.56601">
<ele>45</ele>
<time>2011-05-01T11:12:42Z</time>
</trkpt>
<trkpt lat="45.5257" lon="13.56596">
<ele>45</ele>
<time>2011-05-01T11:12:45Z</time>
</trkpt>
<trkpt lat="45.52567" lon="13.5659">
<ele>45</ele>
<time>2011-05-01T11:12:48Z</time>
</trkpt>
<trkpt lat="45.52564" lon="13.56584">
<ele>45</ele>
<time>2011-05-01T11:12:51Z</time>
</trkpt>
<trkpt lat="45.52562" lon="13.56578">
<ele>45</ele>
<time>2011-05-01T11:12:54Z</time>
</trkpt>
<trkpt lat="45.5256" lon="13.56571">
<ele>45</ele>
<time>2011-05-01T11:12:57Z</time>
</trkpt>
<trkpt lat="45.52558" lon="13.56564">
<ele>45</ele>
<time>2011-05-01T11:13:00Z</time>
</trkpt>
<trkpt lat="45.52556" lon="13.56558">
<ele>45</ele>
<time>2011-05-01T11:13:03Z</time>
</trkpt>
<trkpt lat="45.52554" lon="13.56551">
<ele>45</ele>
<time>2011-05-01T11:13:06Z</time>
</trkpt>
<trkpt lat="45.52552" lon="13.56544">
<ele>45</ele>
<time>2011-05-01T11:13:09Z</time>
</trkpt>
<trkpt lat="45.5255" lon="13.56537">
<ele>45</ele>
<time>2011-05-01T11:13:12Z</time>
</trkpt>
<trkpt lat="45.52548" lon="13.56529">
<ele>46</ele>
<time>2011-05-01T11:13:15Z</time>
</trkpt>
<trkpt lat="45.52546" lon="13.56521">
<ele>46</ele>
<time>2011-05-01T11:13:18Z</time>
</trkpt>
<trkpt lat="45.52544" lon="13.56513">
<ele>46</ele>
<time>2011-05-01T11:13:21Z</time>
</trkpt>
<trkpt lat="45.52541" lon="13.56506">
<ele>46</ele>
<time>2011-05-01T11:13:24Z</time>
</trkpt>
<trkpt lat="45.5254" lon="13.565">
<ele>46</ele>
<time>2011-05-01T11:13:27Z</time>
</trkpt>
<trkpt lat="45.52537" lon="13.56493">
<ele>46</ele>
<time>2011-05-01T11:13:30Z</time>
</trkpt>
<trkpt lat="45.52535" lon="13.56487">
<ele>46</ele>
<time>2011-05-01T11:13:33Z</time>
</trkpt>
<trkpt lat="45.52533" lon="13.5648">
<ele>46</ele>
<time>2011-05-01T11:13:36Z</time>
</trkpt>
<trkpt lat="45.52532" lon="13.56473">
<ele>47</ele>
<time>2011-05-01T11:13:39Z</time>
</trkpt>
<trkpt lat="45.52529" lon="13.56466">
<ele>47</ele>
<time>2011-05-01T11:13:42Z</time>
</trkpt>
<trkpt lat="45.52527" lon="13.56459">
<ele>47</ele>
<time>2011-05-01T11:13:45Z</time>
</trkpt>
<trkpt lat="45.52524" lon="13.56453">
<ele>47</ele>
<time>2011-05-01T11:13:48Z</time>
</trkpt>
<trkpt lat="45.52522" lon="13.56446">
<ele>47</ele>
<time>2011-05-01T11:13:51Z</time>
</trkpt>
<trkpt lat="45.5252" lon="13.56439">
<ele>47</ele>
<time>2011-05-01T11:13:54Z</time>
</trkpt>
<trkpt lat="45.52518" lon="13.56432">
<ele>47</ele>
<time>2011-05-01T11:13:57Z</time>
</trkpt>
<trkpt lat="45.52516" lon="13.56425">
<ele>47</ele>
<time>2011-05-01T11:14:00Z</time>
</trkpt>
<trkpt lat="45.52514" lon="13.56418">
<ele>47</ele>
<time>2011-05-01T11:14:03Z</time>
</trkpt>
<trkpt lat="45.52512" lon="13.56411">
<ele>47</ele>
<time>2011-05-01T11:14:06Z</time>
</trkpt>
<trkpt lat="45.5251" lon="13.56404">
<ele>48</ele>
<time>2011-05-01T11:14:09Z</time>
</trkpt>
<trkpt lat="45.52509" lon="13.56398">
<ele>48</ele>
<time>2011-05-01T11:14:12Z</time>
</trkpt>
<trkpt lat="45.52507" lon="13.56391">
<ele>48</ele>
<time>2011-05-01T11:14:15Z</time>
</trkpt>
<trkpt lat="45.52506" lon="13.56384">
<ele>48</ele>
<time>2011-05-01T11:14:18Z</time>
</trkpt>
<trkpt lat="45.52504" lon="13.56378">
<ele>48</ele>
<time>2011-05-01T11:14:21Z</time>
</trkpt>
<trkpt lat="45.52503" lon="13.5637">
<ele>48</ele>
<time>2011-05-01T11:14:25Z</time>
</trkpt>
<trkpt lat="45.52502" lon="13.56362">
<ele>48</ele>
<time>2011-05-01T11:14:29Z</time>
</trkpt>
<trkpt lat="45.52501" lon="13.56355">
<ele>48</ele>
<time>2011-05-01T11:14:33Z</time>
</trkpt>
<trkpt lat="45.525" lon="13.56348">
<ele>48</ele>
<time>2011-05-01T11:14:37Z</time>
</trkpt>
<trkpt lat="45.525" lon="13.5634">
<ele>48</ele>
<time>2011-05-01T11:14:41Z</time>
</trkpt>
<trkpt lat="45.52501" lon="13.56334">
<ele>48</ele>
<time>2011-05-01T11:14:46Z</time>
</trkpt>
<trkpt lat="45.52502" lon="13.56327">
<ele>48</ele>
<time>2011-05-01T11:14:51Z</time>
</trkpt>
<trkpt lat="45.52502" lon="13.56319">
<ele>48</ele>
<time>2011-05-01T11:14:56Z</time>
</trkpt>
<trkpt lat="45.52502" lon="13.56313">
<ele>48</ele>
<time>2011-05-01T11:15:00Z</time>
</trkpt>
<trkpt lat="45.52502" lon="13.56306">
<ele>48</ele>
<time>2011-05-01T11:15:05Z</time>
</trkpt>
<trkpt lat="45.52502" lon="13.56299">
<ele>48</ele>
<time>2011-05-01T11:15:10Z</time>
</trkpt>
<trkpt lat="45.52502" lon="13.56291">
<ele>48</ele>
<time>2011-05-01T11:15:15Z</time>
</trkpt>
<trkpt lat="45.52502" lon="13.56284">
<ele>48</ele>
<time>2011-05-01T11:15:20Z</time>
</trkpt>
<trkpt lat="45.52502" lon="13.56277">
<ele>48</ele>
<time>2011-05-01T11:15:25Z</time>
</trkpt>
<trkpt lat="45.52502" lon="13.56269">
<ele>48</ele>
<time>2011-05-01T11:15:30Z</time>
</trkpt>
<trkpt lat="45.52502" lon="13.56261">
<ele>48</ele>
<time>2011-05-01T11:15:35Z</time>
</trkpt>
<trkpt lat="45.52503" lon="13.56254">
<ele>48</ele>
<time>2011-05-01T11:15:40Z</time>
</trkpt>
<trkpt lat="45.52504" lon="13.56247">
<ele>47</ele>
<time>2011-05-01T11:15:45Z</time>
</trkpt>
<trkpt lat="45.52505" lon="13.56239">
<ele>47</ele>
<time>2011-05-01T11:15:50Z</time>
</trkpt>
<trkpt lat="45.52506" lon="13.56232">
<ele>47</ele>
<time>2011-05-01T11:15:55Z</time>
</trkpt>
<trkpt lat="45.52507" lon="13.56225">
<ele>47</ele>
<time>2011-05-01T11:15:59Z</time>
</trkpt>
<trkpt lat="45.52508" lon="13.56218">
<ele>47</ele>
<time>2011-05-01T11:16:03Z</time>
</trkpt>
<trkpt lat="45.52509" lon="13.5621">
<ele>46</ele>
<time>2011-05-01T11:16:07Z</time>
</trkpt>
<trkpt lat="45.52509" lon="13.56203">
<ele>46</ele>
<time>2011-05-01T11:16:11Z</time>
</trkpt>
<trkpt lat="45.52508" lon="13.56197">
<ele>46</ele>
<time>2011-05-01T11:16:15Z</time>
</trkpt>
<trkpt lat="45.52508" lon="13.5619">
<ele>46</ele>
<time>2011-05-01T11:16:19Z</time>
</trkpt>
<trkpt lat="45.52508" lon="13.56183">
<ele>46</ele>
<time>2011-05-01T11:16:23Z</time>
</trkpt>
<trkpt lat="45.52508" lon="13.56176">
<ele>45</ele>
<time>2011-05-01T11:16:27Z</time>
</trkpt>
<trkpt lat="45.52508" lon="13.56169">
<ele>45</ele>
<time>2011-05-01T11:16:31Z</time>
</trkpt>
<trkpt lat="45.52508" lon="13.56162">
<ele>45</ele>
<time>2011-05-01T11:16:35Z</time>
</trkpt>
<trkpt lat="45.52508" lon="13.56155">
<ele>45</ele>
<time>2011-05-01T11:16:39Z</time>
</trkpt>
<trkpt lat="45.52507" lon="13.56149">
<ele>45</ele>
<time>2011-05-01T11:16:43Z</time>
</trkpt>
<trkpt lat="45.52505" lon="13.56141">
<ele>44</ele>
<time>2011-05-01T11:16:48Z</time>
</trkpt>
<trkpt lat="45.52503" lon="13.56134">
<ele>44</ele>
<time>2011-05-01T11:16:53Z</time>
</trkpt>
<trkpt lat="45.52501" lon="13.56128">
<ele>44</ele>
<time>2011-05-01T11:16:57Z</time>
</trkpt>
<trkpt lat="45.52499" lon="13.56122">
<ele>44</ele>
<time>2011-05-01T11:17:01Z</time>
</trkpt>
<trkpt lat="45.52496" lon="13.56116">
<ele>44</ele>
<time>2011-05-01T11:17:06Z</time>
</trkpt>
<trkpt lat="45.52494" lon="13.56108">
<ele>44</ele>
<time>2011-05-01T11:17:11Z</time>
</trkpt>
<trkpt lat="45.52493" lon="13.56102">
<ele>44</ele>
<time>2011-05-01T11:17:16Z</time>
</trkpt>
<trkpt lat="45.52491" lon="13.56095">
<ele>44</ele>
<time>2011-05-01T11:17:21Z</time>
</trkpt>
<trkpt lat="45.52489" lon="13.56089">
<ele>44</ele>
<time>2011-05-01T11:17:26Z</time>
</trkpt>
<trkpt lat="45.52487" lon="13.56082">
<ele>44</ele>
<time>2011-05-01T11:17:32Z</time>
</trkpt>
<trkpt lat="45.52485" lon="13.56075">
<ele>44</ele>
<time>2011-05-01T11:17:38Z</time>
</trkpt>
<trkpt lat="45.52483" lon="13.56068">
<ele>44</ele>
<time>2011-05-01T11:17:45Z</time>
</trkpt>
<trkpt lat="45.52485" lon="13.56062">
<ele>44</ele>
<time>2011-05-01T11:17:59Z</time>
</trkpt>
<trkpt lat="45.52489" lon="13.5606">
<ele>44</ele>
<time>2011-05-01T11:18:11Z</time>
</trkpt>
<trkpt lat="45.52493" lon="13.56063">
<ele>43</ele>
<time>2011-05-01T11:18:21Z</time>
</trkpt>
<trkpt lat="45.52498" lon="13.56065">
<ele>43</ele>
<time>2011-05-01T11:18:30Z</time>
</trkpt>
<trkpt lat="45.52502" lon="13.56067">
<ele>43</ele>
<time>2011-05-01T11:18:41Z</time>
</trkpt>
<trkpt lat="45.52507" lon="13.56069">
<ele>43</ele>
<time>2011-05-01T11:18:51Z</time>
</trkpt>
<trkpt lat="45.52511" lon="13.56071">
<ele>43</ele>
<time>2011-05-01T11:19:01Z</time>
</trkpt>
<trkpt lat="45.52516" lon="13.56072">
<ele>43</ele>
<time>2011-05-01T11:19:08Z</time>
</trkpt>
<trkpt lat="45.52521" lon="13.56072">
<ele>43</ele>
<time>2011-05-01T11:19:13Z</time>
</trkpt>
<trkpt lat="45.52526" lon="13.5607">
<ele>43</ele>
<time>2011-05-01T11:19:18Z</time>
</trkpt>
<trkpt lat="45.5253" lon="13.56067">
<ele>43</ele>
<time>2011-05-01T11:19:24Z</time>
</trkpt>
<trkpt lat="45.52534" lon="13.56062">
<ele>43</ele>
<time>2011-05-01T11:19:33Z</time>
</trkpt>
<trkpt lat="45.52536" lon="13.56057">
<ele>43</ele>
<time>2011-05-01T11:19:43Z</time>
</trkpt>
<trkpt lat="45.52534" lon="13.56051">
<ele>43</ele>
<time>2011-05-01T11:20:03Z</time>
</trkpt>
<trkpt lat="45.5253" lon="13.56048">
<ele>43</ele>
<time>2011-05-01T11:20:25Z</time>
</trkpt>
<trkpt lat="45.52526" lon="13.56045">
<ele>43</ele>
<time>2011-05-01T11:20:41Z</time>
</trkpt>
<trkpt lat="45.52522" lon="13.5604">
<ele>43</ele>
<time>2011-05-01T11:20:57Z</time>
</trkpt>
<trkpt lat="45.52518" lon="13.56037">
<ele>43</ele>
<time>2011-05-01T11:21:06Z</time>
</trkpt>
<trkpt lat="45.52514" lon="13.56033">
<ele>44</ele>
<time>2011-05-01T11:21:15Z</time>
</trkpt>
<trkpt lat="45.5251" lon="13.56028">
<ele>44</ele>
<time>2011-05-01T11:21:24Z</time>
</trkpt>
<trkpt lat="45.52507" lon="13.56023">
<ele>44</ele>
<time>2011-05-01T11:21:33Z</time>
</trkpt>
<trkpt lat="45.52504" lon="13.56017">
<ele>45</ele>
<time>2011-05-01T11:21:42Z</time>
</trkpt>
<trkpt lat="45.52501" lon="13.56012">
<ele>45</ele>
<time>2011-05-01T11:21:49Z</time>
</trkpt>
<trkpt lat="45.52499" lon="13.56006">
<ele>45</ele>
<time>2011-05-01T11:21:55Z</time>
</trkpt>
<trkpt lat="45.52497" lon="13.56">
<ele>45</ele>
<time>2011-05-01T11:22:02Z</time>
</trkpt>
<trkpt lat="45.52494" lon="13.55994">
<ele>45</ele>
<time>2011-05-01T11:22:09Z</time>
</trkpt>
<trkpt lat="45.52492" lon="13.55988">
<ele>45</ele>
<time>2011-05-01T11:22:16Z</time>
</trkpt>
<trkpt lat="45.52491" lon="13.55981">
<ele>45</ele>
<time>2011-05-01T11:22:22Z</time>
</trkpt>
<trkpt lat="45.52489" lon="13.55975">
<ele>46</ele>
<time>2011-05-01T11:22:27Z</time>
</trkpt>
<trkpt lat="45.52487" lon="13.55969">
<ele>46</ele>
<time>2011-05-01T11:22:32Z</time>
</trkpt>
<trkpt lat="45.52485" lon="13.55963">
<ele>46</ele>
<time>2011-05-01T11:22:38Z</time>
</trkpt>
<trkpt lat="45.52483" lon="13.55957">
<ele>46</ele>
<time>2011-05-01T11:22:44Z</time>
</trkpt>
<trkpt lat="45.52481" lon="13.5595">
<ele>46</ele>
<time>2011-05-01T11:22:50Z</time>
</trkpt>
<trkpt lat="45.52478" lon="13.55944">
<ele>46</ele>
<time>2011-05-01T11:22:56Z</time>
</trkpt>
<trkpt lat="45.52476" lon="13.55938">
<ele>47</ele>
<time>2011-05-01T11:23:02Z</time>
</trkpt>
<trkpt lat="45.52473" lon="13.55931">
<ele>47</ele>
<time>2011-05-01T11:23:08Z</time>
</trkpt>
<trkpt lat="45.5247" lon="13.55926">
<ele>47</ele>
<time>2011-05-01T11:23:13Z</time>
</trkpt>
<trkpt lat="45.52468" lon="13.55919">
<ele>47</ele>
<time>2011-05-01T11:23:18Z</time>
</trkpt>
<trkpt lat="45.52465" lon="13.55914">
<ele>47</ele>
<time>2011-05-01T11:23:22Z</time>
</trkpt>
<trkpt lat="45.52463" lon="13.55907">
<ele>47</ele>
<time>2011-05-01T11:23:26Z</time>
</trkpt>
<trkpt lat="45.52461" lon="13.559">
<ele>47</ele>
<time>2011-05-01T11:23:30Z</time>
</trkpt>
<trkpt lat="45.52459" lon="13.55893">
<ele>47</ele>
<time>2011-05-01T11:23:34Z</time>
</trkpt>
<trkpt lat="45.52456" lon="13.55887">
<ele>48</ele>
<time>2011-05-01T11:23:38Z</time>
</trkpt>
<trkpt lat="45.52454" lon="13.5588">
<ele>48</ele>
<time>2011-05-01T11:23:42Z</time>
</trkpt>
<trkpt lat="45.52451" lon="13.55873">
<ele>48</ele>
<time>2011-05-01T11:23:46Z</time>
</trkpt>
<trkpt lat="45.52449" lon="13.55866">
<ele>48</ele>
<time>2011-05-01T11:23:50Z</time>
</trkpt>
<trkpt lat="45.52447" lon="13.55859">
<ele>48</ele>
<time>2011-05-01T11:23:54Z</time>
</trkpt>
<trkpt lat="45.52444" lon="13.55852">
<ele>48</ele>
<time>2011-05-01T11:23:58Z</time>
</trkpt>
<trkpt lat="45.52442" lon="13.55845">
<ele>48</ele>
<time>2011-05-01T11:24:02Z</time>
</trkpt>
<trkpt lat="45.52439" lon="13.55838">
<ele>48</ele>
<time>2011-05-01T11:24:06Z</time>
</trkpt>
<trkpt lat="45.52437" lon="13.5583">
<ele>48</ele>
<time>2011-05-01T11:24:10Z</time>
</trkpt>
<trkpt lat="45.52434" lon="13.55823">
<ele>48</ele>
<time>2011-05-01T11:24:14Z</time>
</trkpt>
<trkpt lat="45.52432" lon="13.55816">
<ele>49</ele>
<time>2011-05-01T11:24:18Z</time>
</trkpt>
<trkpt lat="45.52429" lon="13.55808">
<ele>49</ele>
<time>2011-05-01T11:24:22Z</time>
</trkpt>
<trkpt lat="45.52427" lon="13.55801">
<ele>49</ele>
<time>2011-05-01T11:24:26Z</time>
</trkpt>
<trkpt lat="45.52424" lon="13.55794">
<ele>49</ele>
<time>2011-05-01T11:24:30Z</time>
</trkpt>
<trkpt lat="45.52422" lon="13.55786">
<ele>49</ele>
<time>2011-05-01T11:24:34Z</time>
</trkpt>
<trkpt lat="45.5242" lon="13.55778">
<ele>49</ele>
<time>2011-05-01T11:24:38Z</time>
</trkpt>
<trkpt lat="45.52418" lon="13.55771">
<ele>49</ele>
<time>2011-05-01T11:24:42Z</time>
</trkpt>
<trkpt lat="45.52415" lon="13.55763">
<ele>49</ele>
<time>2011-05-01T11:24:46Z</time>
</trkpt>
<trkpt lat="45.52413" lon="13.55756">
<ele>49</ele>
<time>2011-05-01T11:24:50Z</time>
</trkpt>
<trkpt lat="45.5241" lon="13.5575">
<ele>49</ele>
<time>2011-05-01T11:24:54Z</time>
</trkpt>
<trkpt lat="45.52408" lon="13.55743">
<ele>49</ele>
<time>2011-05-01T11:24:58Z</time>
</trkpt>
<trkpt lat="45.52405" lon="13.55736">
<ele>49</ele>
<time>2011-05-01T11:25:02Z</time>
</trkpt>
<trkpt lat="45.52403" lon="13.55729">
<ele>49</ele>
<time>2011-05-01T11:25:06Z</time>
</trkpt>
<trkpt lat="45.52401" lon="13.55722">
<ele>49</ele>
<time>2011-05-01T11:25:10Z</time>
</trkpt>
<trkpt lat="45.52398" lon="13.55716">
<ele>49</ele>
<time>2011-05-01T11:25:14Z</time>
</trkpt>
<trkpt lat="45.52395" lon="13.55709">
<ele>49</ele>
<time>2011-05-01T11:25:18Z</time>
</trkpt>
<trkpt lat="45.52392" lon="13.55703">
<ele>49</ele>
<time>2011-05-01T11:25:22Z</time>
</trkpt>
<trkpt lat="45.5239" lon="13.55696">
<ele>49</ele>
<time>2011-05-01T11:25:26Z</time>
</trkpt>
<trkpt lat="45.52388" lon="13.55689">
<ele>49</ele>
<time>2011-05-01T11:25:30Z</time>
</trkpt>
<trkpt lat="45.52385" lon="13.55682">
<ele>49</ele>
<time>2011-05-01T11:25:34Z</time>
</trkpt>
<trkpt lat="45.52382" lon="13.55675">
<ele>49</ele>
<time>2011-05-01T11:25:38Z</time>
</trkpt>
<trkpt lat="45.52379" lon="13.55668">
<ele>49</ele>
<time>2011-05-01T11:25:42Z</time>
</trkpt>
<trkpt lat="45.52376" lon="13.55661">
<ele>49</ele>
<time>2011-05-01T11:25:46Z</time>
</trkpt>
<trkpt lat="45.52373" lon="13.55654">
<ele>49</ele>
<time>2011-05-01T11:25:50Z</time>
</trkpt>
<trkpt lat="45.5237" lon="13.55646">
<ele>49</ele>
<time>2011-05-01T11:25:54Z</time>
</trkpt>
<trkpt lat="45.52368" lon="13.55639">
<ele>49</ele>
<time>2011-05-01T11:25:58Z</time>
</trkpt>
<trkpt lat="45.52365" lon="13.55632">
<ele>49</ele>
<time>2011-05-01T11:26:02Z</time>
</trkpt>
<trkpt lat="45.52362" lon="13.55626">
<ele>49</ele>
<time>2011-05-01T11:26:06Z</time>
</trkpt>
<trkpt lat="45.52359" lon="13.55619">
<ele>50</ele>
<time>2011-05-01T11:26:10Z</time>
</trkpt>
<trkpt lat="45.52356" lon="13.55612">
<ele>50</ele>
<time>2011-05-01T11:26:14Z</time>
</trkpt>
<trkpt lat="45.52354" lon="13.55605">
<ele>50</ele>
<time>2011-05-01T11:26:18Z</time>
</trkpt>
<trkpt lat="45.52351" lon="13.55597">
<ele>50</ele>
<time>2011-05-01T11:26:22Z</time>
</trkpt>
<trkpt lat="45.52349" lon="13.5559">
<ele>50</ele>
<time>2011-05-01T11:26:26Z</time>
</trkpt>
<trkpt lat="45.52346" lon="13.55583">
<ele>50</ele>
<time>2011-05-01T11:26:30Z</time>
</trkpt>
<trkpt lat="45.52344" lon="13.55576">
<ele>50</ele>
<time>2011-05-01T11:26:34Z</time>
</trkpt>
<trkpt lat="45.52341" lon="13.55569">
<ele>50</ele>
<time>2011-05-01T11:26:38Z</time>
</trkpt>
<trkpt lat="45.52339" lon="13.55562">
<ele>50</ele>
<time>2011-05-01T11:26:42Z</time>
</trkpt>
<trkpt lat="45.52336" lon="13.55555">
<ele>50</ele>
<time>2011-05-01T11:26:46Z</time>
</trkpt>
<trkpt lat="45.52333" lon="13.55549">
<ele>50</ele>
<time>2011-05-01T11:26:50Z</time>
</trkpt>
<trkpt lat="45.5233" lon="13.55543">
<ele>50</ele>
<time>2011-05-01T11:26:54Z</time>
</trkpt>
<trkpt lat="45.52328" lon="13.55536">
<ele>50</ele>
<time>2011-05-01T11:26:58Z</time>
</trkpt>
<trkpt lat="45.52326" lon="13.5553">
<ele>50</ele>
<time>2011-05-01T11:27:02Z</time>
</trkpt>
<trkpt lat="45.52324" lon="13.55524">
<ele>50</ele>
<time>2011-05-01T11:27:06Z</time>
</trkpt>
<trkpt lat="45.52321" lon="13.55519">
<ele>50</ele>
<time>2011-05-01T11:27:10Z</time>
</trkpt>
<trkpt lat="45.52318" lon="13.55512">
<ele>50</ele>
<time>2011-05-01T11:27:15Z</time>
</trkpt>
<trkpt lat="45.52316" lon="13.55505">
<ele>50</ele>
<time>2011-05-01T11:27:20Z</time>
</trkpt>
<trkpt lat="45.52313" lon="13.55499">
<ele>50</ele>
<time>2011-05-01T11:27:25Z</time>
</trkpt>
<trkpt lat="45.5231" lon="13.55493">
<ele>50</ele>
<time>2011-05-01T11:27:30Z</time>
</trkpt>
<trkpt lat="45.52307" lon="13.55487">
<ele>50</ele>
<time>2011-05-01T11:27:35Z</time>
</trkpt>
<trkpt lat="45.52304" lon="13.55481">
<ele>50</ele>
<time>2011-05-01T11:27:40Z</time>
</trkpt>
<trkpt lat="45.52301" lon="13.55474">
<ele>50</ele>
<time>2011-05-01T11:27:45Z</time>
</trkpt>
<trkpt lat="45.52298" lon="13.5547">
<ele>50</ele>
<time>2011-05-01T11:27:49Z</time>
</trkpt>
<trkpt lat="45.52296" lon="13.55464">
<ele>50</ele>
<time>2011-05-01T11:27:53Z</time>
</trkpt>
<trkpt lat="45.52293" lon="13.55458">
<ele>50</ele>
<time>2011-05-01T11:27:57Z</time>
</trkpt>
<trkpt lat="45.5229" lon="13.55452">
<ele>50</ele>
<time>2011-05-01T11:28:01Z</time>
</trkpt>
<trkpt lat="45.52288" lon="13.55446">
<ele>51</ele>
<time>2011-05-01T11:28:05Z</time>
</trkpt>
<trkpt lat="45.52285" lon="13.55439">
<ele>51</ele>
<time>2011-05-01T11:28:09Z</time>
</trkpt>
<trkpt lat="45.52282" lon="13.55433">
<ele>51</ele>
<time>2011-05-01T11:28:13Z</time>
</trkpt>
<trkpt lat="45.52279" lon="13.55427">
<ele>51</ele>
<time>2011-05-01T11:28:17Z</time>
</trkpt>
<trkpt lat="45.52276" lon="13.55421">
<ele>51</ele>
<time>2011-05-01T11:28:21Z</time>
</trkpt>
<trkpt lat="45.52274" lon="13.55415">
<ele>51</ele>
<time>2011-05-01T11:28:25Z</time>
</trkpt>
<trkpt lat="45.52271" lon="13.55409">
<ele>51</ele>
<time>2011-05-01T11:28:29Z</time>
</trkpt>
<trkpt lat="45.52268" lon="13.55403">
<ele>51</ele>
<time>2011-05-01T11:28:33Z</time>
</trkpt>
<trkpt lat="45.52265" lon="13.55397">
<ele>51</ele>
<time>2011-05-01T11:28:37Z</time>
</trkpt>
<trkpt lat="45.52262" lon="13.55392">
<ele>51</ele>
<time>2011-05-01T11:28:41Z</time>
</trkpt>
<trkpt lat="45.52259" lon="13.55386">
<ele>51</ele>
<time>2011-05-01T11:28:45Z</time>
</trkpt>
<trkpt lat="45.52256" lon="13.55379">
<ele>51</ele>
<time>2011-05-01T11:28:49Z</time>
</trkpt>
<trkpt lat="45.52253" lon="13.55373">
<ele>51</ele>
<time>2011-05-01T11:28:53Z</time>
</trkpt>
<trkpt lat="45.5225" lon="13.55366">
<ele>51</ele>
<time>2011-05-01T11:28:57Z</time>
</trkpt>
<trkpt lat="45.52247" lon="13.5536">
<ele>51</ele>
<time>2011-05-01T11:29:01Z</time>
</trkpt>
<trkpt lat="45.52244" lon="13.55353">
<ele>51</ele>
<time>2011-05-01T11:29:05Z</time>
</trkpt>
<trkpt lat="45.52241" lon="13.55346">
<ele>51</ele>
<time>2011-05-01T11:29:09Z</time>
</trkpt>
<trkpt lat="45.52238" lon="13.5534">
<ele>51</ele>
<time>2011-05-01T11:29:13Z</time>
</trkpt>
<trkpt lat="45.52236" lon="13.55334">
<ele>51</ele>
<time>2011-05-01T11:29:17Z</time>
</trkpt>
<trkpt lat="45.52233" lon="13.55328">
<ele>51</ele>
<time>2011-05-01T11:29:21Z</time>
</trkpt>
<trkpt lat="45.5223" lon="13.55322">
<ele>51</ele>
<time>2011-05-01T11:29:25Z</time>
</trkpt>
<trkpt lat="45.52227" lon="13.55315">
<ele>51</ele>
<time>2011-05-01T11:29:29Z</time>
</trkpt>
<trkpt lat="45.52224" lon="13.55309">
<ele>51</ele>
<time>2011-05-01T11:29:33Z</time>
</trkpt>
<trkpt lat="45.52222" lon="13.55302">
<ele>51</ele>
<time>2011-05-01T11:29:37Z</time>
</trkpt>
<trkpt lat="45.52219" lon="13.55296">
<ele>51</ele>
<time>2011-05-01T11:29:41Z</time>
</trkpt>
<trkpt lat="45.52217" lon="13.5529">
<ele>51</ele>
<time>2011-05-01T11:29:45Z</time>
</trkpt>
<trkpt lat="45.52215" lon="13.55283">
<ele>51</ele>
<time>2011-05-01T11:29:50Z</time>
</trkpt>
<trkpt lat="45.52212" lon="13.55278">
<ele>51</ele>
<time>2011-05-01T11:29:55Z</time>
</trkpt>
<trkpt lat="45.52209" lon="13.55272">
<ele>51</ele>
<time>2011-05-01T11:30:00Z</time>
</trkpt>
<trkpt lat="45.52205" lon="13.55267">
<ele>52</ele>
<time>2011-05-01T11:30:05Z</time>
</trkpt>
<trkpt lat="45.52202" lon="13.55261">
<ele>52</ele>
<time>2011-05-01T11:30:10Z</time>
</trkpt>
<trkpt lat="45.52198" lon="13.55254">
<ele>52</ele>
<time>2011-05-01T11:30:15Z</time>
</trkpt>
<trkpt lat="45.52196" lon="13.55249">
<ele>52</ele>
<time>2011-05-01T11:30:19Z</time>
</trkpt>
<trkpt lat="45.52194" lon="13.55243">
<ele>52</ele>
<time>2011-05-01T11:30:23Z</time>
</trkpt>
<trkpt lat="45.5219" lon="13.55237">
<ele>52</ele>
<time>2011-05-01T11:30:28Z</time>
</trkpt>
<trkpt lat="45.52187" lon="13.55231">
<ele>52</ele>
<time>2011-05-01T11:30:33Z</time>
</trkpt>
<trkpt lat="45.52184" lon="13.55225">
<ele>52</ele>
<time>2011-05-01T11:30:38Z</time>
</trkpt>
<trkpt lat="45.5218" lon="13.55219">
<ele>52</ele>
<time>2011-05-01T11:30:43Z</time>
</trkpt>
<trkpt lat="45.52177" lon="13.55212">
<ele>52</ele>
<time>2011-05-01T11:30:48Z</time>
</trkpt>
<trkpt lat="45.52173" lon="13.55206">
<ele>52</ele>
<time>2011-05-01T11:30:53Z</time>
</trkpt>
<trkpt lat="45.5217" lon="13.552">
<ele>52</ele>
<time>2011-05-01T11:30:57Z</time>
</trkpt>
<trkpt lat="45.52167" lon="13.55194">
<ele>52</ele>
<time>2011-05-01T11:31:01Z</time>
</trkpt>
<trkpt lat="45.52164" lon="13.55188">
<ele>52</ele>
<time>2011-05-01T11:31:05Z</time>
</trkpt>
<trkpt lat="45.52161" lon="13.55182">
<ele>52</ele>
<time>2011-05-01T11:31:08Z</time>
</trkpt>
<trkpt lat="45.52158" lon="13.55175">
<ele>52</ele>
<time>2011-05-01T11:31:12Z</time>
</trkpt>
<trkpt lat="45.52155" lon="13.55168">
<ele>52</ele>
<time>2011-05-01T11:31:16Z</time>
</trkpt>
<trkpt lat="45.52152" lon="13.55162">
<ele>52</ele>
<time>2011-05-01T11:31:20Z</time>
</trkpt>
<trkpt lat="45.52149" lon="13.55156">
<ele>52</ele>
<time>2011-05-01T11:31:24Z</time>
</trkpt>
<trkpt lat="45.52146" lon="13.55151">
<ele>52</ele>
<time>2011-05-01T11:31:28Z</time>
</trkpt>
<trkpt lat="45.52144" lon="13.55144">
<ele>52</ele>
<time>2011-05-01T11:31:32Z</time>
</trkpt>
<trkpt lat="45.52141" lon="13.55138">
<ele>52</ele>
<time>2011-05-01T11:31:36Z</time>
</trkpt>
<trkpt lat="45.52138" lon="13.55132">
<ele>52</ele>
<time>2011-05-01T11:31:40Z</time>
</trkpt>
<trkpt lat="45.52135" lon="13.55126">
<ele>52</ele>
<time>2011-05-01T11:31:44Z</time>
</trkpt>
<trkpt lat="45.52133" lon="13.55119">
<ele>52</ele>
<time>2011-05-01T11:31:48Z</time>
</trkpt>
<trkpt lat="45.5213" lon="13.55112">
<ele>52</ele>
<time>2011-05-01T11:31:52Z</time>
</trkpt>
<trkpt lat="45.52127" lon="13.55106">
<ele>52</ele>
<time>2011-05-01T11:31:56Z</time>
</trkpt>
<trkpt lat="45.52124" lon="13.55099">
<ele>52</ele>
<time>2011-05-01T11:32:00Z</time>
</trkpt>
<trkpt lat="45.52121" lon="13.55093">
<ele>52</ele>
<time>2011-05-01T11:32:04Z</time>
</trkpt>
<trkpt lat="45.52118" lon="13.55087">
<ele>52</ele>
<time>2011-05-01T11:32:08Z</time>
</trkpt>
<trkpt lat="45.52115" lon="13.5508">
<ele>52</ele>
<time>2011-05-01T11:32:12Z</time>
</trkpt>
<trkpt lat="45.52113" lon="13.55074">
<ele>52</ele>
<time>2011-05-01T11:32:16Z</time>
</trkpt>
<trkpt lat="45.5211" lon="13.55067">
<ele>52</ele>
<time>2011-05-01T11:32:20Z</time>
</trkpt>
<trkpt lat="45.52107" lon="13.5506">
<ele>52</ele>
<time>2011-05-01T11:32:24Z</time>
</trkpt>
<trkpt lat="45.52104" lon="13.55054">
<ele>52</ele>
<time>2011-05-01T11:32:28Z</time>
</trkpt>
<trkpt lat="45.52101" lon="13.55048">
<ele>52</ele>
<time>2011-05-01T11:32:32Z</time>
</trkpt>
<trkpt lat="45.52098" lon="13.55041">
<ele>52</ele>
<time>2011-05-01T11:32:36Z</time>
</trkpt>
<trkpt lat="45.52095" lon="13.55035">
<ele>52</ele>
<time>2011-05-01T11:32:40Z</time>
</trkpt>
<trkpt lat="45.52092" lon="13.55028">
<ele>52</ele>
<time>2011-05-01T11:32:44Z</time>
</trkpt>
<trkpt lat="45.52088" lon="13.55021">
<ele>52</ele>
<time>2011-05-01T11:32:48Z</time>
</trkpt>
<trkpt lat="45.52086" lon="13.55015">
<ele>52</ele>
<time>2011-05-01T11:32:52Z</time>
</trkpt>
<trkpt lat="45.52083" lon="13.55009">
<ele>52</ele>
<time>2011-05-01T11:32:56Z</time>
</trkpt>
<trkpt lat="45.52081" lon="13.55003">
<ele>52</ele>
<time>2011-05-01T11:33:00Z</time>
</trkpt>
<trkpt lat="45.52078" lon="13.54997">
<ele>52</ele>
<time>2011-05-01T11:33:04Z</time>
</trkpt>
<trkpt lat="45.52076" lon="13.54991">
<ele>52</ele>
<time>2011-05-01T11:33:08Z</time>
</trkpt>
<trkpt lat="45.52073" lon="13.54985">
<ele>52</ele>
<time>2011-05-01T11:33:12Z</time>
</trkpt>
<trkpt lat="45.5207" lon="13.5498">
<ele>52</ele>
<time>2011-05-01T11:33:16Z</time>
</trkpt>
<trkpt lat="45.52067" lon="13.54974">
<ele>52</ele>
<time>2011-05-01T11:33:20Z</time>
</trkpt>
<trkpt lat="45.52064" lon="13.54969">
<ele>52</ele>
<time>2011-05-01T11:33:24Z</time>
</trkpt>
<trkpt lat="45.52062" lon="13.54963">
<ele>52</ele>
<time>2011-05-01T11:33:28Z</time>
</trkpt>
<trkpt lat="45.52059" lon="13.54957">
<ele>52</ele>
<time>2011-05-01T11:33:32Z</time>
</trkpt>
<trkpt lat="45.52056" lon="13.5495">
<ele>52</ele>
<time>2011-05-01T11:33:36Z</time>
</trkpt>
<trkpt lat="45.52054" lon="13.54944">
<ele>52</ele>
<time>2011-05-01T11:33:40Z</time>
</trkpt>
<trkpt lat="45.52051" lon="13.54938">
<ele>52</ele>
<time>2011-05-01T11:33:44Z</time>
</trkpt>
<trkpt lat="45.52049" lon="13.54932">
<ele>52</ele>
<time>2011-05-01T11:33:48Z</time>
</trkpt>
<trkpt lat="45.52046" lon="13.54926">
<ele>52</ele>
<time>2011-05-01T11:33:52Z</time>
</trkpt>
<trkpt lat="45.52044" lon="13.5492">
<ele>52</ele>
<time>2011-05-01T11:33:56Z</time>
</trkpt>
<trkpt lat="45.52042" lon="13.54914">
<ele>52</ele>
<time>2011-05-01T11:34:00Z</time>
</trkpt>
<trkpt lat="45.52039" lon="13.54908">
<ele>52</ele>
<time>2011-05-01T11:34:05Z</time>
</trkpt>
<trkpt lat="45.52036" lon="13.54901">
<ele>52</ele>
<time>2011-05-01T11:34:10Z</time>
</trkpt>
<trkpt lat="45.52033" lon="13.54894">
<ele>52</ele>
<time>2011-05-01T11:34:15Z</time>
</trkpt>
<trkpt lat="45.52031" lon="13.54889">
<ele>52</ele>
<time>2011-05-01T11:34:19Z</time>
</trkpt>
<trkpt lat="45.52028" lon="13.54884">
<ele>52</ele>
<time>2011-05-01T11:34:23Z</time>
</trkpt>
<trkpt lat="45.52025" lon="13.54877">
<ele>52</ele>
<time>2011-05-01T11:34:28Z</time>
</trkpt>
<trkpt lat="45.52022" lon="13.54871">
<ele>52</ele>
<time>2011-05-01T11:34:33Z</time>
</trkpt>
<trkpt lat="45.52019" lon="13.54865">
<ele>52</ele>
<time>2011-05-01T11:34:39Z</time>
</trkpt>
<trkpt lat="45.52016" lon="13.54859">
<ele>52</ele>
<time>2011-05-01T11:34:45Z</time>
</trkpt>
<trkpt lat="45.52014" lon="13.54852">
<ele>52</ele>
<time>2011-05-01T11:34:51Z</time>
</trkpt>
<trkpt lat="45.52011" lon="13.54846">
<ele>51</ele>
<time>2011-05-01T11:34:57Z</time>
</trkpt>
<trkpt lat="45.52008" lon="13.5484">
<ele>51</ele>
<time>2011-05-01T11:35:03Z</time>
</trkpt>
<trkpt lat="45.52006" lon="13.54834">
<ele>51</ele>
<time>2011-05-01T11:35:09Z</time>
</trkpt>
<trkpt lat="45.52003" lon="13.54829">
<ele>51</ele>
<time>2011-05-01T11:35:15Z</time>
</trkpt>
<trkpt lat="45.52" lon="13.54823">
<ele>51</ele>
<time>2011-05-01T11:35:21Z</time>
</trkpt>
<trkpt lat="45.51996" lon="13.54818">
<ele>51</ele>
<time>2011-05-01T11:35:27Z</time>
</trkpt>
<trkpt lat="45.51993" lon="13.54812">
<ele>51</ele>
<time>2011-05-01T11:35:33Z</time>
</trkpt>
<trkpt lat="45.5199" lon="13.54807">
<ele>51</ele>
<time>2011-05-01T11:35:38Z</time>
</trkpt>
<trkpt lat="45.51987" lon="13.54801">
<ele>51</ele>
<time>2011-05-01T11:35:43Z</time>
</trkpt>
<trkpt lat="45.51985" lon="13.54795">
<ele>51</ele>
<time>2011-05-01T11:35:48Z</time>
</trkpt>
<trkpt lat="45.51983" lon="13.54788">
<ele>51</ele>
<time>2011-05-01T11:35:53Z</time>
</trkpt>
<trkpt lat="45.5198" lon="13.54781">
<ele>51</ele>
<time>2011-05-01T11:35:58Z</time>
</trkpt>
<trkpt lat="45.51978" lon="13.54774">
<ele>50</ele>
<time>2011-05-01T11:36:03Z</time>
</trkpt>
<trkpt lat="45.51975" lon="13.54768">
<ele>50</ele>
<time>2011-05-01T11:36:08Z</time>
</trkpt>
<trkpt lat="45.51973" lon="13.54761">
<ele>50</ele>
<time>2011-05-01T11:36:13Z</time>
</trkpt>
<trkpt lat="45.5197" lon="13.54755">
<ele>50</ele>
<time>2011-05-01T11:36:18Z</time>
</trkpt>
<trkpt lat="45.51968" lon="13.54749">
<ele>49</ele>
<time>2011-05-01T11:36:23Z</time>
</trkpt>
<trkpt lat="45.51965" lon="13.54743">
<ele>49</ele>
<time>2011-05-01T11:36:28Z</time>
</trkpt>
<trkpt lat="45.51962" lon="13.54736">
<ele>49</ele>
<time>2011-05-01T11:36:33Z</time>
</trkpt>
<trkpt lat="45.51959" lon="13.5473">
<ele>48</ele>
<time>2011-05-01T11:36:38Z</time>
</trkpt>
<trkpt lat="45.51956" lon="13.54723">
<ele>48</ele>
<time>2011-05-01T11:36:43Z</time>
</trkpt>
<trkpt lat="45.51954" lon="13.54718">
<ele>48</ele>
<time>2011-05-01T11:36:47Z</time>
</trkpt>
<trkpt lat="45.51952" lon="13.54712">
<ele>47</ele>
<time>2011-05-01T11:36:51Z</time>
</trkpt>
<trkpt lat="45.5195" lon="13.54706">
<ele>47</ele>
<time>2011-05-01T11:36:55Z</time>
</trkpt>
<trkpt lat="45.51946" lon="13.54701">
<ele>47</ele>
<time>2011-05-01T11:36:59Z</time>
</trkpt>
<trkpt lat="45.51943" lon="13.54696">
<ele>47</ele>
<time>2011-05-01T11:37:03Z</time>
</trkpt>
<trkpt lat="45.51939" lon="13.54691">
<ele>47</ele>
<time>2011-05-01T11:37:07Z</time>
</trkpt>
<trkpt lat="45.51936" lon="13.54684">
<ele>47</ele>
<time>2011-05-01T11:37:11Z</time>
</trkpt>
<trkpt lat="45.51933" lon="13.54678">
<ele>46</ele>
<time>2011-05-01T11:37:15Z</time>
</trkpt>
<trkpt lat="45.51931" lon="13.54671">
<ele>46</ele>
<time>2011-05-01T11:37:19Z</time>
</trkpt>
<trkpt lat="45.51928" lon="13.54664">
<ele>46</ele>
<time>2011-05-01T11:37:23Z</time>
</trkpt>
<trkpt lat="45.51926" lon="13.54658">
<ele>46</ele>
<time>2011-05-01T11:37:27Z</time>
</trkpt>
<trkpt lat="45.51924" lon="13.54652">
<ele>46</ele>
<time>2011-05-01T11:37:31Z</time>
</trkpt>
<trkpt lat="45.51922" lon="13.54645">
<ele>46</ele>
<time>2011-05-01T11:37:35Z</time>
</trkpt>
<trkpt lat="45.5192" lon="13.54639">
<ele>45</ele>
<time>2011-05-01T11:37:39Z</time>
</trkpt>
<trkpt lat="45.51917" lon="13.54634">
<ele>45</ele>
<time>2011-05-01T11:37:43Z</time>
</trkpt>
<trkpt lat="45.51914" lon="13.54627">
<ele>45</ele>
<time>2011-05-01T11:37:48Z</time>
</trkpt>
<trkpt lat="45.51911" lon="13.54621">
<ele>45</ele>
<time>2011-05-01T11:37:53Z</time>
</trkpt>
<trkpt lat="45.51908" lon="13.54615">
<ele>45</ele>
<time>2011-05-01T11:37:58Z</time>
</trkpt>
<trkpt lat="45.51905" lon="13.5461">
<ele>45</ele>
<time>2011-05-01T11:38:02Z</time>
</trkpt>
<trkpt lat="45.51902" lon="13.54603">
<ele>44</ele>
<time>2011-05-01T11:38:07Z</time>
</trkpt>
<trkpt lat="45.51899" lon="13.54596">
<ele>44</ele>
<time>2011-05-01T11:38:12Z</time>
</trkpt>
<trkpt lat="45.51896" lon="13.5459">
<ele>44</ele>
<time>2011-05-01T11:38:17Z</time>
</trkpt>
<trkpt lat="45.51893" lon="13.54584">
<ele>44</ele>
<time>2011-05-01T11:38:22Z</time>
</trkpt>
<trkpt lat="45.5189" lon="13.54577">
<ele>44</ele>
<time>2011-05-01T11:38:27Z</time>
</trkpt>
<trkpt lat="45.51888" lon="13.54571">
<ele>44</ele>
<time>2011-05-01T11:38:31Z</time>
</trkpt>
<trkpt lat="45.51886" lon="13.54565">
<ele>44</ele>
<time>2011-05-01T11:38:35Z</time>
</trkpt>
<trkpt lat="45.51884" lon="13.54559">
<ele>44</ele>
<time>2011-05-01T11:38:39Z</time>
</trkpt>
<trkpt lat="45.51882" lon="13.54552">
<ele>44</ele>
<time>2011-05-01T11:38:43Z</time>
</trkpt>
<trkpt lat="45.5188" lon="13.54546">
<ele>44</ele>
<time>2011-05-01T11:38:47Z</time>
</trkpt>
<trkpt lat="45.51878" lon="13.5454">
<ele>43</ele>
<time>2011-05-01T11:38:51Z</time>
</trkpt>
<trkpt lat="45.51875" lon="13.54534">
<ele>43</ele>
<time>2011-05-01T11:38:55Z</time>
</trkpt>
<trkpt lat="45.51873" lon="13.54528">
<ele>43</ele>
<time>2011-05-01T11:38:59Z</time>
</trkpt>
<trkpt lat="45.5187" lon="13.54522">
<ele>43</ele>
<time>2011-05-01T11:39:03Z</time>
</trkpt>
<trkpt lat="45.51868" lon="13.54517">
<ele>43</ele>
<time>2011-05-01T11:39:07Z</time>
</trkpt>
<trkpt lat="45.51866" lon="13.5451">
<ele>43</ele>
<time>2011-05-01T11:39:12Z</time>
</trkpt>
<trkpt lat="45.51864" lon="13.54502">
<ele>43</ele>
<time>2011-05-01T11:39:18Z</time>
</trkpt>
<trkpt lat="45.51862" lon="13.54496">
<ele>43</ele>
<time>2011-05-01T11:39:24Z</time>
</trkpt>
<trkpt lat="45.5186" lon="13.54489">
<ele>43</ele>
<time>2011-05-01T11:39:30Z</time>
</trkpt>
<trkpt lat="45.51856" lon="13.54484">
<ele>43</ele>
<time>2011-05-01T11:39:36Z</time>
</trkpt>
<trkpt lat="45.51853" lon="13.54478">
<ele>43</ele>
<time>2011-05-01T11:39:42Z</time>
</trkpt>
<trkpt lat="45.5185" lon="13.54473">
<ele>43</ele>
<time>2011-05-01T11:39:47Z</time>
</trkpt>
<trkpt lat="45.51847" lon="13.54467">
<ele>43</ele>
<time>2011-05-01T11:39:52Z</time>
</trkpt>
<trkpt lat="45.51844" lon="13.54462">
<ele>43</ele>
<time>2011-05-01T11:39:56Z</time>
</trkpt>
<trkpt lat="45.51842" lon="13.54454">
<ele>43</ele>
<time>2011-05-01T11:40:00Z</time>
</trkpt>
<trkpt lat="45.5184" lon="13.54447">
<ele>43</ele>
<time>2011-05-01T11:40:04Z</time>
</trkpt>
<trkpt lat="45.51838" lon="13.5444">
<ele>43</ele>
<time>2011-05-01T11:40:08Z</time>
</trkpt>
<trkpt lat="45.51836" lon="13.54434">
<ele>43</ele>
<time>2011-05-01T11:40:12Z</time>
</trkpt>
<trkpt lat="45.51833" lon="13.54429">
<ele>43</ele>
<time>2011-05-01T11:40:17Z</time>
</trkpt>
<trkpt lat="45.5183" lon="13.54423">
<ele>43</ele>
<time>2011-05-01T11:40:22Z</time>
</trkpt>
<trkpt lat="45.51828" lon="13.54417">
<ele>43</ele>
<time>2011-05-01T11:40:27Z</time>
</trkpt>
<trkpt lat="45.51825" lon="13.5441">
<ele>43</ele>
<time>2011-05-01T11:40:32Z</time>
</trkpt>
<trkpt lat="45.51822" lon="13.54404">
<ele>43</ele>
<time>2011-05-01T11:40:37Z</time>
</trkpt>
<trkpt lat="45.51819" lon="13.54397">
<ele>43</ele>
<time>2011-05-01T11:40:42Z</time>
</trkpt>
<trkpt lat="45.51817" lon="13.54391">
<ele>43</ele>
<time>2011-05-01T11:40:46Z</time>
</trkpt>
<trkpt lat="45.51815" lon="13.54385">
<ele>43</ele>
<time>2011-05-01T11:40:50Z</time>
</trkpt>
<trkpt lat="45.51813" lon="13.54378">
<ele>43</ele>
<time>2011-05-01T11:40:54Z</time>
</trkpt>
<trkpt lat="45.51811" lon="13.54372">
<ele>43</ele>
<time>2011-05-01T11:40:58Z</time>
</trkpt>
<trkpt lat="45.51809" lon="13.54366">
<ele>43</ele>
<time>2011-05-01T11:41:02Z</time>
</trkpt>
<trkpt lat="45.51807" lon="13.5436">
<ele>43</ele>
<time>2011-05-01T11:41:06Z</time>
</trkpt>
<trkpt lat="45.51805" lon="13.54353">
<ele>43</ele>
<time>2011-05-01T11:41:11Z</time>
</trkpt>
<trkpt lat="45.51802" lon="13.54347">
<ele>43</ele>
<time>2011-05-01T11:41:17Z</time>
</trkpt>
<trkpt lat="45.51799" lon="13.5434">
<ele>43</ele>
<time>2011-05-01T11:41:23Z</time>
</trkpt>
<trkpt lat="45.51796" lon="13.54335">
<ele>43</ele>
<time>2011-05-01T11:41:28Z</time>
</trkpt>
<trkpt lat="45.51793" lon="13.54328">
<ele>43</ele>
<time>2011-05-01T11:41:33Z</time>
</trkpt>
<trkpt lat="45.51791" lon="13.54322">
<ele>43</ele>
<time>2011-05-01T11:41:37Z</time>
</trkpt>
<trkpt lat="45.51789" lon="13.54315">
<ele>43</ele>
<time>2011-05-01T11:41:42Z</time>
</trkpt>
<trkpt lat="45.51786" lon="13.54309">
<ele>43</ele>
<time>2011-05-01T11:41:47Z</time>
</trkpt>
<trkpt lat="45.51784" lon="13.54303">
<ele>43</ele>
<time>2011-05-01T11:41:52Z</time>
</trkpt>
<trkpt lat="45.51782" lon="13.54296">
<ele>43</ele>
<time>2011-05-01T11:41:57Z</time>
</trkpt>
<trkpt lat="45.5178" lon="13.54289">
<ele>43</ele>
<time>2011-05-01T11:42:03Z</time>
</trkpt>
<trkpt lat="45.51779" lon="13.54283">
<ele>43</ele>
<time>2011-05-01T11:42:09Z</time>
</trkpt>
<trkpt lat="45.51777" lon="13.54277">
<ele>43</ele>
<time>2011-05-01T11:42:17Z</time>
</trkpt>
<trkpt lat="45.51776" lon="13.5427">
<ele>43</ele>
<time>2011-05-01T11:42:26Z</time>
</trkpt>
<trkpt lat="45.51773" lon="13.54264">
<ele>42</ele>
<time>2011-05-01T11:42:34Z</time>
</trkpt>
<trkpt lat="45.5177" lon="13.54258">
<ele>42</ele>
<time>2011-05-01T11:42:42Z</time>
</trkpt>
<trkpt lat="45.51767" lon="13.54253">
<ele>42</ele>
<time>2011-05-01T11:42:48Z</time>
</trkpt>
<trkpt lat="45.51764" lon="13.54247">
<ele>42</ele>
<time>2011-05-01T11:42:54Z</time>
</trkpt>
<trkpt lat="45.51761" lon="13.54241">
<ele>42</ele>
<time>2011-05-01T11:43:01Z</time>
</trkpt>
<trkpt lat="45.51758" lon="13.54235">
<ele>42</ele>
<time>2011-05-01T11:43:07Z</time>
</trkpt>
<trkpt lat="45.51756" lon="13.54229">
<ele>42</ele>
<time>2011-05-01T11:43:13Z</time>
</trkpt>
<trkpt lat="45.51753" lon="13.54223">
<ele>42</ele>
<time>2011-05-01T11:43:19Z</time>
</trkpt>
<trkpt lat="45.51752" lon="13.54216">
<ele>42</ele>
<time>2011-05-01T11:43:26Z</time>
</trkpt>
<trkpt lat="45.51749" lon="13.5421">
<ele>42</ele>
<time>2011-05-01T11:43:34Z</time>
</trkpt>
<trkpt lat="45.51746" lon="13.54205">
<ele>42</ele>
<time>2011-05-01T11:43:42Z</time>
</trkpt>
<trkpt lat="45.51741" lon="13.54202">
<ele>42</ele>
<time>2011-05-01T11:43:47Z</time>
</trkpt>
<trkpt lat="45.51738" lon="13.54197">
<ele>42</ele>
<time>2011-05-01T11:43:51Z</time>
</trkpt>
<trkpt lat="45.51734" lon="13.54192">
<ele>42</ele>
<time>2011-05-01T11:43:55Z</time>
</trkpt>
<trkpt lat="45.51731" lon="13.54185">
<ele>42</ele>
<time>2011-05-01T11:43:59Z</time>
</trkpt>
<trkpt lat="45.51728" lon="13.54178">
<ele>42</ele>
<time>2011-05-01T11:44:03Z</time>
</trkpt>
<trkpt lat="45.51725" lon="13.54172">
<ele>42</ele>
<time>2011-05-01T11:44:06Z</time>
</trkpt>
<trkpt lat="45.51723" lon="13.54165">
<ele>42</ele>
<time>2011-05-01T11:44:09Z</time>
</trkpt>
<trkpt lat="45.5172" lon="13.54159">
<ele>42</ele>
<time>2011-05-01T11:44:12Z</time>
</trkpt>
<trkpt lat="45.51717" lon="13.54152">
<ele>42</ele>
<time>2011-05-01T11:44:15Z</time>
</trkpt>
<trkpt lat="45.51714" lon="13.54146">
<ele>42</ele>
<time>2011-05-01T11:44:18Z</time>
</trkpt>
<trkpt lat="45.51711" lon="13.5414">
<ele>42</ele>
<time>2011-05-01T11:44:21Z</time>
</trkpt>
<trkpt lat="45.51708" lon="13.54133">
<ele>42</ele>
<time>2011-05-01T11:44:24Z</time>
</trkpt>
<trkpt lat="45.51705" lon="13.54127">
<ele>42</ele>
<time>2011-05-01T11:44:27Z</time>
</trkpt>
<trkpt lat="45.51702" lon="13.54121">
<ele>42</ele>
<time>2011-05-01T11:44:30Z</time>
</trkpt>
<trkpt lat="45.517" lon="13.54115">
<ele>42</ele>
<time>2011-05-01T11:44:33Z</time>
</trkpt>
<trkpt lat="45.51698" lon="13.54109">
<ele>41</ele>
<time>2011-05-01T11:44:36Z</time>
</trkpt>
<trkpt lat="45.51696" lon="13.54102">
<ele>41</ele>
<time>2011-05-01T11:44:40Z</time>
</trkpt>
<trkpt lat="45.51693" lon="13.54094">
<ele>41</ele>
<time>2011-05-01T11:44:44Z</time>
</trkpt>
<trkpt lat="45.5169" lon="13.54087">
<ele>41</ele>
<time>2011-05-01T11:44:48Z</time>
</trkpt>
<trkpt lat="45.51688" lon="13.54081">
<ele>41</ele>
<time>2011-05-01T11:44:51Z</time>
</trkpt>
<trkpt lat="45.51686" lon="13.54075">
<ele>41</ele>
<time>2011-05-01T11:44:54Z</time>
</trkpt>
<trkpt lat="45.51684" lon="13.54069">
<ele>41</ele>
<time>2011-05-01T11:44:57Z</time>
</trkpt>
<trkpt lat="45.51681" lon="13.54064">
<ele>41</ele>
<time>2011-05-01T11:45:00Z</time>
</trkpt>
<trkpt lat="45.51679" lon="13.54058">
<ele>41</ele>
<time>2011-05-01T11:45:03Z</time>
</trkpt>
<trkpt lat="45.51677" lon="13.54052">
<ele>41</ele>
<time>2011-05-01T11:45:06Z</time>
</trkpt>
<trkpt lat="45.51674" lon="13.54046">
<ele>41</ele>
<time>2011-05-01T11:45:09Z</time>
</trkpt>
<trkpt lat="45.51671" lon="13.5404">
<ele>41</ele>
<time>2011-05-01T11:45:12Z</time>
</trkpt>
<trkpt lat="45.51668" lon="13.54034">
<ele>41</ele>
<time>2011-05-01T11:45:15Z</time>
</trkpt>
<trkpt lat="45.51666" lon="13.54028">
<ele>41</ele>
<time>2011-05-01T11:45:18Z</time>
</trkpt>
<trkpt lat="45.51663" lon="13.54021">
<ele>41</ele>
<time>2011-05-01T11:45:21Z</time>
</trkpt>
<trkpt lat="45.5166" lon="13.54015">
<ele>41</ele>
<time>2011-05-01T11:45:24Z</time>
</trkpt>
<trkpt lat="45.51658" lon="13.54009">
<ele>40</ele>
<time>2011-05-01T11:45:27Z</time>
</trkpt>
<trkpt lat="45.51655" lon="13.54003">
<ele>40</ele>
<time>2011-05-01T11:45:30Z</time>
</trkpt>
<trkpt lat="45.51652" lon="13.53996">
<ele>40</ele>
<time>2011-05-01T11:45:33Z</time>
</trkpt>
<trkpt lat="45.5165" lon="13.5399">
<ele>40</ele>
<time>2011-05-01T11:45:36Z</time>
</trkpt>
<trkpt lat="45.51648" lon="13.53984">
<ele>40</ele>
<time>2011-05-01T11:45:39Z</time>
</trkpt>
<trkpt lat="45.51646" lon="13.53978">
<ele>40</ele>
<time>2011-05-01T11:45:42Z</time>
</trkpt>
<trkpt lat="45.51644" lon="13.53971">
<ele>40</ele>
<time>2011-05-01T11:45:45Z</time>
</trkpt>
<trkpt lat="45.51642" lon="13.53966">
<ele>40</ele>
<time>2011-05-01T11:45:48Z</time>
</trkpt>
<trkpt lat="45.5164" lon="13.5396">
<ele>40</ele>
<time>2011-05-01T11:45:51Z</time>
</trkpt>
<trkpt lat="45.51636" lon="13.53952">
<ele>40</ele>
<time>2011-05-01T11:45:55Z</time>
</trkpt>
<trkpt lat="45.51634" lon="13.53946">
<ele>40</ele>
<time>2011-05-01T11:45:59Z</time>
</trkpt>
<trkpt lat="45.51631" lon="13.53939">
<ele>40</ele>
<time>2011-05-01T11:46:03Z</time>
</trkpt>
<trkpt lat="45.51629" lon="13.53932">
<ele>40</ele>
<time>2011-05-01T11:46:07Z</time>
</trkpt>
<trkpt lat="45.51626" lon="13.53926">
<ele>40</ele>
<time>2011-05-01T11:46:11Z</time>
</trkpt>
<trkpt lat="45.51624" lon="13.5392">
<ele>40</ele>
<time>2011-05-01T11:46:15Z</time>
</trkpt>
<trkpt lat="45.51621" lon="13.53914">
<ele>40</ele>
<time>2011-05-01T11:46:19Z</time>
</trkpt>
<trkpt lat="45.51619" lon="13.53907">
<ele>40</ele>
<time>2011-05-01T11:46:23Z</time>
</trkpt>
<trkpt lat="45.51616" lon="13.53902">
<ele>40</ele>
<time>2011-05-01T11:46:27Z</time>
</trkpt>
<trkpt lat="45.51614" lon="13.53895">
<ele>40</ele>
<time>2011-05-01T11:46:32Z</time>
</trkpt>
<trkpt lat="45.51611" lon="13.53888">
<ele>40</ele>
<time>2011-05-01T11:46:37Z</time>
</trkpt>
<trkpt lat="45.51609" lon="13.53883">
<ele>40</ele>
<time>2011-05-01T11:46:41Z</time>
</trkpt>
<trkpt lat="45.51606" lon="13.53876">
<ele>40</ele>
<time>2011-05-01T11:46:46Z</time>
</trkpt>
<trkpt lat="45.51602" lon="13.5387">
<ele>40</ele>
<time>2011-05-01T11:46:50Z</time>
</trkpt>
<trkpt lat="45.51599" lon="13.53864">
<ele>40</ele>
<time>2011-05-01T11:46:54Z</time>
</trkpt>
<trkpt lat="45.51596" lon="13.53857">
<ele>40</ele>
<time>2011-05-01T11:46:58Z</time>
</trkpt>
<trkpt lat="45.51593" lon="13.53851">
<ele>40</ele>
<time>2011-05-01T11:47:02Z</time>
</trkpt>
<trkpt lat="45.5159" lon="13.53844">
<ele>40</ele>
<time>2011-05-01T11:47:06Z</time>
</trkpt>
<trkpt lat="45.51587" lon="13.53837">
<ele>40</ele>
<time>2011-05-01T11:47:10Z</time>
</trkpt>
<trkpt lat="45.51585" lon="13.5383">
<ele>40</ele>
<time>2011-05-01T11:47:14Z</time>
</trkpt>
<trkpt lat="45.51582" lon="13.53823">
<ele>40</ele>
<time>2011-05-01T11:47:18Z</time>
</trkpt>
<trkpt lat="45.51579" lon="13.53816">
<ele>40</ele>
<time>2011-05-01T11:47:22Z</time>
</trkpt>
<trkpt lat="45.51577" lon="13.53809">
<ele>40</ele>
<time>2011-05-01T11:47:26Z</time>
</trkpt>
<trkpt lat="45.51574" lon="13.53802">
<ele>40</ele>
<time>2011-05-01T11:47:30Z</time>
</trkpt>
<trkpt lat="45.51571" lon="13.53795">
<ele>40</ele>
<time>2011-05-01T11:47:34Z</time>
</trkpt>
<trkpt lat="45.51569" lon="13.53789">
<ele>40</ele>
<time>2011-05-01T11:47:38Z</time>
</trkpt>
<trkpt lat="45.51567" lon="13.53783">
<ele>40</ele>
<time>2011-05-01T11:47:42Z</time>
</trkpt>
<trkpt lat="45.51564" lon="13.53776">
<ele>40</ele>
<time>2011-05-01T11:47:47Z</time>
</trkpt>
<trkpt lat="45.51561" lon="13.5377">
<ele>40</ele>
<time>2011-05-01T11:47:52Z</time>
</trkpt>
<trkpt lat="45.51558" lon="13.53763">
<ele>39</ele>
<time>2011-05-01T11:47:57Z</time>
</trkpt>
<trkpt lat="45.51556" lon="13.53757">
<ele>39</ele>
<time>2011-05-01T11:48:01Z</time>
</trkpt>
<trkpt lat="45.51554" lon="13.53751">
<ele>39</ele>
<time>2011-05-01T11:48:05Z</time>
</trkpt>
<trkpt lat="45.51551" lon="13.53744">
<ele>39</ele>
<time>2011-05-01T11:48:09Z</time>
</trkpt>
<trkpt lat="45.51549" lon="13.53738">
<ele>39</ele>
<time>2011-05-01T11:48:13Z</time>
</trkpt>
<trkpt lat="45.51546" lon="13.53731">
<ele>39</ele>
<time>2011-05-01T11:48:18Z</time>
</trkpt>
<trkpt lat="45.51544" lon="13.53724">
<ele>39</ele>
<time>2011-05-01T11:48:23Z</time>
</trkpt>
<trkpt lat="45.51542" lon="13.53717">
<ele>39</ele>
<time>2011-05-01T11:48:28Z</time>
</trkpt>
<trkpt lat="45.51539" lon="13.5371">
<ele>39</ele>
<time>2011-05-01T11:48:33Z</time>
</trkpt>
<trkpt lat="45.51537" lon="13.53703">
<ele>39</ele>
<time>2011-05-01T11:48:38Z</time>
</trkpt>
<trkpt lat="45.51534" lon="13.53697">
<ele>40</ele>
<time>2011-05-01T11:48:43Z</time>
</trkpt>
<trkpt lat="45.51531" lon="13.53691">
<ele>40</ele>
<time>2011-05-01T11:48:48Z</time>
</trkpt>
<trkpt lat="45.51528" lon="13.53684">
<ele>40</ele>
<time>2011-05-01T11:48:53Z</time>
</trkpt>
<trkpt lat="45.51525" lon="13.53677">
<ele>40</ele>
<time>2011-05-01T11:48:58Z</time>
</trkpt>
<trkpt lat="45.51523" lon="13.53671">
<ele>40</ele>
<time>2011-05-01T11:49:02Z</time>
</trkpt>
<trkpt lat="45.5152" lon="13.53666">
<ele>40</ele>
<time>2011-05-01T11:49:06Z</time>
</trkpt>
<trkpt lat="45.51518" lon="13.5366">
<ele>40</ele>
<time>2011-05-01T11:49:10Z</time>
</trkpt>
<trkpt lat="45.51515" lon="13.53654">
<ele>40</ele>
<time>2011-05-01T11:49:14Z</time>
</trkpt>
<trkpt lat="45.51512" lon="13.53647">
<ele>40</ele>
<time>2011-05-01T11:49:18Z</time>
</trkpt>
<trkpt lat="45.5151" lon="13.53641">
<ele>40</ele>
<time>2011-05-01T11:49:22Z</time>
</trkpt>
<trkpt lat="45.51508" lon="13.53635">
<ele>40</ele>
<time>2011-05-01T11:49:26Z</time>
</trkpt>
<trkpt lat="45.51506" lon="13.53629">
<ele>40</ele>
<time>2011-05-01T11:49:30Z</time>
</trkpt>
<trkpt lat="45.51504" lon="13.53622">
<ele>40</ele>
<time>2011-05-01T11:49:35Z</time>
</trkpt>
<trkpt lat="45.51502" lon="13.53615">
<ele>40</ele>
<time>2011-05-01T11:49:40Z</time>
</trkpt>
<trkpt lat="45.51499" lon="13.53608">
<ele>40</ele>
<time>2011-05-01T11:49:45Z</time>
</trkpt>
<trkpt lat="45.51497" lon="13.53602">
<ele>40</ele>
<time>2011-05-01T11:49:50Z</time>
</trkpt>
<trkpt lat="45.51494" lon="13.53596">
<ele>40</ele>
<time>2011-05-01T11:49:55Z</time>
</trkpt>
<trkpt lat="45.51491" lon="13.53591">
<ele>40</ele>
<time>2011-05-01T11:49:59Z</time>
</trkpt>
<trkpt lat="45.51488" lon="13.53584">
<ele>40</ele>
<time>2011-05-01T11:50:03Z</time>
</trkpt>
<trkpt lat="45.51485" lon="13.53578">
<ele>40</ele>
<time>2011-05-01T11:50:07Z</time>
</trkpt>
<trkpt lat="45.51483" lon="13.53572">
<ele>40</ele>
<time>2011-05-01T11:50:11Z</time>
</trkpt>
<trkpt lat="45.5148" lon="13.53566">
<ele>40</ele>
<time>2011-05-01T11:50:15Z</time>
</trkpt>
<trkpt lat="45.51477" lon="13.53559">
<ele>40</ele>
<time>2011-05-01T11:50:19Z</time>
</trkpt>
<trkpt lat="45.51474" lon="13.53552">
<ele>40</ele>
<time>2011-05-01T11:50:23Z</time>
</trkpt>
<trkpt lat="45.51472" lon="13.53546">
<ele>40</ele>
<time>2011-05-01T11:50:27Z</time>
</trkpt>
<trkpt lat="45.5147" lon="13.5354">
<ele>40</ele>
<time>2011-05-01T11:50:31Z</time>
</trkpt>
<trkpt lat="45.51468" lon="13.53534">
<ele>40</ele>
<time>2011-05-01T11:50:35Z</time>
</trkpt>
<trkpt lat="45.51466" lon="13.53527">
<ele>40</ele>
<time>2011-05-01T11:50:39Z</time>
</trkpt>
<trkpt lat="45.51464" lon="13.53521">
<ele>41</ele>
<time>2011-05-01T11:50:43Z</time>
</trkpt>
<trkpt lat="45.51461" lon="13.53516">
<ele>41</ele>
<time>2011-05-01T11:50:47Z</time>
</trkpt>
<trkpt lat="45.51458" lon="13.5351">
<ele>41</ele>
<time>2011-05-01T11:50:51Z</time>
</trkpt>
<trkpt lat="45.51455" lon="13.53504">
<ele>41</ele>
<time>2011-05-01T11:50:55Z</time>
</trkpt>
<trkpt lat="45.51452" lon="13.53498">
<ele>41</ele>
<time>2011-05-01T11:50:59Z</time>
</trkpt>
<trkpt lat="45.5145" lon="13.53492">
<ele>42</ele>
<time>2011-05-01T11:51:03Z</time>
</trkpt>
<trkpt lat="45.51448" lon="13.53485">
<ele>42</ele>
<time>2011-05-01T11:51:07Z</time>
</trkpt>
<trkpt lat="45.51446" lon="13.53479">
<ele>42</ele>
<time>2011-05-01T11:51:11Z</time>
</trkpt>
<trkpt lat="45.51444" lon="13.53472">
<ele>42</ele>
<time>2011-05-01T11:51:16Z</time>
</trkpt>
<trkpt lat="45.51442" lon="13.53465">
<ele>42</ele>
<time>2011-05-01T11:51:21Z</time>
</trkpt>
<trkpt lat="45.5144" lon="13.53458">
<ele>42</ele>
<time>2011-05-01T11:51:26Z</time>
</trkpt>
<trkpt lat="45.51438" lon="13.53452">
<ele>42</ele>
<time>2011-05-01T11:51:31Z</time>
</trkpt>
<trkpt lat="45.51435" lon="13.53447">
<ele>42</ele>
<time>2011-05-01T11:51:37Z</time>
</trkpt>
<trkpt lat="45.51432" lon="13.53441">
<ele>42</ele>
<time>2011-05-01T11:51:42Z</time>
</trkpt>
<trkpt lat="45.51429" lon="13.53434">
<ele>43</ele>
<time>2011-05-01T11:51:47Z</time>
</trkpt>
<trkpt lat="45.51426" lon="13.53428">
<ele>43</ele>
<time>2011-05-01T11:51:52Z</time>
</trkpt>
<trkpt lat="45.51423" lon="13.53423">
<ele>43</ele>
<time>2011-05-01T11:51:56Z</time>
</trkpt>
<trkpt lat="45.5142" lon="13.53417">
<ele>43</ele>
<time>2011-05-01T11:52:00Z</time>
</trkpt>
<trkpt lat="45.51418" lon="13.5341">
<ele>43</ele>
<time>2011-05-01T11:52:05Z</time>
</trkpt>
<trkpt lat="45.51416" lon="13.53403">
<ele>43</ele>
<time>2011-05-01T11:52:10Z</time>
</trkpt>
<trkpt lat="45.51413" lon="13.53396">
<ele>43</ele>
<time>2011-05-01T11:52:15Z</time>
</trkpt>
<trkpt lat="45.5141" lon="13.5339">
<ele>43</ele>
<time>2011-05-01T11:52:20Z</time>
</trkpt>
<trkpt lat="45.51408" lon="13.53384">
<ele>43</ele>
<time>2011-05-01T11:52:25Z</time>
</trkpt>
<trkpt lat="45.51404" lon="13.53378">
<ele>43</ele>
<time>2011-05-01T11:52:29Z</time>
</trkpt>
<trkpt lat="45.51401" lon="13.53372">
<ele>44</ele>
<time>2011-05-01T11:52:33Z</time>
</trkpt>
<trkpt lat="45.51398" lon="13.53366">
<ele>44</ele>
<time>2011-05-01T11:52:37Z</time>
</trkpt>
<trkpt lat="45.51395" lon="13.53359">
<ele>44</ele>
<time>2011-05-01T11:52:41Z</time>
</trkpt>
<trkpt lat="45.51393" lon="13.53352">
<ele>44</ele>
<time>2011-05-01T11:52:45Z</time>
</trkpt>
<trkpt lat="45.51391" lon="13.53345">
<ele>44</ele>
<time>2011-05-01T11:52:49Z</time>
</trkpt>
<trkpt lat="45.51388" lon="13.53338">
<ele>44</ele>
<time>2011-05-01T11:52:53Z</time>
</trkpt>
<trkpt lat="45.51386" lon="13.53331">
<ele>44</ele>
<time>2011-05-01T11:52:57Z</time>
</trkpt>
<trkpt lat="45.51384" lon="13.53324">
<ele>44</ele>
<time>2011-05-01T11:53:01Z</time>
</trkpt>
<trkpt lat="45.51382" lon="13.53318">
<ele>44</ele>
<time>2011-05-01T11:53:05Z</time>
</trkpt>
<trkpt lat="45.5138" lon="13.53311">
<ele>45</ele>
<time>2011-05-01T11:53:09Z</time>
</trkpt>
<trkpt lat="45.51378" lon="13.53305">
<ele>45</ele>
<time>2011-05-01T11:53:13Z</time>
</trkpt>
<trkpt lat="45.51375" lon="13.533">
<ele>45</ele>
<time>2011-05-01T11:53:17Z</time>
</trkpt>
<trkpt lat="45.51372" lon="13.53294">
<ele>45</ele>
<time>2011-05-01T11:53:21Z</time>
</trkpt>
<trkpt lat="45.5137" lon="13.53289">
<ele>45</ele>
<time>2011-05-01T11:53:25Z</time>
</trkpt>
<trkpt lat="45.51367" lon="13.53282">
<ele>45</ele>
<time>2011-05-01T11:53:29Z</time>
</trkpt>
<trkpt lat="45.51364" lon="13.53276">
<ele>45</ele>
<time>2011-05-01T11:53:33Z</time>
</trkpt>
<trkpt lat="45.51362" lon="13.5327">
<ele>45</ele>
<time>2011-05-01T11:53:37Z</time>
</trkpt>
<trkpt lat="45.5136" lon="13.53263">
<ele>45</ele>
<time>2011-05-01T11:53:41Z</time>
</trkpt>
<trkpt lat="45.51357" lon="13.53258">
<ele>46</ele>
<time>2011-05-01T11:53:45Z</time>
</trkpt>
<trkpt lat="45.51355" lon="13.53252">
<ele>46</ele>
<time>2011-05-01T11:53:49Z</time>
</trkpt>
<trkpt lat="45.51352" lon="13.53247">
<ele>46</ele>
<time>2011-05-01T11:53:53Z</time>
</trkpt>
<trkpt lat="45.5135" lon="13.53241">
<ele>46</ele>
<time>2011-05-01T11:53:57Z</time>
</trkpt>
<trkpt lat="45.51348" lon="13.53235">
<ele>46</ele>
<time>2011-05-01T11:54:01Z</time>
</trkpt>
<trkpt lat="45.51345" lon="13.53228">
<ele>46</ele>
<time>2011-05-01T11:54:05Z</time>
</trkpt>
<trkpt lat="45.51344" lon="13.53222">
<ele>47</ele>
<time>2011-05-01T11:54:09Z</time>
</trkpt>
<trkpt lat="45.51342" lon="13.53216">
<ele>47</ele>
<time>2011-05-01T11:54:13Z</time>
</trkpt>
<trkpt lat="45.5134" lon="13.53208">
<ele>46</ele>
<time>2011-05-01T11:54:18Z</time>
</trkpt>
<trkpt lat="45.51337" lon="13.53202">
<ele>46</ele>
<time>2011-05-01T11:54:23Z</time>
</trkpt>
<trkpt lat="45.51335" lon="13.53195">
<ele>46</ele>
<time>2011-05-01T11:54:28Z</time>
</trkpt>
<trkpt lat="45.51332" lon="13.53189">
<ele>46</ele>
<time>2011-05-01T11:54:33Z</time>
</trkpt>
<trkpt lat="45.51329" lon="13.53182">
<ele>46</ele>
<time>2011-05-01T11:54:38Z</time>
</trkpt>
<trkpt lat="45.51327" lon="13.53176">
<ele>47</ele>
<time>2011-05-01T11:54:42Z</time>
</trkpt>
<trkpt lat="45.51325" lon="13.5317">
<ele>47</ele>
<time>2011-05-01T11:54:46Z</time>
</trkpt>
<trkpt lat="45.51322" lon="13.53164">
<ele>47</ele>
<time>2011-05-01T11:54:50Z</time>
</trkpt>
<trkpt lat="45.5132" lon="13.53158">
<ele>47</ele>
<time>2011-05-01T11:54:55Z</time>
</trkpt>
<trkpt lat="45.51317" lon="13.53152">
<ele>47</ele>
<time>2011-05-01T11:55:00Z</time>
</trkpt>
<trkpt lat="45.51314" lon="13.53146">
<ele>47</ele>
<time>2011-05-01T11:55:04Z</time>
</trkpt>
<trkpt lat="45.51312" lon="13.5314">
<ele>47</ele>
<time>2011-05-01T11:55:08Z</time>
</trkpt>
<trkpt lat="45.5131" lon="13.53134">
<ele>47</ele>
<time>2011-05-01T11:55:12Z</time>
</trkpt>
<trkpt lat="45.51306" lon="13.53128">
<ele>47</ele>
<time>2011-05-01T11:55:17Z</time>
</trkpt>
<trkpt lat="45.51304" lon="13.53122">
<ele>47</ele>
<time>2011-05-01T11:55:21Z</time>
</trkpt>
<trkpt lat="45.51301" lon="13.53116">
<ele>47</ele>
<time>2011-05-01T11:55:25Z</time>
</trkpt>
<trkpt lat="45.51298" lon="13.5311">
<ele>47</ele>
<time>2011-05-01T11:55:29Z</time>
</trkpt>
<trkpt lat="45.51296" lon="13.53104">
<ele>47</ele>
<time>2011-05-01T11:55:33Z</time>
</trkpt>
<trkpt lat="45.51293" lon="13.53098">
<ele>47</ele>
<time>2011-05-01T11:55:37Z</time>
</trkpt>
<trkpt lat="45.5129" lon="13.53091">
<ele>47</ele>
<time>2011-05-01T11:55:41Z</time>
</trkpt>
<trkpt lat="45.51287" lon="13.53084">
<ele>47</ele>
<time>2011-05-01T11:55:45Z</time>
</trkpt>
<trkpt lat="45.51284" lon="13.53077">
<ele>47</ele>
<time>2011-05-01T11:55:49Z</time>
</trkpt>
<trkpt lat="45.51282" lon="13.5307">
<ele>47</ele>
<time>2011-05-01T11:55:53Z</time>
</trkpt>
<trkpt lat="45.5128" lon="13.53063">
<ele>47</ele>
<time>2011-05-01T11:55:57Z</time>
</trkpt>
<trkpt lat="45.51278" lon="13.53056">
<ele>47</ele>
<time>2011-05-01T11:56:01Z</time>
</trkpt>
<trkpt lat="45.51276" lon="13.5305">
<ele>47</ele>
<time>2011-05-01T11:56:05Z</time>
</trkpt>
<trkpt lat="45.51275" lon="13.53042">
<ele>47</ele>
<time>2011-05-01T11:56:10Z</time>
</trkpt>
<trkpt lat="45.51272" lon="13.53036">
<ele>47</ele>
<time>2011-05-01T11:56:15Z</time>
</trkpt>
<trkpt lat="45.5127" lon="13.5303">
<ele>47</ele>
<time>2011-05-01T11:56:20Z</time>
</trkpt>
<trkpt lat="45.51267" lon="13.53024">
<ele>47</ele>
<time>2011-05-01T11:56:26Z</time>
</trkpt>
<trkpt lat="45.51265" lon="13.53018">
<ele>48</ele>
<time>2011-05-01T11:56:32Z</time>
</trkpt>
<trkpt lat="45.51263" lon="13.53011">
<ele>48</ele>
<time>2011-05-01T11:56:37Z</time>
</trkpt>
<trkpt lat="45.5126" lon="13.53005">
<ele>48</ele>
<time>2011-05-01T11:56:42Z</time>
</trkpt>
<trkpt lat="45.51258" lon="13.52998">
<ele>48</ele>
<time>2011-05-01T11:56:47Z</time>
</trkpt>
<trkpt lat="45.51256" lon="13.52993">
<ele>48</ele>
<time>2011-05-01T11:56:52Z</time>
</trkpt>
<trkpt lat="45.51254" lon="13.52986">
<ele>48</ele>
<time>2011-05-01T11:56:58Z</time>
</trkpt>
<trkpt lat="45.51251" lon="13.5298">
<ele>48</ele>
<time>2011-05-01T11:57:03Z</time>
</trkpt>
<trkpt lat="45.51248" lon="13.52975">
<ele>48</ele>
<time>2011-05-01T11:57:08Z</time>
</trkpt>
<trkpt lat="45.51245" lon="13.52968">
<ele>48</ele>
<time>2011-05-01T11:57:13Z</time>
</trkpt>
<trkpt lat="45.51242" lon="13.52963">
<ele>48</ele>
<time>2011-05-01T11:57:18Z</time>
</trkpt>
<trkpt lat="45.51239" lon="13.52957">
<ele>49</ele>
<time>2011-05-01T11:57:23Z</time>
</trkpt>
<trkpt lat="45.51237" lon="13.52951">
<ele>49</ele>
<time>2011-05-01T11:57:28Z</time>
</trkpt>
<trkpt lat="45.51234" lon="13.52945">
<ele>48</ele>
<time>2011-05-01T11:57:33Z</time>
</trkpt>
<trkpt lat="45.51231" lon="13.52938">
<ele>48</ele>
<time>2011-05-01T11:57:38Z</time>
</trkpt>
<trkpt lat="45.51228" lon="13.52932">
<ele>48</ele>
<time>2011-05-01T11:57:42Z</time>
</trkpt>
<trkpt lat="45.51224" lon="13.52926">
<ele>48</ele>
<time>2011-05-01T11:57:46Z</time>
</trkpt>
<trkpt lat="45.51221" lon="13.5292">
<ele>48</ele>
<time>2011-05-01T11:57:50Z</time>
</trkpt>
<trkpt lat="45.51218" lon="13.52914">
<ele>48</ele>
<time>2011-05-01T11:57:54Z</time>
</trkpt>
<trkpt lat="45.51216" lon="13.52908">
<ele>48</ele>
<time>2011-05-01T11:57:58Z</time>
</trkpt>
<trkpt lat="45.51213" lon="13.52901">
<ele>48</ele>
<time>2011-05-01T11:58:02Z</time>
</trkpt>
<trkpt lat="45.5121" lon="13.52894">
<ele>48</ele>
<time>2011-05-01T11:58:06Z</time>
</trkpt>
<trkpt lat="45.51208" lon="13.52888">
<ele>48</ele>
<time>2011-05-01T11:58:10Z</time>
</trkpt>
<trkpt lat="45.51206" lon="13.52882">
<ele>48</ele>
<time>2011-05-01T11:58:14Z</time>
</trkpt>
<trkpt lat="45.51204" lon="13.52875">
<ele>48</ele>
<time>2011-05-01T11:58:19Z</time>
</trkpt>
<trkpt lat="45.51201" lon="13.52868">
<ele>48</ele>
<time>2011-05-01T11:58:24Z</time>
</trkpt>
<trkpt lat="45.51198" lon="13.52862">
<ele>48</ele>
<time>2011-05-01T11:58:29Z</time>
</trkpt>
<trkpt lat="45.51194" lon="13.52855">
<ele>48</ele>
<time>2011-05-01T11:58:34Z</time>
</trkpt>
<trkpt lat="45.51192" lon="13.5285">
<ele>48</ele>
<time>2011-05-01T11:58:38Z</time>
</trkpt>
<trkpt lat="45.51189" lon="13.52844">
<ele>48</ele>
<time>2011-05-01T11:58:42Z</time>
</trkpt>
<trkpt lat="45.51187" lon="13.52838">
<ele>48</ele>
<time>2011-05-01T11:58:46Z</time>
</trkpt>
<trkpt lat="45.51184" lon="13.52832">
<ele>48</ele>
<time>2011-05-01T11:58:50Z</time>
</trkpt>
<trkpt lat="45.51182" lon="13.52826">
<ele>48</ele>
<time>2011-05-01T11:58:54Z</time>
</trkpt>
<trkpt lat="45.51179" lon="13.52819">
<ele>48</ele>
<time>2011-05-01T11:58:59Z</time>
</trkpt>
<trkpt lat="45.51176" lon="13.52813">
<ele>48</ele>
<time>2011-05-01T11:59:04Z</time>
</trkpt>
<trkpt lat="45.51172" lon="13.52807">
<ele>48</ele>
<time>2011-05-01T11:59:09Z</time>
</trkpt>
<trkpt lat="45.5117" lon="13.52801">
<ele>48</ele>
<time>2011-05-01T11:59:13Z</time>
</trkpt>
<trkpt lat="45.51167" lon="13.52796">
<ele>48</ele>
<time>2011-05-01T11:59:17Z</time>
</trkpt>
<trkpt lat="45.51164" lon="13.5279">
<ele>48</ele>
<time>2011-05-01T11:59:21Z</time>
</trkpt>
<trkpt lat="45.51161" lon="13.52784">
<ele>48</ele>
<time>2011-05-01T11:59:25Z</time>
</trkpt>
<trkpt lat="45.51158" lon="13.52778">
<ele>48</ele>
<time>2011-05-01T11:59:29Z</time>
</trkpt>
<trkpt lat="45.51156" lon="13.52772">
<ele>48</ele>
<time>2011-05-01T11:59:33Z</time>
</trkpt>
<trkpt lat="45.51154" lon="13.52765">
<ele>48</ele>
<time>2011-05-01T11:59:38Z</time>
</trkpt>
<trkpt lat="45.51151" lon="13.52759">
<ele>48</ele>
<time>2011-05-01T11:59:43Z</time>
</trkpt>
<trkpt lat="45.51149" lon="13.52753">
<ele>48</ele>
<time>2011-05-01T11:59:48Z</time>
</trkpt>
<trkpt lat="45.51146" lon="13.52748">
<ele>49</ele>
<time>2011-05-01T11:59:54Z</time>
</trkpt>
<trkpt lat="45.51144" lon="13.52742">
<ele>49</ele>
<time>2011-05-01T12:00:00Z</time>
</trkpt>
<trkpt lat="45.5114" lon="13.52736">
<ele>49</ele>
<time>2011-05-01T12:00:06Z</time>
</trkpt>
<trkpt lat="45.51137" lon="13.52731">
<ele>49</ele>
<time>2011-05-01T12:00:11Z</time>
</trkpt>
<trkpt lat="45.51134" lon="13.52725">
<ele>49</ele>
<time>2011-05-01T12:00:16Z</time>
</trkpt>
<trkpt lat="45.51131" lon="13.52718">
<ele>49</ele>
<time>2011-05-01T12:00:21Z</time>
</trkpt>
<trkpt lat="45.51128" lon="13.52712">
<ele>49</ele>
<time>2011-05-01T12:00:26Z</time>
</trkpt>
<trkpt lat="45.51125" lon="13.52707">
<ele>49</ele>
<time>2011-05-01T12:00:31Z</time>
</trkpt>
<trkpt lat="45.51123" lon="13.527">
<ele>49</ele>
<time>2011-05-01T12:00:37Z</time>
</trkpt>
<trkpt lat="45.5112" lon="13.52694">
<ele>49</ele>
<time>2011-05-01T12:00:43Z</time>
</trkpt>
<trkpt lat="45.51117" lon="13.52687">
<ele>49</ele>
<time>2011-05-01T12:00:49Z</time>
</trkpt>
<trkpt lat="45.51114" lon="13.52682">
<ele>49</ele>
<time>2011-05-01T12:00:55Z</time>
</trkpt>
<trkpt lat="45.5111" lon="13.52677">
<ele>49</ele>
<time>2011-05-01T12:01:01Z</time>
</trkpt>
<trkpt lat="45.51107" lon="13.52672">
<ele>49</ele>
<time>2011-05-01T12:01:06Z</time>
</trkpt>
<trkpt lat="45.51103" lon="13.52667">
<ele>49</ele>
<time>2011-05-01T12:01:11Z</time>
</trkpt>
<trkpt lat="45.511" lon="13.52661">
<ele>49</ele>
<time>2011-05-01T12:01:16Z</time>
</trkpt>
<trkpt lat="45.51098" lon="13.52654">
<ele>49</ele>
<time>2011-05-01T12:01:21Z</time>
</trkpt>
<trkpt lat="45.51096" lon="13.52649">
<ele>49</ele>
<time>2011-05-01T12:01:26Z</time>
</trkpt>
<trkpt lat="45.51093" lon="13.52642">
<ele>49</ele>
<time>2011-05-01T12:01:32Z</time>
</trkpt>
<trkpt lat="45.5109" lon="13.52637">
<ele>49</ele>
<time>2011-05-01T12:01:38Z</time>
</trkpt>
<trkpt lat="45.51086" lon="13.52632">
<ele>49</ele>
<time>2011-05-01T12:01:44Z</time>
</trkpt>
<trkpt lat="45.51082" lon="13.52627">
<ele>49</ele>
<time>2011-05-01T12:01:49Z</time>
</trkpt>
<trkpt lat="45.51079" lon="13.52621">
<ele>49</ele>
<time>2011-05-01T12:01:54Z</time>
</trkpt>
<trkpt lat="45.51075" lon="13.52615">
<ele>49</ele>
<time>2011-05-01T12:01:59Z</time>
</trkpt>
<trkpt lat="45.51073" lon="13.5261">
<ele>49</ele>
<time>2011-05-01T12:02:03Z</time>
</trkpt>
<trkpt lat="45.5107" lon="13.52604">
<ele>49</ele>
<time>2011-05-01T12:02:07Z</time>
</trkpt>
<trkpt lat="45.51067" lon="13.52599">
<ele>49</ele>
<time>2011-05-01T12:02:11Z</time>
</trkpt>
<trkpt lat="45.51064" lon="13.52594">
<ele>49</ele>
<time>2011-05-01T12:02:15Z</time>
</trkpt>
<trkpt lat="45.51061" lon="13.52586">
<ele>48</ele>
<time>2011-05-01T12:02:20Z</time>
</trkpt>
<trkpt lat="45.51058" lon="13.5258">
<ele>48</ele>
<time>2011-05-01T12:02:25Z</time>
</trkpt>
<trkpt lat="45.51056" lon="13.52574">
<ele>48</ele>
<time>2011-05-01T12:02:30Z</time>
</trkpt>
<trkpt lat="45.51054" lon="13.52568">
<ele>48</ele>
<time>2011-05-01T12:02:36Z</time>
</trkpt>
<trkpt lat="45.51052" lon="13.52562">
<ele>48</ele>
<time>2011-05-01T12:02:43Z</time>
</trkpt>
<trkpt lat="45.5105" lon="13.52556">
<ele>48</ele>
<time>2011-05-01T12:02:51Z</time>
</trkpt>
<trkpt lat="45.51047" lon="13.5255">
<ele>48</ele>
<time>2011-05-01T12:02:59Z</time>
</trkpt>
<trkpt lat="45.51043" lon="13.52545">
<ele>48</ele>
<time>2011-05-01T12:03:06Z</time>
</trkpt>
<trkpt lat="45.51039" lon="13.52541">
<ele>48</ele>
<time>2011-05-01T12:03:12Z</time>
</trkpt>
<trkpt lat="45.51035" lon="13.52536">
<ele>48</ele>
<time>2011-05-01T12:03:18Z</time>
</trkpt>
<trkpt lat="45.51032" lon="13.5253">
<ele>48</ele>
<time>2011-05-01T12:03:24Z</time>
</trkpt>
<trkpt lat="45.5103" lon="13.52525">
<ele>48</ele>
<time>2011-05-01T12:03:29Z</time>
</trkpt>
<trkpt lat="45.51026" lon="13.52519">
<ele>48</ele>
<time>2011-05-01T12:03:34Z</time>
</trkpt>
<trkpt lat="45.51023" lon="13.52513">
<ele>48</ele>
<time>2011-05-01T12:03:39Z</time>
</trkpt>
<trkpt lat="45.51019" lon="13.52507">
<ele>48</ele>
<time>2011-05-01T12:03:44Z</time>
</trkpt>
<trkpt lat="45.51016" lon="13.52501">
<ele>48</ele>
<time>2011-05-01T12:03:49Z</time>
</trkpt>
<trkpt lat="45.51013" lon="13.52495">
<ele>48</ele>
<time>2011-05-01T12:03:55Z</time>
</trkpt>
<trkpt lat="45.5101" lon="13.52489">
<ele>48</ele>
<time>2011-05-01T12:04:01Z</time>
</trkpt>
<trkpt lat="45.51007" lon="13.52484">
<ele>48</ele>
<time>2011-05-01T12:04:06Z</time>
</trkpt>
<trkpt lat="45.51004" lon="13.52479">
<ele>48</ele>
<time>2011-05-01T12:04:12Z</time>
</trkpt>
<trkpt lat="45.51" lon="13.52473">
<ele>48</ele>
<time>2011-05-01T12:04:19Z</time>
</trkpt>
<trkpt lat="45.50998" lon="13.52468">
<ele>48</ele>
<time>2011-05-01T12:04:25Z</time>
</trkpt>
<trkpt lat="45.50995" lon="13.52462">
<ele>48</ele>
<time>2011-05-01T12:04:31Z</time>
</trkpt>
<trkpt lat="45.50991" lon="13.52457">
<ele>48</ele>
<time>2011-05-01T12:04:38Z</time>
</trkpt>
<trkpt lat="45.50988" lon="13.52453">
<ele>48</ele>
<time>2011-05-01T12:04:45Z</time>
</trkpt>
<trkpt lat="45.50984" lon="13.52448">
<ele>48</ele>
<time>2011-05-01T12:04:52Z</time>
</trkpt>
<trkpt lat="45.50981" lon="13.52443">
<ele>49</ele>
<time>2011-05-01T12:04:59Z</time>
</trkpt>
<trkpt lat="45.50978" lon="13.52438">
<ele>49</ele>
<time>2011-05-01T12:05:07Z</time>
</trkpt>
<trkpt lat="45.50974" lon="13.52433">
<ele>49</ele>
<time>2011-05-01T12:05:17Z</time>
</trkpt>
<trkpt lat="45.5097" lon="13.5243">
<ele>49</ele>
<time>2011-05-01T12:05:35Z</time>
</trkpt>
<trkpt lat="45.50965" lon="13.52429">
<ele>49</ele>
<time>2011-05-01T12:05:41Z</time>
</trkpt>
<trkpt lat="45.50959" lon="13.52428">
<ele>49</ele>
<time>2011-05-01T12:05:46Z</time>
</trkpt>
<trkpt lat="45.50955" lon="13.52424">
<ele>49</ele>
<time>2011-05-01T12:05:51Z</time>
</trkpt>
<trkpt lat="45.50951" lon="13.52419">
<ele>49</ele>
<time>2011-05-01T12:05:56Z</time>
</trkpt>
<trkpt lat="45.50948" lon="13.52414">
<ele>49</ele>
<time>2011-05-01T12:06:00Z</time>
</trkpt>
<trkpt lat="45.50944" lon="13.5241">
<ele>49</ele>
<time>2011-05-01T12:06:04Z</time>
</trkpt>
<trkpt lat="45.50941" lon="13.52404">
<ele>48</ele>
<time>2011-05-01T12:06:09Z</time>
</trkpt>
<trkpt lat="45.50939" lon="13.52399">
<ele>48</ele>
<time>2011-05-01T12:06:14Z</time>
</trkpt>
<trkpt lat="45.50936" lon="13.52392">
<ele>49</ele>
<time>2011-05-01T12:06:20Z</time>
</trkpt>
<trkpt lat="45.50933" lon="13.52388">
<ele>49</ele>
<time>2011-05-01T12:06:26Z</time>
</trkpt>
<trkpt lat="45.50929" lon="13.52382">
<ele>49</ele>
<time>2011-05-01T12:06:32Z</time>
</trkpt>
<trkpt lat="45.50926" lon="13.52377">
<ele>49</ele>
<time>2011-05-01T12:06:38Z</time>
</trkpt>
<trkpt lat="45.50923" lon="13.52372">
<ele>49</ele>
<time>2011-05-01T12:06:44Z</time>
</trkpt>
<trkpt lat="45.50919" lon="13.52366">
<ele>49</ele>
<time>2011-05-01T12:06:51Z</time>
</trkpt>
<trkpt lat="45.50915" lon="13.52362">
<ele>48</ele>
<time>2011-05-01T12:06:58Z</time>
</trkpt>
<trkpt lat="45.50911" lon="13.52358">
<ele>48</ele>
<time>2011-05-01T12:07:09Z</time>
</trkpt>
<trkpt lat="45.50906" lon="13.52354">
<ele>48</ele>
<time>2011-05-01T12:07:16Z</time>
</trkpt>
<trkpt lat="45.50903" lon="13.52349">
<ele>48</ele>
<time>2011-05-01T12:07:21Z</time>
</trkpt>
<trkpt lat="45.50899" lon="13.52344">
<ele>48</ele>
<time>2011-05-01T12:07:26Z</time>
</trkpt>
<trkpt lat="45.50896" lon="13.52339">
<ele>48</ele>
<time>2011-05-01T12:07:33Z</time>
</trkpt>
<trkpt lat="45.50892" lon="13.52336">
<ele>48</ele>
<time>2011-05-01T12:07:39Z</time>
</trkpt>
<trkpt lat="45.50888" lon="13.52331">
<ele>48</ele>
<time>2011-05-01T12:07:45Z</time>
</trkpt>
<trkpt lat="45.50884" lon="13.52327">
<ele>48</ele>
<time>2011-05-01T12:07:50Z</time>
</trkpt>
<trkpt lat="45.50881" lon="13.52322">
<ele>48</ele>
<time>2011-05-01T12:07:56Z</time>
</trkpt>
<trkpt lat="45.50878" lon="13.52317">
<ele>47</ele>
<time>2011-05-01T12:08:03Z</time>
</trkpt>
<trkpt lat="45.50875" lon="13.52312">
<ele>47</ele>
<time>2011-05-01T12:08:09Z</time>
</trkpt>
<trkpt lat="45.50871" lon="13.52307">
<ele>47</ele>
<time>2011-05-01T12:08:15Z</time>
</trkpt>
<trkpt lat="45.50868" lon="13.52302">
<ele>47</ele>
<time>2011-05-01T12:08:22Z</time>
</trkpt>
<trkpt lat="45.50864" lon="13.52298">
<ele>47</ele>
<time>2011-05-01T12:08:29Z</time>
</trkpt>
<trkpt lat="45.5086" lon="13.52294">
<ele>47</ele>
<time>2011-05-01T12:08:36Z</time>
</trkpt>
<trkpt lat="45.50857" lon="13.52289">
<ele>47</ele>
<time>2011-05-01T12:08:47Z</time>
</trkpt>
<trkpt lat="45.50853" lon="13.52285">
<ele>47</ele>
<time>2011-05-01T12:08:55Z</time>
</trkpt>
<trkpt lat="45.5085" lon="13.5228">
<ele>47</ele>
<time>2011-05-01T12:09:01Z</time>
</trkpt>
<trkpt lat="45.50846" lon="13.52275">
<ele>47</ele>
<time>2011-05-01T12:09:07Z</time>
</trkpt>
<trkpt lat="45.50843" lon="13.5227">
<ele>47</ele>
<time>2011-05-01T12:09:12Z</time>
</trkpt>
<trkpt lat="45.50839" lon="13.52265">
<ele>46</ele>
<time>2011-05-01T12:09:19Z</time>
</trkpt>
<trkpt lat="45.50835" lon="13.5226">
<ele>46</ele>
<time>2011-05-01T12:09:26Z</time>
</trkpt>
<trkpt lat="45.50831" lon="13.52257">
<ele>46</ele>
<time>2011-05-01T12:09:32Z</time>
</trkpt>
<trkpt lat="45.50826" lon="13.52255">
<ele>46</ele>
<time>2011-05-01T12:09:39Z</time>
</trkpt>
<trkpt lat="45.50822" lon="13.52251">
<ele>46</ele>
<time>2011-05-01T12:09:44Z</time>
</trkpt>
<trkpt lat="45.50818" lon="13.52246">
<ele>46</ele>
<time>2011-05-01T12:09:49Z</time>
</trkpt>
<trkpt lat="45.50814" lon="13.52241">
<ele>46</ele>
<time>2011-05-01T12:09:54Z</time>
</trkpt>
<trkpt lat="45.50812" lon="13.52236">
<ele>47</ele>
<time>2011-05-01T12:10:00Z</time>
</trkpt>
<trkpt lat="45.50808" lon="13.52231">
<ele>47</ele>
<time>2011-05-01T12:10:08Z</time>
</trkpt>
<trkpt lat="45.50804" lon="13.52227">
<ele>47</ele>
<time>2011-05-01T12:10:16Z</time>
</trkpt>
<trkpt lat="45.50799" lon="13.52224">
<ele>47</ele>
<time>2011-05-01T12:10:22Z</time>
</trkpt>
<trkpt lat="45.50794" lon="13.52221">
<ele>47</ele>
<time>2011-05-01T12:10:28Z</time>
</trkpt>
<trkpt lat="45.50791" lon="13.52216">
<ele>47</ele>
<time>2011-05-01T12:10:33Z</time>
</trkpt>
<trkpt lat="45.50786" lon="13.52212">
<ele>47</ele>
<time>2011-05-01T12:10:38Z</time>
</trkpt>
<trkpt lat="45.50782" lon="13.52208">
<ele>47</ele>
<time>2011-05-01T12:10:42Z</time>
</trkpt>
<trkpt lat="45.50778" lon="13.52204">
<ele>47</ele>
<time>2011-05-01T12:10:46Z</time>
</trkpt>
<trkpt lat="45.50774" lon="13.52199">
<ele>47</ele>
<time>2011-05-01T12:10:50Z</time>
</trkpt>
<trkpt lat="45.50769" lon="13.52194">
<ele>47</ele>
<time>2011-05-01T12:10:54Z</time>
</trkpt>
<trkpt lat="45.50766" lon="13.52189">
<ele>47</ele>
<time>2011-05-01T12:10:59Z</time>
</trkpt>
<trkpt lat="45.50766" lon="13.52183">
<ele>47</ele>
<time>2011-05-01T12:11:07Z</time>
</trkpt>
<trkpt lat="45.50771" lon="13.52183">
<ele>47</ele>
<time>2011-05-01T12:11:12Z</time>
</trkpt>
<trkpt lat="45.50776" lon="13.52185">
<ele>47</ele>
<time>2011-05-01T12:11:16Z</time>
</trkpt>
<trkpt lat="45.50781" lon="13.52187">
<ele>47</ele>
<time>2011-05-01T12:11:20Z</time>
</trkpt>
<trkpt lat="45.50785" lon="13.5219">
<ele>47</ele>
<time>2011-05-01T12:11:24Z</time>
</trkpt>
<trkpt lat="45.5079" lon="13.52192">
<ele>47</ele>
<time>2011-05-01T12:11:28Z</time>
</trkpt>
<trkpt lat="45.50795" lon="13.52194">
<ele>47</ele>
<time>2011-05-01T12:11:31Z</time>
</trkpt>
<trkpt lat="45.508" lon="13.52195">
<ele>47</ele>
<time>2011-05-01T12:11:34Z</time>
</trkpt>
<trkpt lat="45.50805" lon="13.52196">
<ele>47</ele>
<time>2011-05-01T12:11:37Z</time>
</trkpt>
<trkpt lat="45.50809" lon="13.52197">
<ele>47</ele>
<time>2011-05-01T12:11:40Z</time>
</trkpt>
<trkpt lat="45.50814" lon="13.52198">
<ele>47</ele>
<time>2011-05-01T12:11:43Z</time>
</trkpt>
<trkpt lat="45.50819" lon="13.522">
<ele>47</ele>
<time>2011-05-01T12:11:46Z</time>
</trkpt>
<trkpt lat="45.50824" lon="13.52203">
<ele>47</ele>
<time>2011-05-01T12:11:49Z</time>
</trkpt>
<trkpt lat="45.5083" lon="13.52206">
<ele>47</ele>
<time>2011-05-01T12:11:52Z</time>
</trkpt>
<trkpt lat="45.50836" lon="13.52209">
<ele>47</ele>
<time>2011-05-01T12:11:55Z</time>
</trkpt>
<trkpt lat="45.50841" lon="13.52212">
<ele>47</ele>
<time>2011-05-01T12:11:58Z</time>
</trkpt>
<trkpt lat="45.50847" lon="13.52215">
<ele>47</ele>
<time>2011-05-01T12:12:01Z</time>
</trkpt>
<trkpt lat="45.50853" lon="13.52218">
<ele>47</ele>
<time>2011-05-01T12:12:04Z</time>
</trkpt>
<trkpt lat="45.50859" lon="13.52221">
<ele>47</ele>
<time>2011-05-01T12:12:07Z</time>
</trkpt>
<trkpt lat="45.50865" lon="13.52224">
<ele>47</ele>
<time>2011-05-01T12:12:10Z</time>
</trkpt>
<trkpt lat="45.50869" lon="13.52226">
<ele>47</ele>
<time>2011-05-01T12:12:12Z</time>
</trkpt>
<trkpt lat="45.50873" lon="13.52228">
<ele>47</ele>
<time>2011-05-01T12:12:14Z</time>
</trkpt>
<trkpt lat="45.50878" lon="13.5223">
<ele>48</ele>
<time>2011-05-01T12:12:16Z</time>
</trkpt>
<trkpt lat="45.50882" lon="13.52232">
<ele>48</ele>
<time>2011-05-01T12:12:18Z</time>
</trkpt>
<trkpt lat="45.50886" lon="13.52234">
<ele>48</ele>
<time>2011-05-01T12:12:20Z</time>
</trkpt>
<trkpt lat="45.50891" lon="13.52236">
<ele>48</ele>
<time>2011-05-01T12:12:22Z</time>
</trkpt>
<trkpt lat="45.50895" lon="13.52238">
<ele>48</ele>
<time>2011-05-01T12:12:24Z</time>
</trkpt>
<trkpt lat="45.50899" lon="13.52241">
<ele>48</ele>
<time>2011-05-01T12:12:26Z</time>
</trkpt>
<trkpt lat="45.50903" lon="13.52243">
<ele>48</ele>
<time>2011-05-01T12:12:28Z</time>
</trkpt>
<trkpt lat="45.50908" lon="13.52246">
<ele>48</ele>
<time>2011-05-01T12:12:30Z</time>
</trkpt>
<trkpt lat="45.50912" lon="13.52248">
<ele>48</ele>
<time>2011-05-01T12:12:32Z</time>
</trkpt>
<trkpt lat="45.50916" lon="13.5225">
<ele>48</ele>
<time>2011-05-01T12:12:34Z</time>
</trkpt>
<trkpt lat="45.50921" lon="13.52252">
<ele>48</ele>
<time>2011-05-01T12:12:36Z</time>
</trkpt>
<trkpt lat="45.50925" lon="13.52254">
<ele>48</ele>
<time>2011-05-01T12:12:38Z</time>
</trkpt>
<trkpt lat="45.5093" lon="13.52256">
<ele>48</ele>
<time>2011-05-01T12:12:40Z</time>
</trkpt>
<trkpt lat="45.50934" lon="13.52258">
<ele>48</ele>
<time>2011-05-01T12:12:42Z</time>
</trkpt>
<trkpt lat="45.50939" lon="13.5226">
<ele>48</ele>
<time>2011-05-01T12:12:44Z</time>
</trkpt>
<trkpt lat="45.50944" lon="13.52262">
<ele>48</ele>
<time>2011-05-01T12:12:46Z</time>
</trkpt>
<trkpt lat="45.50949" lon="13.52263">
<ele>48</ele>
<time>2011-05-01T12:12:48Z</time>
</trkpt>
<trkpt lat="45.50954" lon="13.52264">
<ele>48</ele>
<time>2011-05-01T12:12:50Z</time>
</trkpt>
<trkpt lat="45.50958" lon="13.52266">
<ele>48</ele>
<time>2011-05-01T12:12:52Z</time>
</trkpt>
<trkpt lat="45.50963" lon="13.52267">
<ele>48</ele>
<time>2011-05-01T12:12:54Z</time>
</trkpt>
<trkpt lat="45.50968" lon="13.52269">
<ele>48</ele>
<time>2011-05-01T12:12:56Z</time>
</trkpt>
<trkpt lat="45.50973" lon="13.5227">
<ele>48</ele>
<time>2011-05-01T12:12:58Z</time>
</trkpt>
<trkpt lat="45.50978" lon="13.52271">
<ele>47</ele>
<time>2011-05-01T12:13:00Z</time>
</trkpt>
<trkpt lat="45.50983" lon="13.52271">
<ele>47</ele>
<time>2011-05-01T12:13:02Z</time>
</trkpt>
<trkpt lat="45.50988" lon="13.5227">
<ele>47</ele>
<time>2011-05-01T12:13:04Z</time>
</trkpt>
<trkpt lat="45.50992" lon="13.5227">
<ele>47</ele>
<time>2011-05-01T12:13:06Z</time>
</trkpt>
<trkpt lat="45.50997" lon="13.5227">
<ele>47</ele>
<time>2011-05-01T12:13:08Z</time>
</trkpt>
<trkpt lat="45.51002" lon="13.52269">
<ele>47</ele>
<time>2011-05-01T12:13:10Z</time>
</trkpt>
<trkpt lat="45.51006" lon="13.52268">
<ele>47</ele>
<time>2011-05-01T12:13:12Z</time>
</trkpt>
<trkpt lat="45.51011" lon="13.52268">
<ele>47</ele>
<time>2011-05-01T12:13:14Z</time>
</trkpt>
<trkpt lat="45.51016" lon="13.52267">
<ele>47</ele>
<time>2011-05-01T12:13:16Z</time>
</trkpt>
<trkpt lat="45.5102" lon="13.52266">
<ele>47</ele>
<time>2011-05-01T12:13:18Z</time>
</trkpt>
<trkpt lat="45.51027" lon="13.52263">
<ele>47</ele>
<time>2011-05-01T12:13:21Z</time>
</trkpt>
<trkpt lat="45.51033" lon="13.52261">
<ele>47</ele>
<time>2011-05-01T12:13:24Z</time>
</trkpt>
<trkpt lat="45.5104" lon="13.52259">
<ele>47</ele>
<time>2011-05-01T12:13:27Z</time>
</trkpt>
<trkpt lat="45.51045" lon="13.52256">
<ele>47</ele>
<time>2011-05-01T12:13:30Z</time>
</trkpt>
<trkpt lat="45.51051" lon="13.52253">
<ele>47</ele>
<time>2011-05-01T12:13:33Z</time>
</trkpt>
<trkpt lat="45.51057" lon="13.5225">
<ele>47</ele>
<time>2011-05-01T12:13:36Z</time>
</trkpt>
<trkpt lat="45.51062" lon="13.52246">
<ele>47</ele>
<time>2011-05-01T12:13:39Z</time>
</trkpt>
<trkpt lat="45.51066" lon="13.52242">
<ele>48</ele>
<time>2011-05-01T12:13:42Z</time>
</trkpt>
<trkpt lat="45.5107" lon="13.52238">
<ele>48</ele>
<time>2011-05-01T12:13:45Z</time>
</trkpt>
<trkpt lat="45.51074" lon="13.52234">
<ele>48</ele>
<time>2011-05-01T12:13:48Z</time>
</trkpt>
<trkpt lat="45.51078" lon="13.52229">
<ele>48</ele>
<time>2011-05-01T12:13:51Z</time>
</trkpt>
<trkpt lat="45.51082" lon="13.52225">
<ele>48</ele>
<time>2011-05-01T12:13:54Z</time>
</trkpt>
<trkpt lat="45.51086" lon="13.52222">
<ele>48</ele>
<time>2011-05-01T12:13:57Z</time>
</trkpt>
<trkpt lat="45.5109" lon="13.52218">
<ele>48</ele>
<time>2011-05-01T12:14:00Z</time>
</trkpt>
<trkpt lat="45.51094" lon="13.52215">
<ele>49</ele>
<time>2011-05-01T12:14:03Z</time>
</trkpt>
<trkpt lat="45.51097" lon="13.52211">
<ele>49</ele>
<time>2011-05-01T12:14:06Z</time>
</trkpt>
<trkpt lat="45.51101" lon="13.52206">
<ele>49</ele>
<time>2011-05-01T12:14:09Z</time>
</trkpt>
<trkpt lat="45.51104" lon="13.52201">
<ele>49</ele>
<time>2011-05-01T12:14:12Z</time>
</trkpt>
<trkpt lat="45.51107" lon="13.52196">
<ele>49</ele>
<time>2011-05-01T12:14:15Z</time>
</trkpt>
<trkpt lat="45.51112" lon="13.52191">
<ele>49</ele>
<time>2011-05-01T12:14:19Z</time>
</trkpt>
<trkpt lat="45.51116" lon="13.52186">
<ele>49</ele>
<time>2011-05-01T12:14:23Z</time>
</trkpt>
<trkpt lat="45.5112" lon="13.52182">
<ele>49</ele>
<time>2011-05-01T12:14:27Z</time>
</trkpt>
<trkpt lat="45.51124" lon="13.52177">
<ele>49</ele>
<time>2011-05-01T12:14:31Z</time>
</trkpt>
<trkpt lat="45.51128" lon="13.52172">
<ele>49</ele>
<time>2011-05-01T12:14:35Z</time>
</trkpt>
<trkpt lat="45.51132" lon="13.52167">
<ele>49</ele>
<time>2011-05-01T12:14:39Z</time>
</trkpt>
<trkpt lat="45.51136" lon="13.52163">
<ele>49</ele>
<time>2011-05-01T12:14:43Z</time>
</trkpt>
<trkpt lat="45.5114" lon="13.52157">
<ele>49</ele>
<time>2011-05-01T12:14:47Z</time>
</trkpt>
<trkpt lat="45.51144" lon="13.52152">
<ele>49</ele>
<time>2011-05-01T12:14:51Z</time>
</trkpt>
<trkpt lat="45.51148" lon="13.52146">
<ele>49</ele>
<time>2011-05-01T12:14:55Z</time>
</trkpt>
<trkpt lat="45.5115" lon="13.52141">
<ele>49</ele>
<time>2011-05-01T12:14:59Z</time>
</trkpt>
<trkpt lat="45.51153" lon="13.52136">
<ele>49</ele>
<time>2011-05-01T12:15:04Z</time>
</trkpt>
<trkpt lat="45.51156" lon="13.52131">
<ele>49</ele>
<time>2011-05-01T12:15:10Z</time>
</trkpt>
<trkpt lat="45.51161" lon="13.52127">
<ele>49</ele>
<time>2011-05-01T12:15:16Z</time>
</trkpt>
<trkpt lat="45.51166" lon="13.52124">
<ele>49</ele>
<time>2011-05-01T12:15:21Z</time>
</trkpt>
<trkpt lat="45.51172" lon="13.52121">
<ele>49</ele>
<time>2011-05-01T12:15:25Z</time>
</trkpt>
<trkpt lat="45.51176" lon="13.52118">
<ele>49</ele>
<time>2011-05-01T12:15:28Z</time>
</trkpt>
<trkpt lat="45.5118" lon="13.52115">
<ele>49</ele>
<time>2011-05-01T12:15:31Z</time>
</trkpt>
<trkpt lat="45.51185" lon="13.52111">
<ele>49</ele>
<time>2011-05-01T12:15:34Z</time>
</trkpt>
<trkpt lat="45.51189" lon="13.52107">
<ele>49</ele>
<time>2011-05-01T12:15:37Z</time>
</trkpt>
<trkpt lat="45.51193" lon="13.52103">
<ele>49</ele>
<time>2011-05-01T12:15:40Z</time>
</trkpt>
<trkpt lat="45.51197" lon="13.521">
<ele>49</ele>
<time>2011-05-01T12:15:43Z</time>
</trkpt>
<trkpt lat="45.51201" lon="13.52096">
<ele>49</ele>
<time>2011-05-01T12:15:46Z</time>
</trkpt>
<trkpt lat="45.51206" lon="13.52093">
<ele>49</ele>
<time>2011-05-01T12:15:49Z</time>
</trkpt>
<trkpt lat="45.51211" lon="13.5209">
<ele>49</ele>
<time>2011-05-01T12:15:52Z</time>
</trkpt>
<trkpt lat="45.51216" lon="13.52086">
<ele>49</ele>
<time>2011-05-01T12:15:55Z</time>
</trkpt>
<trkpt lat="45.51222" lon="13.52083">
<ele>49</ele>
<time>2011-05-01T12:15:58Z</time>
</trkpt>
<trkpt lat="45.51227" lon="13.52079">
<ele>49</ele>
<time>2011-05-01T12:16:01Z</time>
</trkpt>
<trkpt lat="45.51233" lon="13.52075">
<ele>49</ele>
<time>2011-05-01T12:16:04Z</time>
</trkpt>
<trkpt lat="45.51238" lon="13.52071">
<ele>49</ele>
<time>2011-05-01T12:16:07Z</time>
</trkpt>
<trkpt lat="45.51244" lon="13.52068">
<ele>49</ele>
<time>2011-05-01T12:16:10Z</time>
</trkpt>
<trkpt lat="45.5125" lon="13.52064">
<ele>49</ele>
<time>2011-05-01T12:16:13Z</time>
</trkpt>
<trkpt lat="45.51256" lon="13.5206">
<ele>49</ele>
<time>2011-05-01T12:16:16Z</time>
</trkpt>
<trkpt lat="45.51261" lon="13.52057">
<ele>49</ele>
<time>2011-05-01T12:16:19Z</time>
</trkpt>
<trkpt lat="45.51266" lon="13.52053">
<ele>49</ele>
<time>2011-05-01T12:16:22Z</time>
</trkpt>
<trkpt lat="45.51271" lon="13.52049">
<ele>49</ele>
<time>2011-05-01T12:16:25Z</time>
</trkpt>
<trkpt lat="45.51276" lon="13.52045">
<ele>49</ele>
<time>2011-05-01T12:16:28Z</time>
</trkpt>
<trkpt lat="45.51281" lon="13.52041">
<ele>49</ele>
<time>2011-05-01T12:16:31Z</time>
</trkpt>
<trkpt lat="45.51287" lon="13.52037">
<ele>49</ele>
<time>2011-05-01T12:16:34Z</time>
</trkpt>
<trkpt lat="45.51293" lon="13.52033">
<ele>49</ele>
<time>2011-05-01T12:16:37Z</time>
</trkpt>
<trkpt lat="45.51298" lon="13.52029">
<ele>48</ele>
<time>2011-05-01T12:16:40Z</time>
</trkpt>
<trkpt lat="45.51303" lon="13.52025">
<ele>48</ele>
<time>2011-05-01T12:16:43Z</time>
</trkpt>
<trkpt lat="45.51308" lon="13.5202">
<ele>48</ele>
<time>2011-05-01T12:16:46Z</time>
</trkpt>
<trkpt lat="45.51313" lon="13.52016">
<ele>48</ele>
<time>2011-05-01T12:16:49Z</time>
</trkpt>
<trkpt lat="45.51318" lon="13.52012">
<ele>48</ele>
<time>2011-05-01T12:16:52Z</time>
</trkpt>
<trkpt lat="45.51323" lon="13.52007">
<ele>48</ele>
<time>2011-05-01T12:16:55Z</time>
</trkpt>
<trkpt lat="45.51328" lon="13.52003">
<ele>48</ele>
<time>2011-05-01T12:16:58Z</time>
</trkpt>
<trkpt lat="45.51332" lon="13.51999">
<ele>49</ele>
<time>2011-05-01T12:17:01Z</time>
</trkpt>
<trkpt lat="45.51337" lon="13.51994">
<ele>49</ele>
<time>2011-05-01T12:17:04Z</time>
</trkpt>
<trkpt lat="45.51342" lon="13.51989">
<ele>49</ele>
<time>2011-05-01T12:17:07Z</time>
</trkpt>
<trkpt lat="45.51346" lon="13.51984">
<ele>49</ele>
<time>2011-05-01T12:17:10Z</time>
</trkpt>
<trkpt lat="45.5135" lon="13.51979">
<ele>49</ele>
<time>2011-05-01T12:17:13Z</time>
</trkpt>
<trkpt lat="45.51354" lon="13.51973">
<ele>49</ele>
<time>2011-05-01T12:17:16Z</time>
</trkpt>
<trkpt lat="45.51358" lon="13.51967">
<ele>49</ele>
<time>2011-05-01T12:17:19Z</time>
</trkpt>
<trkpt lat="45.51362" lon="13.51963">
<ele>49</ele>
<time>2011-05-01T12:17:22Z</time>
</trkpt>
<trkpt lat="45.51365" lon="13.51958">
<ele>49</ele>
<time>2011-05-01T12:17:25Z</time>
</trkpt>
<trkpt lat="45.51369" lon="13.51954">
<ele>49</ele>
<time>2011-05-01T12:17:28Z</time>
</trkpt>
<trkpt lat="45.51374" lon="13.51951">
<ele>49</ele>
<time>2011-05-01T12:17:32Z</time>
</trkpt>
<trkpt lat="45.5138" lon="13.51948">
<ele>49</ele>
<time>2011-05-01T12:17:36Z</time>
</trkpt>
<trkpt lat="45.51384" lon="13.51945">
<ele>48</ele>
<time>2011-05-01T12:17:39Z</time>
</trkpt>
<trkpt lat="45.51388" lon="13.51941">
<ele>48</ele>
<time>2011-05-01T12:17:42Z</time>
</trkpt>
<trkpt lat="45.51393" lon="13.51938">
<ele>48</ele>
<time>2011-05-01T12:17:45Z</time>
</trkpt>
<trkpt lat="45.51397" lon="13.51934">
<ele>48</ele>
<time>2011-05-01T12:17:48Z</time>
</trkpt>
<trkpt lat="45.51401" lon="13.5193">
<ele>48</ele>
<time>2011-05-01T12:17:51Z</time>
</trkpt>
<trkpt lat="45.51405" lon="13.51925">
<ele>48</ele>
<time>2011-05-01T12:17:54Z</time>
</trkpt>
<trkpt lat="45.5141" lon="13.51921">
<ele>48</ele>
<time>2011-05-01T12:17:57Z</time>
</trkpt>
<trkpt lat="45.51414" lon="13.51917">
<ele>48</ele>
<time>2011-05-01T12:18:00Z</time>
</trkpt>
<trkpt lat="45.51418" lon="13.51913">
<ele>48</ele>
<time>2011-05-01T12:18:03Z</time>
</trkpt>
<trkpt lat="45.51422" lon="13.51909">
<ele>48</ele>
<time>2011-05-01T12:18:06Z</time>
</trkpt>
<trkpt lat="45.51425" lon="13.51904">
<ele>48</ele>
<time>2011-05-01T12:18:09Z</time>
</trkpt>
<trkpt lat="45.51429" lon="13.519">
<ele>48</ele>
<time>2011-05-01T12:18:12Z</time>
</trkpt>
<trkpt lat="45.51433" lon="13.51896">
<ele>48</ele>
<time>2011-05-01T12:18:15Z</time>
</trkpt>
<trkpt lat="45.51437" lon="13.51893">
<ele>48</ele>
<time>2011-05-01T12:18:18Z</time>
</trkpt>
<trkpt lat="45.51441" lon="13.5189">
<ele>48</ele>
<time>2011-05-01T12:18:21Z</time>
</trkpt>
<trkpt lat="45.51445" lon="13.51887">
<ele>49</ele>
<time>2011-05-01T12:18:24Z</time>
</trkpt>
<trkpt lat="45.5145" lon="13.51884">
<ele>49</ele>
<time>2011-05-01T12:18:27Z</time>
</trkpt>
<trkpt lat="45.51455" lon="13.51881">
<ele>49</ele>
<time>2011-05-01T12:18:30Z</time>
</trkpt>
<trkpt lat="45.51461" lon="13.51878">
<ele>49</ele>
<time>2011-05-01T12:18:33Z</time>
</trkpt>
<trkpt lat="45.51465" lon="13.51876">
<ele>49</ele>
<time>2011-05-01T12:18:35Z</time>
</trkpt>
<trkpt lat="45.51469" lon="13.51873">
<ele>49</ele>
<time>2011-05-01T12:18:37Z</time>
</trkpt>
<trkpt lat="45.51475" lon="13.51869">
<ele>49</ele>
<time>2011-05-01T12:18:40Z</time>
</trkpt>
<trkpt lat="45.51479" lon="13.51866">
<ele>49</ele>
<time>2011-05-01T12:18:42Z</time>
</trkpt>
<trkpt lat="45.51485" lon="13.51863">
<ele>49</ele>
<time>2011-05-01T12:18:45Z</time>
</trkpt>
<trkpt lat="45.51491" lon="13.51859">
<ele>49</ele>
<time>2011-05-01T12:18:48Z</time>
</trkpt>
<trkpt lat="45.51496" lon="13.51854">
<ele>49</ele>
<time>2011-05-01T12:18:51Z</time>
</trkpt>
<trkpt lat="45.51501" lon="13.51849">
<ele>49</ele>
<time>2011-05-01T12:18:54Z</time>
</trkpt>
<trkpt lat="45.51506" lon="13.51844">
<ele>49</ele>
<time>2011-05-01T12:18:57Z</time>
</trkpt>
<trkpt lat="45.5151" lon="13.51839">
<ele>49</ele>
<time>2011-05-01T12:19:00Z</time>
</trkpt>
<trkpt lat="45.51515" lon="13.51834">
<ele>49</ele>
<time>2011-05-01T12:19:03Z</time>
</trkpt>
<trkpt lat="45.51519" lon="13.51829">
<ele>49</ele>
<time>2011-05-01T12:19:06Z</time>
</trkpt>
<trkpt lat="45.51524" lon="13.51825">
<ele>49</ele>
<time>2011-05-01T12:19:09Z</time>
</trkpt>
<trkpt lat="45.51528" lon="13.51821">
<ele>50</ele>
<time>2011-05-01T12:19:12Z</time>
</trkpt>
<trkpt lat="45.51533" lon="13.51816">
<ele>50</ele>
<time>2011-05-01T12:19:15Z</time>
</trkpt>
<trkpt lat="45.51536" lon="13.51812">
<ele>50</ele>
<time>2011-05-01T12:19:18Z</time>
</trkpt>
<trkpt lat="45.5154" lon="13.51808">
<ele>50</ele>
<time>2011-05-01T12:19:21Z</time>
</trkpt>
<trkpt lat="45.51545" lon="13.51803">
<ele>50</ele>
<time>2011-05-01T12:19:25Z</time>
</trkpt>
<trkpt lat="45.51549" lon="13.51798">
<ele>50</ele>
<time>2011-05-01T12:19:29Z</time>
</trkpt>
<trkpt lat="45.51553" lon="13.51793">
<ele>50</ele>
<time>2011-05-01T12:19:33Z</time>
</trkpt>
<trkpt lat="45.51558" lon="13.51788">
<ele>50</ele>
<time>2011-05-01T12:19:37Z</time>
</trkpt>
<trkpt lat="45.51563" lon="13.51783">
<ele>50</ele>
<time>2011-05-01T12:19:41Z</time>
</trkpt>
<trkpt lat="45.51567" lon="13.51778">
<ele>50</ele>
<time>2011-05-01T12:19:45Z</time>
</trkpt>
<trkpt lat="45.51572" lon="13.51773">
<ele>50</ele>
<time>2011-05-01T12:19:49Z</time>
</trkpt>
<trkpt lat="45.51576" lon="13.51769">
<ele>50</ele>
<time>2011-05-01T12:19:52Z</time>
</trkpt>
<trkpt lat="45.51579" lon="13.51765">
<ele>51</ele>
<time>2011-05-01T12:19:55Z</time>
</trkpt>
<trkpt lat="45.51583" lon="13.51761">
<ele>51</ele>
<time>2011-05-01T12:19:58Z</time>
</trkpt>
<trkpt lat="45.51587" lon="13.51757">
<ele>51</ele>
<time>2011-05-01T12:20:01Z</time>
</trkpt>
<trkpt lat="45.51591" lon="13.51752">
<ele>51</ele>
<time>2011-05-01T12:20:04Z</time>
</trkpt>
<trkpt lat="45.51595" lon="13.51746">
<ele>51</ele>
<time>2011-05-01T12:20:07Z</time>
</trkpt>
<trkpt lat="45.51599" lon="13.5174">
<ele>51</ele>
<time>2011-05-01T12:20:10Z</time>
</trkpt>
<trkpt lat="45.51602" lon="13.51735">
<ele>51</ele>
<time>2011-05-01T12:20:13Z</time>
</trkpt>
<trkpt lat="45.51606" lon="13.5173">
<ele>51</ele>
<time>2011-05-01T12:20:16Z</time>
</trkpt>
<trkpt lat="45.5161" lon="13.51725">
<ele>51</ele>
<time>2011-05-01T12:20:19Z</time>
</trkpt>
<trkpt lat="45.51613" lon="13.51721">
<ele>51</ele>
<time>2011-05-01T12:20:22Z</time>
</trkpt>
<trkpt lat="45.51617" lon="13.51716">
<ele>51</ele>
<time>2011-05-01T12:20:25Z</time>
</trkpt>
<trkpt lat="45.5162" lon="13.51712">
<ele>51</ele>
<time>2011-05-01T12:20:28Z</time>
</trkpt>
<trkpt lat="45.51624" lon="13.51707">
<ele>50</ele>
<time>2011-05-01T12:20:32Z</time>
</trkpt>
<trkpt lat="45.51628" lon="13.51701">
<ele>50</ele>
<time>2011-05-01T12:20:36Z</time>
</trkpt>
<trkpt lat="45.51633" lon="13.51696">
<ele>50</ele>
<time>2011-05-01T12:20:40Z</time>
</trkpt>
<trkpt lat="45.51637" lon="13.51691">
<ele>50</ele>
<time>2011-05-01T12:20:44Z</time>
</trkpt>
<trkpt lat="45.51642" lon="13.51686">
<ele>50</ele>
<time>2011-05-01T12:20:48Z</time>
</trkpt>
<trkpt lat="45.51646" lon="13.51681">
<ele>50</ele>
<time>2011-05-01T12:20:52Z</time>
</trkpt>
<trkpt lat="45.5165" lon="13.51676">
<ele>50</ele>
<time>2011-05-01T12:20:56Z</time>
</trkpt>
<trkpt lat="45.51654" lon="13.51671">
<ele>50</ele>
<time>2011-05-01T12:21:00Z</time>
</trkpt>
<trkpt lat="45.51658" lon="13.51666">
<ele>50</ele>
<time>2011-05-01T12:21:04Z</time>
</trkpt>
<trkpt lat="45.51663" lon="13.5166">
<ele>50</ele>
<time>2011-05-01T12:21:08Z</time>
</trkpt>
<trkpt lat="45.51667" lon="13.51654">
<ele>50</ele>
<time>2011-05-01T12:21:12Z</time>
</trkpt>
<trkpt lat="45.51671" lon="13.51649">
<ele>49</ele>
<time>2011-05-01T12:21:16Z</time>
</trkpt>
<trkpt lat="45.51675" lon="13.51644">
<ele>49</ele>
<time>2011-05-01T12:21:20Z</time>
</trkpt>
<trkpt lat="45.5168" lon="13.51639">
<ele>49</ele>
<time>2011-05-01T12:21:24Z</time>
</trkpt>
<trkpt lat="45.51684" lon="13.51634">
<ele>49</ele>
<time>2011-05-01T12:21:28Z</time>
</trkpt>
<trkpt lat="45.51687" lon="13.51629">
<ele>49</ele>
<time>2011-05-01T12:21:32Z</time>
</trkpt>
<trkpt lat="45.51691" lon="13.51624">
<ele>49</ele>
<time>2011-05-01T12:21:36Z</time>
</trkpt>
<trkpt lat="45.51696" lon="13.51619">
<ele>49</ele>
<time>2011-05-01T12:21:40Z</time>
</trkpt>
<trkpt lat="45.517" lon="13.51614">
<ele>49</ele>
<time>2011-05-01T12:21:44Z</time>
</trkpt>
<trkpt lat="45.51705" lon="13.51609">
<ele>49</ele>
<time>2011-05-01T12:21:48Z</time>
</trkpt>
<trkpt lat="45.51708" lon="13.51605">
<ele>49</ele>
<time>2011-05-01T12:21:51Z</time>
</trkpt>
<trkpt lat="45.51712" lon="13.51602">
<ele>49</ele>
<time>2011-05-01T12:21:54Z</time>
</trkpt>
<trkpt lat="45.51716" lon="13.51598">
<ele>49</ele>
<time>2011-05-01T12:21:57Z</time>
</trkpt>
<trkpt lat="45.5172" lon="13.51593">
<ele>48</ele>
<time>2011-05-01T12:22:00Z</time>
</trkpt>
<trkpt lat="45.51724" lon="13.51589">
<ele>48</ele>
<time>2011-05-01T12:22:03Z</time>
</trkpt>
<trkpt lat="45.51728" lon="13.51585">
<ele>48</ele>
<time>2011-05-01T12:22:06Z</time>
</trkpt>
<trkpt lat="45.51732" lon="13.5158">
<ele>48</ele>
<time>2011-05-01T12:22:09Z</time>
</trkpt>
<trkpt lat="45.51736" lon="13.51576">
<ele>48</ele>
<time>2011-05-01T12:22:12Z</time>
</trkpt>
<trkpt lat="45.51741" lon="13.51572">
<ele>48</ele>
<time>2011-05-01T12:22:15Z</time>
</trkpt>
<trkpt lat="45.51746" lon="13.51568">
<ele>48</ele>
<time>2011-05-01T12:22:18Z</time>
</trkpt>
<trkpt lat="45.5175" lon="13.51564">
<ele>48</ele>
<time>2011-05-01T12:22:21Z</time>
</trkpt>
<trkpt lat="45.51755" lon="13.5156">
<ele>48</ele>
<time>2011-05-01T12:22:24Z</time>
</trkpt>
<trkpt lat="45.5176" lon="13.51556">
<ele>48</ele>
<time>2011-05-01T12:22:27Z</time>
</trkpt>
<trkpt lat="45.51766" lon="13.51552">
<ele>48</ele>
<time>2011-05-01T12:22:30Z</time>
</trkpt>
<trkpt lat="45.5177" lon="13.51548">
<ele>48</ele>
<time>2011-05-01T12:22:33Z</time>
</trkpt>
<trkpt lat="45.51775" lon="13.51543">
<ele>48</ele>
<time>2011-05-01T12:22:36Z</time>
</trkpt>
<trkpt lat="45.5178" lon="13.51539">
<ele>49</ele>
<time>2011-05-01T12:22:39Z</time>
</trkpt>
<trkpt lat="45.51785" lon="13.51534">
<ele>49</ele>
<time>2011-05-01T12:22:42Z</time>
</trkpt>
<trkpt lat="45.5179" lon="13.51529">
<ele>49</ele>
<time>2011-05-01T12:22:45Z</time>
</trkpt>
<trkpt lat="45.51796" lon="13.51524">
<ele>49</ele>
<time>2011-05-01T12:22:48Z</time>
</trkpt>
<trkpt lat="45.51801" lon="13.51519">
<ele>49</ele>
<time>2011-05-01T12:22:51Z</time>
</trkpt>
<trkpt lat="45.51806" lon="13.51514">
<ele>49</ele>
<time>2011-05-01T12:22:54Z</time>
</trkpt>
<trkpt lat="45.51811" lon="13.5151">
<ele>49</ele>
<time>2011-05-01T12:22:57Z</time>
</trkpt>
<trkpt lat="45.51817" lon="13.51505">
<ele>49</ele>
<time>2011-05-01T12:23:00Z</time>
</trkpt>
<trkpt lat="45.51822" lon="13.515">
<ele>49</ele>
<time>2011-05-01T12:23:03Z</time>
</trkpt>
<trkpt lat="45.51827" lon="13.51496">
<ele>49</ele>
<time>2011-05-01T12:23:06Z</time>
</trkpt>
<trkpt lat="45.51832" lon="13.51491">
<ele>49</ele>
<time>2011-05-01T12:23:09Z</time>
</trkpt>
<trkpt lat="45.51837" lon="13.51486">
<ele>49</ele>
<time>2011-05-01T12:23:12Z</time>
</trkpt>
<trkpt lat="45.51842" lon="13.51481">
<ele>49</ele>
<time>2011-05-01T12:23:15Z</time>
</trkpt>
<trkpt lat="45.51846" lon="13.51476">
<ele>50</ele>
<time>2011-05-01T12:23:18Z</time>
</trkpt>
<trkpt lat="45.51851" lon="13.51472">
<ele>50</ele>
<time>2011-05-01T12:23:21Z</time>
</trkpt>
<trkpt lat="45.51856" lon="13.51467">
<ele>50</ele>
<time>2011-05-01T12:23:24Z</time>
</trkpt>
<trkpt lat="45.5186" lon="13.51463">
<ele>50</ele>
<time>2011-05-01T12:23:27Z</time>
</trkpt>
<trkpt lat="45.51865" lon="13.51458">
<ele>50</ele>
<time>2011-05-01T12:23:30Z</time>
</trkpt>
<trkpt lat="45.51869" lon="13.51454">
<ele>50</ele>
<time>2011-05-01T12:23:33Z</time>
</trkpt>
<trkpt lat="45.51874" lon="13.51449">
<ele>50</ele>
<time>2011-05-01T12:23:36Z</time>
</trkpt>
<trkpt lat="45.51878" lon="13.51444">
<ele>50</ele>
<time>2011-05-01T12:23:39Z</time>
</trkpt>
<trkpt lat="45.51882" lon="13.51438">
<ele>50</ele>
<time>2011-05-01T12:23:42Z</time>
</trkpt>
<trkpt lat="45.51886" lon="13.51433">
<ele>50</ele>
<time>2011-05-01T12:23:45Z</time>
</trkpt>
<trkpt lat="45.5189" lon="13.51428">
<ele>50</ele>
<time>2011-05-01T12:23:48Z</time>
</trkpt>
<trkpt lat="45.51893" lon="13.51422">
<ele>50</ele>
<time>2011-05-01T12:23:51Z</time>
</trkpt>
<trkpt lat="45.51897" lon="13.51417">
<ele>50</ele>
<time>2011-05-01T12:23:54Z</time>
</trkpt>
<trkpt lat="45.51901" lon="13.51412">
<ele>50</ele>
<time>2011-05-01T12:23:57Z</time>
</trkpt>
<trkpt lat="45.51905" lon="13.51408">
<ele>50</ele>
<time>2011-05-01T12:24:00Z</time>
</trkpt>
<trkpt lat="45.51909" lon="13.51404">
<ele>50</ele>
<time>2011-05-01T12:24:03Z</time>
</trkpt>
<trkpt lat="45.51913" lon="13.514">
<ele>50</ele>
<time>2011-05-01T12:24:06Z</time>
</trkpt>
<trkpt lat="45.51917" lon="13.51395">
<ele>50</ele>
<time>2011-05-01T12:24:09Z</time>
</trkpt>
<trkpt lat="45.51922" lon="13.51391">
<ele>49</ele>
<time>2011-05-01T12:24:12Z</time>
</trkpt>
<trkpt lat="45.51926" lon="13.51386">
<ele>49</ele>
<time>2011-05-01T12:24:15Z</time>
</trkpt>
<trkpt lat="45.51931" lon="13.51382">
<ele>49</ele>
<time>2011-05-01T12:24:18Z</time>
</trkpt>
<trkpt lat="45.51936" lon="13.51376">
<ele>49</ele>
<time>2011-05-01T12:24:21Z</time>
</trkpt>
<trkpt lat="45.5194" lon="13.51371">
<ele>49</ele>
<time>2011-05-01T12:24:24Z</time>
</trkpt>
<trkpt lat="45.51945" lon="13.51365">
<ele>49</ele>
<time>2011-05-01T12:24:27Z</time>
</trkpt>
<trkpt lat="45.51949" lon="13.51359">
<ele>49</ele>
<time>2011-05-01T12:24:30Z</time>
</trkpt>
<trkpt lat="45.51953" lon="13.51353">
<ele>49</ele>
<time>2011-05-01T12:24:33Z</time>
</trkpt>
<trkpt lat="45.51958" lon="13.51348">
<ele>49</ele>
<time>2011-05-01T12:24:36Z</time>
</trkpt>
<trkpt lat="45.51961" lon="13.51342">
<ele>49</ele>
<time>2011-05-01T12:24:39Z</time>
</trkpt>
<trkpt lat="45.51965" lon="13.51337">
<ele>48</ele>
<time>2011-05-01T12:24:42Z</time>
</trkpt>
<trkpt lat="45.51968" lon="13.51333">
<ele>48</ele>
<time>2011-05-01T12:24:45Z</time>
</trkpt>
<trkpt lat="45.51972" lon="13.51328">
<ele>48</ele>
<time>2011-05-01T12:24:48Z</time>
</trkpt>
<trkpt lat="45.51975" lon="13.51324">
<ele>48</ele>
<time>2011-05-01T12:24:51Z</time>
</trkpt>
<trkpt lat="45.51979" lon="13.51319">
<ele>48</ele>
<time>2011-05-01T12:24:54Z</time>
</trkpt>
<trkpt lat="45.51982" lon="13.51314">
<ele>47</ele>
<time>2011-05-01T12:24:57Z</time>
</trkpt>
<trkpt lat="45.51986" lon="13.5131">
<ele>47</ele>
<time>2011-05-01T12:25:00Z</time>
</trkpt>
<trkpt lat="45.51989" lon="13.51305">
<ele>47</ele>
<time>2011-05-01T12:25:03Z</time>
</trkpt>
<trkpt lat="45.51993" lon="13.513">
<ele>47</ele>
<time>2011-05-01T12:25:06Z</time>
</trkpt>
<trkpt lat="45.51996" lon="13.51296">
<ele>47</ele>
<time>2011-05-01T12:25:09Z</time>
</trkpt>
<trkpt lat="45.52" lon="13.5129">
<ele>46</ele>
<time>2011-05-01T12:25:12Z</time>
</trkpt>
<trkpt lat="45.52004" lon="13.51286">
<ele>46</ele>
<time>2011-05-01T12:25:15Z</time>
</trkpt>
<trkpt lat="45.52008" lon="13.51282">
<ele>46</ele>
<time>2011-05-01T12:25:18Z</time>
</trkpt>
<trkpt lat="45.52011" lon="13.51278">
<ele>46</ele>
<time>2011-05-01T12:25:21Z</time>
</trkpt>
<trkpt lat="45.52015" lon="13.51274">
<ele>46</ele>
<time>2011-05-01T12:25:24Z</time>
</trkpt>
<trkpt lat="45.52019" lon="13.5127">
<ele>46</ele>
<time>2011-05-01T12:25:27Z</time>
</trkpt>
<trkpt lat="45.52024" lon="13.51265">
<ele>46</ele>
<time>2011-05-01T12:25:30Z</time>
</trkpt>
<trkpt lat="45.52028" lon="13.51261">
<ele>46</ele>
<time>2011-05-01T12:25:33Z</time>
</trkpt>
<trkpt lat="45.52032" lon="13.51258">
<ele>46</ele>
<time>2011-05-01T12:25:36Z</time>
</trkpt>
<trkpt lat="45.52037" lon="13.51253">
<ele>46</ele>
<time>2011-05-01T12:25:39Z</time>
</trkpt>
<trkpt lat="45.52042" lon="13.51249">
<ele>46</ele>
<time>2011-05-01T12:25:42Z</time>
</trkpt>
<trkpt lat="45.52046" lon="13.51244">
<ele>46</ele>
<time>2011-05-01T12:25:45Z</time>
</trkpt>
<trkpt lat="45.52051" lon="13.51239">
<ele>46</ele>
<time>2011-05-01T12:25:48Z</time>
</trkpt>
<trkpt lat="45.52055" lon="13.51235">
<ele>46</ele>
<time>2011-05-01T12:25:51Z</time>
</trkpt>
<trkpt lat="45.5206" lon="13.5123">
<ele>46</ele>
<time>2011-05-01T12:25:54Z</time>
</trkpt>
<trkpt lat="45.52064" lon="13.51225">
<ele>46</ele>
<time>2011-05-01T12:25:57Z</time>
</trkpt>
<trkpt lat="45.52069" lon="13.5122">
<ele>46</ele>
<time>2011-05-01T12:26:00Z</time>
</trkpt>
<trkpt lat="45.52074" lon="13.51216">
<ele>46</ele>
<time>2011-05-01T12:26:03Z</time>
</trkpt>
<trkpt lat="45.52078" lon="13.51211">
<ele>46</ele>
<time>2011-05-01T12:26:06Z</time>
</trkpt>
<trkpt lat="45.52083" lon="13.51206">
<ele>46</ele>
<time>2011-05-01T12:26:09Z</time>
</trkpt>
<trkpt lat="45.52088" lon="13.512">
<ele>46</ele>
<time>2011-05-01T12:26:12Z</time>
</trkpt>
<trkpt lat="45.52092" lon="13.51195">
<ele>46</ele>
<time>2011-05-01T12:26:15Z</time>
</trkpt>
<trkpt lat="45.52097" lon="13.5119">
<ele>46</ele>
<time>2011-05-01T12:26:18Z</time>
</trkpt>
<trkpt lat="45.52102" lon="13.51184">
<ele>46</ele>
<time>2011-05-01T12:26:21Z</time>
</trkpt>
<trkpt lat="45.52107" lon="13.51179">
<ele>46</ele>
<time>2011-05-01T12:26:24Z</time>
</trkpt>
<trkpt lat="45.52112" lon="13.51174">
<ele>46</ele>
<time>2011-05-01T12:26:27Z</time>
</trkpt>
<trkpt lat="45.52117" lon="13.51169">
<ele>47</ele>
<time>2011-05-01T12:26:30Z</time>
</trkpt>
<trkpt lat="45.52122" lon="13.51164">
<ele>47</ele>
<time>2011-05-01T12:26:33Z</time>
</trkpt>
<trkpt lat="45.52126" lon="13.51159">
<ele>47</ele>
<time>2011-05-01T12:26:36Z</time>
</trkpt>
<trkpt lat="45.52131" lon="13.51154">
<ele>47</ele>
<time>2011-05-01T12:26:39Z</time>
</trkpt>
<trkpt lat="45.52136" lon="13.51149">
<ele>47</ele>
<time>2011-05-01T12:26:42Z</time>
</trkpt>
<trkpt lat="45.52141" lon="13.51144">
<ele>47</ele>
<time>2011-05-01T12:26:45Z</time>
</trkpt>
<trkpt lat="45.52146" lon="13.51138">
<ele>47</ele>
<time>2011-05-01T12:26:48Z</time>
</trkpt>
<trkpt lat="45.52151" lon="13.51132">
<ele>47</ele>
<time>2011-05-01T12:26:51Z</time>
</trkpt>
<trkpt lat="45.52156" lon="13.51126">
<ele>47</ele>
<time>2011-05-01T12:26:54Z</time>
</trkpt>
<trkpt lat="45.5216" lon="13.5112">
<ele>47</ele>
<time>2011-05-01T12:26:57Z</time>
</trkpt>
<trkpt lat="45.52164" lon="13.51115">
<ele>47</ele>
<time>2011-05-01T12:27:00Z</time>
</trkpt>
<trkpt lat="45.52168" lon="13.51109">
<ele>47</ele>
<time>2011-05-01T12:27:03Z</time>
</trkpt>
<trkpt lat="45.52171" lon="13.51104">
<ele>47</ele>
<time>2011-05-01T12:27:06Z</time>
</trkpt>
<trkpt lat="45.52174" lon="13.51098">
<ele>47</ele>
<time>2011-05-01T12:27:09Z</time>
</trkpt>
<trkpt lat="45.52178" lon="13.51092">
<ele>47</ele>
<time>2011-05-01T12:27:13Z</time>
</trkpt>
<trkpt lat="45.52181" lon="13.51086">
<ele>47</ele>
<time>2011-05-01T12:27:17Z</time>
</trkpt>
<trkpt lat="45.52185" lon="13.5108">
<ele>47</ele>
<time>2011-05-01T12:27:21Z</time>
</trkpt>
<trkpt lat="45.52189" lon="13.51074">
<ele>47</ele>
<time>2011-05-01T12:27:25Z</time>
</trkpt>
<trkpt lat="45.52193" lon="13.51069">
<ele>48</ele>
<time>2011-05-01T12:27:29Z</time>
</trkpt>
<trkpt lat="45.52197" lon="13.51063">
<ele>48</ele>
<time>2011-05-01T12:27:33Z</time>
</trkpt>
<trkpt lat="45.52202" lon="13.51057">
<ele>48</ele>
<time>2011-05-01T12:27:37Z</time>
</trkpt>
<trkpt lat="45.52206" lon="13.51051">
<ele>48</ele>
<time>2011-05-01T12:27:41Z</time>
</trkpt>
<trkpt lat="45.5221" lon="13.51047">
<ele>48</ele>
<time>2011-05-01T12:27:44Z</time>
</trkpt>
<trkpt lat="45.52213" lon="13.51043">
<ele>48</ele>
<time>2011-05-01T12:27:47Z</time>
</trkpt>
<trkpt lat="45.52217" lon="13.51039">
<ele>48</ele>
<time>2011-05-01T12:27:50Z</time>
</trkpt>
<trkpt lat="45.5222" lon="13.51035">
<ele>48</ele>
<time>2011-05-01T12:27:53Z</time>
</trkpt>
<trkpt lat="45.52224" lon="13.5103">
<ele>49</ele>
<time>2011-05-01T12:27:56Z</time>
</trkpt>
<trkpt lat="45.52227" lon="13.51026">
<ele>49</ele>
<time>2011-05-01T12:27:59Z</time>
</trkpt>
<trkpt lat="45.52231" lon="13.5102">
<ele>49</ele>
<time>2011-05-01T12:28:03Z</time>
</trkpt>
<trkpt lat="45.52235" lon="13.51014">
<ele>49</ele>
<time>2011-05-01T12:28:07Z</time>
</trkpt>
<trkpt lat="45.52239" lon="13.51008">
<ele>49</ele>
<time>2011-05-01T12:28:11Z</time>
</trkpt>
<trkpt lat="45.52242" lon="13.51002">
<ele>49</ele>
<time>2011-05-01T12:28:15Z</time>
</trkpt>
<trkpt lat="45.52245" lon="13.50996">
<ele>49</ele>
<time>2011-05-01T12:28:19Z</time>
</trkpt>
<trkpt lat="45.52249" lon="13.50989">
<ele>49</ele>
<time>2011-05-01T12:28:23Z</time>
</trkpt>
<trkpt lat="45.52252" lon="13.50984">
<ele>49</ele>
<time>2011-05-01T12:28:26Z</time>
</trkpt>
<trkpt lat="45.52255" lon="13.50978">
<ele>49</ele>
<time>2011-05-01T12:28:30Z</time>
</trkpt>
<trkpt lat="45.52259" lon="13.50972">
<ele>49</ele>
<time>2011-05-01T12:28:34Z</time>
</trkpt>
<trkpt lat="45.52262" lon="13.50967">
<ele>49</ele>
<time>2011-05-01T12:28:38Z</time>
</trkpt>
<trkpt lat="45.52266" lon="13.50962">
<ele>49</ele>
<time>2011-05-01T12:28:42Z</time>
</trkpt>
<trkpt lat="45.5227" lon="13.50956">
<ele>49</ele>
<time>2011-05-01T12:28:46Z</time>
</trkpt>
<trkpt lat="45.52273" lon="13.5095">
<ele>49</ele>
<time>2011-05-01T12:28:50Z</time>
</trkpt>
<trkpt lat="45.52277" lon="13.50945">
<ele>49</ele>
<time>2011-05-01T12:28:54Z</time>
</trkpt>
<trkpt lat="45.5228" lon="13.5094">
<ele>50</ele>
<time>2011-05-01T12:28:58Z</time>
</trkpt>
<trkpt lat="45.52284" lon="13.50936">
<ele>50</ele>
<time>2011-05-01T12:29:02Z</time>
</trkpt>
<trkpt lat="45.52287" lon="13.50931">
<ele>50</ele>
<time>2011-05-01T12:29:06Z</time>
</trkpt>
<trkpt lat="45.52291" lon="13.50927">
<ele>50</ele>
<time>2011-05-01T12:29:10Z</time>
</trkpt>
<trkpt lat="45.52295" lon="13.50923">
<ele>50</ele>
<time>2011-05-01T12:29:14Z</time>
</trkpt>
<trkpt lat="45.52299" lon="13.50918">
<ele>50</ele>
<time>2011-05-01T12:29:18Z</time>
</trkpt>
<trkpt lat="45.52302" lon="13.50914">
<ele>50</ele>
<time>2011-05-01T12:29:21Z</time>
</trkpt>
<trkpt lat="45.52306" lon="13.50909">
<ele>50</ele>
<time>2011-05-01T12:29:24Z</time>
</trkpt>
<trkpt lat="45.5231" lon="13.50904">
<ele>50</ele>
<time>2011-05-01T12:29:27Z</time>
</trkpt>
<trkpt lat="45.52314" lon="13.509">
<ele>50</ele>
<time>2011-05-01T12:29:30Z</time>
</trkpt>
<trkpt lat="45.52318" lon="13.50896">
<ele>50</ele>
<time>2011-05-01T12:29:33Z</time>
</trkpt>
<trkpt lat="45.52322" lon="13.50892">
<ele>50</ele>
<time>2011-05-01T12:29:36Z</time>
</trkpt>
<trkpt lat="45.52326" lon="13.50887">
<ele>50</ele>
<time>2011-05-01T12:29:39Z</time>
</trkpt>
<trkpt lat="45.5233" lon="13.50882">
<ele>50</ele>
<time>2011-05-01T12:29:42Z</time>
</trkpt>
<trkpt lat="45.52333" lon="13.50876">
<ele>50</ele>
<time>2011-05-01T12:29:45Z</time>
</trkpt>
<trkpt lat="45.52337" lon="13.50871">
<ele>50</ele>
<time>2011-05-01T12:29:48Z</time>
</trkpt>
<trkpt lat="45.5234" lon="13.50865">
<ele>50</ele>
<time>2011-05-01T12:29:51Z</time>
</trkpt>
<trkpt lat="45.52344" lon="13.5086">
<ele>49</ele>
<time>2011-05-01T12:29:54Z</time>
</trkpt>
<trkpt lat="45.52347" lon="13.50855">
<ele>49</ele>
<time>2011-05-01T12:29:57Z</time>
</trkpt>
<trkpt lat="45.52351" lon="13.50849">
<ele>49</ele>
<time>2011-05-01T12:30:01Z</time>
</trkpt>
<trkpt lat="45.52356" lon="13.50844">
<ele>49</ele>
<time>2011-05-01T12:30:05Z</time>
</trkpt>
<trkpt lat="45.52359" lon="13.50839">
<ele>49</ele>
<time>2011-05-01T12:30:08Z</time>
</trkpt>
<trkpt lat="45.52363" lon="13.50834">
<ele>49</ele>
<time>2011-05-01T12:30:11Z</time>
</trkpt>
<trkpt lat="45.52367" lon="13.50829">
<ele>49</ele>
<time>2011-05-01T12:30:14Z</time>
</trkpt>
<trkpt lat="45.52371" lon="13.50824">
<ele>49</ele>
<time>2011-05-01T12:30:17Z</time>
</trkpt>
<trkpt lat="45.52375" lon="13.5082">
<ele>49</ele>
<time>2011-05-01T12:30:20Z</time>
</trkpt>
<trkpt lat="45.5238" lon="13.50815">
<ele>49</ele>
<time>2011-05-01T12:30:23Z</time>
</trkpt>
<trkpt lat="45.52384" lon="13.5081">
<ele>49</ele>
<time>2011-05-01T12:30:26Z</time>
</trkpt>
<trkpt lat="45.52388" lon="13.50805">
<ele>49</ele>
<time>2011-05-01T12:30:29Z</time>
</trkpt>
<trkpt lat="45.52392" lon="13.508">
<ele>49</ele>
<time>2011-05-01T12:30:32Z</time>
</trkpt>
<trkpt lat="45.52397" lon="13.50796">
<ele>49</ele>
<time>2011-05-01T12:30:35Z</time>
</trkpt>
<trkpt lat="45.52401" lon="13.50792">
<ele>49</ele>
<time>2011-05-01T12:30:38Z</time>
</trkpt>
<trkpt lat="45.52406" lon="13.50788">
<ele>49</ele>
<time>2011-05-01T12:30:41Z</time>
</trkpt>
<trkpt lat="45.52412" lon="13.50784">
<ele>49</ele>
<time>2011-05-01T12:30:44Z</time>
</trkpt>
<trkpt lat="45.52417" lon="13.5078">
<ele>49</ele>
<time>2011-05-01T12:30:47Z</time>
</trkpt>
<trkpt lat="45.52423" lon="13.50775">
<ele>49</ele>
<time>2011-05-01T12:30:50Z</time>
</trkpt>
<trkpt lat="45.52427" lon="13.50772">
<ele>49</ele>
<time>2011-05-01T12:30:52Z</time>
</trkpt>
<trkpt lat="45.52431" lon="13.50769">
<ele>49</ele>
<time>2011-05-01T12:30:54Z</time>
</trkpt>
<trkpt lat="45.52435" lon="13.50766">
<ele>49</ele>
<time>2011-05-01T12:30:56Z</time>
</trkpt>
<trkpt lat="45.52439" lon="13.50763">
<ele>49</ele>
<time>2011-05-01T12:30:58Z</time>
</trkpt>
<trkpt lat="45.52444" lon="13.5076">
<ele>49</ele>
<time>2011-05-01T12:31:00Z</time>
</trkpt>
<trkpt lat="45.52448" lon="13.50758">
<ele>49</ele>
<time>2011-05-01T12:31:02Z</time>
</trkpt>
<trkpt lat="45.52452" lon="13.50754">
<ele>49</ele>
<time>2011-05-01T12:31:04Z</time>
</trkpt>
<trkpt lat="45.52457" lon="13.50751">
<ele>49</ele>
<time>2011-05-01T12:31:06Z</time>
</trkpt>
<trkpt lat="45.52462" lon="13.50747">
<ele>49</ele>
<time>2011-05-01T12:31:08Z</time>
</trkpt>
<trkpt lat="45.52466" lon="13.50743">
<ele>49</ele>
<time>2011-05-01T12:31:10Z</time>
</trkpt>
<trkpt lat="45.5247" lon="13.50739">
<ele>49</ele>
<time>2011-05-01T12:31:12Z</time>
</trkpt>
<trkpt lat="45.52474" lon="13.50736">
<ele>49</ele>
<time>2011-05-01T12:31:14Z</time>
</trkpt>
<trkpt lat="45.52478" lon="13.50732">
<ele>49</ele>
<time>2011-05-01T12:31:16Z</time>
</trkpt>
<trkpt lat="45.52483" lon="13.50728">
<ele>49</ele>
<time>2011-05-01T12:31:18Z</time>
</trkpt>
<trkpt lat="45.52487" lon="13.50724">
<ele>49</ele>
<time>2011-05-01T12:31:20Z</time>
</trkpt>
<trkpt lat="45.52491" lon="13.50721">
<ele>49</ele>
<time>2011-05-01T12:31:22Z</time>
</trkpt>
<trkpt lat="45.52495" lon="13.50717">
<ele>49</ele>
<time>2011-05-01T12:31:24Z</time>
</trkpt>
<trkpt lat="45.52498" lon="13.50713">
<ele>49</ele>
<time>2011-05-01T12:31:26Z</time>
</trkpt>
<trkpt lat="45.52504" lon="13.50708">
<ele>49</ele>
<time>2011-05-01T12:31:29Z</time>
</trkpt>
<trkpt lat="45.5251" lon="13.50704">
<ele>49</ele>
<time>2011-05-01T12:31:32Z</time>
</trkpt>
<trkpt lat="45.52515" lon="13.507">
<ele>49</ele>
<time>2011-05-01T12:31:35Z</time>
</trkpt>
<trkpt lat="45.52521" lon="13.50696">
<ele>49</ele>
<time>2011-05-01T12:31:38Z</time>
</trkpt>
<trkpt lat="45.52527" lon="13.50693">
<ele>49</ele>
<time>2011-05-01T12:31:41Z</time>
</trkpt>
<trkpt lat="45.52532" lon="13.50692">
<ele>50</ele>
<time>2011-05-01T12:31:43Z</time>
</trkpt>
<trkpt lat="45.52536" lon="13.5069">
<ele>50</ele>
<time>2011-05-01T12:31:45Z</time>
</trkpt>
<trkpt lat="45.52541" lon="13.50688">
<ele>50</ele>
<time>2011-05-01T12:31:47Z</time>
</trkpt>
<trkpt lat="45.52546" lon="13.50686">
<ele>49</ele>
<time>2011-05-01T12:31:49Z</time>
</trkpt>
<trkpt lat="45.52552" lon="13.50684">
<ele>49</ele>
<time>2011-05-01T12:31:51Z</time>
</trkpt>
<trkpt lat="45.52558" lon="13.50683">
<ele>49</ele>
<time>2011-05-01T12:31:53Z</time>
</trkpt>
<trkpt lat="45.52563" lon="13.50682">
<ele>49</ele>
<time>2011-05-01T12:31:55Z</time>
</trkpt>
<trkpt lat="45.52569" lon="13.50681">
<ele>49</ele>
<time>2011-05-01T12:31:57Z</time>
</trkpt>
<trkpt lat="45.52575" lon="13.50681">
<ele>49</ele>
<time>2011-05-01T12:31:59Z</time>
</trkpt>
<trkpt lat="45.52581" lon="13.5068">
<ele>49</ele>
<time>2011-05-01T12:32:01Z</time>
</trkpt>
<trkpt lat="45.52587" lon="13.50678">
<ele>49</ele>
<time>2011-05-01T12:32:03Z</time>
</trkpt>
<trkpt lat="45.52594" lon="13.50677">
<ele>49</ele>
<time>2011-05-01T12:32:05Z</time>
</trkpt>
<trkpt lat="45.526" lon="13.50676">
<ele>49</ele>
<time>2011-05-01T12:32:07Z</time>
</trkpt>
<trkpt lat="45.52606" lon="13.50674">
<ele>49</ele>
<time>2011-05-01T12:32:09Z</time>
</trkpt>
<trkpt lat="45.52612" lon="13.50672">
<ele>49</ele>
<time>2011-05-01T12:32:11Z</time>
</trkpt>
<trkpt lat="45.52618" lon="13.50671">
<ele>48</ele>
<time>2011-05-01T12:32:13Z</time>
</trkpt>
<trkpt lat="45.52624" lon="13.50669">
<ele>48</ele>
<time>2011-05-01T12:32:15Z</time>
</trkpt>
<trkpt lat="45.52629" lon="13.50668">
<ele>48</ele>
<time>2011-05-01T12:32:17Z</time>
</trkpt>
<trkpt lat="45.52635" lon="13.50666">
<ele>48</ele>
<time>2011-05-01T12:32:19Z</time>
</trkpt>
<trkpt lat="45.52641" lon="13.50664">
<ele>48</ele>
<time>2011-05-01T12:32:21Z</time>
</trkpt>
<trkpt lat="45.52646" lon="13.50662">
<ele>48</ele>
<time>2011-05-01T12:32:23Z</time>
</trkpt>
<trkpt lat="45.52652" lon="13.50659">
<ele>48</ele>
<time>2011-05-01T12:32:25Z</time>
</trkpt>
<trkpt lat="45.52657" lon="13.50656">
<ele>48</ele>
<time>2011-05-01T12:32:27Z</time>
</trkpt>
<trkpt lat="45.52662" lon="13.50654">
<ele>48</ele>
<time>2011-05-01T12:32:29Z</time>
</trkpt>
<trkpt lat="45.52668" lon="13.50651">
<ele>48</ele>
<time>2011-05-01T12:32:31Z</time>
</trkpt>
<trkpt lat="45.52673" lon="13.50649">
<ele>48</ele>
<time>2011-05-01T12:32:33Z</time>
</trkpt>
<trkpt lat="45.52679" lon="13.50647">
<ele>48</ele>
<time>2011-05-01T12:32:35Z</time>
</trkpt>
<trkpt lat="45.52684" lon="13.50644">
<ele>48</ele>
<time>2011-05-01T12:32:37Z</time>
</trkpt>
<trkpt lat="45.52689" lon="13.50641">
<ele>48</ele>
<time>2011-05-01T12:32:39Z</time>
</trkpt>
<trkpt lat="45.52694" lon="13.50638">
<ele>48</ele>
<time>2011-05-01T12:32:41Z</time>
</trkpt>
<trkpt lat="45.52699" lon="13.50634">
<ele>48</ele>
<time>2011-05-01T12:32:43Z</time>
</trkpt>
<trkpt lat="45.52704" lon="13.50631">
<ele>48</ele>
<time>2011-05-01T12:32:45Z</time>
</trkpt>
<trkpt lat="45.52709" lon="13.50627">
<ele>48</ele>
<time>2011-05-01T12:32:47Z</time>
</trkpt>
<trkpt lat="45.52714" lon="13.50624">
<ele>48</ele>
<time>2011-05-01T12:32:49Z</time>
</trkpt>
<trkpt lat="45.52718" lon="13.5062">
<ele>48</ele>
<time>2011-05-01T12:32:51Z</time>
</trkpt>
<trkpt lat="45.52723" lon="13.50616">
<ele>48</ele>
<time>2011-05-01T12:32:53Z</time>
</trkpt>
<trkpt lat="45.52727" lon="13.50612">
<ele>48</ele>
<time>2011-05-01T12:32:55Z</time>
</trkpt>
<trkpt lat="45.52731" lon="13.50608">
<ele>48</ele>
<time>2011-05-01T12:32:57Z</time>
</trkpt>
<trkpt lat="45.52736" lon="13.50604">
<ele>48</ele>
<time>2011-05-01T12:32:59Z</time>
</trkpt>
<trkpt lat="45.5274" lon="13.506">
<ele>48</ele>
<time>2011-05-01T12:33:01Z</time>
</trkpt>
<trkpt lat="45.52744" lon="13.50597">
<ele>48</ele>
<time>2011-05-01T12:33:03Z</time>
</trkpt>
<trkpt lat="45.52748" lon="13.50594">
<ele>48</ele>
<time>2011-05-01T12:33:05Z</time>
</trkpt>
<trkpt lat="45.52752" lon="13.50592">
<ele>48</ele>
<time>2011-05-01T12:33:07Z</time>
</trkpt>
<trkpt lat="45.52758" lon="13.50589">
<ele>48</ele>
<time>2011-05-01T12:33:10Z</time>
</trkpt>
<trkpt lat="45.52763" lon="13.50587">
<ele>48</ele>
<time>2011-05-01T12:33:12Z</time>
</trkpt>
<trkpt lat="45.52767" lon="13.50585">
<ele>48</ele>
<time>2011-05-01T12:33:14Z</time>
</trkpt>
<trkpt lat="45.52772" lon="13.50583">
<ele>48</ele>
<time>2011-05-01T12:33:16Z</time>
</trkpt>
<trkpt lat="45.52777" lon="13.50581">
<ele>48</ele>
<time>2011-05-01T12:33:18Z</time>
</trkpt>
<trkpt lat="45.52782" lon="13.50578">
<ele>48</ele>
<time>2011-05-01T12:33:20Z</time>
</trkpt>
<trkpt lat="45.52787" lon="13.50576">
<ele>48</ele>
<time>2011-05-01T12:33:22Z</time>
</trkpt>
<trkpt lat="45.52792" lon="13.50572">
<ele>48</ele>
<time>2011-05-01T12:33:24Z</time>
</trkpt>
<trkpt lat="45.52797" lon="13.5057">
<ele>48</ele>
<time>2011-05-01T12:33:26Z</time>
</trkpt>
<trkpt lat="45.52802" lon="13.50567">
<ele>48</ele>
<time>2011-05-01T12:33:28Z</time>
</trkpt>
<trkpt lat="45.52807" lon="13.50564">
<ele>48</ele>
<time>2011-05-01T12:33:30Z</time>
</trkpt>
<trkpt lat="45.52812" lon="13.50561">
<ele>48</ele>
<time>2011-05-01T12:33:32Z</time>
</trkpt>
<trkpt lat="45.52816" lon="13.50558">
<ele>48</ele>
<time>2011-05-01T12:33:34Z</time>
</trkpt>
<trkpt lat="45.52822" lon="13.50556">
<ele>48</ele>
<time>2011-05-01T12:33:36Z</time>
</trkpt>
<trkpt lat="45.52826" lon="13.50553">
<ele>48</ele>
<time>2011-05-01T12:33:38Z</time>
</trkpt>
<trkpt lat="45.52832" lon="13.50551">
<ele>48</ele>
<time>2011-05-01T12:33:40Z</time>
</trkpt>
<trkpt lat="45.52837" lon="13.50549">
<ele>48</ele>
<time>2011-05-01T12:33:42Z</time>
</trkpt>
<trkpt lat="45.52842" lon="13.50547">
<ele>48</ele>
<time>2011-05-01T12:33:44Z</time>
</trkpt>
<trkpt lat="45.52848" lon="13.50545">
<ele>48</ele>
<time>2011-05-01T12:33:46Z</time>
</trkpt>
<trkpt lat="45.52854" lon="13.50543">
<ele>48</ele>
<time>2011-05-01T12:33:48Z</time>
</trkpt>
<trkpt lat="45.5286" lon="13.50541">
<ele>48</ele>
<time>2011-05-01T12:33:50Z</time>
</trkpt>
<trkpt lat="45.52866" lon="13.5054">
<ele>48</ele>
<time>2011-05-01T12:33:52Z</time>
</trkpt>
<trkpt lat="45.52871" lon="13.50538">
<ele>48</ele>
<time>2011-05-01T12:33:54Z</time>
</trkpt>
<trkpt lat="45.52877" lon="13.50537">
<ele>48</ele>
<time>2011-05-01T12:33:56Z</time>
</trkpt>
<trkpt lat="45.52883" lon="13.50536">
<ele>48</ele>
<time>2011-05-01T12:33:58Z</time>
</trkpt>
<trkpt lat="45.52889" lon="13.50535">
<ele>48</ele>
<time>2011-05-01T12:34:00Z</time>
</trkpt>
<trkpt lat="45.52895" lon="13.50533">
<ele>48</ele>
<time>2011-05-01T12:34:02Z</time>
</trkpt>
<trkpt lat="45.52901" lon="13.50531">
<ele>48</ele>
<time>2011-05-01T12:34:04Z</time>
</trkpt>
<trkpt lat="45.52907" lon="13.50528">
<ele>48</ele>
<time>2011-05-01T12:34:06Z</time>
</trkpt>
<trkpt lat="45.52912" lon="13.50526">
<ele>48</ele>
<time>2011-05-01T12:34:08Z</time>
</trkpt>
<trkpt lat="45.52918" lon="13.50523">
<ele>48</ele>
<time>2011-05-01T12:34:10Z</time>
</trkpt>
<trkpt lat="45.52923" lon="13.50521">
<ele>48</ele>
<time>2011-05-01T12:34:12Z</time>
</trkpt>
<trkpt lat="45.52928" lon="13.50519">
<ele>48</ele>
<time>2011-05-01T12:34:14Z</time>
</trkpt>
<trkpt lat="45.52933" lon="13.50516">
<ele>48</ele>
<time>2011-05-01T12:34:16Z</time>
</trkpt>
<trkpt lat="45.52938" lon="13.50513">
<ele>48</ele>
<time>2011-05-01T12:34:18Z</time>
</trkpt>
<trkpt lat="45.52943" lon="13.5051">
<ele>48</ele>
<time>2011-05-01T12:34:20Z</time>
</trkpt>
<trkpt lat="45.52949" lon="13.50507">
<ele>48</ele>
<time>2011-05-01T12:34:22Z</time>
</trkpt>
<trkpt lat="45.52954" lon="13.50505">
<ele>48</ele>
<time>2011-05-01T12:34:24Z</time>
</trkpt>
<trkpt lat="45.52959" lon="13.50502">
<ele>48</ele>
<time>2011-05-01T12:34:26Z</time>
</trkpt>
<trkpt lat="45.52964" lon="13.505">
<ele>48</ele>
<time>2011-05-01T12:34:28Z</time>
</trkpt>
<trkpt lat="45.5297" lon="13.50498">
<ele>48</ele>
<time>2011-05-01T12:34:30Z</time>
</trkpt>
<trkpt lat="45.52975" lon="13.50496">
<ele>48</ele>
<time>2011-05-01T12:34:32Z</time>
</trkpt>
<trkpt lat="45.5298" lon="13.50494">
<ele>48</ele>
<time>2011-05-01T12:34:34Z</time>
</trkpt>
<trkpt lat="45.52986" lon="13.50492">
<ele>48</ele>
<time>2011-05-01T12:34:36Z</time>
</trkpt>
<trkpt lat="45.52991" lon="13.5049">
<ele>48</ele>
<time>2011-05-01T12:34:38Z</time>
</trkpt>
<trkpt lat="45.52996" lon="13.50487">
<ele>48</ele>
<time>2011-05-01T12:34:40Z</time>
</trkpt>
<trkpt lat="45.53002" lon="13.50485">
<ele>48</ele>
<time>2011-05-01T12:34:42Z</time>
</trkpt>
<trkpt lat="45.53007" lon="13.50482">
<ele>48</ele>
<time>2011-05-01T12:34:44Z</time>
</trkpt>
<trkpt lat="45.53012" lon="13.50479">
<ele>48</ele>
<time>2011-05-01T12:34:46Z</time>
</trkpt>
<trkpt lat="45.53017" lon="13.50476">
<ele>48</ele>
<time>2011-05-01T12:34:48Z</time>
</trkpt>
<trkpt lat="45.53022" lon="13.50473">
<ele>48</ele>
<time>2011-05-01T12:34:50Z</time>
</trkpt>
<trkpt lat="45.53027" lon="13.50469">
<ele>48</ele>
<time>2011-05-01T12:34:52Z</time>
</trkpt>
<trkpt lat="45.53032" lon="13.50466">
<ele>48</ele>
<time>2011-05-01T12:34:54Z</time>
</trkpt>
<trkpt lat="45.53036" lon="13.50463">
<ele>48</ele>
<time>2011-05-01T12:34:56Z</time>
</trkpt>
<trkpt lat="45.53041" lon="13.5046">
<ele>48</ele>
<time>2011-05-01T12:34:58Z</time>
</trkpt>
<trkpt lat="45.53046" lon="13.50457">
<ele>48</ele>
<time>2011-05-01T12:35:00Z</time>
</trkpt>
<trkpt lat="45.5305" lon="13.50454">
<ele>49</ele>
<time>2011-05-01T12:35:02Z</time>
</trkpt>
<trkpt lat="45.53054" lon="13.5045">
<ele>49</ele>
<time>2011-05-01T12:35:04Z</time>
</trkpt>
<trkpt lat="45.53058" lon="13.50446">
<ele>49</ele>
<time>2011-05-01T12:35:06Z</time>
</trkpt>
<trkpt lat="45.53062" lon="13.50442">
<ele>49</ele>
<time>2011-05-01T12:35:08Z</time>
</trkpt>
<trkpt lat="45.53066" lon="13.50438">
<ele>49</ele>
<time>2011-05-01T12:35:10Z</time>
</trkpt>
<trkpt lat="45.5307" lon="13.50435">
<ele>49</ele>
<time>2011-05-01T12:35:12Z</time>
</trkpt>
<trkpt lat="45.53073" lon="13.50431">
<ele>49</ele>
<time>2011-05-01T12:35:14Z</time>
</trkpt>
<trkpt lat="45.53077" lon="13.50427">
<ele>49</ele>
<time>2011-05-01T12:35:16Z</time>
</trkpt>
<trkpt lat="45.53082" lon="13.50422">
<ele>49</ele>
<time>2011-05-01T12:35:19Z</time>
</trkpt>
<trkpt lat="45.53088" lon="13.50417">
<ele>49</ele>
<time>2011-05-01T12:35:22Z</time>
</trkpt>
<trkpt lat="45.53093" lon="13.50412">
<ele>49</ele>
<time>2011-05-01T12:35:25Z</time>
</trkpt>
<trkpt lat="45.53098" lon="13.50407">
<ele>49</ele>
<time>2011-05-01T12:35:28Z</time>
</trkpt>
<trkpt lat="45.53103" lon="13.50402">
<ele>49</ele>
<time>2011-05-01T12:35:31Z</time>
</trkpt>
<trkpt lat="45.53108" lon="13.50398">
<ele>49</ele>
<time>2011-05-01T12:35:34Z</time>
</trkpt>
<trkpt lat="45.53113" lon="13.50394">
<ele>49</ele>
<time>2011-05-01T12:35:37Z</time>
</trkpt>
<trkpt lat="45.53117" lon="13.5039">
<ele>49</ele>
<time>2011-05-01T12:35:40Z</time>
</trkpt>
<trkpt lat="45.53122" lon="13.50386">
<ele>49</ele>
<time>2011-05-01T12:35:43Z</time>
</trkpt>
<trkpt lat="45.53126" lon="13.50382">
<ele>49</ele>
<time>2011-05-01T12:35:46Z</time>
</trkpt>
<trkpt lat="45.5313" lon="13.50378">
<ele>49</ele>
<time>2011-05-01T12:35:49Z</time>
</trkpt>
<trkpt lat="45.53135" lon="13.50374">
<ele>49</ele>
<time>2011-05-01T12:35:52Z</time>
</trkpt>
<trkpt lat="45.5314" lon="13.5037">
<ele>49</ele>
<time>2011-05-01T12:35:55Z</time>
</trkpt>
<trkpt lat="45.53145" lon="13.50365">
<ele>49</ele>
<time>2011-05-01T12:35:58Z</time>
</trkpt>
<trkpt lat="45.5315" lon="13.5036">
<ele>49</ele>
<time>2011-05-01T12:36:01Z</time>
</trkpt>
<trkpt lat="45.53155" lon="13.50355">
<ele>49</ele>
<time>2011-05-01T12:36:04Z</time>
</trkpt>
<trkpt lat="45.5316" lon="13.5035">
<ele>49</ele>
<time>2011-05-01T12:36:07Z</time>
</trkpt>
<trkpt lat="45.53165" lon="13.50346">
<ele>49</ele>
<time>2011-05-01T12:36:10Z</time>
</trkpt>
<trkpt lat="45.5317" lon="13.50341">
<ele>49</ele>
<time>2011-05-01T12:36:13Z</time>
</trkpt>
<trkpt lat="45.53176" lon="13.50336">
<ele>49</ele>
<time>2011-05-01T12:36:16Z</time>
</trkpt>
<trkpt lat="45.53181" lon="13.50331">
<ele>49</ele>
<time>2011-05-01T12:36:19Z</time>
</trkpt>
<trkpt lat="45.53186" lon="13.50325">
<ele>49</ele>
<time>2011-05-01T12:36:22Z</time>
</trkpt>
<trkpt lat="45.53191" lon="13.5032">
<ele>49</ele>
<time>2011-05-01T12:36:25Z</time>
</trkpt>
<trkpt lat="45.53196" lon="13.50316">
<ele>49</ele>
<time>2011-05-01T12:36:28Z</time>
</trkpt>
<trkpt lat="45.53202" lon="13.50311">
<ele>49</ele>
<time>2011-05-01T12:36:31Z</time>
</trkpt>
<trkpt lat="45.53207" lon="13.50307">
<ele>49</ele>
<time>2011-05-01T12:36:34Z</time>
</trkpt>
<trkpt lat="45.53212" lon="13.50303">
<ele>48</ele>
<time>2011-05-01T12:36:37Z</time>
</trkpt>
<trkpt lat="45.53217" lon="13.50299">
<ele>48</ele>
<time>2011-05-01T12:36:40Z</time>
</trkpt>
<trkpt lat="45.53223" lon="13.50296">
<ele>48</ele>
<time>2011-05-01T12:36:43Z</time>
</trkpt>
<trkpt lat="45.53228" lon="13.50292">
<ele>48</ele>
<time>2011-05-01T12:36:46Z</time>
</trkpt>
<trkpt lat="45.53234" lon="13.50288">
<ele>48</ele>
<time>2011-05-01T12:36:49Z</time>
</trkpt>
<trkpt lat="45.53239" lon="13.50284">
<ele>48</ele>
<time>2011-05-01T12:36:52Z</time>
</trkpt>
<trkpt lat="45.53245" lon="13.5028">
<ele>48</ele>
<time>2011-05-01T12:36:55Z</time>
</trkpt>
<trkpt lat="45.5325" lon="13.50275">
<ele>48</ele>
<time>2011-05-01T12:36:58Z</time>
</trkpt>
<trkpt lat="45.53255" lon="13.50269">
<ele>48</ele>
<time>2011-05-01T12:37:01Z</time>
</trkpt>
<trkpt lat="45.5326" lon="13.50264">
<ele>48</ele>
<time>2011-05-01T12:37:04Z</time>
</trkpt>
<trkpt lat="45.53265" lon="13.50258">
<ele>48</ele>
<time>2011-05-01T12:37:07Z</time>
</trkpt>
<trkpt lat="45.53269" lon="13.50255">
<ele>48</ele>
<time>2011-05-01T12:37:09Z</time>
</trkpt>
<trkpt lat="45.53275" lon="13.5025">
<ele>48</ele>
<time>2011-05-01T12:37:12Z</time>
</trkpt>
<trkpt lat="45.5328" lon="13.50244">
<ele>48</ele>
<time>2011-05-01T12:37:15Z</time>
</trkpt>
<trkpt lat="45.53285" lon="13.50239">
<ele>48</ele>
<time>2011-05-01T12:37:18Z</time>
</trkpt>
<trkpt lat="45.5329" lon="13.50234">
<ele>48</ele>
<time>2011-05-01T12:37:21Z</time>
</trkpt>
<trkpt lat="45.53294" lon="13.50229">
<ele>48</ele>
<time>2011-05-01T12:37:24Z</time>
</trkpt>
<trkpt lat="45.53299" lon="13.50224">
<ele>48</ele>
<time>2011-05-01T12:37:27Z</time>
</trkpt>
<trkpt lat="45.53303" lon="13.50219">
<ele>48</ele>
<time>2011-05-01T12:37:30Z</time>
</trkpt>
<trkpt lat="45.53306" lon="13.50215">
<ele>48</ele>
<time>2011-05-01T12:37:33Z</time>
</trkpt>
<trkpt lat="45.5331" lon="13.5021">
<ele>48</ele>
<time>2011-05-01T12:37:36Z</time>
</trkpt>
<trkpt lat="45.53314" lon="13.50206">
<ele>48</ele>
<time>2011-05-01T12:37:39Z</time>
</trkpt>
<trkpt lat="45.53317" lon="13.50202">
<ele>48</ele>
<time>2011-05-01T12:37:42Z</time>
</trkpt>
<trkpt lat="45.53321" lon="13.50198">
<ele>48</ele>
<time>2011-05-01T12:37:45Z</time>
</trkpt>
<trkpt lat="45.53325" lon="13.50194">
<ele>48</ele>
<time>2011-05-01T12:37:48Z</time>
</trkpt>
<trkpt lat="45.5333" lon="13.5019">
<ele>48</ele>
<time>2011-05-01T12:37:51Z</time>
</trkpt>
<trkpt lat="45.53334" lon="13.50186">
<ele>48</ele>
<time>2011-05-01T12:37:54Z</time>
</trkpt>
<trkpt lat="45.53338" lon="13.50183">
<ele>48</ele>
<time>2011-05-01T12:37:57Z</time>
</trkpt>
<trkpt lat="45.53342" lon="13.50179">
<ele>48</ele>
<time>2011-05-01T12:38:00Z</time>
</trkpt>
<trkpt lat="45.53346" lon="13.50174">
<ele>48</ele>
<time>2011-05-01T12:38:03Z</time>
</trkpt>
<trkpt lat="45.5335" lon="13.50169">
<ele>48</ele>
<time>2011-05-01T12:38:06Z</time>
</trkpt>
<trkpt lat="45.53354" lon="13.50163">
<ele>48</ele>
<time>2011-05-01T12:38:10Z</time>
</trkpt>
<trkpt lat="45.53358" lon="13.50158">
<ele>48</ele>
<time>2011-05-01T12:38:14Z</time>
</trkpt>
<trkpt lat="45.53362" lon="13.50153">
<ele>48</ele>
<time>2011-05-01T12:38:18Z</time>
</trkpt>
<trkpt lat="45.53367" lon="13.50149">
<ele>48</ele>
<time>2011-05-01T12:38:22Z</time>
</trkpt>
<trkpt lat="45.53371" lon="13.50145">
<ele>48</ele>
<time>2011-05-01T12:38:25Z</time>
</trkpt>
<trkpt lat="45.53375" lon="13.50141">
<ele>48</ele>
<time>2011-05-01T12:38:28Z</time>
</trkpt>
<trkpt lat="45.53379" lon="13.50138">
<ele>48</ele>
<time>2011-05-01T12:38:31Z</time>
</trkpt>
<trkpt lat="45.53383" lon="13.50134">
<ele>48</ele>
<time>2011-05-01T12:38:34Z</time>
</trkpt>
<trkpt lat="45.53388" lon="13.5013">
<ele>48</ele>
<time>2011-05-01T12:38:37Z</time>
</trkpt>
<trkpt lat="45.53393" lon="13.50126">
<ele>48</ele>
<time>2011-05-01T12:38:40Z</time>
</trkpt>
<trkpt lat="45.53398" lon="13.50122">
<ele>48</ele>
<time>2011-05-01T12:38:43Z</time>
</trkpt>
<trkpt lat="45.53404" lon="13.50118">
<ele>48</ele>
<time>2011-05-01T12:38:46Z</time>
</trkpt>
<trkpt lat="45.53409" lon="13.50114">
<ele>48</ele>
<time>2011-05-01T12:38:49Z</time>
</trkpt>
<trkpt lat="45.53415" lon="13.5011">
<ele>48</ele>
<time>2011-05-01T12:38:52Z</time>
</trkpt>
<trkpt lat="45.53421" lon="13.50105">
<ele>48</ele>
<time>2011-05-01T12:38:55Z</time>
</trkpt>
<trkpt lat="45.53427" lon="13.50101">
<ele>48</ele>
<time>2011-05-01T12:38:58Z</time>
</trkpt>
<trkpt lat="45.53431" lon="13.50098">
<ele>48</ele>
<time>2011-05-01T12:39:00Z</time>
</trkpt>
<trkpt lat="45.53435" lon="13.50095">
<ele>48</ele>
<time>2011-05-01T12:39:02Z</time>
</trkpt>
<trkpt lat="45.53439" lon="13.50092">
<ele>48</ele>
<time>2011-05-01T12:39:04Z</time>
</trkpt>
<trkpt lat="45.53443" lon="13.50088">
<ele>48</ele>
<time>2011-05-01T12:39:06Z</time>
</trkpt>
<trkpt lat="45.53447" lon="13.50085">
<ele>48</ele>
<time>2011-05-01T12:39:08Z</time>
</trkpt>
<trkpt lat="45.5345" lon="13.50081">
<ele>48</ele>
<time>2011-05-01T12:39:10Z</time>
</trkpt>
<trkpt lat="45.53456" lon="13.50076">
<ele>48</ele>
<time>2011-05-01T12:39:13Z</time>
</trkpt>
<trkpt lat="45.53461" lon="13.50071">
<ele>48</ele>
<time>2011-05-01T12:39:16Z</time>
</trkpt>
<trkpt lat="45.53467" lon="13.50067">
<ele>48</ele>
<time>2011-05-01T12:39:19Z</time>
</trkpt>
<trkpt lat="45.53473" lon="13.50062">
<ele>49</ele>
<time>2011-05-01T12:39:22Z</time>
</trkpt>
<trkpt lat="45.53478" lon="13.50058">
<ele>49</ele>
<time>2011-05-01T12:39:25Z</time>
</trkpt>
<trkpt lat="45.53484" lon="13.50053">
<ele>49</ele>
<time>2011-05-01T12:39:28Z</time>
</trkpt>
<trkpt lat="45.53488" lon="13.5005">
<ele>49</ele>
<time>2011-05-01T12:39:30Z</time>
</trkpt>
<trkpt lat="45.53492" lon="13.50047">
<ele>49</ele>
<time>2011-05-01T12:39:32Z</time>
</trkpt>
<trkpt lat="45.53496" lon="13.50044">
<ele>49</ele>
<time>2011-05-01T12:39:34Z</time>
</trkpt>
<trkpt lat="45.535" lon="13.50042">
<ele>49</ele>
<time>2011-05-01T12:39:36Z</time>
</trkpt>
<trkpt lat="45.53505" lon="13.50039">
<ele>49</ele>
<time>2011-05-01T12:39:38Z</time>
</trkpt>
<trkpt lat="45.5351" lon="13.50036">
<ele>49</ele>
<time>2011-05-01T12:39:40Z</time>
</trkpt>
<trkpt lat="45.53514" lon="13.50033">
<ele>49</ele>
<time>2011-05-01T12:39:42Z</time>
</trkpt>
<trkpt lat="45.53519" lon="13.5003">
<ele>49</ele>
<time>2011-05-01T12:39:44Z</time>
</trkpt>
<trkpt lat="45.53524" lon="13.50027">
<ele>49</ele>
<time>2011-05-01T12:39:46Z</time>
</trkpt>
<trkpt lat="45.53529" lon="13.50023">
<ele>49</ele>
<time>2011-05-01T12:39:48Z</time>
</trkpt>
<trkpt lat="45.53534" lon="13.5002">
<ele>49</ele>
<time>2011-05-01T12:39:50Z</time>
</trkpt>
<trkpt lat="45.53538" lon="13.50017">
<ele>49</ele>
<time>2011-05-01T12:39:52Z</time>
</trkpt>
<trkpt lat="45.53544" lon="13.50014">
<ele>49</ele>
<time>2011-05-01T12:39:54Z</time>
</trkpt>
<trkpt lat="45.53548" lon="13.50011">
<ele>49</ele>
<time>2011-05-01T12:39:56Z</time>
</trkpt>
<trkpt lat="45.53554" lon="13.50008">
<ele>49</ele>
<time>2011-05-01T12:39:58Z</time>
</trkpt>
<trkpt lat="45.53559" lon="13.50005">
<ele>49</ele>
<time>2011-05-01T12:40:00Z</time>
</trkpt>
<trkpt lat="45.53564" lon="13.50003">
<ele>50</ele>
<time>2011-05-01T12:40:02Z</time>
</trkpt>
<trkpt lat="45.53569" lon="13.5">
<ele>50</ele>
<time>2011-05-01T12:40:04Z</time>
</trkpt>
<trkpt lat="45.53574" lon="13.49996">
<ele>50</ele>
<time>2011-05-01T12:40:06Z</time>
</trkpt>
<trkpt lat="45.53578" lon="13.49992">
<ele>50</ele>
<time>2011-05-01T12:40:08Z</time>
</trkpt>
<trkpt lat="45.53583" lon="13.49988">
<ele>50</ele>
<time>2011-05-01T12:40:10Z</time>
</trkpt>
<trkpt lat="45.53587" lon="13.49984">
<ele>50</ele>
<time>2011-05-01T12:40:12Z</time>
</trkpt>
<trkpt lat="45.53592" lon="13.4998">
<ele>50</ele>
<time>2011-05-01T12:40:14Z</time>
</trkpt>
<trkpt lat="45.53596" lon="13.49976">
<ele>50</ele>
<time>2011-05-01T12:40:16Z</time>
</trkpt>
<trkpt lat="45.53601" lon="13.49973">
<ele>50</ele>
<time>2011-05-01T12:40:18Z</time>
</trkpt>
<trkpt lat="45.53605" lon="13.49969">
<ele>50</ele>
<time>2011-05-01T12:40:20Z</time>
</trkpt>
<trkpt lat="45.53609" lon="13.49966">
<ele>50</ele>
<time>2011-05-01T12:40:22Z</time>
</trkpt>
<trkpt lat="45.53613" lon="13.49963">
<ele>50</ele>
<time>2011-05-01T12:40:24Z</time>
</trkpt>
<trkpt lat="45.53618" lon="13.4996">
<ele>50</ele>
<time>2011-05-01T12:40:26Z</time>
</trkpt>
<trkpt lat="45.53622" lon="13.49956">
<ele>51</ele>
<time>2011-05-01T12:40:28Z</time>
</trkpt>
<trkpt lat="45.53626" lon="13.49953">
<ele>51</ele>
<time>2011-05-01T12:40:30Z</time>
</trkpt>
<trkpt lat="45.5363" lon="13.4995">
<ele>51</ele>
<time>2011-05-01T12:40:32Z</time>
</trkpt>
<trkpt lat="45.53634" lon="13.49947">
<ele>51</ele>
<time>2011-05-01T12:40:34Z</time>
</trkpt>
<trkpt lat="45.53638" lon="13.49943">
<ele>51</ele>
<time>2011-05-01T12:40:36Z</time>
</trkpt>
<trkpt lat="45.53642" lon="13.4994">
<ele>51</ele>
<time>2011-05-01T12:40:38Z</time>
</trkpt>
<trkpt lat="45.53645" lon="13.49936">
<ele>51</ele>
<time>2011-05-01T12:40:40Z</time>
</trkpt>
<trkpt lat="45.53651" lon="13.49931">
<ele>51</ele>
<time>2011-05-01T12:40:43Z</time>
</trkpt>
<trkpt lat="45.53657" lon="13.49926">
<ele>51</ele>
<time>2011-05-01T12:40:46Z</time>
</trkpt>
<trkpt lat="45.53662" lon="13.49922">
<ele>51</ele>
<time>2011-05-01T12:40:49Z</time>
</trkpt>
<trkpt lat="45.53668" lon="13.49918">
<ele>51</ele>
<time>2011-05-01T12:40:52Z</time>
</trkpt>
<trkpt lat="45.53674" lon="13.49914">
<ele>51</ele>
<time>2011-05-01T12:40:55Z</time>
</trkpt>
<trkpt lat="45.5368" lon="13.49909">
<ele>51</ele>
<time>2011-05-01T12:40:58Z</time>
</trkpt>
<trkpt lat="45.53686" lon="13.49905">
<ele>51</ele>
<time>2011-05-01T12:41:01Z</time>
</trkpt>
<trkpt lat="45.5369" lon="13.49903">
<ele>51</ele>
<time>2011-05-01T12:41:03Z</time>
</trkpt>
<trkpt lat="45.53694" lon="13.499">
<ele>52</ele>
<time>2011-05-01T12:41:05Z</time>
</trkpt>
<trkpt lat="45.53699" lon="13.49898">
<ele>52</ele>
<time>2011-05-01T12:41:07Z</time>
</trkpt>
<trkpt lat="45.53703" lon="13.49896">
<ele>52</ele>
<time>2011-05-01T12:41:09Z</time>
</trkpt>
<trkpt lat="45.53707" lon="13.49894">
<ele>52</ele>
<time>2011-05-01T12:41:11Z</time>
</trkpt>
<trkpt lat="45.53712" lon="13.49891">
<ele>52</ele>
<time>2011-05-01T12:41:13Z</time>
</trkpt>
<trkpt lat="45.53716" lon="13.49889">
<ele>52</ele>
<time>2011-05-01T12:41:15Z</time>
</trkpt>
<trkpt lat="45.53721" lon="13.49886">
<ele>52</ele>
<time>2011-05-01T12:41:17Z</time>
</trkpt>
<trkpt lat="45.53725" lon="13.49883">
<ele>52</ele>
<time>2011-05-01T12:41:19Z</time>
</trkpt>
<trkpt lat="45.5373" lon="13.4988">
<ele>52</ele>
<time>2011-05-01T12:41:21Z</time>
</trkpt>
<trkpt lat="45.53735" lon="13.49877">
<ele>52</ele>
<time>2011-05-01T12:41:23Z</time>
</trkpt>
<trkpt lat="45.53739" lon="13.49874">
<ele>52</ele>
<time>2011-05-01T12:41:25Z</time>
</trkpt>
<trkpt lat="45.53744" lon="13.49871">
<ele>52</ele>
<time>2011-05-01T12:41:27Z</time>
</trkpt>
<trkpt lat="45.53749" lon="13.49867">
<ele>52</ele>
<time>2011-05-01T12:41:29Z</time>
</trkpt>
<trkpt lat="45.53754" lon="13.49864">
<ele>52</ele>
<time>2011-05-01T12:41:31Z</time>
</trkpt>
<trkpt lat="45.53758" lon="13.49861">
<ele>52</ele>
<time>2011-05-01T12:41:33Z</time>
</trkpt>
<trkpt lat="45.53763" lon="13.49858">
<ele>52</ele>
<time>2011-05-01T12:41:35Z</time>
</trkpt>
<trkpt lat="45.53768" lon="13.49854">
<ele>52</ele>
<time>2011-05-01T12:41:37Z</time>
</trkpt>
<trkpt lat="45.53772" lon="13.49851">
<ele>52</ele>
<time>2011-05-01T12:41:39Z</time>
</trkpt>
<trkpt lat="45.53777" lon="13.49848">
<ele>52</ele>
<time>2011-05-01T12:41:41Z</time>
</trkpt>
<trkpt lat="45.53782" lon="13.49845">
<ele>53</ele>
<time>2011-05-01T12:41:43Z</time>
</trkpt>
<trkpt lat="45.53787" lon="13.49842">
<ele>53</ele>
<time>2011-05-01T12:41:45Z</time>
</trkpt>
<trkpt lat="45.53792" lon="13.4984">
<ele>53</ele>
<time>2011-05-01T12:41:47Z</time>
</trkpt>
<trkpt lat="45.53796" lon="13.49837">
<ele>53</ele>
<time>2011-05-01T12:41:49Z</time>
</trkpt>
<trkpt lat="45.53801" lon="13.49834">
<ele>53</ele>
<time>2011-05-01T12:41:51Z</time>
</trkpt>
<trkpt lat="45.53806" lon="13.49832">
<ele>53</ele>
<time>2011-05-01T12:41:53Z</time>
</trkpt>
<trkpt lat="45.53811" lon="13.49829">
<ele>53</ele>
<time>2011-05-01T12:41:55Z</time>
</trkpt>
<trkpt lat="45.53816" lon="13.49827">
<ele>53</ele>
<time>2011-05-01T12:41:57Z</time>
</trkpt>
<trkpt lat="45.53821" lon="13.49824">
<ele>53</ele>
<time>2011-05-01T12:41:59Z</time>
</trkpt>
<trkpt lat="45.53826" lon="13.49822">
<ele>53</ele>
<time>2011-05-01T12:42:01Z</time>
</trkpt>
<trkpt lat="45.53831" lon="13.49819">
<ele>53</ele>
<time>2011-05-01T12:42:03Z</time>
</trkpt>
<trkpt lat="45.53836" lon="13.49816">
<ele>53</ele>
<time>2011-05-01T12:42:05Z</time>
</trkpt>
<trkpt lat="45.53841" lon="13.49813">
<ele>53</ele>
<time>2011-05-01T12:42:07Z</time>
</trkpt>
<trkpt lat="45.53846" lon="13.4981">
<ele>53</ele>
<time>2011-05-01T12:42:09Z</time>
</trkpt>
<trkpt lat="45.53851" lon="13.49807">
<ele>53</ele>
<time>2011-05-01T12:42:11Z</time>
</trkpt>
<trkpt lat="45.53856" lon="13.49804">
<ele>53</ele>
<time>2011-05-01T12:42:13Z</time>
</trkpt>
<trkpt lat="45.53861" lon="13.49801">
<ele>53</ele>
<time>2011-05-01T12:42:15Z</time>
</trkpt>
<trkpt lat="45.53866" lon="13.49798">
<ele>53</ele>
<time>2011-05-01T12:42:17Z</time>
</trkpt>
<trkpt lat="45.5387" lon="13.49795">
<ele>53</ele>
<time>2011-05-01T12:42:19Z</time>
</trkpt>
<trkpt lat="45.53875" lon="13.49792">
<ele>53</ele>
<time>2011-05-01T12:42:21Z</time>
</trkpt>
<trkpt lat="45.5388" lon="13.49788">
<ele>53</ele>
<time>2011-05-01T12:42:23Z</time>
</trkpt>
<trkpt lat="45.53885" lon="13.49785">
<ele>53</ele>
<time>2011-05-01T12:42:25Z</time>
</trkpt>
<trkpt lat="45.53889" lon="13.49781">
<ele>53</ele>
<time>2011-05-01T12:42:27Z</time>
</trkpt>
<trkpt lat="45.53894" lon="13.49778">
<ele>53</ele>
<time>2011-05-01T12:42:29Z</time>
</trkpt>
<trkpt lat="45.53899" lon="13.49775">
<ele>53</ele>
<time>2011-05-01T12:42:31Z</time>
</trkpt>
<trkpt lat="45.53904" lon="13.49772">
<ele>53</ele>
<time>2011-05-01T12:42:33Z</time>
</trkpt>
<trkpt lat="45.53908" lon="13.49768">
<ele>53</ele>
<time>2011-05-01T12:42:35Z</time>
</trkpt>
<trkpt lat="45.53913" lon="13.49764">
<ele>53</ele>
<time>2011-05-01T12:42:37Z</time>
</trkpt>
<trkpt lat="45.53917" lon="13.49761">
<ele>53</ele>
<time>2011-05-01T12:42:39Z</time>
</trkpt>
<trkpt lat="45.53922" lon="13.49757">
<ele>52</ele>
<time>2011-05-01T12:42:41Z</time>
</trkpt>
<trkpt lat="45.53927" lon="13.49754">
<ele>52</ele>
<time>2011-05-01T12:42:43Z</time>
</trkpt>
<trkpt lat="45.53931" lon="13.49751">
<ele>52</ele>
<time>2011-05-01T12:42:45Z</time>
</trkpt>
<trkpt lat="45.53936" lon="13.49747">
<ele>52</ele>
<time>2011-05-01T12:42:47Z</time>
</trkpt>
<trkpt lat="45.5394" lon="13.49744">
<ele>52</ele>
<time>2011-05-01T12:42:49Z</time>
</trkpt>
<trkpt lat="45.53944" lon="13.4974">
<ele>52</ele>
<time>2011-05-01T12:42:51Z</time>
</trkpt>
<trkpt lat="45.53948" lon="13.49736">
<ele>52</ele>
<time>2011-05-01T12:42:53Z</time>
</trkpt>
<trkpt lat="45.53952" lon="13.49732">
<ele>52</ele>
<time>2011-05-01T12:42:55Z</time>
</trkpt>
<trkpt lat="45.53956" lon="13.49729">
<ele>52</ele>
<time>2011-05-01T12:42:57Z</time>
</trkpt>
<trkpt lat="45.5396" lon="13.49726">
<ele>52</ele>
<time>2011-05-01T12:42:59Z</time>
</trkpt>
<trkpt lat="45.53964" lon="13.49723">
<ele>52</ele>
<time>2011-05-01T12:43:01Z</time>
</trkpt>
<trkpt lat="45.53968" lon="13.4972">
<ele>52</ele>
<time>2011-05-01T12:43:03Z</time>
</trkpt>
<trkpt lat="45.53972" lon="13.49717">
<ele>52</ele>
<time>2011-05-01T12:43:05Z</time>
</trkpt>
<trkpt lat="45.53977" lon="13.49714">
<ele>52</ele>
<time>2011-05-01T12:43:07Z</time>
</trkpt>
<trkpt lat="45.53981" lon="13.49711">
<ele>52</ele>
<time>2011-05-01T12:43:09Z</time>
</trkpt>
<trkpt lat="45.53986" lon="13.49708">
<ele>52</ele>
<time>2011-05-01T12:43:11Z</time>
</trkpt>
<trkpt lat="45.5399" lon="13.49705">
<ele>52</ele>
<time>2011-05-01T12:43:13Z</time>
</trkpt>
<trkpt lat="45.53995" lon="13.49702">
<ele>52</ele>
<time>2011-05-01T12:43:15Z</time>
</trkpt>
<trkpt lat="45.54" lon="13.49698">
<ele>52</ele>
<time>2011-05-01T12:43:17Z</time>
</trkpt>
<trkpt lat="45.54004" lon="13.49696">
<ele>52</ele>
<time>2011-05-01T12:43:19Z</time>
</trkpt>
<trkpt lat="45.54009" lon="13.49693">
<ele>52</ele>
<time>2011-05-01T12:43:21Z</time>
</trkpt>
<trkpt lat="45.54014" lon="13.4969">
<ele>52</ele>
<time>2011-05-01T12:43:23Z</time>
</trkpt>
<trkpt lat="45.54018" lon="13.49687">
<ele>52</ele>
<time>2011-05-01T12:43:25Z</time>
</trkpt>
<trkpt lat="45.54023" lon="13.49685">
<ele>52</ele>
<time>2011-05-01T12:43:27Z</time>
</trkpt>
<trkpt lat="45.54028" lon="13.49683">
<ele>52</ele>
<time>2011-05-01T12:43:29Z</time>
</trkpt>
<trkpt lat="45.54034" lon="13.49681">
<ele>52</ele>
<time>2011-05-01T12:43:31Z</time>
</trkpt>
<trkpt lat="45.54039" lon="13.49679">
<ele>52</ele>
<time>2011-05-01T12:43:33Z</time>
</trkpt>
<trkpt lat="45.54045" lon="13.49677">
<ele>52</ele>
<time>2011-05-01T12:43:35Z</time>
</trkpt>
<trkpt lat="45.5405" lon="13.49675">
<ele>52</ele>
<time>2011-05-01T12:43:37Z</time>
</trkpt>
<trkpt lat="45.54056" lon="13.49672">
<ele>52</ele>
<time>2011-05-01T12:43:39Z</time>
</trkpt>
<trkpt lat="45.54062" lon="13.4967">
<ele>52</ele>
<time>2011-05-01T12:43:41Z</time>
</trkpt>
<trkpt lat="45.54068" lon="13.49668">
<ele>52</ele>
<time>2011-05-01T12:43:43Z</time>
</trkpt>
<trkpt lat="45.54074" lon="13.49665">
<ele>52</ele>
<time>2011-05-01T12:43:45Z</time>
</trkpt>
<trkpt lat="45.5408" lon="13.49663">
<ele>52</ele>
<time>2011-05-01T12:43:47Z</time>
</trkpt>
<trkpt lat="45.54085" lon="13.4966">
<ele>52</ele>
<time>2011-05-01T12:43:49Z</time>
</trkpt>
<trkpt lat="45.54091" lon="13.49657">
<ele>52</ele>
<time>2011-05-01T12:43:51Z</time>
</trkpt>
<trkpt lat="45.54097" lon="13.49654">
<ele>52</ele>
<time>2011-05-01T12:43:53Z</time>
</trkpt>
<trkpt lat="45.54103" lon="13.49651">
<ele>52</ele>
<time>2011-05-01T12:43:55Z</time>
</trkpt>
<trkpt lat="45.54108" lon="13.49648">
<ele>52</ele>
<time>2011-05-01T12:43:57Z</time>
</trkpt>
<trkpt lat="45.54114" lon="13.49644">
<ele>52</ele>
<time>2011-05-01T12:43:59Z</time>
</trkpt>
<trkpt lat="45.5412" lon="13.49641">
<ele>52</ele>
<time>2011-05-01T12:44:01Z</time>
</trkpt>
<trkpt lat="45.54125" lon="13.49638">
<ele>52</ele>
<time>2011-05-01T12:44:03Z</time>
</trkpt>
<trkpt lat="45.5413" lon="13.49634">
<ele>51</ele>
<time>2011-05-01T12:44:05Z</time>
</trkpt>
<trkpt lat="45.54134" lon="13.4963">
<ele>51</ele>
<time>2011-05-01T12:44:07Z</time>
</trkpt>
<trkpt lat="45.54139" lon="13.49626">
<ele>51</ele>
<time>2011-05-01T12:44:09Z</time>
</trkpt>
<trkpt lat="45.54143" lon="13.49621">
<ele>51</ele>
<time>2011-05-01T12:44:11Z</time>
</trkpt>
<trkpt lat="45.54148" lon="13.49618">
<ele>51</ele>
<time>2011-05-01T12:44:13Z</time>
</trkpt>
<trkpt lat="45.54152" lon="13.49614">
<ele>51</ele>
<time>2011-05-01T12:44:15Z</time>
</trkpt>
<trkpt lat="45.54156" lon="13.49611">
<ele>51</ele>
<time>2011-05-01T12:44:17Z</time>
</trkpt>
<trkpt lat="45.5416" lon="13.49608">
<ele>51</ele>
<time>2011-05-01T12:44:19Z</time>
</trkpt>
<trkpt lat="45.54164" lon="13.49604">
<ele>51</ele>
<time>2011-05-01T12:44:21Z</time>
</trkpt>
<trkpt lat="45.54168" lon="13.496">
<ele>51</ele>
<time>2011-05-01T12:44:23Z</time>
</trkpt>
<trkpt lat="45.54171" lon="13.49597">
<ele>51</ele>
<time>2011-05-01T12:44:25Z</time>
</trkpt>
<trkpt lat="45.54175" lon="13.49593">
<ele>51</ele>
<time>2011-05-01T12:44:27Z</time>
</trkpt>
<trkpt lat="45.5418" lon="13.49587">
<ele>51</ele>
<time>2011-05-01T12:44:30Z</time>
</trkpt>
<trkpt lat="45.54185" lon="13.49581">
<ele>51</ele>
<time>2011-05-01T12:44:33Z</time>
</trkpt>
<trkpt lat="45.5419" lon="13.49575">
<ele>51</ele>
<time>2011-05-01T12:44:36Z</time>
</trkpt>
<trkpt lat="45.54194" lon="13.49568">
<ele>51</ele>
<time>2011-05-01T12:44:39Z</time>
</trkpt>
<trkpt lat="45.54197" lon="13.49562">
<ele>51</ele>
<time>2011-05-01T12:44:42Z</time>
</trkpt>
<trkpt lat="45.542" lon="13.49557">
<ele>51</ele>
<time>2011-05-01T12:44:45Z</time>
</trkpt>
<trkpt lat="45.54203" lon="13.49552">
<ele>51</ele>
<time>2011-05-01T12:44:49Z</time>
</trkpt>
<trkpt lat="45.54207" lon="13.49548">
<ele>51</ele>
<time>2011-05-01T12:44:53Z</time>
</trkpt>
<trkpt lat="45.54211" lon="13.49544">
<ele>51</ele>
<time>2011-05-01T12:44:57Z</time>
</trkpt>
<trkpt lat="45.54215" lon="13.49539">
<ele>51</ele>
<time>2011-05-01T12:45:01Z</time>
</trkpt>
<trkpt lat="45.54219" lon="13.49534">
<ele>51</ele>
<time>2011-05-01T12:45:05Z</time>
</trkpt>
<trkpt lat="45.54223" lon="13.4953">
<ele>51</ele>
<time>2011-05-01T12:45:08Z</time>
</trkpt>
<trkpt lat="45.54227" lon="13.49525">
<ele>51</ele>
<time>2011-05-01T12:45:11Z</time>
</trkpt>
<trkpt lat="45.5423" lon="13.4952">
<ele>51</ele>
<time>2011-05-01T12:45:14Z</time>
</trkpt>
<trkpt lat="45.54233" lon="13.49515">
<ele>51</ele>
<time>2011-05-01T12:45:17Z</time>
</trkpt>
<trkpt lat="45.54237" lon="13.49509">
<ele>51</ele>
<time>2011-05-01T12:45:21Z</time>
</trkpt>
<trkpt lat="45.5424" lon="13.49503">
<ele>51</ele>
<time>2011-05-01T12:45:25Z</time>
</trkpt>
<trkpt lat="45.54243" lon="13.49497">
<ele>51</ele>
<time>2011-05-01T12:45:29Z</time>
</trkpt>
<trkpt lat="45.54247" lon="13.49492">
<ele>51</ele>
<time>2011-05-01T12:45:33Z</time>
</trkpt>
<trkpt lat="45.54251" lon="13.49487">
<ele>51</ele>
<time>2011-05-01T12:45:37Z</time>
</trkpt>
<trkpt lat="45.54255" lon="13.49482">
<ele>51</ele>
<time>2011-05-01T12:45:41Z</time>
</trkpt>
<trkpt lat="45.54258" lon="13.49478">
<ele>52</ele>
<time>2011-05-01T12:45:44Z</time>
</trkpt>
<trkpt lat="45.54262" lon="13.49475">
<ele>52</ele>
<time>2011-05-01T12:45:47Z</time>
</trkpt>
<trkpt lat="45.54267" lon="13.49471">
<ele>52</ele>
<time>2011-05-01T12:45:50Z</time>
</trkpt>
<trkpt lat="45.54271" lon="13.49467">
<ele>52</ele>
<time>2011-05-01T12:45:53Z</time>
</trkpt>
<trkpt lat="45.54276" lon="13.49462">
<ele>52</ele>
<time>2011-05-01T12:45:56Z</time>
</trkpt>
<trkpt lat="45.54281" lon="13.49457">
<ele>52</ele>
<time>2011-05-01T12:45:59Z</time>
</trkpt>
<trkpt lat="45.54287" lon="13.49452">
<ele>52</ele>
<time>2011-05-01T12:46:02Z</time>
</trkpt>
<trkpt lat="45.54292" lon="13.49448">
<ele>52</ele>
<time>2011-05-01T12:46:05Z</time>
</trkpt>
<trkpt lat="45.54297" lon="13.49442">
<ele>52</ele>
<time>2011-05-01T12:46:08Z</time>
</trkpt>
<trkpt lat="45.54303" lon="13.49436">
<ele>52</ele>
<time>2011-05-01T12:46:11Z</time>
</trkpt>
<trkpt lat="45.54308" lon="13.49431">
<ele>52</ele>
<time>2011-05-01T12:46:14Z</time>
</trkpt>
<trkpt lat="45.54314" lon="13.49426">
<ele>52</ele>
<time>2011-05-01T12:46:17Z</time>
</trkpt>
<trkpt lat="45.54319" lon="13.49421">
<ele>52</ele>
<time>2011-05-01T12:46:20Z</time>
</trkpt>
<trkpt lat="45.54324" lon="13.49416">
<ele>52</ele>
<time>2011-05-01T12:46:23Z</time>
</trkpt>
<trkpt lat="45.54329" lon="13.49411">
<ele>52</ele>
<time>2011-05-01T12:46:26Z</time>
</trkpt>
<trkpt lat="45.54334" lon="13.49406">
<ele>52</ele>
<time>2011-05-01T12:46:29Z</time>
</trkpt>
<trkpt lat="45.54339" lon="13.494">
<ele>52</ele>
<time>2011-05-01T12:46:32Z</time>
</trkpt>
<trkpt lat="45.54344" lon="13.49395">
<ele>52</ele>
<time>2011-05-01T12:46:35Z</time>
</trkpt>
<trkpt lat="45.54349" lon="13.49389">
<ele>52</ele>
<time>2011-05-01T12:46:38Z</time>
</trkpt>
<trkpt lat="45.54354" lon="13.49383">
<ele>52</ele>
<time>2011-05-01T12:46:41Z</time>
</trkpt>
<trkpt lat="45.54359" lon="13.49378">
<ele>52</ele>
<time>2011-05-01T12:46:44Z</time>
</trkpt>
<trkpt lat="45.54364" lon="13.49373">
<ele>52</ele>
<time>2011-05-01T12:46:47Z</time>
</trkpt>
<trkpt lat="45.5437" lon="13.49369">
<ele>52</ele>
<time>2011-05-01T12:46:50Z</time>
</trkpt>
<trkpt lat="45.54376" lon="13.49364">
<ele>52</ele>
<time>2011-05-01T12:46:53Z</time>
</trkpt>
<trkpt lat="45.54379" lon="13.4936">
<ele>52</ele>
<time>2011-05-01T12:46:55Z</time>
</trkpt>
<trkpt lat="45.54383" lon="13.49356">
<ele>52</ele>
<time>2011-05-01T12:46:57Z</time>
</trkpt>
<trkpt lat="45.54387" lon="13.49352">
<ele>52</ele>
<time>2011-05-01T12:46:59Z</time>
</trkpt>
<trkpt lat="45.5439" lon="13.49347">
<ele>52</ele>
<time>2011-05-01T12:47:01Z</time>
</trkpt>
<trkpt lat="45.54393" lon="13.49342">
<ele>52</ele>
<time>2011-05-01T12:47:03Z</time>
</trkpt>
<trkpt lat="45.54398" lon="13.49335">
<ele>52</ele>
<time>2011-05-01T12:47:06Z</time>
</trkpt>
<trkpt lat="45.54401" lon="13.49328">
<ele>52</ele>
<time>2011-05-01T12:47:09Z</time>
</trkpt>
<trkpt lat="45.54405" lon="13.49323">
<ele>52</ele>
<time>2011-05-01T12:47:12Z</time>
</trkpt>
<trkpt lat="45.5441" lon="13.49318">
<ele>52</ele>
<time>2011-05-01T12:47:15Z</time>
</trkpt>
<trkpt lat="45.54414" lon="13.49313">
<ele>52</ele>
<time>2011-05-01T12:47:18Z</time>
</trkpt>
<trkpt lat="45.54419" lon="13.49309">
<ele>53</ele>
<time>2011-05-01T12:47:21Z</time>
</trkpt>
<trkpt lat="45.54424" lon="13.49304">
<ele>53</ele>
<time>2011-05-01T12:47:24Z</time>
</trkpt>
<trkpt lat="45.54428" lon="13.493">
<ele>53</ele>
<time>2011-05-01T12:47:27Z</time>
</trkpt>
<trkpt lat="45.54433" lon="13.49294">
<ele>53</ele>
<time>2011-05-01T12:47:30Z</time>
</trkpt>
<trkpt lat="45.54437" lon="13.49289">
<ele>53</ele>
<time>2011-05-01T12:47:33Z</time>
</trkpt>
<trkpt lat="45.54442" lon="13.49284">
<ele>53</ele>
<time>2011-05-01T12:47:36Z</time>
</trkpt>
<trkpt lat="45.54447" lon="13.49279">
<ele>53</ele>
<time>2011-05-01T12:47:39Z</time>
</trkpt>
<trkpt lat="45.54451" lon="13.49273">
<ele>53</ele>
<time>2011-05-01T12:47:42Z</time>
</trkpt>
<trkpt lat="45.54455" lon="13.49268">
<ele>53</ele>
<time>2011-05-01T12:47:45Z</time>
</trkpt>
<trkpt lat="45.5446" lon="13.49262">
<ele>53</ele>
<time>2011-05-01T12:47:48Z</time>
</trkpt>
<trkpt lat="45.54464" lon="13.49256">
<ele>53</ele>
<time>2011-05-01T12:47:51Z</time>
</trkpt>
<trkpt lat="45.54469" lon="13.4925">
<ele>53</ele>
<time>2011-05-01T12:47:54Z</time>
</trkpt>
<trkpt lat="45.54473" lon="13.49244">
<ele>53</ele>
<time>2011-05-01T12:47:57Z</time>
</trkpt>
<trkpt lat="45.54478" lon="13.49238">
<ele>53</ele>
<time>2011-05-01T12:48:00Z</time>
</trkpt>
<trkpt lat="45.54483" lon="13.49232">
<ele>53</ele>
<time>2011-05-01T12:48:03Z</time>
</trkpt>
<trkpt lat="45.54488" lon="13.49227">
<ele>53</ele>
<time>2011-05-01T12:48:06Z</time>
</trkpt>
<trkpt lat="45.54492" lon="13.49222">
<ele>53</ele>
<time>2011-05-01T12:48:09Z</time>
</trkpt>
<trkpt lat="45.54497" lon="13.49217">
<ele>53</ele>
<time>2011-05-01T12:48:12Z</time>
</trkpt>
<trkpt lat="45.54502" lon="13.49212">
<ele>53</ele>
<time>2011-05-01T12:48:15Z</time>
</trkpt>
<trkpt lat="45.54507" lon="13.49207">
<ele>53</ele>
<time>2011-05-01T12:48:18Z</time>
</trkpt>
<trkpt lat="45.54512" lon="13.49202">
<ele>53</ele>
<time>2011-05-01T12:48:21Z</time>
</trkpt>
<trkpt lat="45.54517" lon="13.49197">
<ele>53</ele>
<time>2011-05-01T12:48:24Z</time>
</trkpt>
<trkpt lat="45.54522" lon="13.49192">
<ele>53</ele>
<time>2011-05-01T12:48:27Z</time>
</trkpt>
<trkpt lat="45.54527" lon="13.49186">
<ele>53</ele>
<time>2011-05-01T12:48:30Z</time>
</trkpt>
<trkpt lat="45.54532" lon="13.49181">
<ele>53</ele>
<time>2011-05-01T12:48:33Z</time>
</trkpt>
<trkpt lat="45.54538" lon="13.49176">
<ele>53</ele>
<time>2011-05-01T12:48:36Z</time>
</trkpt>
<trkpt lat="45.54542" lon="13.49172">
<ele>53</ele>
<time>2011-05-01T12:48:38Z</time>
</trkpt>
<trkpt lat="45.54547" lon="13.49168">
<ele>53</ele>
<time>2011-05-01T12:48:40Z</time>
</trkpt>
<trkpt lat="45.54552" lon="13.49165">
<ele>53</ele>
<time>2011-05-01T12:48:42Z</time>
</trkpt>
<trkpt lat="45.54557" lon="13.49161">
<ele>53</ele>
<time>2011-05-01T12:48:44Z</time>
</trkpt>
<trkpt lat="45.54562" lon="13.49157">
<ele>52</ele>
<time>2011-05-01T12:48:46Z</time>
</trkpt>
<trkpt lat="45.54567" lon="13.49153">
<ele>52</ele>
<time>2011-05-01T12:48:48Z</time>
</trkpt>
<trkpt lat="45.54571" lon="13.49149">
<ele>52</ele>
<time>2011-05-01T12:48:50Z</time>
</trkpt>
<trkpt lat="45.54576" lon="13.49146">
<ele>52</ele>
<time>2011-05-01T12:48:52Z</time>
</trkpt>
<trkpt lat="45.5458" lon="13.49141">
<ele>52</ele>
<time>2011-05-01T12:48:54Z</time>
</trkpt>
<trkpt lat="45.54584" lon="13.49137">
<ele>52</ele>
<time>2011-05-01T12:48:56Z</time>
</trkpt>
<trkpt lat="45.54588" lon="13.49132">
<ele>53</ele>
<time>2011-05-01T12:48:58Z</time>
</trkpt>
<trkpt lat="45.54592" lon="13.49128">
<ele>53</ele>
<time>2011-05-01T12:49:00Z</time>
</trkpt>
<trkpt lat="45.54596" lon="13.49123">
<ele>53</ele>
<time>2011-05-01T12:49:02Z</time>
</trkpt>
<trkpt lat="45.546" lon="13.49119">
<ele>53</ele>
<time>2011-05-01T12:49:04Z</time>
</trkpt>
<trkpt lat="45.54604" lon="13.49115">
<ele>53</ele>
<time>2011-05-01T12:49:06Z</time>
</trkpt>
<trkpt lat="45.54608" lon="13.49112">
<ele>53</ele>
<time>2011-05-01T12:49:08Z</time>
</trkpt>
<trkpt lat="45.54612" lon="13.49108">
<ele>53</ele>
<time>2011-05-01T12:49:10Z</time>
</trkpt>
<trkpt lat="45.54616" lon="13.49103">
<ele>53</ele>
<time>2011-05-01T12:49:12Z</time>
</trkpt>
<trkpt lat="45.5462" lon="13.49099">
<ele>53</ele>
<time>2011-05-01T12:49:14Z</time>
</trkpt>
<trkpt lat="45.54624" lon="13.49095">
<ele>53</ele>
<time>2011-05-01T12:49:16Z</time>
</trkpt>
<trkpt lat="45.54628" lon="13.4909">
<ele>53</ele>
<time>2011-05-01T12:49:18Z</time>
</trkpt>
<trkpt lat="45.54631" lon="13.49086">
<ele>53</ele>
<time>2011-05-01T12:49:20Z</time>
</trkpt>
<trkpt lat="45.54635" lon="13.49082">
<ele>53</ele>
<time>2011-05-01T12:49:22Z</time>
</trkpt>
<trkpt lat="45.54639" lon="13.49078">
<ele>53</ele>
<time>2011-05-01T12:49:24Z</time>
</trkpt>
<trkpt lat="45.54643" lon="13.49074">
<ele>53</ele>
<time>2011-05-01T12:49:26Z</time>
</trkpt>
<trkpt lat="45.54646" lon="13.4907">
<ele>53</ele>
<time>2011-05-01T12:49:28Z</time>
</trkpt>
<trkpt lat="45.5465" lon="13.49066">
<ele>53</ele>
<time>2011-05-01T12:49:30Z</time>
</trkpt>
<trkpt lat="45.54654" lon="13.49062">
<ele>53</ele>
<time>2011-05-01T12:49:32Z</time>
</trkpt>
<trkpt lat="45.54658" lon="13.49059">
<ele>53</ele>
<time>2011-05-01T12:49:34Z</time>
</trkpt>
<trkpt lat="45.54662" lon="13.49056">
<ele>53</ele>
<time>2011-05-01T12:49:36Z</time>
</trkpt>
<trkpt lat="45.54666" lon="13.49052">
<ele>53</ele>
<time>2011-05-01T12:49:38Z</time>
</trkpt>
<trkpt lat="45.5467" lon="13.49049">
<ele>53</ele>
<time>2011-05-01T12:49:40Z</time>
</trkpt>
<trkpt lat="45.54675" lon="13.49046">
<ele>53</ele>
<time>2011-05-01T12:49:42Z</time>
</trkpt>
<trkpt lat="45.54679" lon="13.49043">
<ele>53</ele>
<time>2011-05-01T12:49:44Z</time>
</trkpt>
<trkpt lat="45.54684" lon="13.4904">
<ele>53</ele>
<time>2011-05-01T12:49:46Z</time>
</trkpt>
<trkpt lat="45.54689" lon="13.49037">
<ele>53</ele>
<time>2011-05-01T12:49:48Z</time>
</trkpt>
<trkpt lat="45.54694" lon="13.49034">
<ele>53</ele>
<time>2011-05-01T12:49:50Z</time>
</trkpt>
<trkpt lat="45.547" lon="13.4903">
<ele>52</ele>
<time>2011-05-01T12:49:52Z</time>
</trkpt>
<trkpt lat="45.54705" lon="13.49027">
<ele>52</ele>
<time>2011-05-01T12:49:54Z</time>
</trkpt>
<trkpt lat="45.5471" lon="13.49023">
<ele>52</ele>
<time>2011-05-01T12:49:56Z</time>
</trkpt>
<trkpt lat="45.54716" lon="13.4902">
<ele>52</ele>
<time>2011-05-01T12:49:58Z</time>
</trkpt>
<trkpt lat="45.54721" lon="13.49017">
<ele>52</ele>
<time>2011-05-01T12:50:00Z</time>
</trkpt>
<trkpt lat="45.54726" lon="13.49014">
<ele>52</ele>
<time>2011-05-01T12:50:02Z</time>
</trkpt>
<trkpt lat="45.54731" lon="13.49011">
<ele>52</ele>
<time>2011-05-01T12:50:04Z</time>
</trkpt>
<trkpt lat="45.54736" lon="13.49007">
<ele>52</ele>
<time>2011-05-01T12:50:06Z</time>
</trkpt>
<trkpt lat="45.54741" lon="13.49003">
<ele>52</ele>
<time>2011-05-01T12:50:08Z</time>
</trkpt>
<trkpt lat="45.54746" lon="13.48999">
<ele>52</ele>
<time>2011-05-01T12:50:10Z</time>
</trkpt>
<trkpt lat="45.54751" lon="13.48996">
<ele>52</ele>
<time>2011-05-01T12:50:12Z</time>
</trkpt>
<trkpt lat="45.54756" lon="13.48992">
<ele>52</ele>
<time>2011-05-01T12:50:14Z</time>
</trkpt>
<trkpt lat="45.54761" lon="13.48988">
<ele>52</ele>
<time>2011-05-01T12:50:16Z</time>
</trkpt>
<trkpt lat="45.54765" lon="13.48984">
<ele>52</ele>
<time>2011-05-01T12:50:18Z</time>
</trkpt>
<trkpt lat="45.5477" lon="13.48978">
<ele>52</ele>
<time>2011-05-01T12:50:20Z</time>
</trkpt>
<trkpt lat="45.54774" lon="13.48974">
<ele>52</ele>
<time>2011-05-01T12:50:22Z</time>
</trkpt>
<trkpt lat="45.54779" lon="13.4897">
<ele>52</ele>
<time>2011-05-01T12:50:24Z</time>
</trkpt>
<trkpt lat="45.54784" lon="13.48966">
<ele>52</ele>
<time>2011-05-01T12:50:26Z</time>
</trkpt>
<trkpt lat="45.54789" lon="13.48963">
<ele>52</ele>
<time>2011-05-01T12:50:28Z</time>
</trkpt>
<trkpt lat="45.54794" lon="13.48959">
<ele>52</ele>
<time>2011-05-01T12:50:30Z</time>
</trkpt>
<trkpt lat="45.54799" lon="13.48956">
<ele>52</ele>
<time>2011-05-01T12:50:32Z</time>
</trkpt>
<trkpt lat="45.54804" lon="13.48953">
<ele>52</ele>
<time>2011-05-01T12:50:34Z</time>
</trkpt>
<trkpt lat="45.54809" lon="13.4895">
<ele>52</ele>
<time>2011-05-01T12:50:36Z</time>
</trkpt>
<trkpt lat="45.54815" lon="13.48948">
<ele>52</ele>
<time>2011-05-01T12:50:38Z</time>
</trkpt>
<trkpt lat="45.54821" lon="13.48945">
<ele>52</ele>
<time>2011-05-01T12:50:40Z</time>
</trkpt>
<trkpt lat="45.54826" lon="13.48942">
<ele>52</ele>
<time>2011-05-01T12:50:42Z</time>
</trkpt>
<trkpt lat="45.54832" lon="13.4894">
<ele>52</ele>
<time>2011-05-01T12:50:44Z</time>
</trkpt>
<trkpt lat="45.54838" lon="13.48938">
<ele>52</ele>
<time>2011-05-01T12:50:46Z</time>
</trkpt>
<trkpt lat="45.54844" lon="13.48936">
<ele>52</ele>
<time>2011-05-01T12:50:48Z</time>
</trkpt>
<trkpt lat="45.5485" lon="13.48934">
<ele>52</ele>
<time>2011-05-01T12:50:50Z</time>
</trkpt>
<trkpt lat="45.54856" lon="13.48932">
<ele>52</ele>
<time>2011-05-01T12:50:52Z</time>
</trkpt>
<trkpt lat="45.54863" lon="13.48929">
<ele>52</ele>
<time>2011-05-01T12:50:54Z</time>
</trkpt>
<trkpt lat="45.54869" lon="13.48926">
<ele>52</ele>
<time>2011-05-01T12:50:56Z</time>
</trkpt>
<trkpt lat="45.54875" lon="13.48923">
<ele>52</ele>
<time>2011-05-01T12:50:58Z</time>
</trkpt>
<trkpt lat="45.54881" lon="13.48921">
<ele>52</ele>
<time>2011-05-01T12:51:00Z</time>
</trkpt>
<trkpt lat="45.54887" lon="13.48918">
<ele>52</ele>
<time>2011-05-01T12:51:02Z</time>
</trkpt>
<trkpt lat="45.54893" lon="13.48915">
<ele>52</ele>
<time>2011-05-01T12:51:04Z</time>
</trkpt>
<trkpt lat="45.54899" lon="13.48912">
<ele>52</ele>
<time>2011-05-01T12:51:06Z</time>
</trkpt>
<trkpt lat="45.54904" lon="13.48909">
<ele>52</ele>
<time>2011-05-01T12:51:08Z</time>
</trkpt>
<trkpt lat="45.5491" lon="13.48906">
<ele>52</ele>
<time>2011-05-01T12:51:10Z</time>
</trkpt>
<trkpt lat="45.54915" lon="13.48902">
<ele>52</ele>
<time>2011-05-01T12:51:12Z</time>
</trkpt>
<trkpt lat="45.5492" lon="13.48899">
<ele>52</ele>
<time>2011-05-01T12:51:14Z</time>
</trkpt>
<trkpt lat="45.54926" lon="13.48896">
<ele>52</ele>
<time>2011-05-01T12:51:16Z</time>
</trkpt>
<trkpt lat="45.54931" lon="13.48892">
<ele>52</ele>
<time>2011-05-01T12:51:18Z</time>
</trkpt>
<trkpt lat="45.54936" lon="13.48888">
<ele>51</ele>
<time>2011-05-01T12:51:20Z</time>
</trkpt>
<trkpt lat="45.54941" lon="13.48885">
<ele>51</ele>
<time>2011-05-01T12:51:22Z</time>
</trkpt>
<trkpt lat="45.54946" lon="13.48881">
<ele>51</ele>
<time>2011-05-01T12:51:24Z</time>
</trkpt>
<trkpt lat="45.54952" lon="13.48878">
<ele>52</ele>
<time>2011-05-01T12:51:26Z</time>
</trkpt>
<trkpt lat="45.54957" lon="13.48875">
<ele>52</ele>
<time>2011-05-01T12:51:28Z</time>
</trkpt>
<trkpt lat="45.54962" lon="13.48871">
<ele>52</ele>
<time>2011-05-01T12:51:30Z</time>
</trkpt>
<trkpt lat="45.54967" lon="13.48867">
<ele>52</ele>
<time>2011-05-01T12:51:32Z</time>
</trkpt>
<trkpt lat="45.54972" lon="13.48863">
<ele>52</ele>
<time>2011-05-01T12:51:34Z</time>
</trkpt>
<trkpt lat="45.54977" lon="13.48859">
<ele>52</ele>
<time>2011-05-01T12:51:36Z</time>
</trkpt>
<trkpt lat="45.54982" lon="13.48854">
<ele>52</ele>
<time>2011-05-01T12:51:38Z</time>
</trkpt>
<trkpt lat="45.54986" lon="13.48849">
<ele>52</ele>
<time>2011-05-01T12:51:40Z</time>
</trkpt>
<trkpt lat="45.5499" lon="13.48843">
<ele>52</ele>
<time>2011-05-01T12:51:42Z</time>
</trkpt>
<trkpt lat="45.54994" lon="13.48837">
<ele>52</ele>
<time>2011-05-01T12:51:44Z</time>
</trkpt>
<trkpt lat="45.54998" lon="13.48831">
<ele>52</ele>
<time>2011-05-01T12:51:46Z</time>
</trkpt>
<trkpt lat="45.55002" lon="13.48826">
<ele>52</ele>
<time>2011-05-01T12:51:48Z</time>
</trkpt>
<trkpt lat="45.55006" lon="13.4882">
<ele>52</ele>
<time>2011-05-01T12:51:50Z</time>
</trkpt>
<trkpt lat="45.5501" lon="13.48815">
<ele>52</ele>
<time>2011-05-01T12:51:52Z</time>
</trkpt>
<trkpt lat="45.55014" lon="13.4881">
<ele>52</ele>
<time>2011-05-01T12:51:54Z</time>
</trkpt>
<trkpt lat="45.55017" lon="13.48806">
<ele>52</ele>
<time>2011-05-01T12:51:56Z</time>
</trkpt>
<trkpt lat="45.55022" lon="13.488">
<ele>52</ele>
<time>2011-05-01T12:51:59Z</time>
</trkpt>
<trkpt lat="45.55026" lon="13.48793">
<ele>52</ele>
<time>2011-05-01T12:52:02Z</time>
</trkpt>
<trkpt lat="45.55031" lon="13.48787">
<ele>52</ele>
<time>2011-05-01T12:52:05Z</time>
</trkpt>
<trkpt lat="45.55035" lon="13.48781">
<ele>52</ele>
<time>2011-05-01T12:52:08Z</time>
</trkpt>
<trkpt lat="45.55039" lon="13.48775">
<ele>52</ele>
<time>2011-05-01T12:52:11Z</time>
</trkpt>
<trkpt lat="45.55042" lon="13.4877">
<ele>52</ele>
<time>2011-05-01T12:52:14Z</time>
</trkpt>
<trkpt lat="45.55047" lon="13.48764">
<ele>52</ele>
<time>2011-05-01T12:52:17Z</time>
</trkpt>
<trkpt lat="45.55051" lon="13.48759">
<ele>52</ele>
<time>2011-05-01T12:52:20Z</time>
</trkpt>
<trkpt lat="45.55057" lon="13.48755">
<ele>52</ele>
<time>2011-05-01T12:52:23Z</time>
</trkpt>
<trkpt lat="45.55061" lon="13.48752">
<ele>52</ele>
<time>2011-05-01T12:52:25Z</time>
</trkpt>
<trkpt lat="45.55065" lon="13.48748">
<ele>52</ele>
<time>2011-05-01T12:52:27Z</time>
</trkpt>
<trkpt lat="45.5507" lon="13.48745">
<ele>52</ele>
<time>2011-05-01T12:52:29Z</time>
</trkpt>
<trkpt lat="45.55074" lon="13.48741">
<ele>52</ele>
<time>2011-05-01T12:52:31Z</time>
</trkpt>
<trkpt lat="45.55079" lon="13.48738">
<ele>52</ele>
<time>2011-05-01T12:52:33Z</time>
</trkpt>
<trkpt lat="45.55083" lon="13.48734">
<ele>52</ele>
<time>2011-05-01T12:52:35Z</time>
</trkpt>
<trkpt lat="45.55087" lon="13.4873">
<ele>52</ele>
<time>2011-05-01T12:52:37Z</time>
</trkpt>
<trkpt lat="45.55092" lon="13.48727">
<ele>52</ele>
<time>2011-05-01T12:52:39Z</time>
</trkpt>
<trkpt lat="45.55096" lon="13.48723">
<ele>52</ele>
<time>2011-05-01T12:52:41Z</time>
</trkpt>
<trkpt lat="45.551" lon="13.4872">
<ele>52</ele>
<time>2011-05-01T12:52:43Z</time>
</trkpt>
<trkpt lat="45.55104" lon="13.48716">
<ele>52</ele>
<time>2011-05-01T12:52:45Z</time>
</trkpt>
<trkpt lat="45.55108" lon="13.48712">
<ele>52</ele>
<time>2011-05-01T12:52:47Z</time>
</trkpt>
<trkpt lat="45.55112" lon="13.48708">
<ele>53</ele>
<time>2011-05-01T12:52:49Z</time>
</trkpt>
<trkpt lat="45.55116" lon="13.48703">
<ele>53</ele>
<time>2011-05-01T12:52:51Z</time>
</trkpt>
<trkpt lat="45.5512" lon="13.48699">
<ele>53</ele>
<time>2011-05-01T12:52:53Z</time>
</trkpt>
<trkpt lat="45.55123" lon="13.48695">
<ele>53</ele>
<time>2011-05-01T12:52:55Z</time>
</trkpt>
<trkpt lat="45.55127" lon="13.48692">
<ele>53</ele>
<time>2011-05-01T12:52:57Z</time>
</trkpt>
<trkpt lat="45.55131" lon="13.48688">
<ele>53</ele>
<time>2011-05-01T12:52:59Z</time>
</trkpt>
<trkpt lat="45.55135" lon="13.48684">
<ele>53</ele>
<time>2011-05-01T12:53:01Z</time>
</trkpt>
<trkpt lat="45.55139" lon="13.4868">
<ele>53</ele>
<time>2011-05-01T12:53:03Z</time>
</trkpt>
<trkpt lat="45.55143" lon="13.48677">
<ele>53</ele>
<time>2011-05-01T12:53:05Z</time>
</trkpt>
<trkpt lat="45.55146" lon="13.48673">
<ele>53</ele>
<time>2011-05-01T12:53:07Z</time>
</trkpt>
<trkpt lat="45.5515" lon="13.48669">
<ele>53</ele>
<time>2011-05-01T12:53:09Z</time>
</trkpt>
<trkpt lat="45.55154" lon="13.48665">
<ele>53</ele>
<time>2011-05-01T12:53:11Z</time>
</trkpt>
<trkpt lat="45.55159" lon="13.48662">
<ele>53</ele>
<time>2011-05-01T12:53:13Z</time>
</trkpt>
<trkpt lat="45.55163" lon="13.48658">
<ele>53</ele>
<time>2011-05-01T12:53:15Z</time>
</trkpt>
<trkpt lat="45.55167" lon="13.48654">
<ele>53</ele>
<time>2011-05-01T12:53:17Z</time>
</trkpt>
<trkpt lat="45.55171" lon="13.4865">
<ele>53</ele>
<time>2011-05-01T12:53:19Z</time>
</trkpt>
<trkpt lat="45.55175" lon="13.48646">
<ele>53</ele>
<time>2011-05-01T12:53:21Z</time>
</trkpt>
<trkpt lat="45.55178" lon="13.48642">
<ele>53</ele>
<time>2011-05-01T12:53:23Z</time>
</trkpt>
<trkpt lat="45.55182" lon="13.48637">
<ele>53</ele>
<time>2011-05-01T12:53:25Z</time>
</trkpt>
<trkpt lat="45.55186" lon="13.48633">
<ele>53</ele>
<time>2011-05-01T12:53:27Z</time>
</trkpt>
<trkpt lat="45.55189" lon="13.48628">
<ele>53</ele>
<time>2011-05-01T12:53:29Z</time>
</trkpt>
<trkpt lat="45.55193" lon="13.48624">
<ele>53</ele>
<time>2011-05-01T12:53:31Z</time>
</trkpt>
<trkpt lat="45.55197" lon="13.48621">
<ele>53</ele>
<time>2011-05-01T12:53:33Z</time>
</trkpt>
<trkpt lat="45.55201" lon="13.48617">
<ele>53</ele>
<time>2011-05-01T12:53:35Z</time>
</trkpt>
<trkpt lat="45.55205" lon="13.48612">
<ele>53</ele>
<time>2011-05-01T12:53:37Z</time>
</trkpt>
<trkpt lat="45.55209" lon="13.48608">
<ele>53</ele>
<time>2011-05-01T12:53:39Z</time>
</trkpt>
<trkpt lat="45.55213" lon="13.48605">
<ele>53</ele>
<time>2011-05-01T12:53:41Z</time>
</trkpt>
<trkpt lat="45.55217" lon="13.48601">
<ele>53</ele>
<time>2011-05-01T12:53:43Z</time>
</trkpt>
<trkpt lat="45.55221" lon="13.48597">
<ele>53</ele>
<time>2011-05-01T12:53:45Z</time>
</trkpt>
<trkpt lat="45.55225" lon="13.48594">
<ele>53</ele>
<time>2011-05-01T12:53:47Z</time>
</trkpt>
<trkpt lat="45.55229" lon="13.4859">
<ele>53</ele>
<time>2011-05-01T12:53:49Z</time>
</trkpt>
<trkpt lat="45.55233" lon="13.48586">
<ele>53</ele>
<time>2011-05-01T12:53:51Z</time>
</trkpt>
<trkpt lat="45.55237" lon="13.48582">
<ele>53</ele>
<time>2011-05-01T12:53:53Z</time>
</trkpt>
<trkpt lat="45.55241" lon="13.48578">
<ele>53</ele>
<time>2011-05-01T12:53:55Z</time>
</trkpt>
<trkpt lat="45.55245" lon="13.48574">
<ele>53</ele>
<time>2011-05-01T12:53:57Z</time>
</trkpt>
<trkpt lat="45.55249" lon="13.48571">
<ele>53</ele>
<time>2011-05-01T12:53:59Z</time>
</trkpt>
<trkpt lat="45.55253" lon="13.48567">
<ele>53</ele>
<time>2011-05-01T12:54:01Z</time>
</trkpt>
<trkpt lat="45.55257" lon="13.48563">
<ele>53</ele>
<time>2011-05-01T12:54:03Z</time>
</trkpt>
<trkpt lat="45.55261" lon="13.48558">
<ele>53</ele>
<time>2011-05-01T12:54:05Z</time>
</trkpt>
<trkpt lat="45.55265" lon="13.48554">
<ele>53</ele>
<time>2011-05-01T12:54:07Z</time>
</trkpt>
<trkpt lat="45.55268" lon="13.4855">
<ele>53</ele>
<time>2011-05-01T12:54:09Z</time>
</trkpt>
<trkpt lat="45.55272" lon="13.48545">
<ele>53</ele>
<time>2011-05-01T12:54:11Z</time>
</trkpt>
<trkpt lat="45.55276" lon="13.48541">
<ele>53</ele>
<time>2011-05-01T12:54:13Z</time>
</trkpt>
<trkpt lat="45.5528" lon="13.48537">
<ele>53</ele>
<time>2011-05-01T12:54:15Z</time>
</trkpt>
<trkpt lat="45.55283" lon="13.48533">
<ele>53</ele>
<time>2011-05-01T12:54:17Z</time>
</trkpt>
<trkpt lat="45.55287" lon="13.48529">
<ele>52</ele>
<time>2011-05-01T12:54:19Z</time>
</trkpt>
<trkpt lat="45.55291" lon="13.48524">
<ele>52</ele>
<time>2011-05-01T12:54:21Z</time>
</trkpt>
<trkpt lat="45.55295" lon="13.4852">
<ele>52</ele>
<time>2011-05-01T12:54:23Z</time>
</trkpt>
<trkpt lat="45.55298" lon="13.48516">
<ele>52</ele>
<time>2011-05-01T12:54:25Z</time>
</trkpt>
<trkpt lat="45.55302" lon="13.48513">
<ele>52</ele>
<time>2011-05-01T12:54:27Z</time>
</trkpt>
<trkpt lat="45.55307" lon="13.48509">
<ele>52</ele>
<time>2011-05-01T12:54:29Z</time>
</trkpt>
<trkpt lat="45.55312" lon="13.48506">
<ele>52</ele>
<time>2011-05-01T12:54:31Z</time>
</trkpt>
<trkpt lat="45.55318" lon="13.48503">
<ele>52</ele>
<time>2011-05-01T12:54:33Z</time>
</trkpt>
<trkpt lat="45.55323" lon="13.485">
<ele>52</ele>
<time>2011-05-01T12:54:35Z</time>
</trkpt>
<trkpt lat="45.55328" lon="13.48498">
<ele>52</ele>
<time>2011-05-01T12:54:37Z</time>
</trkpt>
<trkpt lat="45.55334" lon="13.48495">
<ele>52</ele>
<time>2011-05-01T12:54:39Z</time>
</trkpt>
<trkpt lat="45.55339" lon="13.48493">
<ele>52</ele>
<time>2011-05-01T12:54:41Z</time>
</trkpt>
<trkpt lat="45.55344" lon="13.4849">
<ele>52</ele>
<time>2011-05-01T12:54:43Z</time>
</trkpt>
<trkpt lat="45.5535" lon="13.48487">
<ele>52</ele>
<time>2011-05-01T12:54:45Z</time>
</trkpt>
<trkpt lat="45.55355" lon="13.48484">
<ele>52</ele>
<time>2011-05-01T12:54:47Z</time>
</trkpt>
<trkpt lat="45.5536" lon="13.48481">
<ele>52</ele>
<time>2011-05-01T12:54:49Z</time>
</trkpt>
<trkpt lat="45.55366" lon="13.48478">
<ele>52</ele>
<time>2011-05-01T12:54:51Z</time>
</trkpt>
<trkpt lat="45.55371" lon="13.48475">
<ele>52</ele>
<time>2011-05-01T12:54:53Z</time>
</trkpt>
<trkpt lat="45.55377" lon="13.48471">
<ele>52</ele>
<time>2011-05-01T12:54:55Z</time>
</trkpt>
<trkpt lat="45.55383" lon="13.48468">
<ele>52</ele>
<time>2011-05-01T12:54:57Z</time>
</trkpt>
<trkpt lat="45.55388" lon="13.48464">
<ele>52</ele>
<time>2011-05-01T12:54:59Z</time>
</trkpt>
<trkpt lat="45.55394" lon="13.48461">
<ele>52</ele>
<time>2011-05-01T12:55:01Z</time>
</trkpt>
<trkpt lat="45.554" lon="13.48457">
<ele>52</ele>
<time>2011-05-01T12:55:03Z</time>
</trkpt>
<trkpt lat="45.55406" lon="13.48454">
<ele>52</ele>
<time>2011-05-01T12:55:05Z</time>
</trkpt>
<trkpt lat="45.55412" lon="13.4845">
<ele>52</ele>
<time>2011-05-01T12:55:07Z</time>
</trkpt>
<trkpt lat="45.55418" lon="13.48446">
<ele>52</ele>
<time>2011-05-01T12:55:09Z</time>
</trkpt>
<trkpt lat="45.55423" lon="13.48443">
<ele>52</ele>
<time>2011-05-01T12:55:11Z</time>
</trkpt>
<trkpt lat="45.55428" lon="13.48438">
<ele>52</ele>
<time>2011-05-01T12:55:13Z</time>
</trkpt>
<trkpt lat="45.55433" lon="13.48433">
<ele>52</ele>
<time>2011-05-01T12:55:15Z</time>
</trkpt>
<trkpt lat="45.55438" lon="13.48428">
<ele>52</ele>
<time>2011-05-01T12:55:17Z</time>
</trkpt>
<trkpt lat="45.55443" lon="13.48422">
<ele>52</ele>
<time>2011-05-01T12:55:19Z</time>
</trkpt>
<trkpt lat="45.55448" lon="13.48417">
<ele>53</ele>
<time>2011-05-01T12:55:21Z</time>
</trkpt>
<trkpt lat="45.55452" lon="13.48412">
<ele>53</ele>
<time>2011-05-01T12:55:23Z</time>
</trkpt>
<trkpt lat="45.55457" lon="13.48407">
<ele>53</ele>
<time>2011-05-01T12:55:25Z</time>
</trkpt>
<trkpt lat="45.55461" lon="13.48403">
<ele>53</ele>
<time>2011-05-01T12:55:27Z</time>
</trkpt>
<trkpt lat="45.55466" lon="13.48398">
<ele>53</ele>
<time>2011-05-01T12:55:29Z</time>
</trkpt>
<trkpt lat="45.5547" lon="13.48394">
<ele>53</ele>
<time>2011-05-01T12:55:31Z</time>
</trkpt>
<trkpt lat="45.55474" lon="13.48389">
<ele>53</ele>
<time>2011-05-01T12:55:33Z</time>
</trkpt>
<trkpt lat="45.55478" lon="13.48383">
<ele>53</ele>
<time>2011-05-01T12:55:35Z</time>
</trkpt>
<trkpt lat="45.55482" lon="13.48378">
<ele>53</ele>
<time>2011-05-01T12:55:37Z</time>
</trkpt>
<trkpt lat="45.55485" lon="13.48372">
<ele>53</ele>
<time>2011-05-01T12:55:39Z</time>
</trkpt>
<trkpt lat="45.55488" lon="13.48366">
<ele>53</ele>
<time>2011-05-01T12:55:41Z</time>
</trkpt>
<trkpt lat="45.55492" lon="13.4836">
<ele>53</ele>
<time>2011-05-01T12:55:43Z</time>
</trkpt>
<trkpt lat="45.55495" lon="13.48355">
<ele>53</ele>
<time>2011-05-01T12:55:45Z</time>
</trkpt>
<trkpt lat="45.55498" lon="13.4835">
<ele>53</ele>
<time>2011-05-01T12:55:47Z</time>
</trkpt>
<trkpt lat="45.55501" lon="13.48346">
<ele>53</ele>
<time>2011-05-01T12:55:49Z</time>
</trkpt>
<trkpt lat="45.55506" lon="13.4834">
<ele>53</ele>
<time>2011-05-01T12:55:52Z</time>
</trkpt>
<trkpt lat="45.5551" lon="13.48336">
<ele>53</ele>
<time>2011-05-01T12:55:54Z</time>
</trkpt>
<trkpt lat="45.55514" lon="13.48332">
<ele>53</ele>
<time>2011-05-01T12:56:00Z</time>
</trkpt>
<trkpt lat="45.55519" lon="13.48327">
<ele>53</ele>
<time>2011-05-01T12:56:04Z</time>
</trkpt>
<trkpt lat="45.55524" lon="13.48323">
<ele>53</ele>
<time>2011-05-01T12:56:07Z</time>
</trkpt>
<trkpt lat="45.55528" lon="13.48319">
<ele>53</ele>
<time>2011-05-01T12:56:10Z</time>
</trkpt>
<trkpt lat="45.55532" lon="13.48316">
<ele>53</ele>
<time>2011-05-01T12:56:12Z</time>
</trkpt>
<trkpt lat="45.55536" lon="13.48312">
<ele>53</ele>
<time>2011-05-01T12:56:14Z</time>
</trkpt>
<trkpt lat="45.55541" lon="13.48308">
<ele>53</ele>
<time>2011-05-01T12:56:16Z</time>
</trkpt>
<trkpt lat="45.55545" lon="13.48303">
<ele>53</ele>
<time>2011-05-01T12:56:18Z</time>
</trkpt>
<trkpt lat="45.5555" lon="13.48299">
<ele>53</ele>
<time>2011-05-01T12:56:20Z</time>
</trkpt>
<trkpt lat="45.55555" lon="13.48294">
<ele>53</ele>
<time>2011-05-01T12:56:22Z</time>
</trkpt>
<trkpt lat="45.55559" lon="13.4829">
<ele>53</ele>
<time>2011-05-01T12:56:24Z</time>
</trkpt>
<trkpt lat="45.55564" lon="13.48284">
<ele>53</ele>
<time>2011-05-01T12:56:26Z</time>
</trkpt>
<trkpt lat="45.55569" lon="13.4828">
<ele>52</ele>
<time>2011-05-01T12:56:28Z</time>
</trkpt>
<trkpt lat="45.55574" lon="13.48275">
<ele>52</ele>
<time>2011-05-01T12:56:30Z</time>
</trkpt>
<trkpt lat="45.55578" lon="13.4827">
<ele>52</ele>
<time>2011-05-01T12:56:32Z</time>
</trkpt>
<trkpt lat="45.55582" lon="13.48265">
<ele>52</ele>
<time>2011-05-01T12:56:34Z</time>
</trkpt>
<trkpt lat="45.55587" lon="13.48261">
<ele>52</ele>
<time>2011-05-01T12:56:36Z</time>
</trkpt>
<trkpt lat="45.55591" lon="13.48257">
<ele>52</ele>
<time>2011-05-01T12:56:38Z</time>
</trkpt>
<trkpt lat="45.55596" lon="13.48252">
<ele>52</ele>
<time>2011-05-01T12:56:40Z</time>
</trkpt>
<trkpt lat="45.556" lon="13.48248">
<ele>52</ele>
<time>2011-05-01T12:56:42Z</time>
</trkpt>
<trkpt lat="45.55605" lon="13.48243">
<ele>52</ele>
<time>2011-05-01T12:56:44Z</time>
</trkpt>
<trkpt lat="45.5561" lon="13.48239">
<ele>52</ele>
<time>2011-05-01T12:56:46Z</time>
</trkpt>
<trkpt lat="45.55614" lon="13.48235">
<ele>52</ele>
<time>2011-05-01T12:56:48Z</time>
</trkpt>
<trkpt lat="45.55618" lon="13.4823">
<ele>52</ele>
<time>2011-05-01T12:56:50Z</time>
</trkpt>
<trkpt lat="45.55623" lon="13.48226">
<ele>52</ele>
<time>2011-05-01T12:56:52Z</time>
</trkpt>
<trkpt lat="45.55627" lon="13.48222">
<ele>52</ele>
<time>2011-05-01T12:56:54Z</time>
</trkpt>
<trkpt lat="45.55631" lon="13.48217">
<ele>52</ele>
<time>2011-05-01T12:56:56Z</time>
</trkpt>
<trkpt lat="45.55635" lon="13.48213">
<ele>52</ele>
<time>2011-05-01T12:56:58Z</time>
</trkpt>
<trkpt lat="45.55639" lon="13.48208">
<ele>52</ele>
<time>2011-05-01T12:57:00Z</time>
</trkpt>
<trkpt lat="45.55642" lon="13.48204">
<ele>52</ele>
<time>2011-05-01T12:57:02Z</time>
</trkpt>
<trkpt lat="45.55646" lon="13.48199">
<ele>52</ele>
<time>2011-05-01T12:57:04Z</time>
</trkpt>
<trkpt lat="45.5565" lon="13.48194">
<ele>52</ele>
<time>2011-05-01T12:57:06Z</time>
</trkpt>
<trkpt lat="45.55653" lon="13.48188">
<ele>52</ele>
<time>2011-05-01T12:57:08Z</time>
</trkpt>
<trkpt lat="45.55656" lon="13.48183">
<ele>52</ele>
<time>2011-05-01T12:57:10Z</time>
</trkpt>
<trkpt lat="45.5566" lon="13.48178">
<ele>52</ele>
<time>2011-05-01T12:57:12Z</time>
</trkpt>
<trkpt lat="45.55663" lon="13.48174">
<ele>52</ele>
<time>2011-05-01T12:57:14Z</time>
</trkpt>
<trkpt lat="45.55666" lon="13.48169">
<ele>52</ele>
<time>2011-05-01T12:57:16Z</time>
</trkpt>
<trkpt lat="45.5567" lon="13.48165">
<ele>52</ele>
<time>2011-05-01T12:57:18Z</time>
</trkpt>
<trkpt lat="45.55674" lon="13.48161">
<ele>52</ele>
<time>2011-05-01T12:57:20Z</time>
</trkpt>
<trkpt lat="45.55677" lon="13.48157">
<ele>52</ele>
<time>2011-05-01T12:57:22Z</time>
</trkpt>
<trkpt lat="45.55681" lon="13.48152">
<ele>52</ele>
<time>2011-05-01T12:57:24Z</time>
</trkpt>
<trkpt lat="45.55684" lon="13.48147">
<ele>52</ele>
<time>2011-05-01T12:57:26Z</time>
</trkpt>
<trkpt lat="45.55688" lon="13.48142">
<ele>52</ele>
<time>2011-05-01T12:57:28Z</time>
</trkpt>
<trkpt lat="45.55692" lon="13.48138">
<ele>52</ele>
<time>2011-05-01T12:57:30Z</time>
</trkpt>
<trkpt lat="45.55695" lon="13.48133">
<ele>52</ele>
<time>2011-05-01T12:57:32Z</time>
</trkpt>
<trkpt lat="45.55699" lon="13.48128">
<ele>52</ele>
<time>2011-05-01T12:57:34Z</time>
</trkpt>
<trkpt lat="45.55702" lon="13.48124">
<ele>52</ele>
<time>2011-05-01T12:57:36Z</time>
</trkpt>
<trkpt lat="45.55706" lon="13.48119">
<ele>52</ele>
<time>2011-05-01T12:57:38Z</time>
</trkpt>
<trkpt lat="45.55709" lon="13.48115">
<ele>52</ele>
<time>2011-05-01T12:57:40Z</time>
</trkpt>
<trkpt lat="45.55712" lon="13.48111">
<ele>52</ele>
<time>2011-05-01T12:57:42Z</time>
</trkpt>
<trkpt lat="45.55717" lon="13.48104">
<ele>52</ele>
<time>2011-05-01T12:57:45Z</time>
</trkpt>
<trkpt lat="45.55722" lon="13.48098">
<ele>52</ele>
<time>2011-05-01T12:57:48Z</time>
</trkpt>
<trkpt lat="45.55727" lon="13.48092">
<ele>52</ele>
<time>2011-05-01T12:57:51Z</time>
</trkpt>
<trkpt lat="45.55732" lon="13.48086">
<ele>52</ele>
<time>2011-05-01T12:57:54Z</time>
</trkpt>
<trkpt lat="45.55737" lon="13.48081">
<ele>51</ele>
<time>2011-05-01T12:57:57Z</time>
</trkpt>
<trkpt lat="45.55742" lon="13.48074">
<ele>51</ele>
<time>2011-05-01T12:58:00Z</time>
</trkpt>
<trkpt lat="45.55747" lon="13.48068">
<ele>51</ele>
<time>2011-05-01T12:58:03Z</time>
</trkpt>
<trkpt lat="45.55751" lon="13.48062">
<ele>51</ele>
<time>2011-05-01T12:58:06Z</time>
</trkpt>
<trkpt lat="45.55756" lon="13.48057">
<ele>51</ele>
<time>2011-05-01T12:58:09Z</time>
</trkpt>
<trkpt lat="45.5576" lon="13.4805">
<ele>51</ele>
<time>2011-05-01T12:58:12Z</time>
</trkpt>
<trkpt lat="45.55761" lon="13.48044">
<ele>51</ele>
<time>2011-05-01T12:58:15Z</time>
</trkpt>
<trkpt lat="45.55759" lon="13.48036">
<ele>51</ele>
<time>2011-05-01T12:58:19Z</time>
</trkpt>
<trkpt lat="45.55754" lon="13.48032">
<ele>51</ele>
<time>2011-05-01T12:58:23Z</time>
</trkpt>
<trkpt lat="45.55748" lon="13.48031">
<ele>51</ele>
<time>2011-05-01T12:58:27Z</time>
</trkpt>
<trkpt lat="45.55743" lon="13.48033">
<ele>51</ele>
<time>2011-05-01T12:58:30Z</time>
</trkpt>
<trkpt lat="45.55738" lon="13.48036">
<ele>51</ele>
<time>2011-05-01T12:58:33Z</time>
</trkpt>
<trkpt lat="45.55734" lon="13.48036">
<ele>51</ele>
<time>2011-05-01T12:58:36Z</time>
</trkpt>
<trkpt lat="45.55729" lon="13.48037">
<ele>51</ele>
<time>2011-05-01T12:58:39Z</time>
</trkpt>
<trkpt lat="45.55724" lon="13.48038">
<ele>51</ele>
<time>2011-05-01T12:58:42Z</time>
</trkpt>
<trkpt lat="45.55719" lon="13.4804">
<ele>51</ele>
<time>2011-05-01T12:58:45Z</time>
</trkpt>
<trkpt lat="45.55714" lon="13.48041">
<ele>51</ele>
<time>2011-05-01T12:58:48Z</time>
</trkpt>
<trkpt lat="45.55709" lon="13.48042">
<ele>50</ele>
<time>2011-05-01T12:58:51Z</time>
</trkpt>
<trkpt lat="45.55704" lon="13.48043">
<ele>50</ele>
<time>2011-05-01T12:58:54Z</time>
</trkpt>
<trkpt lat="45.55698" lon="13.48043">
<ele>50</ele>
<time>2011-05-01T12:58:57Z</time>
</trkpt>
<trkpt lat="45.55692" lon="13.48043">
<ele>50</ele>
<time>2011-05-01T12:59:00Z</time>
</trkpt>
<trkpt lat="45.55686" lon="13.48042">
<ele>50</ele>
<time>2011-05-01T12:59:03Z</time>
</trkpt>
<trkpt lat="45.5568" lon="13.48042">
<ele>50</ele>
<time>2011-05-01T12:59:06Z</time>
</trkpt>
<trkpt lat="45.55674" lon="13.48041">
<ele>50</ele>
<time>2011-05-01T12:59:09Z</time>
</trkpt>
<trkpt lat="45.55668" lon="13.48041">
<ele>50</ele>
<time>2011-05-01T12:59:12Z</time>
</trkpt>
<trkpt lat="45.55661" lon="13.48042">
<ele>50</ele>
<time>2011-05-01T12:59:15Z</time>
</trkpt>
<trkpt lat="45.55656" lon="13.48042">
<ele>50</ele>
<time>2011-05-01T12:59:17Z</time>
</trkpt>
<trkpt lat="45.55652" lon="13.48043">
<ele>50</ele>
<time>2011-05-01T12:59:19Z</time>
</trkpt>
<trkpt lat="45.55647" lon="13.48044">
<ele>50</ele>
<time>2011-05-01T12:59:21Z</time>
</trkpt>
<trkpt lat="45.55642" lon="13.48045">
<ele>50</ele>
<time>2011-05-01T12:59:23Z</time>
</trkpt>
<trkpt lat="45.55637" lon="13.48047">
<ele>50</ele>
<time>2011-05-01T12:59:25Z</time>
</trkpt>
<trkpt lat="45.55632" lon="13.48049">
<ele>50</ele>
<time>2011-05-01T12:59:27Z</time>
</trkpt>
<trkpt lat="45.55627" lon="13.48052">
<ele>50</ele>
<time>2011-05-01T12:59:29Z</time>
</trkpt>
<trkpt lat="45.55621" lon="13.48055">
<ele>50</ele>
<time>2011-05-01T12:59:31Z</time>
</trkpt>
<trkpt lat="45.55616" lon="13.48058">
<ele>50</ele>
<time>2011-05-01T12:59:33Z</time>
</trkpt>
<trkpt lat="45.55611" lon="13.48061">
<ele>50</ele>
<time>2011-05-01T12:59:35Z</time>
</trkpt>
<trkpt lat="45.55606" lon="13.48064">
<ele>50</ele>
<time>2011-05-01T12:59:37Z</time>
</trkpt>
<trkpt lat="45.556" lon="13.48067">
<ele>50</ele>
<time>2011-05-01T12:59:39Z</time>
</trkpt>
<trkpt lat="45.55595" lon="13.48068">
<ele>50</ele>
<time>2011-05-01T12:59:41Z</time>
</trkpt>
<trkpt lat="45.55589" lon="13.48069">
<ele>50</ele>
<time>2011-05-01T12:59:43Z</time>
</trkpt>
<trkpt lat="45.55583" lon="13.4807">
<ele>50</ele>
<time>2011-05-01T12:59:45Z</time>
</trkpt>
<trkpt lat="45.55577" lon="13.48072">
<ele>50</ele>
<time>2011-05-01T12:59:47Z</time>
</trkpt>
<trkpt lat="45.55571" lon="13.48073">
<ele>50</ele>
<time>2011-05-01T12:59:49Z</time>
</trkpt>
<trkpt lat="45.55565" lon="13.48074">
<ele>50</ele>
<time>2011-05-01T12:59:51Z</time>
</trkpt>
<trkpt lat="45.55559" lon="13.48073">
<ele>50</ele>
<time>2011-05-01T12:59:53Z</time>
</trkpt>
<trkpt lat="45.55553" lon="13.48072">
<ele>50</ele>
<time>2011-05-01T12:59:55Z</time>
</trkpt>
<trkpt lat="45.55547" lon="13.48071">
<ele>50</ele>
<time>2011-05-01T12:59:57Z</time>
</trkpt>
<trkpt lat="45.55541" lon="13.4807">
<ele>50</ele>
<time>2011-05-01T12:59:59Z</time>
</trkpt>
<trkpt lat="45.55536" lon="13.4807">
<ele>50</ele>
<time>2011-05-01T13:00:01Z</time>
</trkpt>
<trkpt lat="45.5553" lon="13.4807">
<ele>50</ele>
<time>2011-05-01T13:00:03Z</time>
</trkpt>
<trkpt lat="45.55524" lon="13.48071">
<ele>50</ele>
<time>2011-05-01T13:00:05Z</time>
</trkpt>
<trkpt lat="45.55518" lon="13.48071">
<ele>50</ele>
<time>2011-05-01T13:00:07Z</time>
</trkpt>
<trkpt lat="45.55511" lon="13.48072">
<ele>50</ele>
<time>2011-05-01T13:00:09Z</time>
</trkpt>
<trkpt lat="45.55505" lon="13.48073">
<ele>50</ele>
<time>2011-05-01T13:00:11Z</time>
</trkpt>
<trkpt lat="45.55499" lon="13.48073">
<ele>50</ele>
<time>2011-05-01T13:00:13Z</time>
</trkpt>
<trkpt lat="45.55493" lon="13.48073">
<ele>50</ele>
<time>2011-05-01T13:00:15Z</time>
</trkpt>
<trkpt lat="45.55487" lon="13.48074">
<ele>50</ele>
<time>2011-05-01T13:00:17Z</time>
</trkpt>
<trkpt lat="45.5548" lon="13.48074">
<ele>50</ele>
<time>2011-05-01T13:00:19Z</time>
</trkpt>
<trkpt lat="45.55474" lon="13.48075">
<ele>50</ele>
<time>2011-05-01T13:00:21Z</time>
</trkpt>
<trkpt lat="45.55468" lon="13.48076">
<ele>50</ele>
<time>2011-05-01T13:00:23Z</time>
</trkpt>
<trkpt lat="45.55461" lon="13.48076">
<ele>50</ele>
<time>2011-05-01T13:00:25Z</time>
</trkpt>
<trkpt lat="45.55455" lon="13.48076">
<ele>50</ele>
<time>2011-05-01T13:00:27Z</time>
</trkpt>
<trkpt lat="45.55449" lon="13.48077">
<ele>50</ele>
<time>2011-05-01T13:00:29Z</time>
</trkpt>
<trkpt lat="45.55442" lon="13.48077">
<ele>50</ele>
<time>2011-05-01T13:00:31Z</time>
</trkpt>
<trkpt lat="45.55436" lon="13.48078">
<ele>50</ele>
<time>2011-05-01T13:00:33Z</time>
</trkpt>
<trkpt lat="45.5543" lon="13.48079">
<ele>49</ele>
<time>2011-05-01T13:00:35Z</time>
</trkpt>
<trkpt lat="45.55423" lon="13.4808">
<ele>49</ele>
<time>2011-05-01T13:00:37Z</time>
</trkpt>
<trkpt lat="45.55417" lon="13.48081">
<ele>49</ele>
<time>2011-05-01T13:00:39Z</time>
</trkpt>
<trkpt lat="45.5541" lon="13.48081">
<ele>49</ele>
<time>2011-05-01T13:00:41Z</time>
</trkpt>
<trkpt lat="45.55404" lon="13.48082">
<ele>49</ele>
<time>2011-05-01T13:00:43Z</time>
</trkpt>
<trkpt lat="45.55397" lon="13.48083">
<ele>49</ele>
<time>2011-05-01T13:00:45Z</time>
</trkpt>
<trkpt lat="45.55391" lon="13.48084">
<ele>49</ele>
<time>2011-05-01T13:00:47Z</time>
</trkpt>
<trkpt lat="45.55384" lon="13.48084">
<ele>49</ele>
<time>2011-05-01T13:00:49Z</time>
</trkpt>
<trkpt lat="45.55378" lon="13.48084">
<ele>49</ele>
<time>2011-05-01T13:00:51Z</time>
</trkpt>
<trkpt lat="45.55371" lon="13.48084">
<ele>49</ele>
<time>2011-05-01T13:00:53Z</time>
</trkpt>
<trkpt lat="45.55365" lon="13.48084">
<ele>49</ele>
<time>2011-05-01T13:00:55Z</time>
</trkpt>
<trkpt lat="45.55359" lon="13.48084">
<ele>49</ele>
<time>2011-05-01T13:00:57Z</time>
</trkpt>
<trkpt lat="45.55352" lon="13.48084">
<ele>49</ele>
<time>2011-05-01T13:00:59Z</time>
</trkpt>
<trkpt lat="45.55346" lon="13.48084">
<ele>49</ele>
<time>2011-05-01T13:01:01Z</time>
</trkpt>
<trkpt lat="45.5534" lon="13.48085">
<ele>49</ele>
<time>2011-05-01T13:01:03Z</time>
</trkpt>
<trkpt lat="45.55333" lon="13.48085">
<ele>49</ele>
<time>2011-05-01T13:01:05Z</time>
</trkpt>
<trkpt lat="45.55327" lon="13.48086">
<ele>49</ele>
<time>2011-05-01T13:01:07Z</time>
</trkpt>
<trkpt lat="45.5532" lon="13.48086">
<ele>49</ele>
<time>2011-05-01T13:01:09Z</time>
</trkpt>
<trkpt lat="45.55314" lon="13.48086">
<ele>49</ele>
<time>2011-05-01T13:01:11Z</time>
</trkpt>
<trkpt lat="45.55308" lon="13.48086">
<ele>49</ele>
<time>2011-05-01T13:01:13Z</time>
</trkpt>
<trkpt lat="45.55302" lon="13.48086">
<ele>49</ele>
<time>2011-05-01T13:01:15Z</time>
</trkpt>
<trkpt lat="45.55295" lon="13.48086">
<ele>49</ele>
<time>2011-05-01T13:01:17Z</time>
</trkpt>
<trkpt lat="45.55289" lon="13.48087">
<ele>49</ele>
<time>2011-05-01T13:01:19Z</time>
</trkpt>
<trkpt lat="45.55282" lon="13.48088">
<ele>49</ele>
<time>2011-05-01T13:01:21Z</time>
</trkpt>
<trkpt lat="45.55276" lon="13.48088">
<ele>49</ele>
<time>2011-05-01T13:01:23Z</time>
</trkpt>
<trkpt lat="45.5527" lon="13.48088">
<ele>49</ele>
<time>2011-05-01T13:01:25Z</time>
</trkpt>
<trkpt lat="45.55264" lon="13.48087">
<ele>49</ele>
<time>2011-05-01T13:01:27Z</time>
</trkpt>
<trkpt lat="45.55258" lon="13.48085">
<ele>49</ele>
<time>2011-05-01T13:01:29Z</time>
</trkpt>
<trkpt lat="45.55252" lon="13.48084">
<ele>49</ele>
<time>2011-05-01T13:01:31Z</time>
</trkpt>
<trkpt lat="45.55246" lon="13.48082">
<ele>49</ele>
<time>2011-05-01T13:01:33Z</time>
</trkpt>
<trkpt lat="45.5524" lon="13.48081">
<ele>49</ele>
<time>2011-05-01T13:01:35Z</time>
</trkpt>
<trkpt lat="45.55235" lon="13.4808">
<ele>48</ele>
<time>2011-05-01T13:01:37Z</time>
</trkpt>
<trkpt lat="45.55229" lon="13.48079">
<ele>48</ele>
<time>2011-05-01T13:01:39Z</time>
</trkpt>
<trkpt lat="45.55224" lon="13.48077">
<ele>48</ele>
<time>2011-05-01T13:01:41Z</time>
</trkpt>
<trkpt lat="45.55219" lon="13.48075">
<ele>48</ele>
<time>2011-05-01T13:01:43Z</time>
</trkpt>
<trkpt lat="45.55215" lon="13.48072">
<ele>48</ele>
<time>2011-05-01T13:01:45Z</time>
</trkpt>
<trkpt lat="45.55211" lon="13.48069">
<ele>48</ele>
<time>2011-05-01T13:01:47Z</time>
</trkpt>
<trkpt lat="45.55205" lon="13.48064">
<ele>48</ele>
<time>2011-05-01T13:01:50Z</time>
</trkpt>
<trkpt lat="45.552" lon="13.4806">
<ele>48</ele>
<time>2011-05-01T13:01:53Z</time>
</trkpt>
<trkpt lat="45.55194" lon="13.48055">
<ele>48</ele>
<time>2011-05-01T13:01:56Z</time>
</trkpt>
<trkpt lat="45.55189" lon="13.48051">
<ele>48</ele>
<time>2011-05-01T13:01:59Z</time>
</trkpt>
<trkpt lat="45.55184" lon="13.48049">
<ele>48</ele>
<time>2011-05-01T13:02:02Z</time>
</trkpt>
<trkpt lat="45.55178" lon="13.48047">
<ele>48</ele>
<time>2011-05-01T13:02:05Z</time>
</trkpt>
<trkpt lat="45.55172" lon="13.48045">
<ele>48</ele>
<time>2011-05-01T13:02:08Z</time>
</trkpt>
<trkpt lat="45.55166" lon="13.48044">
<ele>48</ele>
<time>2011-05-01T13:02:11Z</time>
</trkpt>
<trkpt lat="45.5516" lon="13.48042">
<ele>48</ele>
<time>2011-05-01T13:02:14Z</time>
</trkpt>
<trkpt lat="45.55155" lon="13.4804">
<ele>48</ele>
<time>2011-05-01T13:02:16Z</time>
</trkpt>
<trkpt lat="45.5515" lon="13.48039">
<ele>48</ele>
<time>2011-05-01T13:02:18Z</time>
</trkpt>
<trkpt lat="45.55146" lon="13.48037">
<ele>48</ele>
<time>2011-05-01T13:02:20Z</time>
</trkpt>
<trkpt lat="45.55141" lon="13.48035">
<ele>48</ele>
<time>2011-05-01T13:02:22Z</time>
</trkpt>
<trkpt lat="45.55136" lon="13.48034">
<ele>48</ele>
<time>2011-05-01T13:02:24Z</time>
</trkpt>
<trkpt lat="45.55131" lon="13.48032">
<ele>48</ele>
<time>2011-05-01T13:02:26Z</time>
</trkpt>
<trkpt lat="45.55127" lon="13.4803">
<ele>48</ele>
<time>2011-05-01T13:02:28Z</time>
</trkpt>
<trkpt lat="45.55122" lon="13.48028">
<ele>48</ele>
<time>2011-05-01T13:02:30Z</time>
</trkpt>
<trkpt lat="45.55118" lon="13.48026">
<ele>48</ele>
<time>2011-05-01T13:02:32Z</time>
</trkpt>
<trkpt lat="45.55113" lon="13.48023">
<ele>48</ele>
<time>2011-05-01T13:02:34Z</time>
</trkpt>
<trkpt lat="45.55108" lon="13.4802">
<ele>48</ele>
<time>2011-05-01T13:02:36Z</time>
</trkpt>
<trkpt lat="45.55103" lon="13.48018">
<ele>48</ele>
<time>2011-05-01T13:02:38Z</time>
</trkpt>
<trkpt lat="45.55099" lon="13.48016">
<ele>48</ele>
<time>2011-05-01T13:02:40Z</time>
</trkpt>
<trkpt lat="45.55094" lon="13.48014">
<ele>48</ele>
<time>2011-05-01T13:02:42Z</time>
</trkpt>
<trkpt lat="45.5509" lon="13.48012">
<ele>48</ele>
<time>2011-05-01T13:02:44Z</time>
</trkpt>
<trkpt lat="45.55085" lon="13.4801">
<ele>48</ele>
<time>2011-05-01T13:02:46Z</time>
</trkpt>
<trkpt lat="45.5508" lon="13.48008">
<ele>48</ele>
<time>2011-05-01T13:02:48Z</time>
</trkpt>
<trkpt lat="45.55076" lon="13.48007">
<ele>48</ele>
<time>2011-05-01T13:02:50Z</time>
</trkpt>
<trkpt lat="45.55071" lon="13.48005">
<ele>48</ele>
<time>2011-05-01T13:02:52Z</time>
</trkpt>
<trkpt lat="45.55066" lon="13.48004">
<ele>48</ele>
<time>2011-05-01T13:02:54Z</time>
</trkpt>
<trkpt lat="45.55062" lon="13.48003">
<ele>48</ele>
<time>2011-05-01T13:02:56Z</time>
</trkpt>
<trkpt lat="45.55057" lon="13.48001">
<ele>48</ele>
<time>2011-05-01T13:02:58Z</time>
</trkpt>
<trkpt lat="45.55052" lon="13.47999">
<ele>48</ele>
<time>2011-05-01T13:03:00Z</time>
</trkpt>
<trkpt lat="45.55048" lon="13.47998">
<ele>48</ele>
<time>2011-05-01T13:03:02Z</time>
</trkpt>
<trkpt lat="45.55043" lon="13.47997">
<ele>48</ele>
<time>2011-05-01T13:03:04Z</time>
</trkpt>
<trkpt lat="45.55038" lon="13.47996">
<ele>48</ele>
<time>2011-05-01T13:03:06Z</time>
</trkpt>
<trkpt lat="45.55033" lon="13.47995">
<ele>48</ele>
<time>2011-05-01T13:03:08Z</time>
</trkpt>
<trkpt lat="45.55028" lon="13.47993">
<ele>48</ele>
<time>2011-05-01T13:03:10Z</time>
</trkpt>
<trkpt lat="45.55023" lon="13.47992">
<ele>48</ele>
<time>2011-05-01T13:03:12Z</time>
</trkpt>
<trkpt lat="45.55018" lon="13.47991">
<ele>48</ele>
<time>2011-05-01T13:03:14Z</time>
</trkpt>
<trkpt lat="45.55013" lon="13.47989">
<ele>48</ele>
<time>2011-05-01T13:03:16Z</time>
</trkpt>
<trkpt lat="45.55008" lon="13.47988">
<ele>48</ele>
<time>2011-05-01T13:03:18Z</time>
</trkpt>
<trkpt lat="45.55003" lon="13.47986">
<ele>48</ele>
<time>2011-05-01T13:03:20Z</time>
</trkpt>
<trkpt lat="45.54998" lon="13.47984">
<ele>48</ele>
<time>2011-05-01T13:03:22Z</time>
</trkpt>
<trkpt lat="45.54992" lon="13.47982">
<ele>48</ele>
<time>2011-05-01T13:03:24Z</time>
</trkpt>
<trkpt lat="45.54987" lon="13.4798">
<ele>48</ele>
<time>2011-05-01T13:03:26Z</time>
</trkpt>
<trkpt lat="45.54982" lon="13.47978">
<ele>48</ele>
<time>2011-05-01T13:03:28Z</time>
</trkpt>
<trkpt lat="45.54977" lon="13.47976">
<ele>48</ele>
<time>2011-05-01T13:03:30Z</time>
</trkpt>
<trkpt lat="45.54972" lon="13.47974">
<ele>48</ele>
<time>2011-05-01T13:03:32Z</time>
</trkpt>
<trkpt lat="45.54967" lon="13.47972">
<ele>48</ele>
<time>2011-05-01T13:03:34Z</time>
</trkpt>
<trkpt lat="45.54962" lon="13.4797">
<ele>48</ele>
<time>2011-05-01T13:03:36Z</time>
</trkpt>
<trkpt lat="45.54957" lon="13.47969">
<ele>48</ele>
<time>2011-05-01T13:03:38Z</time>
</trkpt>
<trkpt lat="45.54952" lon="13.47967">
<ele>48</ele>
<time>2011-05-01T13:03:40Z</time>
</trkpt>
<trkpt lat="45.54947" lon="13.47965">
<ele>48</ele>
<time>2011-05-01T13:03:42Z</time>
</trkpt>
<trkpt lat="45.54941" lon="13.47964">
<ele>48</ele>
<time>2011-05-01T13:03:44Z</time>
</trkpt>
<trkpt lat="45.54936" lon="13.47962">
<ele>48</ele>
<time>2011-05-01T13:03:46Z</time>
</trkpt>
<trkpt lat="45.54931" lon="13.4796">
<ele>48</ele>
<time>2011-05-01T13:03:48Z</time>
</trkpt>
<trkpt lat="45.54926" lon="13.47959">
<ele>48</ele>
<time>2011-05-01T13:03:50Z</time>
</trkpt>
<trkpt lat="45.54921" lon="13.47957">
<ele>48</ele>
<time>2011-05-01T13:03:52Z</time>
</trkpt>
<trkpt lat="45.54916" lon="13.47955">
<ele>48</ele>
<time>2011-05-01T13:03:54Z</time>
</trkpt>
<trkpt lat="45.54911" lon="13.47952">
<ele>48</ele>
<time>2011-05-01T13:03:56Z</time>
</trkpt>
<trkpt lat="45.54906" lon="13.4795">
<ele>48</ele>
<time>2011-05-01T13:03:58Z</time>
</trkpt>
<trkpt lat="45.54901" lon="13.47948">
<ele>48</ele>
<time>2011-05-01T13:04:00Z</time>
</trkpt>
<trkpt lat="45.54896" lon="13.47945">
<ele>48</ele>
<time>2011-05-01T13:04:02Z</time>
</trkpt>
<trkpt lat="45.54891" lon="13.47943">
<ele>48</ele>
<time>2011-05-01T13:04:04Z</time>
</trkpt>
<trkpt lat="45.54886" lon="13.47942">
<ele>48</ele>
<time>2011-05-01T13:04:06Z</time>
</trkpt>
<trkpt lat="45.54882" lon="13.4794">
<ele>48</ele>
<time>2011-05-01T13:04:08Z</time>
</trkpt>
<trkpt lat="45.54876" lon="13.47938">
<ele>48</ele>
<time>2011-05-01T13:04:10Z</time>
</trkpt>
<trkpt lat="45.54871" lon="13.47937">
<ele>48</ele>
<time>2011-05-01T13:04:12Z</time>
</trkpt>
<trkpt lat="45.54866" lon="13.47936">
<ele>48</ele>
<time>2011-05-01T13:04:14Z</time>
</trkpt>
<trkpt lat="45.54861" lon="13.47935">
<ele>48</ele>
<time>2011-05-01T13:04:16Z</time>
</trkpt>
<trkpt lat="45.54856" lon="13.47933">
<ele>48</ele>
<time>2011-05-01T13:04:18Z</time>
</trkpt>
<trkpt lat="45.5485" lon="13.47932">
<ele>48</ele>
<time>2011-05-01T13:04:20Z</time>
</trkpt>
<trkpt lat="45.54845" lon="13.4793">
<ele>48</ele>
<time>2011-05-01T13:04:22Z</time>
</trkpt>
<trkpt lat="45.5484" lon="13.47928">
<ele>48</ele>
<time>2011-05-01T13:04:24Z</time>
</trkpt>
<trkpt lat="45.54835" lon="13.47926">
<ele>48</ele>
<time>2011-05-01T13:04:26Z</time>
</trkpt>
<trkpt lat="45.5483" lon="13.47924">
<ele>48</ele>
<time>2011-05-01T13:04:28Z</time>
</trkpt>
<trkpt lat="45.54825" lon="13.47922">
<ele>47</ele>
<time>2011-05-01T13:04:30Z</time>
</trkpt>
<trkpt lat="45.5482" lon="13.47921">
<ele>47</ele>
<time>2011-05-01T13:04:32Z</time>
</trkpt>
<trkpt lat="45.54816" lon="13.47918">
<ele>47</ele>
<time>2011-05-01T13:04:34Z</time>
</trkpt>
<trkpt lat="45.54811" lon="13.47916">
<ele>47</ele>
<time>2011-05-01T13:04:36Z</time>
</trkpt>
<trkpt lat="45.54806" lon="13.47915">
<ele>47</ele>
<time>2011-05-01T13:04:38Z</time>
</trkpt>
<trkpt lat="45.54802" lon="13.47913">
<ele>47</ele>
<time>2011-05-01T13:04:40Z</time>
</trkpt>
<trkpt lat="45.54797" lon="13.47911">
<ele>47</ele>
<time>2011-05-01T13:04:42Z</time>
</trkpt>
<trkpt lat="45.54792" lon="13.47909">
<ele>47</ele>
<time>2011-05-01T13:04:44Z</time>
</trkpt>
<trkpt lat="45.54788" lon="13.47908">
<ele>47</ele>
<time>2011-05-01T13:04:46Z</time>
</trkpt>
<trkpt lat="45.54783" lon="13.47906">
<ele>47</ele>
<time>2011-05-01T13:04:48Z</time>
</trkpt>
<trkpt lat="45.54778" lon="13.47904">
<ele>47</ele>
<time>2011-05-01T13:04:50Z</time>
</trkpt>
<trkpt lat="45.54774" lon="13.47901">
<ele>47</ele>
<time>2011-05-01T13:04:52Z</time>
</trkpt>
<trkpt lat="45.54769" lon="13.47899">
<ele>47</ele>
<time>2011-05-01T13:04:54Z</time>
</trkpt>
<trkpt lat="45.54764" lon="13.47897">
<ele>47</ele>
<time>2011-05-01T13:04:56Z</time>
</trkpt>
<trkpt lat="45.54759" lon="13.47894">
<ele>47</ele>
<time>2011-05-01T13:04:58Z</time>
</trkpt>
<trkpt lat="45.54754" lon="13.47892">
<ele>47</ele>
<time>2011-05-01T13:05:00Z</time>
</trkpt>
<trkpt lat="45.5475" lon="13.4789">
<ele>48</ele>
<time>2011-05-01T13:05:02Z</time>
</trkpt>
<trkpt lat="45.54746" lon="13.47888">
<ele>48</ele>
<time>2011-05-01T13:05:04Z</time>
</trkpt>
<trkpt lat="45.54739" lon="13.47885">
<ele>48</ele>
<time>2011-05-01T13:05:07Z</time>
</trkpt>
<trkpt lat="45.54733" lon="13.47882">
<ele>48</ele>
<time>2011-05-01T13:05:10Z</time>
</trkpt>
<trkpt lat="45.54726" lon="13.4788">
<ele>48</ele>
<time>2011-05-01T13:05:13Z</time>
</trkpt>
<trkpt lat="45.5472" lon="13.47878">
<ele>48</ele>
<time>2011-05-01T13:05:16Z</time>
</trkpt>
<trkpt lat="45.54715" lon="13.47876">
<ele>48</ele>
<time>2011-05-01T13:05:18Z</time>
</trkpt>
<trkpt lat="45.5471" lon="13.47875">
<ele>48</ele>
<time>2011-05-01T13:05:20Z</time>
</trkpt>
<trkpt lat="45.54705" lon="13.47874">
<ele>48</ele>
<time>2011-05-01T13:05:22Z</time>
</trkpt>
<trkpt lat="45.547" lon="13.47873">
<ele>48</ele>
<time>2011-05-01T13:05:24Z</time>
</trkpt>
<trkpt lat="45.54695" lon="13.47871">
<ele>48</ele>
<time>2011-05-01T13:05:26Z</time>
</trkpt>
<trkpt lat="45.54689" lon="13.4787">
<ele>48</ele>
<time>2011-05-01T13:05:28Z</time>
</trkpt>
<trkpt lat="45.54684" lon="13.47868">
<ele>48</ele>
<time>2011-05-01T13:05:30Z</time>
</trkpt>
<trkpt lat="45.54678" lon="13.47867">
<ele>48</ele>
<time>2011-05-01T13:05:32Z</time>
</trkpt>
<trkpt lat="45.54673" lon="13.47866">
<ele>48</ele>
<time>2011-05-01T13:05:34Z</time>
</trkpt>
<trkpt lat="45.54667" lon="13.47865">
<ele>48</ele>
<time>2011-05-01T13:05:36Z</time>
</trkpt>
<trkpt lat="45.54662" lon="13.47865">
<ele>48</ele>
<time>2011-05-01T13:05:38Z</time>
</trkpt>
<trkpt lat="45.54656" lon="13.47866">
<ele>48</ele>
<time>2011-05-01T13:05:40Z</time>
</trkpt>
<trkpt lat="45.54651" lon="13.47867">
<ele>48</ele>
<time>2011-05-01T13:05:42Z</time>
</trkpt>
<trkpt lat="45.54645" lon="13.47868">
<ele>48</ele>
<time>2011-05-01T13:05:44Z</time>
</trkpt>
<trkpt lat="45.54639" lon="13.47869">
<ele>48</ele>
<time>2011-05-01T13:05:46Z</time>
</trkpt>
<trkpt lat="45.54634" lon="13.4787">
<ele>48</ele>
<time>2011-05-01T13:05:48Z</time>
</trkpt>
<trkpt lat="45.54628" lon="13.47872">
<ele>48</ele>
<time>2011-05-01T13:05:50Z</time>
</trkpt>
<trkpt lat="45.54622" lon="13.47873">
<ele>48</ele>
<time>2011-05-01T13:05:52Z</time>
</trkpt>
<trkpt lat="45.54615" lon="13.47874">
<ele>48</ele>
<time>2011-05-01T13:05:54Z</time>
</trkpt>
<trkpt lat="45.54609" lon="13.47876">
<ele>48</ele>
<time>2011-05-01T13:05:56Z</time>
</trkpt>
<trkpt lat="45.54603" lon="13.47877">
<ele>48</ele>
<time>2011-05-01T13:05:58Z</time>
</trkpt>
<trkpt lat="45.54597" lon="13.47878">
<ele>48</ele>
<time>2011-05-01T13:06:00Z</time>
</trkpt>
<trkpt lat="45.54591" lon="13.4788">
<ele>48</ele>
<time>2011-05-01T13:06:02Z</time>
</trkpt>
<trkpt lat="45.54585" lon="13.47881">
<ele>48</ele>
<time>2011-05-01T13:06:04Z</time>
</trkpt>
<trkpt lat="45.54579" lon="13.47883">
<ele>48</ele>
<time>2011-05-01T13:06:06Z</time>
</trkpt>
<trkpt lat="45.54573" lon="13.47883">
<ele>48</ele>
<time>2011-05-01T13:06:08Z</time>
</trkpt>
<trkpt lat="45.54567" lon="13.47884">
<ele>48</ele>
<time>2011-05-01T13:06:10Z</time>
</trkpt>
<trkpt lat="45.5456" lon="13.47884">
<ele>48</ele>
<time>2011-05-01T13:06:12Z</time>
</trkpt>
<trkpt lat="45.54554" lon="13.47884">
<ele>48</ele>
<time>2011-05-01T13:06:14Z</time>
</trkpt>
<trkpt lat="45.54548" lon="13.47883">
<ele>48</ele>
<time>2011-05-01T13:06:16Z</time>
</trkpt>
<trkpt lat="45.54541" lon="13.47882">
<ele>48</ele>
<time>2011-05-01T13:06:18Z</time>
</trkpt>
<trkpt lat="45.54535" lon="13.47881">
<ele>48</ele>
<time>2011-05-01T13:06:20Z</time>
</trkpt>
<trkpt lat="45.54529" lon="13.4788">
<ele>48</ele>
<time>2011-05-01T13:06:22Z</time>
</trkpt>
<trkpt lat="45.54523" lon="13.47878">
<ele>48</ele>
<time>2011-05-01T13:06:24Z</time>
</trkpt>
<trkpt lat="45.54517" lon="13.47877">
<ele>48</ele>
<time>2011-05-01T13:06:26Z</time>
</trkpt>
<trkpt lat="45.54512" lon="13.47875">
<ele>48</ele>
<time>2011-05-01T13:06:28Z</time>
</trkpt>
<trkpt lat="45.54506" lon="13.47873">
<ele>48</ele>
<time>2011-05-01T13:06:30Z</time>
</trkpt>
<trkpt lat="45.54501" lon="13.47871">
<ele>48</ele>
<time>2011-05-01T13:06:32Z</time>
</trkpt>
<trkpt lat="45.54496" lon="13.4787">
<ele>47</ele>
<time>2011-05-01T13:06:34Z</time>
</trkpt>
<trkpt lat="45.5449" lon="13.4787">
<ele>47</ele>
<time>2011-05-01T13:06:36Z</time>
</trkpt>
<trkpt lat="45.54485" lon="13.47869">
<ele>47</ele>
<time>2011-05-01T13:06:38Z</time>
</trkpt>
<trkpt lat="45.5448" lon="13.47868">
<ele>48</ele>
<time>2011-05-01T13:06:40Z</time>
</trkpt>
<trkpt lat="45.54474" lon="13.47867">
<ele>48</ele>
<time>2011-05-01T13:06:42Z</time>
</trkpt>
<trkpt lat="45.54469" lon="13.47866">
<ele>48</ele>
<time>2011-05-01T13:06:44Z</time>
</trkpt>
<trkpt lat="45.54463" lon="13.47864">
<ele>48</ele>
<time>2011-05-01T13:06:46Z</time>
</trkpt>
<trkpt lat="45.54458" lon="13.47863">
<ele>48</ele>
<time>2011-05-01T13:06:48Z</time>
</trkpt>
<trkpt lat="45.54453" lon="13.47861">
<ele>48</ele>
<time>2011-05-01T13:06:50Z</time>
</trkpt>
<trkpt lat="45.54447" lon="13.4786">
<ele>48</ele>
<time>2011-05-01T13:06:52Z</time>
</trkpt>
<trkpt lat="45.54442" lon="13.47858">
<ele>48</ele>
<time>2011-05-01T13:06:54Z</time>
</trkpt>
<trkpt lat="45.54436" lon="13.47857">
<ele>48</ele>
<time>2011-05-01T13:06:56Z</time>
</trkpt>
<trkpt lat="45.54431" lon="13.47856">
<ele>48</ele>
<time>2011-05-01T13:06:58Z</time>
</trkpt>
<trkpt lat="45.54426" lon="13.47855">
<ele>48</ele>
<time>2011-05-01T13:07:00Z</time>
</trkpt>
<trkpt lat="45.5442" lon="13.47854">
<ele>48</ele>
<time>2011-05-01T13:07:02Z</time>
</trkpt>
<trkpt lat="45.54415" lon="13.47853">
<ele>48</ele>
<time>2011-05-01T13:07:04Z</time>
</trkpt>
<trkpt lat="45.54409" lon="13.47853">
<ele>48</ele>
<time>2011-05-01T13:07:06Z</time>
</trkpt>
<trkpt lat="45.54404" lon="13.47852">
<ele>48</ele>
<time>2011-05-01T13:07:08Z</time>
</trkpt>
<trkpt lat="45.54399" lon="13.47851">
<ele>48</ele>
<time>2011-05-01T13:07:10Z</time>
</trkpt>
<trkpt lat="45.54393" lon="13.47851">
<ele>48</ele>
<time>2011-05-01T13:07:12Z</time>
</trkpt>
<trkpt lat="45.54388" lon="13.47851">
<ele>48</ele>
<time>2011-05-01T13:07:14Z</time>
</trkpt>
<trkpt lat="45.54382" lon="13.47851">
<ele>48</ele>
<time>2011-05-01T13:07:16Z</time>
</trkpt>
<trkpt lat="45.54377" lon="13.4785">
<ele>48</ele>
<time>2011-05-01T13:07:18Z</time>
</trkpt>
<trkpt lat="45.54371" lon="13.47851">
<ele>48</ele>
<time>2011-05-01T13:07:20Z</time>
</trkpt>
<trkpt lat="45.54365" lon="13.47851">
<ele>48</ele>
<time>2011-05-01T13:07:22Z</time>
</trkpt>
<trkpt lat="45.5436" lon="13.47851">
<ele>48</ele>
<time>2011-05-01T13:07:24Z</time>
</trkpt>
<trkpt lat="45.54354" lon="13.47852">
<ele>48</ele>
<time>2011-05-01T13:07:26Z</time>
</trkpt>
<trkpt lat="45.54348" lon="13.47853">
<ele>48</ele>
<time>2011-05-01T13:07:28Z</time>
</trkpt>
<trkpt lat="45.54342" lon="13.47854">
<ele>48</ele>
<time>2011-05-01T13:07:30Z</time>
</trkpt>
<trkpt lat="45.54336" lon="13.47856">
<ele>48</ele>
<time>2011-05-01T13:07:32Z</time>
</trkpt>
<trkpt lat="45.5433" lon="13.47858">
<ele>48</ele>
<time>2011-05-01T13:07:34Z</time>
</trkpt>
<trkpt lat="45.54324" lon="13.4786">
<ele>48</ele>
<time>2011-05-01T13:07:36Z</time>
</trkpt>
<trkpt lat="45.54318" lon="13.47863">
<ele>48</ele>
<time>2011-05-01T13:07:38Z</time>
</trkpt>
<trkpt lat="45.54312" lon="13.47866">
<ele>47</ele>
<time>2011-05-01T13:07:40Z</time>
</trkpt>
<trkpt lat="45.54306" lon="13.47869">
<ele>47</ele>
<time>2011-05-01T13:07:42Z</time>
</trkpt>
<trkpt lat="45.543" lon="13.4787">
<ele>47</ele>
<time>2011-05-01T13:07:44Z</time>
</trkpt>
<trkpt lat="45.54294" lon="13.47872">
<ele>47</ele>
<time>2011-05-01T13:07:46Z</time>
</trkpt>
<trkpt lat="45.54288" lon="13.47873">
<ele>47</ele>
<time>2011-05-01T13:07:48Z</time>
</trkpt>
<trkpt lat="45.54281" lon="13.47874">
<ele>47</ele>
<time>2011-05-01T13:07:50Z</time>
</trkpt>
<trkpt lat="45.54275" lon="13.47875">
<ele>47</ele>
<time>2011-05-01T13:07:52Z</time>
</trkpt>
<trkpt lat="45.54269" lon="13.47876">
<ele>47</ele>
<time>2011-05-01T13:07:54Z</time>
</trkpt>
<trkpt lat="45.54263" lon="13.47876">
<ele>47</ele>
<time>2011-05-01T13:07:56Z</time>
</trkpt>
<trkpt lat="45.54256" lon="13.47875">
<ele>47</ele>
<time>2011-05-01T13:07:58Z</time>
</trkpt>
<trkpt lat="45.5425" lon="13.47875">
<ele>47</ele>
<time>2011-05-01T13:08:00Z</time>
</trkpt>
<trkpt lat="45.54244" lon="13.47875">
<ele>47</ele>
<time>2011-05-01T13:08:02Z</time>
</trkpt>
<trkpt lat="45.54238" lon="13.47874">
<ele>47</ele>
<time>2011-05-01T13:08:04Z</time>
</trkpt>
<trkpt lat="45.54231" lon="13.47874">
<ele>47</ele>
<time>2011-05-01T13:08:06Z</time>
</trkpt>
<trkpt lat="45.54225" lon="13.47874">
<ele>47</ele>
<time>2011-05-01T13:08:08Z</time>
</trkpt>
<trkpt lat="45.54219" lon="13.47874">
<ele>47</ele>
<time>2011-05-01T13:08:10Z</time>
</trkpt>
<trkpt lat="45.54213" lon="13.47874">
<ele>47</ele>
<time>2011-05-01T13:08:12Z</time>
</trkpt>
<trkpt lat="45.54207" lon="13.47874">
<ele>47</ele>
<time>2011-05-01T13:08:14Z</time>
</trkpt>
<trkpt lat="45.54201" lon="13.47875">
<ele>47</ele>
<time>2011-05-01T13:08:16Z</time>
</trkpt>
<trkpt lat="45.54195" lon="13.47875">
<ele>47</ele>
<time>2011-05-01T13:08:18Z</time>
</trkpt>
<trkpt lat="45.54189" lon="13.47875">
<ele>47</ele>
<time>2011-05-01T13:08:20Z</time>
</trkpt>
<trkpt lat="45.54183" lon="13.47876">
<ele>47</ele>
<time>2011-05-01T13:08:22Z</time>
</trkpt>
<trkpt lat="45.54177" lon="13.47876">
<ele>47</ele>
<time>2011-05-01T13:08:24Z</time>
</trkpt>
<trkpt lat="45.54172" lon="13.47876">
<ele>47</ele>
<time>2011-05-01T13:08:26Z</time>
</trkpt>
<trkpt lat="45.54166" lon="13.47876">
<ele>47</ele>
<time>2011-05-01T13:08:28Z</time>
</trkpt>
<trkpt lat="45.5416" lon="13.47876">
<ele>47</ele>
<time>2011-05-01T13:08:30Z</time>
</trkpt>
<trkpt lat="45.54154" lon="13.47876">
<ele>47</ele>
<time>2011-05-01T13:08:32Z</time>
</trkpt>
<trkpt lat="45.54148" lon="13.47876">
<ele>47</ele>
<time>2011-05-01T13:08:34Z</time>
</trkpt>
<trkpt lat="45.54143" lon="13.47876">
<ele>47</ele>
<time>2011-05-01T13:08:36Z</time>
</trkpt>
<trkpt lat="45.54137" lon="13.47876">
<ele>47</ele>
<time>2011-05-01T13:08:38Z</time>
</trkpt>
<trkpt lat="45.54131" lon="13.47876">
<ele>47</ele>
<time>2011-05-01T13:08:40Z</time>
</trkpt>
<trkpt lat="45.54126" lon="13.47875">
<ele>47</ele>
<time>2011-05-01T13:08:42Z</time>
</trkpt>
<trkpt lat="45.5412" lon="13.47875">
<ele>47</ele>
<time>2011-05-01T13:08:44Z</time>
</trkpt>
<trkpt lat="45.54115" lon="13.47874">
<ele>47</ele>
<time>2011-05-01T13:08:46Z</time>
</trkpt>
<trkpt lat="45.5411" lon="13.47873">
<ele>47</ele>
<time>2011-05-01T13:08:48Z</time>
</trkpt>
<trkpt lat="45.54104" lon="13.47872">
<ele>47</ele>
<time>2011-05-01T13:08:50Z</time>
</trkpt>
<trkpt lat="45.54099" lon="13.47871">
<ele>47</ele>
<time>2011-05-01T13:08:52Z</time>
</trkpt>
<trkpt lat="45.54094" lon="13.4787">
<ele>47</ele>
<time>2011-05-01T13:08:54Z</time>
</trkpt>
<trkpt lat="45.54089" lon="13.47869">
<ele>47</ele>
<time>2011-05-01T13:08:56Z</time>
</trkpt>
<trkpt lat="45.54084" lon="13.47868">
<ele>47</ele>
<time>2011-05-01T13:08:58Z</time>
</trkpt>
<trkpt lat="45.54079" lon="13.47867">
<ele>47</ele>
<time>2011-05-01T13:09:00Z</time>
</trkpt>
<trkpt lat="45.54074" lon="13.47866">
<ele>47</ele>
<time>2011-05-01T13:09:02Z</time>
</trkpt>
<trkpt lat="45.54069" lon="13.47866">
<ele>47</ele>
<time>2011-05-01T13:09:04Z</time>
</trkpt>
<trkpt lat="45.54064" lon="13.47865">
<ele>47</ele>
<time>2011-05-01T13:09:06Z</time>
</trkpt>
<trkpt lat="45.54059" lon="13.47865">
<ele>47</ele>
<time>2011-05-01T13:09:08Z</time>
</trkpt>
<trkpt lat="45.54054" lon="13.47865">
<ele>47</ele>
<time>2011-05-01T13:09:10Z</time>
</trkpt>
<trkpt lat="45.54049" lon="13.47864">
<ele>47</ele>
<time>2011-05-01T13:09:12Z</time>
</trkpt>
<trkpt lat="45.54043" lon="13.47864">
<ele>47</ele>
<time>2011-05-01T13:09:14Z</time>
</trkpt>
<trkpt lat="45.54038" lon="13.47864">
<ele>47</ele>
<time>2011-05-01T13:09:16Z</time>
</trkpt>
<trkpt lat="45.54033" lon="13.47863">
<ele>47</ele>
<time>2011-05-01T13:09:18Z</time>
</trkpt>
<trkpt lat="45.54028" lon="13.47863">
<ele>47</ele>
<time>2011-05-01T13:09:20Z</time>
</trkpt>
<trkpt lat="45.54022" lon="13.47862">
<ele>47</ele>
<time>2011-05-01T13:09:22Z</time>
</trkpt>
<trkpt lat="45.54017" lon="13.47861">
<ele>47</ele>
<time>2011-05-01T13:09:24Z</time>
</trkpt>
<trkpt lat="45.54012" lon="13.4786">
<ele>47</ele>
<time>2011-05-01T13:09:26Z</time>
</trkpt>
<trkpt lat="45.54007" lon="13.47859">
<ele>47</ele>
<time>2011-05-01T13:09:28Z</time>
</trkpt>
<trkpt lat="45.54002" lon="13.47858">
<ele>47</ele>
<time>2011-05-01T13:09:30Z</time>
</trkpt>
<trkpt lat="45.53998" lon="13.47856">
<ele>47</ele>
<time>2011-05-01T13:09:32Z</time>
</trkpt>
<trkpt lat="45.53993" lon="13.47855">
<ele>47</ele>
<time>2011-05-01T13:09:34Z</time>
</trkpt>
<trkpt lat="45.53988" lon="13.47854">
<ele>47</ele>
<time>2011-05-01T13:09:36Z</time>
</trkpt>
<trkpt lat="45.53984" lon="13.47852">
<ele>47</ele>
<time>2011-05-01T13:09:38Z</time>
</trkpt>
<trkpt lat="45.53979" lon="13.4785">
<ele>47</ele>
<time>2011-05-01T13:09:40Z</time>
</trkpt>
<trkpt lat="45.53974" lon="13.47849">
<ele>47</ele>
<time>2011-05-01T13:09:42Z</time>
</trkpt>
<trkpt lat="45.5397" lon="13.47848">
<ele>47</ele>
<time>2011-05-01T13:09:44Z</time>
</trkpt>
<trkpt lat="45.53965" lon="13.47848">
<ele>47</ele>
<time>2011-05-01T13:09:46Z</time>
</trkpt>
<trkpt lat="45.5396" lon="13.47846">
<ele>47</ele>
<time>2011-05-01T13:09:48Z</time>
</trkpt>
<trkpt lat="45.53956" lon="13.47845">
<ele>47</ele>
<time>2011-05-01T13:09:50Z</time>
</trkpt>
<trkpt lat="45.53951" lon="13.47844">
<ele>47</ele>
<time>2011-05-01T13:09:52Z</time>
</trkpt>
<trkpt lat="45.53946" lon="13.47844">
<ele>47</ele>
<time>2011-05-01T13:09:54Z</time>
</trkpt>
<trkpt lat="45.53941" lon="13.47843">
<ele>48</ele>
<time>2011-05-01T13:09:56Z</time>
</trkpt>
<trkpt lat="45.53936" lon="13.47843">
<ele>48</ele>
<time>2011-05-01T13:09:58Z</time>
</trkpt>
<trkpt lat="45.53931" lon="13.47843">
<ele>48</ele>
<time>2011-05-01T13:10:00Z</time>
</trkpt>
<trkpt lat="45.53926" lon="13.47843">
<ele>48</ele>
<time>2011-05-01T13:10:02Z</time>
</trkpt>
<trkpt lat="45.5392" lon="13.47843">
<ele>48</ele>
<time>2011-05-01T13:10:04Z</time>
</trkpt>
<trkpt lat="45.53914" lon="13.47843">
<ele>48</ele>
<time>2011-05-01T13:10:06Z</time>
</trkpt>
<trkpt lat="45.53909" lon="13.47843">
<ele>48</ele>
<time>2011-05-01T13:10:08Z</time>
</trkpt>
<trkpt lat="45.53904" lon="13.47844">
<ele>48</ele>
<time>2011-05-01T13:10:10Z</time>
</trkpt>
<trkpt lat="45.53898" lon="13.47844">
<ele>48</ele>
<time>2011-05-01T13:10:12Z</time>
</trkpt>
<trkpt lat="45.53892" lon="13.47845">
<ele>48</ele>
<time>2011-05-01T13:10:14Z</time>
</trkpt>
<trkpt lat="45.53887" lon="13.47845">
<ele>48</ele>
<time>2011-05-01T13:10:16Z</time>
</trkpt>
<trkpt lat="45.53881" lon="13.47846">
<ele>48</ele>
<time>2011-05-01T13:10:18Z</time>
</trkpt>
<trkpt lat="45.53876" lon="13.47847">
<ele>48</ele>
<time>2011-05-01T13:10:20Z</time>
</trkpt>
<trkpt lat="45.5387" lon="13.47848">
<ele>48</ele>
<time>2011-05-01T13:10:22Z</time>
</trkpt>
<trkpt lat="45.53864" lon="13.47848">
<ele>48</ele>
<time>2011-05-01T13:10:24Z</time>
</trkpt>
<trkpt lat="45.53858" lon="13.47849">
<ele>48</ele>
<time>2011-05-01T13:10:26Z</time>
</trkpt>
<trkpt lat="45.53852" lon="13.47849">
<ele>48</ele>
<time>2011-05-01T13:10:28Z</time>
</trkpt>
<trkpt lat="45.53846" lon="13.47849">
<ele>48</ele>
<time>2011-05-01T13:10:30Z</time>
</trkpt>
<trkpt lat="45.53839" lon="13.47849">
<ele>48</ele>
<time>2011-05-01T13:10:32Z</time>
</trkpt>
<trkpt lat="45.53833" lon="13.47849">
<ele>48</ele>
<time>2011-05-01T13:10:34Z</time>
</trkpt>
<trkpt lat="45.53827" lon="13.47848">
<ele>48</ele>
<time>2011-05-01T13:10:36Z</time>
</trkpt>
<trkpt lat="45.53821" lon="13.47848">
<ele>48</ele>
<time>2011-05-01T13:10:38Z</time>
</trkpt>
<trkpt lat="45.53816" lon="13.47848">
<ele>48</ele>
<time>2011-05-01T13:10:40Z</time>
</trkpt>
<trkpt lat="45.5381" lon="13.47848">
<ele>48</ele>
<time>2011-05-01T13:10:42Z</time>
</trkpt>
<trkpt lat="45.53804" lon="13.47847">
<ele>48</ele>
<time>2011-05-01T13:10:44Z</time>
</trkpt>
<trkpt lat="45.53798" lon="13.47847">
<ele>48</ele>
<time>2011-05-01T13:10:46Z</time>
</trkpt>
<trkpt lat="45.53793" lon="13.47847">
<ele>48</ele>
<time>2011-05-01T13:10:48Z</time>
</trkpt>
<trkpt lat="45.53787" lon="13.47847">
<ele>48</ele>
<time>2011-05-01T13:10:50Z</time>
</trkpt>
<trkpt lat="45.53781" lon="13.47847">
<ele>48</ele>
<time>2011-05-01T13:10:52Z</time>
</trkpt>
<trkpt lat="45.53776" lon="13.47846">
<ele>48</ele>
<time>2011-05-01T13:10:54Z</time>
</trkpt>
<trkpt lat="45.5377" lon="13.47846">
<ele>48</ele>
<time>2011-05-01T13:10:56Z</time>
</trkpt>
<trkpt lat="45.53764" lon="13.47846">
<ele>48</ele>
<time>2011-05-01T13:10:58Z</time>
</trkpt>
<trkpt lat="45.53758" lon="13.47845">
<ele>48</ele>
<time>2011-05-01T13:11:00Z</time>
</trkpt>
<trkpt lat="45.53753" lon="13.47844">
<ele>48</ele>
<time>2011-05-01T13:11:02Z</time>
</trkpt>
<trkpt lat="45.53747" lon="13.47844">
<ele>48</ele>
<time>2011-05-01T13:11:04Z</time>
</trkpt>
<trkpt lat="45.53742" lon="13.47844">
<ele>48</ele>
<time>2011-05-01T13:11:06Z</time>
</trkpt>
<trkpt lat="45.53736" lon="13.47844">
<ele>48</ele>
<time>2011-05-01T13:11:08Z</time>
</trkpt>
<trkpt lat="45.5373" lon="13.47843">
<ele>48</ele>
<time>2011-05-01T13:11:10Z</time>
</trkpt>
<trkpt lat="45.53725" lon="13.47843">
<ele>48</ele>
<time>2011-05-01T13:11:12Z</time>
</trkpt>
<trkpt lat="45.53719" lon="13.47842">
<ele>48</ele>
<time>2011-05-01T13:11:14Z</time>
</trkpt>
<trkpt lat="45.53713" lon="13.47842">
<ele>48</ele>
<time>2011-05-01T13:11:16Z</time>
</trkpt>
<trkpt lat="45.53708" lon="13.47841">
<ele>48</ele>
<time>2011-05-01T13:11:18Z</time>
</trkpt>
<trkpt lat="45.53702" lon="13.4784">
<ele>48</ele>
<time>2011-05-01T13:11:20Z</time>
</trkpt>
<trkpt lat="45.53697" lon="13.47839">
<ele>48</ele>
<time>2011-05-01T13:11:22Z</time>
</trkpt>
<trkpt lat="45.53691" lon="13.47838">
<ele>48</ele>
<time>2011-05-01T13:11:24Z</time>
</trkpt>
<trkpt lat="45.53686" lon="13.47837">
<ele>48</ele>
<time>2011-05-01T13:11:26Z</time>
</trkpt>
<trkpt lat="45.53681" lon="13.47835">
<ele>48</ele>
<time>2011-05-01T13:11:28Z</time>
</trkpt>
<trkpt lat="45.53675" lon="13.47833">
<ele>48</ele>
<time>2011-05-01T13:11:30Z</time>
</trkpt>
<trkpt lat="45.5367" lon="13.47832">
<ele>48</ele>
<time>2011-05-01T13:11:32Z</time>
</trkpt>
<trkpt lat="45.53665" lon="13.47831">
<ele>48</ele>
<time>2011-05-01T13:11:34Z</time>
</trkpt>
<trkpt lat="45.5366" lon="13.47829">
<ele>48</ele>
<time>2011-05-01T13:11:36Z</time>
</trkpt>
<trkpt lat="45.53655" lon="13.47828">
<ele>48</ele>
<time>2011-05-01T13:11:38Z</time>
</trkpt>
<trkpt lat="45.5365" lon="13.47827">
<ele>49</ele>
<time>2011-05-01T13:11:40Z</time>
</trkpt>
<trkpt lat="45.53644" lon="13.47826">
<ele>49</ele>
<time>2011-05-01T13:11:42Z</time>
</trkpt>
<trkpt lat="45.53639" lon="13.47826">
<ele>49</ele>
<time>2011-05-01T13:11:44Z</time>
</trkpt>
<trkpt lat="45.53634" lon="13.47825">
<ele>49</ele>
<time>2011-05-01T13:11:46Z</time>
</trkpt>
<trkpt lat="45.53628" lon="13.47825">
<ele>49</ele>
<time>2011-05-01T13:11:48Z</time>
</trkpt>
<trkpt lat="45.53622" lon="13.47825">
<ele>49</ele>
<time>2011-05-01T13:11:50Z</time>
</trkpt>
<trkpt lat="45.53617" lon="13.47825">
<ele>49</ele>
<time>2011-05-01T13:11:52Z</time>
</trkpt>
<trkpt lat="45.53611" lon="13.47825">
<ele>49</ele>
<time>2011-05-01T13:11:54Z</time>
</trkpt>
<trkpt lat="45.53605" lon="13.47825">
<ele>49</ele>
<time>2011-05-01T13:11:56Z</time>
</trkpt>
<trkpt lat="45.53599" lon="13.47825">
<ele>49</ele>
<time>2011-05-01T13:11:58Z</time>
</trkpt>
<trkpt lat="45.53593" lon="13.47825">
<ele>49</ele>
<time>2011-05-01T13:12:00Z</time>
</trkpt>
<trkpt lat="45.53587" lon="13.47825">
<ele>49</ele>
<time>2011-05-01T13:12:02Z</time>
</trkpt>
<trkpt lat="45.53581" lon="13.47825">
<ele>49</ele>
<time>2011-05-01T13:12:04Z</time>
</trkpt>
<trkpt lat="45.53575" lon="13.47825">
<ele>49</ele>
<time>2011-05-01T13:12:06Z</time>
</trkpt>
<trkpt lat="45.53569" lon="13.47825">
<ele>49</ele>
<time>2011-05-01T13:12:08Z</time>
</trkpt>
<trkpt lat="45.53563" lon="13.47825">
<ele>49</ele>
<time>2011-05-01T13:12:10Z</time>
</trkpt>
<trkpt lat="45.53557" lon="13.47824">
<ele>49</ele>
<time>2011-05-01T13:12:12Z</time>
</trkpt>
<trkpt lat="45.53551" lon="13.47824">
<ele>49</ele>
<time>2011-05-01T13:12:14Z</time>
</trkpt>
<trkpt lat="45.53545" lon="13.47824">
<ele>49</ele>
<time>2011-05-01T13:12:16Z</time>
</trkpt>
<trkpt lat="45.53539" lon="13.47824">
<ele>49</ele>
<time>2011-05-01T13:12:18Z</time>
</trkpt>
<trkpt lat="45.53532" lon="13.47823">
<ele>49</ele>
<time>2011-05-01T13:12:20Z</time>
</trkpt>
<trkpt lat="45.53526" lon="13.47822">
<ele>49</ele>
<time>2011-05-01T13:12:22Z</time>
</trkpt>
<trkpt lat="45.53521" lon="13.47821">
<ele>49</ele>
<time>2011-05-01T13:12:24Z</time>
</trkpt>
<trkpt lat="45.53515" lon="13.4782">
<ele>49</ele>
<time>2011-05-01T13:12:26Z</time>
</trkpt>
<trkpt lat="45.53509" lon="13.47818">
<ele>49</ele>
<time>2011-05-01T13:12:28Z</time>
</trkpt>
<trkpt lat="45.53503" lon="13.47817">
<ele>49</ele>
<time>2011-05-01T13:12:30Z</time>
</trkpt>
<trkpt lat="45.53497" lon="13.47815">
<ele>49</ele>
<time>2011-05-01T13:12:32Z</time>
</trkpt>
<trkpt lat="45.53492" lon="13.47814">
<ele>49</ele>
<time>2011-05-01T13:12:34Z</time>
</trkpt>
<trkpt lat="45.53486" lon="13.47813">
<ele>49</ele>
<time>2011-05-01T13:12:36Z</time>
</trkpt>
<trkpt lat="45.5348" lon="13.47812">
<ele>49</ele>
<time>2011-05-01T13:12:38Z</time>
</trkpt>
<trkpt lat="45.53474" lon="13.47811">
<ele>50</ele>
<time>2011-05-01T13:12:40Z</time>
</trkpt>
<trkpt lat="45.53469" lon="13.4781">
<ele>50</ele>
<time>2011-05-01T13:12:42Z</time>
</trkpt>
<trkpt lat="45.53463" lon="13.4781">
<ele>50</ele>
<time>2011-05-01T13:12:44Z</time>
</trkpt>
<trkpt lat="45.53457" lon="13.4781">
<ele>50</ele>
<time>2011-05-01T13:12:46Z</time>
</trkpt>
<trkpt lat="45.53451" lon="13.47809">
<ele>50</ele>
<time>2011-05-01T13:12:48Z</time>
</trkpt>
<trkpt lat="45.53444" lon="13.47809">
<ele>50</ele>
<time>2011-05-01T13:12:50Z</time>
</trkpt>
<trkpt lat="45.53438" lon="13.47809">
<ele>50</ele>
<time>2011-05-01T13:12:52Z</time>
</trkpt>
<trkpt lat="45.53432" lon="13.47809">
<ele>50</ele>
<time>2011-05-01T13:12:54Z</time>
</trkpt>
<trkpt lat="45.53426" lon="13.4781">
<ele>50</ele>
<time>2011-05-01T13:12:56Z</time>
</trkpt>
<trkpt lat="45.53419" lon="13.47811">
<ele>50</ele>
<time>2011-05-01T13:12:58Z</time>
</trkpt>
<trkpt lat="45.53413" lon="13.47813">
<ele>50</ele>
<time>2011-05-01T13:13:00Z</time>
</trkpt>
<trkpt lat="45.53406" lon="13.47815">
<ele>50</ele>
<time>2011-05-01T13:13:02Z</time>
</trkpt>
<trkpt lat="45.53399" lon="13.47818">
<ele>50</ele>
<time>2011-05-01T13:13:04Z</time>
</trkpt>
<trkpt lat="45.53392" lon="13.4782">
<ele>50</ele>
<time>2011-05-01T13:13:06Z</time>
</trkpt>
<trkpt lat="45.53386" lon="13.47823">
<ele>50</ele>
<time>2011-05-01T13:13:08Z</time>
</trkpt>
<trkpt lat="45.53379" lon="13.47825">
<ele>50</ele>
<time>2011-05-01T13:13:10Z</time>
</trkpt>
<trkpt lat="45.53373" lon="13.47826">
<ele>50</ele>
<time>2011-05-01T13:13:12Z</time>
</trkpt>
<trkpt lat="45.53366" lon="13.47827">
<ele>50</ele>
<time>2011-05-01T13:13:14Z</time>
</trkpt>
<trkpt lat="45.5336" lon="13.47828">
<ele>50</ele>
<time>2011-05-01T13:13:16Z</time>
</trkpt>
<trkpt lat="45.53353" lon="13.47828">
<ele>50</ele>
<time>2011-05-01T13:13:18Z</time>
</trkpt>
<trkpt lat="45.53347" lon="13.47829">
<ele>50</ele>
<time>2011-05-01T13:13:20Z</time>
</trkpt>
<trkpt lat="45.5334" lon="13.4783">
<ele>50</ele>
<time>2011-05-01T13:13:22Z</time>
</trkpt>
<trkpt lat="45.53334" lon="13.47831">
<ele>50</ele>
<time>2011-05-01T13:13:24Z</time>
</trkpt>
<trkpt lat="45.53327" lon="13.47831">
<ele>50</ele>
<time>2011-05-01T13:13:26Z</time>
</trkpt>
<trkpt lat="45.53321" lon="13.47831">
<ele>50</ele>
<time>2011-05-01T13:13:28Z</time>
</trkpt>
<trkpt lat="45.53314" lon="13.47832">
<ele>50</ele>
<time>2011-05-01T13:13:30Z</time>
</trkpt>
<trkpt lat="45.53307" lon="13.47832">
<ele>50</ele>
<time>2011-05-01T13:13:32Z</time>
</trkpt>
<trkpt lat="45.53301" lon="13.47832">
<ele>50</ele>
<time>2011-05-01T13:13:34Z</time>
</trkpt>
<trkpt lat="45.53294" lon="13.47831">
<ele>50</ele>
<time>2011-05-01T13:13:36Z</time>
</trkpt>
<trkpt lat="45.53287" lon="13.4783">
<ele>50</ele>
<time>2011-05-01T13:13:38Z</time>
</trkpt>
<trkpt lat="45.53281" lon="13.47829">
<ele>50</ele>
<time>2011-05-01T13:13:40Z</time>
</trkpt>
<trkpt lat="45.53274" lon="13.47828">
<ele>50</ele>
<time>2011-05-01T13:13:42Z</time>
</trkpt>
<trkpt lat="45.53267" lon="13.47828">
<ele>50</ele>
<time>2011-05-01T13:13:44Z</time>
</trkpt>
<trkpt lat="45.5326" lon="13.47826">
<ele>50</ele>
<time>2011-05-01T13:13:46Z</time>
</trkpt>
<trkpt lat="45.53254" lon="13.47825">
<ele>50</ele>
<time>2011-05-01T13:13:48Z</time>
</trkpt>
<trkpt lat="45.53247" lon="13.47825">
<ele>50</ele>
<time>2011-05-01T13:13:50Z</time>
</trkpt>
<trkpt lat="45.53241" lon="13.47824">
<ele>50</ele>
<time>2011-05-01T13:13:52Z</time>
</trkpt>
<trkpt lat="45.53234" lon="13.47824">
<ele>50</ele>
<time>2011-05-01T13:13:54Z</time>
</trkpt>
<trkpt lat="45.53228" lon="13.47823">
<ele>50</ele>
<time>2011-05-01T13:13:56Z</time>
</trkpt>
<trkpt lat="45.53221" lon="13.47823">
<ele>50</ele>
<time>2011-05-01T13:13:58Z</time>
</trkpt>
<trkpt lat="45.53215" lon="13.47822">
<ele>50</ele>
<time>2011-05-01T13:14:00Z</time>
</trkpt>
<trkpt lat="45.53209" lon="13.4782">
<ele>50</ele>
<time>2011-05-01T13:14:02Z</time>
</trkpt>
<trkpt lat="45.53202" lon="13.47819">
<ele>50</ele>
<time>2011-05-01T13:14:04Z</time>
</trkpt>
<trkpt lat="45.53196" lon="13.47818">
<ele>50</ele>
<time>2011-05-01T13:14:06Z</time>
</trkpt>
<trkpt lat="45.53189" lon="13.47818">
<ele>50</ele>
<time>2011-05-01T13:14:08Z</time>
</trkpt>
<trkpt lat="45.53182" lon="13.47819">
<ele>50</ele>
<time>2011-05-01T13:14:10Z</time>
</trkpt>
<trkpt lat="45.53176" lon="13.4782">
<ele>50</ele>
<time>2011-05-01T13:14:12Z</time>
</trkpt>
<trkpt lat="45.53169" lon="13.4782">
<ele>50</ele>
<time>2011-05-01T13:14:14Z</time>
</trkpt>
<trkpt lat="45.53163" lon="13.4782">
<ele>50</ele>
<time>2011-05-01T13:14:16Z</time>
</trkpt>
<trkpt lat="45.53156" lon="13.47819">
<ele>50</ele>
<time>2011-05-01T13:14:18Z</time>
</trkpt>
<trkpt lat="45.5315" lon="13.47817">
<ele>50</ele>
<time>2011-05-01T13:14:20Z</time>
</trkpt>
<trkpt lat="45.53143" lon="13.47814">
<ele>50</ele>
<time>2011-05-01T13:14:22Z</time>
</trkpt>
<trkpt lat="45.53137" lon="13.47812">
<ele>50</ele>
<time>2011-05-01T13:14:24Z</time>
</trkpt>
<trkpt lat="45.53131" lon="13.47811">
<ele>50</ele>
<time>2011-05-01T13:14:26Z</time>
</trkpt>
<trkpt lat="45.53124" lon="13.4781">
<ele>50</ele>
<time>2011-05-01T13:14:28Z</time>
</trkpt>
<trkpt lat="45.53118" lon="13.4781">
<ele>50</ele>
<time>2011-05-01T13:14:30Z</time>
</trkpt>
<trkpt lat="45.53112" lon="13.4781">
<ele>50</ele>
<time>2011-05-01T13:14:32Z</time>
</trkpt>
<trkpt lat="45.53106" lon="13.4781">
<ele>50</ele>
<time>2011-05-01T13:14:34Z</time>
</trkpt>
<trkpt lat="45.53099" lon="13.47809">
<ele>50</ele>
<time>2011-05-01T13:14:36Z</time>
</trkpt>
<trkpt lat="45.53093" lon="13.47807">
<ele>50</ele>
<time>2011-05-01T13:14:38Z</time>
</trkpt>
<trkpt lat="45.53087" lon="13.47806">
<ele>50</ele>
<time>2011-05-01T13:14:40Z</time>
</trkpt>
<trkpt lat="45.5308" lon="13.47804">
<ele>50</ele>
<time>2011-05-01T13:14:42Z</time>
</trkpt>
<trkpt lat="45.53074" lon="13.47803">
<ele>50</ele>
<time>2011-05-01T13:14:44Z</time>
</trkpt>
<trkpt lat="45.53068" lon="13.47802">
<ele>50</ele>
<time>2011-05-01T13:14:46Z</time>
</trkpt>
<trkpt lat="45.53061" lon="13.47802">
<ele>50</ele>
<time>2011-05-01T13:14:48Z</time>
</trkpt>
<trkpt lat="45.53055" lon="13.47801">
<ele>50</ele>
<time>2011-05-01T13:14:50Z</time>
</trkpt>
<trkpt lat="45.53048" lon="13.47801">
<ele>50</ele>
<time>2011-05-01T13:14:52Z</time>
</trkpt>
<trkpt lat="45.53041" lon="13.47801">
<ele>50</ele>
<time>2011-05-01T13:14:54Z</time>
</trkpt>
<trkpt lat="45.53035" lon="13.47802">
<ele>50</ele>
<time>2011-05-01T13:14:56Z</time>
</trkpt>
<trkpt lat="45.53028" lon="13.47803">
<ele>50</ele>
<time>2011-05-01T13:14:58Z</time>
</trkpt>
<trkpt lat="45.53022" lon="13.47803">
<ele>50</ele>
<time>2011-05-01T13:15:00Z</time>
</trkpt>
<trkpt lat="45.53015" lon="13.47804">
<ele>50</ele>
<time>2011-05-01T13:15:02Z</time>
</trkpt>
<trkpt lat="45.53008" lon="13.47806">
<ele>50</ele>
<time>2011-05-01T13:15:04Z</time>
</trkpt>
<trkpt lat="45.53001" lon="13.47808">
<ele>50</ele>
<time>2011-05-01T13:15:06Z</time>
</trkpt>
<trkpt lat="45.52995" lon="13.47811">
<ele>50</ele>
<time>2011-05-01T13:15:08Z</time>
</trkpt>
<trkpt lat="45.52988" lon="13.47814">
<ele>50</ele>
<time>2011-05-01T13:15:10Z</time>
</trkpt>
<trkpt lat="45.52982" lon="13.47817">
<ele>50</ele>
<time>2011-05-01T13:15:12Z</time>
</trkpt>
<trkpt lat="45.52975" lon="13.47819">
<ele>50</ele>
<time>2011-05-01T13:15:14Z</time>
</trkpt>
<trkpt lat="45.52969" lon="13.47821">
<ele>50</ele>
<time>2011-05-01T13:15:16Z</time>
</trkpt>
<trkpt lat="45.52962" lon="13.47822">
<ele>50</ele>
<time>2011-05-01T13:15:18Z</time>
</trkpt>
<trkpt lat="45.52955" lon="13.47823">
<ele>50</ele>
<time>2011-05-01T13:15:20Z</time>
</trkpt>
<trkpt lat="45.52949" lon="13.47824">
<ele>50</ele>
<time>2011-05-01T13:15:22Z</time>
</trkpt>
<trkpt lat="45.52942" lon="13.47825">
<ele>50</ele>
<time>2011-05-01T13:15:24Z</time>
</trkpt>
<trkpt lat="45.52935" lon="13.47826">
<ele>50</ele>
<time>2011-05-01T13:15:26Z</time>
</trkpt>
<trkpt lat="45.52928" lon="13.47826">
<ele>49</ele>
<time>2011-05-01T13:15:28Z</time>
</trkpt>
<trkpt lat="45.52922" lon="13.47826">
<ele>49</ele>
<time>2011-05-01T13:15:30Z</time>
</trkpt>
<trkpt lat="45.52915" lon="13.47826">
<ele>49</ele>
<time>2011-05-01T13:15:32Z</time>
</trkpt>
<trkpt lat="45.52908" lon="13.47825">
<ele>49</ele>
<time>2011-05-01T13:15:34Z</time>
</trkpt>
<trkpt lat="45.52901" lon="13.47824">
<ele>49</ele>
<time>2011-05-01T13:15:36Z</time>
</trkpt>
<trkpt lat="45.52894" lon="13.47823">
<ele>49</ele>
<time>2011-05-01T13:15:38Z</time>
</trkpt>
<trkpt lat="45.52888" lon="13.47822">
<ele>49</ele>
<time>2011-05-01T13:15:40Z</time>
</trkpt>
<trkpt lat="45.52881" lon="13.47821">
<ele>49</ele>
<time>2011-05-01T13:15:42Z</time>
</trkpt>
<trkpt lat="45.52875" lon="13.47821">
<ele>49</ele>
<time>2011-05-01T13:15:44Z</time>
</trkpt>
<trkpt lat="45.52868" lon="13.47821">
<ele>48</ele>
<time>2011-05-01T13:15:46Z</time>
</trkpt>
<trkpt lat="45.52861" lon="13.47822">
<ele>48</ele>
<time>2011-05-01T13:15:48Z</time>
</trkpt>
<trkpt lat="45.52855" lon="13.47821">
<ele>48</ele>
<time>2011-05-01T13:15:50Z</time>
</trkpt>
<trkpt lat="45.52848" lon="13.47821">
<ele>48</ele>
<time>2011-05-01T13:15:52Z</time>
</trkpt>
<trkpt lat="45.52842" lon="13.47822">
<ele>48</ele>
<time>2011-05-01T13:15:54Z</time>
</trkpt>
<trkpt lat="45.52835" lon="13.47822">
<ele>48</ele>
<time>2011-05-01T13:15:56Z</time>
</trkpt>
<trkpt lat="45.52828" lon="13.47823">
<ele>48</ele>
<time>2011-05-01T13:15:58Z</time>
</trkpt>
<trkpt lat="45.52821" lon="13.47823">
<ele>48</ele>
<time>2011-05-01T13:16:00Z</time>
</trkpt>
<trkpt lat="45.52814" lon="13.47822">
<ele>48</ele>
<time>2011-05-01T13:16:02Z</time>
</trkpt>
<trkpt lat="45.52808" lon="13.47823">
<ele>48</ele>
<time>2011-05-01T13:16:04Z</time>
</trkpt>
<trkpt lat="45.52801" lon="13.47823">
<ele>48</ele>
<time>2011-05-01T13:16:06Z</time>
</trkpt>
<trkpt lat="45.52794" lon="13.47823">
<ele>48</ele>
<time>2011-05-01T13:16:08Z</time>
</trkpt>
<trkpt lat="45.52788" lon="13.47823">
<ele>48</ele>
<time>2011-05-01T13:16:10Z</time>
</trkpt>
<trkpt lat="45.52781" lon="13.47822">
<ele>48</ele>
<time>2011-05-01T13:16:12Z</time>
</trkpt>
<trkpt lat="45.52774" lon="13.47822">
<ele>48</ele>
<time>2011-05-01T13:16:14Z</time>
</trkpt>
<trkpt lat="45.52767" lon="13.47821">
<ele>48</ele>
<time>2011-05-01T13:16:16Z</time>
</trkpt>
<trkpt lat="45.5276" lon="13.4782">
<ele>47</ele>
<time>2011-05-01T13:16:18Z</time>
</trkpt>
<trkpt lat="45.52754" lon="13.47818">
<ele>47</ele>
<time>2011-05-01T13:16:20Z</time>
</trkpt>
<trkpt lat="45.52747" lon="13.47816">
<ele>47</ele>
<time>2011-05-01T13:16:22Z</time>
</trkpt>
<trkpt lat="45.5274" lon="13.47815">
<ele>47</ele>
<time>2011-05-01T13:16:24Z</time>
</trkpt>
<trkpt lat="45.52734" lon="13.47814">
<ele>47</ele>
<time>2011-05-01T13:16:26Z</time>
</trkpt>
<trkpt lat="45.52728" lon="13.47813">
<ele>47</ele>
<time>2011-05-01T13:16:28Z</time>
</trkpt>
<trkpt lat="45.52721" lon="13.47812">
<ele>47</ele>
<time>2011-05-01T13:16:30Z</time>
</trkpt>
<trkpt lat="45.52715" lon="13.47811">
<ele>47</ele>
<time>2011-05-01T13:16:32Z</time>
</trkpt>
<trkpt lat="45.52709" lon="13.4781">
<ele>47</ele>
<time>2011-05-01T13:16:34Z</time>
</trkpt>
<trkpt lat="45.52703" lon="13.47809">
<ele>47</ele>
<time>2011-05-01T13:16:36Z</time>
</trkpt>
<trkpt lat="45.52696" lon="13.47808">
<ele>47</ele>
<time>2011-05-01T13:16:38Z</time>
</trkpt>
<trkpt lat="45.5269" lon="13.47806">
<ele>47</ele>
<time>2011-05-01T13:16:40Z</time>
</trkpt>
<trkpt lat="45.52684" lon="13.47805">
<ele>47</ele>
<time>2011-05-01T13:16:42Z</time>
</trkpt>
<trkpt lat="45.52677" lon="13.47804">
<ele>47</ele>
<time>2011-05-01T13:16:44Z</time>
</trkpt>
<trkpt lat="45.52671" lon="13.47804">
<ele>47</ele>
<time>2011-05-01T13:16:46Z</time>
</trkpt>
<trkpt lat="45.52665" lon="13.47803">
<ele>47</ele>
<time>2011-05-01T13:16:48Z</time>
</trkpt>
<trkpt lat="45.52658" lon="13.47802">
<ele>47</ele>
<time>2011-05-01T13:16:50Z</time>
</trkpt>
<trkpt lat="45.52652" lon="13.47801">
<ele>48</ele>
<time>2011-05-01T13:16:52Z</time>
</trkpt>
<trkpt lat="45.52646" lon="13.478">
<ele>48</ele>
<time>2011-05-01T13:16:54Z</time>
</trkpt>
<trkpt lat="45.5264" lon="13.47799">
<ele>48</ele>
<time>2011-05-01T13:16:56Z</time>
</trkpt>
<trkpt lat="45.52633" lon="13.47798">
<ele>48</ele>
<time>2011-05-01T13:16:58Z</time>
</trkpt>
<trkpt lat="45.52627" lon="13.47797">
<ele>48</ele>
<time>2011-05-01T13:17:00Z</time>
</trkpt>
<trkpt lat="45.52621" lon="13.47797">
<ele>48</ele>
<time>2011-05-01T13:17:02Z</time>
</trkpt>
<trkpt lat="45.52614" lon="13.47796">
<ele>48</ele>
<time>2011-05-01T13:17:04Z</time>
</trkpt>
<trkpt lat="45.52608" lon="13.47796">
<ele>48</ele>
<time>2011-05-01T13:17:06Z</time>
</trkpt>
<trkpt lat="45.52602" lon="13.47795">
<ele>47</ele>
<time>2011-05-01T13:17:08Z</time>
</trkpt>
<trkpt lat="45.52595" lon="13.47795">
<ele>47</ele>
<time>2011-05-01T13:17:10Z</time>
</trkpt>
<trkpt lat="45.52588" lon="13.47794">
<ele>47</ele>
<time>2011-05-01T13:17:12Z</time>
</trkpt>
<trkpt lat="45.52582" lon="13.47794">
<ele>47</ele>
<time>2011-05-01T13:17:14Z</time>
</trkpt>
<trkpt lat="45.52575" lon="13.47794">
<ele>47</ele>
<time>2011-05-01T13:17:16Z</time>
</trkpt>
<trkpt lat="45.52569" lon="13.47794">
<ele>47</ele>
<time>2011-05-01T13:17:18Z</time>
</trkpt>
<trkpt lat="45.52562" lon="13.47794">
<ele>47</ele>
<time>2011-05-01T13:17:20Z</time>
</trkpt>
<trkpt lat="45.52556" lon="13.47795">
<ele>47</ele>
<time>2011-05-01T13:17:22Z</time>
</trkpt>
<trkpt lat="45.5255" lon="13.47796">
<ele>47</ele>
<time>2011-05-01T13:17:24Z</time>
</trkpt>
<trkpt lat="45.52543" lon="13.47796">
<ele>47</ele>
<time>2011-05-01T13:17:26Z</time>
</trkpt>
<trkpt lat="45.52537" lon="13.47796">
<ele>48</ele>
<time>2011-05-01T13:17:28Z</time>
</trkpt>
<trkpt lat="45.5253" lon="13.47796">
<ele>48</ele>
<time>2011-05-01T13:17:30Z</time>
</trkpt>
<trkpt lat="45.52524" lon="13.47796">
<ele>48</ele>
<time>2011-05-01T13:17:32Z</time>
</trkpt>
<trkpt lat="45.52517" lon="13.47796">
<ele>48</ele>
<time>2011-05-01T13:17:34Z</time>
</trkpt>
<trkpt lat="45.52511" lon="13.47797">
<ele>48</ele>
<time>2011-05-01T13:17:36Z</time>
</trkpt>
<trkpt lat="45.52505" lon="13.47798">
<ele>48</ele>
<time>2011-05-01T13:17:38Z</time>
</trkpt>
<trkpt lat="45.52498" lon="13.47798">
<ele>48</ele>
<time>2011-05-01T13:17:40Z</time>
</trkpt>
<trkpt lat="45.52492" lon="13.47797">
<ele>48</ele>
<time>2011-05-01T13:17:42Z</time>
</trkpt>
<trkpt lat="45.52486" lon="13.47797">
<ele>48</ele>
<time>2011-05-01T13:17:44Z</time>
</trkpt>
<trkpt lat="45.52479" lon="13.47796">
<ele>48</ele>
<time>2011-05-01T13:17:46Z</time>
</trkpt>
<trkpt lat="45.52472" lon="13.47796">
<ele>48</ele>
<time>2011-05-01T13:17:48Z</time>
</trkpt>
<trkpt lat="45.52466" lon="13.47795">
<ele>48</ele>
<time>2011-05-01T13:17:50Z</time>
</trkpt>
<trkpt lat="45.5246" lon="13.47794">
<ele>48</ele>
<time>2011-05-01T13:17:52Z</time>
</trkpt>
<trkpt lat="45.52454" lon="13.47793">
<ele>48</ele>
<time>2011-05-01T13:17:54Z</time>
</trkpt>
<trkpt lat="45.52447" lon="13.47792">
<ele>48</ele>
<time>2011-05-01T13:17:56Z</time>
</trkpt>
<trkpt lat="45.52441" lon="13.47791">
<ele>48</ele>
<time>2011-05-01T13:17:58Z</time>
</trkpt>
<trkpt lat="45.52435" lon="13.4779">
<ele>48</ele>
<time>2011-05-01T13:18:00Z</time>
</trkpt>
<trkpt lat="45.52428" lon="13.47789">
<ele>48</ele>
<time>2011-05-01T13:18:02Z</time>
</trkpt>
<trkpt lat="45.52422" lon="13.47788">
<ele>48</ele>
<time>2011-05-01T13:18:04Z</time>
</trkpt>
<trkpt lat="45.52416" lon="13.47786">
<ele>48</ele>
<time>2011-05-01T13:18:06Z</time>
</trkpt>
<trkpt lat="45.5241" lon="13.47786">
<ele>48</ele>
<time>2011-05-01T13:18:08Z</time>
</trkpt>
<trkpt lat="45.52404" lon="13.47785">
<ele>48</ele>
<time>2011-05-01T13:18:10Z</time>
</trkpt>
<trkpt lat="45.52398" lon="13.47784">
<ele>48</ele>
<time>2011-05-01T13:18:12Z</time>
</trkpt>
<trkpt lat="45.52392" lon="13.47783">
<ele>48</ele>
<time>2011-05-01T13:18:14Z</time>
</trkpt>
<trkpt lat="45.52386" lon="13.47783">
<ele>48</ele>
<time>2011-05-01T13:18:16Z</time>
</trkpt>
<trkpt lat="45.5238" lon="13.47783">
<ele>48</ele>
<time>2011-05-01T13:18:18Z</time>
</trkpt>
<trkpt lat="45.52373" lon="13.47783">
<ele>48</ele>
<time>2011-05-01T13:18:20Z</time>
</trkpt>
<trkpt lat="45.52367" lon="13.47782">
<ele>48</ele>
<time>2011-05-01T13:18:22Z</time>
</trkpt>
<trkpt lat="45.52361" lon="13.47782">
<ele>48</ele>
<time>2011-05-01T13:18:24Z</time>
</trkpt>
<trkpt lat="45.52355" lon="13.47781">
<ele>48</ele>
<time>2011-05-01T13:18:26Z</time>
</trkpt>
<trkpt lat="45.52348" lon="13.4778">
<ele>48</ele>
<time>2011-05-01T13:18:28Z</time>
</trkpt>
<trkpt lat="45.52342" lon="13.4778">
<ele>48</ele>
<time>2011-05-01T13:18:30Z</time>
</trkpt>
<trkpt lat="45.52336" lon="13.4778">
<ele>48</ele>
<time>2011-05-01T13:18:32Z</time>
</trkpt>
<trkpt lat="45.5233" lon="13.47779">
<ele>48</ele>
<time>2011-05-01T13:18:34Z</time>
</trkpt>
<trkpt lat="45.52324" lon="13.47779">
<ele>48</ele>
<time>2011-05-01T13:18:36Z</time>
</trkpt>
<trkpt lat="45.52318" lon="13.47778">
<ele>48</ele>
<time>2011-05-01T13:18:38Z</time>
</trkpt>
<trkpt lat="45.52311" lon="13.47777">
<ele>48</ele>
<time>2011-05-01T13:18:40Z</time>
</trkpt>
<trkpt lat="45.52305" lon="13.47776">
<ele>48</ele>
<time>2011-05-01T13:18:42Z</time>
</trkpt>
<trkpt lat="45.523" lon="13.47776">
<ele>48</ele>
<time>2011-05-01T13:18:44Z</time>
</trkpt>
<trkpt lat="45.52294" lon="13.47775">
<ele>48</ele>
<time>2011-05-01T13:18:46Z</time>
</trkpt>
<trkpt lat="45.52288" lon="13.47774">
<ele>48</ele>
<time>2011-05-01T13:18:48Z</time>
</trkpt>
<trkpt lat="45.52282" lon="13.47773">
<ele>48</ele>
<time>2011-05-01T13:18:50Z</time>
</trkpt>
<trkpt lat="45.52276" lon="13.47772">
<ele>48</ele>
<time>2011-05-01T13:18:52Z</time>
</trkpt>
<trkpt lat="45.5227" lon="13.47772">
<ele>48</ele>
<time>2011-05-01T13:18:54Z</time>
</trkpt>
<trkpt lat="45.52263" lon="13.47772">
<ele>48</ele>
<time>2011-05-01T13:18:56Z</time>
</trkpt>
<trkpt lat="45.52257" lon="13.47771">
<ele>48</ele>
<time>2011-05-01T13:18:58Z</time>
</trkpt>
<trkpt lat="45.52251" lon="13.47771">
<ele>48</ele>
<time>2011-05-01T13:19:00Z</time>
</trkpt>
<trkpt lat="45.52245" lon="13.47771">
<ele>48</ele>
<time>2011-05-01T13:19:02Z</time>
</trkpt>
<trkpt lat="45.52239" lon="13.4777">
<ele>48</ele>
<time>2011-05-01T13:19:04Z</time>
</trkpt>
<trkpt lat="45.52233" lon="13.4777">
<ele>48</ele>
<time>2011-05-01T13:19:06Z</time>
</trkpt>
<trkpt lat="45.52226" lon="13.4777">
<ele>48</ele>
<time>2011-05-01T13:19:08Z</time>
</trkpt>
<trkpt lat="45.5222" lon="13.4777">
<ele>48</ele>
<time>2011-05-01T13:19:10Z</time>
</trkpt>
<trkpt lat="45.52214" lon="13.4777">
<ele>48</ele>
<time>2011-05-01T13:19:12Z</time>
</trkpt>
<trkpt lat="45.52207" lon="13.47769">
<ele>48</ele>
<time>2011-05-01T13:19:14Z</time>
</trkpt>
<trkpt lat="45.522" lon="13.47769">
<ele>48</ele>
<time>2011-05-01T13:19:16Z</time>
</trkpt>
<trkpt lat="45.52194" lon="13.47769">
<ele>48</ele>
<time>2011-05-01T13:19:18Z</time>
</trkpt>
<trkpt lat="45.52187" lon="13.47769">
<ele>48</ele>
<time>2011-05-01T13:19:20Z</time>
</trkpt>
<trkpt lat="45.5218" lon="13.47768">
<ele>48</ele>
<time>2011-05-01T13:19:22Z</time>
</trkpt>
<trkpt lat="45.52174" lon="13.47768">
<ele>48</ele>
<time>2011-05-01T13:19:24Z</time>
</trkpt>
<trkpt lat="45.52167" lon="13.47768">
<ele>48</ele>
<time>2011-05-01T13:19:26Z</time>
</trkpt>
<trkpt lat="45.52161" lon="13.47768">
<ele>48</ele>
<time>2011-05-01T13:19:28Z</time>
</trkpt>
<trkpt lat="45.52154" lon="13.47768">
<ele>48</ele>
<time>2011-05-01T13:19:30Z</time>
</trkpt>
<trkpt lat="45.52148" lon="13.47767">
<ele>48</ele>
<time>2011-05-01T13:19:32Z</time>
</trkpt>
<trkpt lat="45.52141" lon="13.47766">
<ele>48</ele>
<time>2011-05-01T13:19:34Z</time>
</trkpt>
<trkpt lat="45.52134" lon="13.47765">
<ele>48</ele>
<time>2011-05-01T13:19:36Z</time>
</trkpt>
<trkpt lat="45.52128" lon="13.47764">
<ele>48</ele>
<time>2011-05-01T13:19:38Z</time>
</trkpt>
<trkpt lat="45.52122" lon="13.47763">
<ele>48</ele>
<time>2011-05-01T13:19:40Z</time>
</trkpt>
<trkpt lat="45.52115" lon="13.47762">
<ele>48</ele>
<time>2011-05-01T13:19:42Z</time>
</trkpt>
<trkpt lat="45.52109" lon="13.47762">
<ele>48</ele>
<time>2011-05-01T13:19:44Z</time>
</trkpt>
<trkpt lat="45.52102" lon="13.47761">
<ele>48</ele>
<time>2011-05-01T13:19:46Z</time>
</trkpt>
<trkpt lat="45.52096" lon="13.4776">
<ele>48</ele>
<time>2011-05-01T13:19:48Z</time>
</trkpt>
<trkpt lat="45.5209" lon="13.4776">
<ele>48</ele>
<time>2011-05-01T13:19:50Z</time>
</trkpt>
<trkpt lat="45.52084" lon="13.47759">
<ele>48</ele>
<time>2011-05-01T13:19:52Z</time>
</trkpt>
<trkpt lat="45.52077" lon="13.47758">
<ele>48</ele>
<time>2011-05-01T13:19:54Z</time>
</trkpt>
<trkpt lat="45.52071" lon="13.47757">
<ele>48</ele>
<time>2011-05-01T13:19:56Z</time>
</trkpt>
<trkpt lat="45.52065" lon="13.47755">
<ele>48</ele>
<time>2011-05-01T13:19:58Z</time>
</trkpt>
<trkpt lat="45.52058" lon="13.47754">
<ele>48</ele>
<time>2011-05-01T13:20:00Z</time>
</trkpt>
<trkpt lat="45.52052" lon="13.47753">
<ele>48</ele>
<time>2011-05-01T13:20:02Z</time>
</trkpt>
<trkpt lat="45.52046" lon="13.47751">
<ele>48</ele>
<time>2011-05-01T13:20:04Z</time>
</trkpt>
<trkpt lat="45.52039" lon="13.4775">
<ele>48</ele>
<time>2011-05-01T13:20:06Z</time>
</trkpt>
<trkpt lat="45.52033" lon="13.47748">
<ele>48</ele>
<time>2011-05-01T13:20:08Z</time>
</trkpt>
<trkpt lat="45.52027" lon="13.47747">
<ele>48</ele>
<time>2011-05-01T13:20:10Z</time>
</trkpt>
<trkpt lat="45.52021" lon="13.47745">
<ele>48</ele>
<time>2011-05-01T13:20:12Z</time>
</trkpt>
<trkpt lat="45.52015" lon="13.47743">
<ele>48</ele>
<time>2011-05-01T13:20:14Z</time>
</trkpt>
<trkpt lat="45.52009" lon="13.47742">
<ele>48</ele>
<time>2011-05-01T13:20:16Z</time>
</trkpt>
<trkpt lat="45.52003" lon="13.4774">
<ele>48</ele>
<time>2011-05-01T13:20:18Z</time>
</trkpt>
<trkpt lat="45.51997" lon="13.47738">
<ele>48</ele>
<time>2011-05-01T13:20:20Z</time>
</trkpt>
<trkpt lat="45.51991" lon="13.47736">
<ele>48</ele>
<time>2011-05-01T13:20:22Z</time>
</trkpt>
<trkpt lat="45.51985" lon="13.47734">
<ele>48</ele>
<time>2011-05-01T13:20:24Z</time>
</trkpt>
<trkpt lat="45.51979" lon="13.47733">
<ele>48</ele>
<time>2011-05-01T13:20:26Z</time>
</trkpt>
<trkpt lat="45.51974" lon="13.47732">
<ele>48</ele>
<time>2011-05-01T13:20:28Z</time>
</trkpt>
<trkpt lat="45.51968" lon="13.47732">
<ele>48</ele>
<time>2011-05-01T13:20:30Z</time>
</trkpt>
<trkpt lat="45.51961" lon="13.47731">
<ele>48</ele>
<time>2011-05-01T13:20:32Z</time>
</trkpt>
<trkpt lat="45.51955" lon="13.47731">
<ele>49</ele>
<time>2011-05-01T13:20:34Z</time>
</trkpt>
<trkpt lat="45.51949" lon="13.47731">
<ele>49</ele>
<time>2011-05-01T13:20:36Z</time>
</trkpt>
<trkpt lat="45.51943" lon="13.47732">
<ele>49</ele>
<time>2011-05-01T13:20:38Z</time>
</trkpt>
<trkpt lat="45.51936" lon="13.47732">
<ele>49</ele>
<time>2011-05-01T13:20:40Z</time>
</trkpt>
<trkpt lat="45.5193" lon="13.47733">
<ele>49</ele>
<time>2011-05-01T13:20:42Z</time>
</trkpt>
<trkpt lat="45.51923" lon="13.47733">
<ele>49</ele>
<time>2011-05-01T13:20:44Z</time>
</trkpt>
<trkpt lat="45.51917" lon="13.47734">
<ele>49</ele>
<time>2011-05-01T13:20:46Z</time>
</trkpt>
<trkpt lat="45.5191" lon="13.47734">
<ele>49</ele>
<time>2011-05-01T13:20:48Z</time>
</trkpt>
<trkpt lat="45.51904" lon="13.47735">
<ele>49</ele>
<time>2011-05-01T13:20:50Z</time>
</trkpt>
<trkpt lat="45.51897" lon="13.47736">
<ele>49</ele>
<time>2011-05-01T13:20:52Z</time>
</trkpt>
<trkpt lat="45.51891" lon="13.47738">
<ele>49</ele>
<time>2011-05-01T13:20:54Z</time>
</trkpt>
<trkpt lat="45.51884" lon="13.47738">
<ele>49</ele>
<time>2011-05-01T13:20:56Z</time>
</trkpt>
<trkpt lat="45.51877" lon="13.47739">
<ele>49</ele>
<time>2011-05-01T13:20:58Z</time>
</trkpt>
<trkpt lat="45.51871" lon="13.47739">
<ele>49</ele>
<time>2011-05-01T13:21:00Z</time>
</trkpt>
<trkpt lat="45.51864" lon="13.4774">
<ele>49</ele>
<time>2011-05-01T13:21:02Z</time>
</trkpt>
<trkpt lat="45.51857" lon="13.4774">
<ele>49</ele>
<time>2011-05-01T13:21:04Z</time>
</trkpt>
<trkpt lat="45.5185" lon="13.4774">
<ele>49</ele>
<time>2011-05-01T13:21:06Z</time>
</trkpt>
<trkpt lat="45.51844" lon="13.4774">
<ele>49</ele>
<time>2011-05-01T13:21:08Z</time>
</trkpt>
<trkpt lat="45.51837" lon="13.47739">
<ele>49</ele>
<time>2011-05-01T13:21:10Z</time>
</trkpt>
<trkpt lat="45.5183" lon="13.47737">
<ele>49</ele>
<time>2011-05-01T13:21:12Z</time>
</trkpt>
<trkpt lat="45.51823" lon="13.47736">
<ele>49</ele>
<time>2011-05-01T13:21:14Z</time>
</trkpt>
<trkpt lat="45.51816" lon="13.47735">
<ele>49</ele>
<time>2011-05-01T13:21:16Z</time>
</trkpt>
<trkpt lat="45.5181" lon="13.47735">
<ele>49</ele>
<time>2011-05-01T13:21:18Z</time>
</trkpt>
<trkpt lat="45.51803" lon="13.47734">
<ele>49</ele>
<time>2011-05-01T13:21:20Z</time>
</trkpt>
<trkpt lat="45.51796" lon="13.47733">
<ele>49</ele>
<time>2011-05-01T13:21:22Z</time>
</trkpt>
<trkpt lat="45.51789" lon="13.47731">
<ele>49</ele>
<time>2011-05-01T13:21:24Z</time>
</trkpt>
<trkpt lat="45.51782" lon="13.4773">
<ele>49</ele>
<time>2011-05-01T13:21:26Z</time>
</trkpt>
<trkpt lat="45.51775" lon="13.47729">
<ele>49</ele>
<time>2011-05-01T13:21:28Z</time>
</trkpt>
<trkpt lat="45.51769" lon="13.47729">
<ele>49</ele>
<time>2011-05-01T13:21:30Z</time>
</trkpt>
<trkpt lat="45.51762" lon="13.47729">
<ele>49</ele>
<time>2011-05-01T13:21:32Z</time>
</trkpt>
<trkpt lat="45.51755" lon="13.4773">
<ele>50</ele>
<time>2011-05-01T13:21:34Z</time>
</trkpt>
<trkpt lat="45.51748" lon="13.4773">
<ele>50</ele>
<time>2011-05-01T13:21:36Z</time>
</trkpt>
<trkpt lat="45.51742" lon="13.47732">
<ele>50</ele>
<time>2011-05-01T13:21:38Z</time>
</trkpt>
<trkpt lat="45.51735" lon="13.47733">
<ele>50</ele>
<time>2011-05-01T13:21:40Z</time>
</trkpt>
<trkpt lat="45.51729" lon="13.47734">
<ele>50</ele>
<time>2011-05-01T13:21:42Z</time>
</trkpt>
<trkpt lat="45.51722" lon="13.47735">
<ele>50</ele>
<time>2011-05-01T13:21:44Z</time>
</trkpt>
<trkpt lat="45.51715" lon="13.47736">
<ele>50</ele>
<time>2011-05-01T13:21:46Z</time>
</trkpt>
<trkpt lat="45.51708" lon="13.47737">
<ele>50</ele>
<time>2011-05-01T13:21:48Z</time>
</trkpt>
<trkpt lat="45.51702" lon="13.47738">
<ele>50</ele>
<time>2011-05-01T13:21:50Z</time>
</trkpt>
<trkpt lat="45.51695" lon="13.47739">
<ele>50</ele>
<time>2011-05-01T13:21:52Z</time>
</trkpt>
<trkpt lat="45.51688" lon="13.47739">
<ele>50</ele>
<time>2011-05-01T13:21:54Z</time>
</trkpt>
<trkpt lat="45.51681" lon="13.47739">
<ele>50</ele>
<time>2011-05-01T13:21:56Z</time>
</trkpt>
<trkpt lat="45.51674" lon="13.47739">
<ele>50</ele>
<time>2011-05-01T13:21:58Z</time>
</trkpt>
<trkpt lat="45.51668" lon="13.47739">
<ele>50</ele>
<time>2011-05-01T13:22:00Z</time>
</trkpt>
<trkpt lat="45.5166" lon="13.47738">
<ele>50</ele>
<time>2011-05-01T13:22:02Z</time>
</trkpt>
<trkpt lat="45.51654" lon="13.47738">
<ele>50</ele>
<time>2011-05-01T13:22:04Z</time>
</trkpt>
<trkpt lat="45.51646" lon="13.47737">
<ele>50</ele>
<time>2011-05-01T13:22:06Z</time>
</trkpt>
<trkpt lat="45.51639" lon="13.47737">
<ele>50</ele>
<time>2011-05-01T13:22:08Z</time>
</trkpt>
<trkpt lat="45.51632" lon="13.47737">
<ele>50</ele>
<time>2011-05-01T13:22:10Z</time>
</trkpt>
<trkpt lat="45.51626" lon="13.47737">
<ele>50</ele>
<time>2011-05-01T13:22:12Z</time>
</trkpt>
<trkpt lat="45.51619" lon="13.47737">
<ele>50</ele>
<time>2011-05-01T13:22:14Z</time>
</trkpt>
<trkpt lat="45.51612" lon="13.47736">
<ele>50</ele>
<time>2011-05-01T13:22:16Z</time>
</trkpt>
<trkpt lat="45.51605" lon="13.47736">
<ele>50</ele>
<time>2011-05-01T13:22:18Z</time>
</trkpt>
<trkpt lat="45.51599" lon="13.47736">
<ele>50</ele>
<time>2011-05-01T13:22:20Z</time>
</trkpt>
<trkpt lat="45.51592" lon="13.47736">
<ele>50</ele>
<time>2011-05-01T13:22:22Z</time>
</trkpt>
<trkpt lat="45.51585" lon="13.47735">
<ele>50</ele>
<time>2011-05-01T13:22:24Z</time>
</trkpt>
<trkpt lat="45.51578" lon="13.47735">
<ele>50</ele>
<time>2011-05-01T13:22:26Z</time>
</trkpt>
<trkpt lat="45.51571" lon="13.47734">
<ele>50</ele>
<time>2011-05-01T13:22:28Z</time>
</trkpt>
<trkpt lat="45.51564" lon="13.47734">
<ele>50</ele>
<time>2011-05-01T13:22:30Z</time>
</trkpt>
<trkpt lat="45.51557" lon="13.47734">
<ele>50</ele>
<time>2011-05-01T13:22:32Z</time>
</trkpt>
<trkpt lat="45.51551" lon="13.47733">
<ele>50</ele>
<time>2011-05-01T13:22:34Z</time>
</trkpt>
<trkpt lat="45.51544" lon="13.47732">
<ele>50</ele>
<time>2011-05-01T13:22:36Z</time>
</trkpt>
<trkpt lat="45.51537" lon="13.47731">
<ele>50</ele>
<time>2011-05-01T13:22:38Z</time>
</trkpt>
<trkpt lat="45.5153" lon="13.4773">
<ele>50</ele>
<time>2011-05-01T13:22:40Z</time>
</trkpt>
<trkpt lat="45.51523" lon="13.47728">
<ele>50</ele>
<time>2011-05-01T13:22:42Z</time>
</trkpt>
<trkpt lat="45.51516" lon="13.47727">
<ele>50</ele>
<time>2011-05-01T13:22:44Z</time>
</trkpt>
<trkpt lat="45.5151" lon="13.47727">
<ele>50</ele>
<time>2011-05-01T13:22:46Z</time>
</trkpt>
<trkpt lat="45.51503" lon="13.47727">
<ele>50</ele>
<time>2011-05-01T13:22:48Z</time>
</trkpt>
<trkpt lat="45.51496" lon="13.47727">
<ele>50</ele>
<time>2011-05-01T13:22:50Z</time>
</trkpt>
<trkpt lat="45.5149" lon="13.47727">
<ele>50</ele>
<time>2011-05-01T13:22:52Z</time>
</trkpt>
<trkpt lat="45.51483" lon="13.47726">
<ele>50</ele>
<time>2011-05-01T13:22:54Z</time>
</trkpt>
<trkpt lat="45.51476" lon="13.47726">
<ele>50</ele>
<time>2011-05-01T13:22:56Z</time>
</trkpt>
<trkpt lat="45.5147" lon="13.47725">
<ele>50</ele>
<time>2011-05-01T13:22:58Z</time>
</trkpt>
<trkpt lat="45.51463" lon="13.47725">
<ele>50</ele>
<time>2011-05-01T13:23:00Z</time>
</trkpt>
<trkpt lat="45.51456" lon="13.47724">
<ele>50</ele>
<time>2011-05-01T13:23:02Z</time>
</trkpt>
<trkpt lat="45.5145" lon="13.47723">
<ele>50</ele>
<time>2011-05-01T13:23:04Z</time>
</trkpt>
<trkpt lat="45.51443" lon="13.47722">
<ele>50</ele>
<time>2011-05-01T13:23:06Z</time>
</trkpt>
<trkpt lat="45.51436" lon="13.47722">
<ele>49</ele>
<time>2011-05-01T13:23:08Z</time>
</trkpt>
<trkpt lat="45.51429" lon="13.47723">
<ele>49</ele>
<time>2011-05-01T13:23:10Z</time>
</trkpt>
<trkpt lat="45.51422" lon="13.47724">
<ele>49</ele>
<time>2011-05-01T13:23:12Z</time>
</trkpt>
<trkpt lat="45.51416" lon="13.47725">
<ele>49</ele>
<time>2011-05-01T13:23:14Z</time>
</trkpt>
<trkpt lat="45.51408" lon="13.47727">
<ele>49</ele>
<time>2011-05-01T13:23:16Z</time>
</trkpt>
<trkpt lat="45.51402" lon="13.47729">
<ele>49</ele>
<time>2011-05-01T13:23:18Z</time>
</trkpt>
<trkpt lat="45.51395" lon="13.47732">
<ele>49</ele>
<time>2011-05-01T13:23:20Z</time>
</trkpt>
<trkpt lat="45.51388" lon="13.47735">
<ele>49</ele>
<time>2011-05-01T13:23:22Z</time>
</trkpt>
<trkpt lat="45.51382" lon="13.47738">
<ele>49</ele>
<time>2011-05-01T13:23:24Z</time>
</trkpt>
<trkpt lat="45.51375" lon="13.4774">
<ele>49</ele>
<time>2011-05-01T13:23:26Z</time>
</trkpt>
<trkpt lat="45.51368" lon="13.47742">
<ele>49</ele>
<time>2011-05-01T13:23:28Z</time>
</trkpt>
<trkpt lat="45.51361" lon="13.47744">
<ele>49</ele>
<time>2011-05-01T13:23:30Z</time>
</trkpt>
<trkpt lat="45.51354" lon="13.47746">
<ele>49</ele>
<time>2011-05-01T13:23:32Z</time>
</trkpt>
<trkpt lat="45.51347" lon="13.47747">
<ele>49</ele>
<time>2011-05-01T13:23:34Z</time>
</trkpt>
<trkpt lat="45.5134" lon="13.47748">
<ele>49</ele>
<time>2011-05-01T13:23:36Z</time>
</trkpt>
<trkpt lat="45.51334" lon="13.4775">
<ele>49</ele>
<time>2011-05-01T13:23:38Z</time>
</trkpt>
<trkpt lat="45.51327" lon="13.47751">
<ele>49</ele>
<time>2011-05-01T13:23:40Z</time>
</trkpt>
<trkpt lat="45.5132" lon="13.47751">
<ele>49</ele>
<time>2011-05-01T13:23:42Z</time>
</trkpt>
<trkpt lat="45.51313" lon="13.47752">
<ele>49</ele>
<time>2011-05-01T13:23:44Z</time>
</trkpt>
<trkpt lat="45.51306" lon="13.47751">
<ele>48</ele>
<time>2011-05-01T13:23:46Z</time>
</trkpt>
<trkpt lat="45.513" lon="13.47751">
<ele>48</ele>
<time>2011-05-01T13:23:48Z</time>
</trkpt>
<trkpt lat="45.51293" lon="13.47751">
<ele>48</ele>
<time>2011-05-01T13:23:50Z</time>
</trkpt>
<trkpt lat="45.51287" lon="13.47751">
<ele>48</ele>
<time>2011-05-01T13:23:52Z</time>
</trkpt>
<trkpt lat="45.5128" lon="13.4775">
<ele>48</ele>
<time>2011-05-01T13:23:54Z</time>
</trkpt>
<trkpt lat="45.51274" lon="13.47749">
<ele>48</ele>
<time>2011-05-01T13:23:56Z</time>
</trkpt>
<trkpt lat="45.51267" lon="13.47747">
<ele>48</ele>
<time>2011-05-01T13:23:58Z</time>
</trkpt>
<trkpt lat="45.5126" lon="13.47746">
<ele>48</ele>
<time>2011-05-01T13:24:00Z</time>
</trkpt>
<trkpt lat="45.51254" lon="13.47744">
<ele>48</ele>
<time>2011-05-01T13:24:02Z</time>
</trkpt>
<trkpt lat="45.51247" lon="13.47743">
<ele>48</ele>
<time>2011-05-01T13:24:04Z</time>
</trkpt>
<trkpt lat="45.51241" lon="13.47742">
<ele>48</ele>
<time>2011-05-01T13:24:06Z</time>
</trkpt>
<trkpt lat="45.51235" lon="13.4774">
<ele>48</ele>
<time>2011-05-01T13:24:08Z</time>
</trkpt>
<trkpt lat="45.51229" lon="13.47738">
<ele>48</ele>
<time>2011-05-01T13:24:10Z</time>
</trkpt>
<trkpt lat="45.51222" lon="13.47737">
<ele>48</ele>
<time>2011-05-01T13:24:12Z</time>
</trkpt>
<trkpt lat="45.51216" lon="13.47735">
<ele>48</ele>
<time>2011-05-01T13:24:14Z</time>
</trkpt>
<trkpt lat="45.5121" lon="13.47734">
<ele>48</ele>
<time>2011-05-01T13:24:16Z</time>
</trkpt>
<trkpt lat="45.51204" lon="13.47733">
<ele>48</ele>
<time>2011-05-01T13:24:18Z</time>
</trkpt>
<trkpt lat="45.51197" lon="13.47733">
<ele>48</ele>
<time>2011-05-01T13:24:20Z</time>
</trkpt>
<trkpt lat="45.51191" lon="13.47732">
<ele>48</ele>
<time>2011-05-01T13:24:22Z</time>
</trkpt>
<trkpt lat="45.51184" lon="13.47732">
<ele>48</ele>
<time>2011-05-01T13:24:24Z</time>
</trkpt>
<trkpt lat="45.51178" lon="13.47731">
<ele>48</ele>
<time>2011-05-01T13:24:26Z</time>
</trkpt>
<trkpt lat="45.51172" lon="13.4773">
<ele>48</ele>
<time>2011-05-01T13:24:28Z</time>
</trkpt>
<trkpt lat="45.51165" lon="13.4773">
<ele>48</ele>
<time>2011-05-01T13:24:30Z</time>
</trkpt>
<trkpt lat="45.51159" lon="13.47729">
<ele>48</ele>
<time>2011-05-01T13:24:32Z</time>
</trkpt>
<trkpt lat="45.51153" lon="13.47728">
<ele>48</ele>
<time>2011-05-01T13:24:34Z</time>
</trkpt>
<trkpt lat="45.51146" lon="13.47728">
<ele>48</ele>
<time>2011-05-01T13:24:36Z</time>
</trkpt>
<trkpt lat="45.5114" lon="13.47727">
<ele>48</ele>
<time>2011-05-01T13:24:38Z</time>
</trkpt>
<trkpt lat="45.51134" lon="13.47726">
<ele>48</ele>
<time>2011-05-01T13:24:40Z</time>
</trkpt>
<trkpt lat="45.51127" lon="13.47725">
<ele>48</ele>
<time>2011-05-01T13:24:42Z</time>
</trkpt>
<trkpt lat="45.51121" lon="13.47724">
<ele>48</ele>
<time>2011-05-01T13:24:44Z</time>
</trkpt>
<trkpt lat="45.51115" lon="13.47724">
<ele>48</ele>
<time>2011-05-01T13:24:46Z</time>
</trkpt>
<trkpt lat="45.51108" lon="13.47723">
<ele>48</ele>
<time>2011-05-01T13:24:48Z</time>
</trkpt>
<trkpt lat="45.51102" lon="13.47722">
<ele>48</ele>
<time>2011-05-01T13:24:50Z</time>
</trkpt>
<trkpt lat="45.51096" lon="13.47721">
<ele>48</ele>
<time>2011-05-01T13:24:52Z</time>
</trkpt>
<trkpt lat="45.5109" lon="13.4772">
<ele>48</ele>
<time>2011-05-01T13:24:54Z</time>
</trkpt>
<trkpt lat="45.51083" lon="13.47719">
<ele>48</ele>
<time>2011-05-01T13:24:56Z</time>
</trkpt>
<trkpt lat="45.51077" lon="13.47718">
<ele>48</ele>
<time>2011-05-01T13:24:58Z</time>
</trkpt>
<trkpt lat="45.51071" lon="13.47717">
<ele>48</ele>
<time>2011-05-01T13:25:00Z</time>
</trkpt>
<trkpt lat="45.51065" lon="13.47715">
<ele>48</ele>
<time>2011-05-01T13:25:02Z</time>
</trkpt>
<trkpt lat="45.51059" lon="13.47714">
<ele>48</ele>
<time>2011-05-01T13:25:04Z</time>
</trkpt>
<trkpt lat="45.51053" lon="13.47712">
<ele>48</ele>
<time>2011-05-01T13:25:06Z</time>
</trkpt>
<trkpt lat="45.51046" lon="13.47711">
<ele>48</ele>
<time>2011-05-01T13:25:08Z</time>
</trkpt>
<trkpt lat="45.5104" lon="13.4771">
<ele>48</ele>
<time>2011-05-01T13:25:10Z</time>
</trkpt>
<trkpt lat="45.51034" lon="13.47709">
<ele>48</ele>
<time>2011-05-01T13:25:12Z</time>
</trkpt>
<trkpt lat="45.51028" lon="13.47708">
<ele>48</ele>
<time>2011-05-01T13:25:14Z</time>
</trkpt>
<trkpt lat="45.51022" lon="13.47707">
<ele>48</ele>
<time>2011-05-01T13:25:16Z</time>
</trkpt>
<trkpt lat="45.51015" lon="13.47706">
<ele>48</ele>
<time>2011-05-01T13:25:18Z</time>
</trkpt>
<trkpt lat="45.51009" lon="13.47705">
<ele>48</ele>
<time>2011-05-01T13:25:20Z</time>
</trkpt>
<trkpt lat="45.51003" lon="13.47705">
<ele>48</ele>
<time>2011-05-01T13:25:22Z</time>
</trkpt>
<trkpt lat="45.50997" lon="13.47705">
<ele>48</ele>
<time>2011-05-01T13:25:24Z</time>
</trkpt>
<trkpt lat="45.50991" lon="13.47705">
<ele>48</ele>
<time>2011-05-01T13:25:26Z</time>
</trkpt>
<trkpt lat="45.50984" lon="13.47706">
<ele>48</ele>
<time>2011-05-01T13:25:28Z</time>
</trkpt>
<trkpt lat="45.50978" lon="13.47707">
<ele>48</ele>
<time>2011-05-01T13:25:30Z</time>
</trkpt>
<trkpt lat="45.50972" lon="13.47708">
<ele>48</ele>
<time>2011-05-01T13:25:32Z</time>
</trkpt>
<trkpt lat="45.50966" lon="13.47708">
<ele>48</ele>
<time>2011-05-01T13:25:34Z</time>
</trkpt>
<trkpt lat="45.50959" lon="13.47708">
<ele>48</ele>
<time>2011-05-01T13:25:36Z</time>
</trkpt>
<trkpt lat="45.50953" lon="13.47708">
<ele>48</ele>
<time>2011-05-01T13:25:38Z</time>
</trkpt>
<trkpt lat="45.50946" lon="13.47709">
<ele>48</ele>
<time>2011-05-01T13:25:40Z</time>
</trkpt>
<trkpt lat="45.50939" lon="13.47709">
<ele>48</ele>
<time>2011-05-01T13:25:42Z</time>
</trkpt>
<trkpt lat="45.50932" lon="13.47711">
<ele>48</ele>
<time>2011-05-01T13:25:44Z</time>
</trkpt>
<trkpt lat="45.50926" lon="13.47712">
<ele>48</ele>
<time>2011-05-01T13:25:46Z</time>
</trkpt>
<trkpt lat="45.50919" lon="13.47715">
<ele>48</ele>
<time>2011-05-01T13:25:48Z</time>
</trkpt>
<trkpt lat="45.50912" lon="13.47717">
<ele>48</ele>
<time>2011-05-01T13:25:50Z</time>
</trkpt>
<trkpt lat="45.50905" lon="13.47719">
<ele>48</ele>
<time>2011-05-01T13:25:52Z</time>
</trkpt>
<trkpt lat="45.50899" lon="13.47722">
<ele>48</ele>
<time>2011-05-01T13:25:54Z</time>
</trkpt>
<trkpt lat="45.50892" lon="13.47725">
<ele>48</ele>
<time>2011-05-01T13:25:56Z</time>
</trkpt>
<trkpt lat="45.50885" lon="13.47728">
<ele>48</ele>
<time>2011-05-01T13:25:58Z</time>
</trkpt>
<trkpt lat="45.50879" lon="13.47731">
<ele>48</ele>
<time>2011-05-01T13:26:00Z</time>
</trkpt>
<trkpt lat="45.50872" lon="13.47734">
<ele>48</ele>
<time>2011-05-01T13:26:02Z</time>
</trkpt>
<trkpt lat="45.50866" lon="13.47736">
<ele>48</ele>
<time>2011-05-01T13:26:04Z</time>
</trkpt>
<trkpt lat="45.50859" lon="13.47739">
<ele>48</ele>
<time>2011-05-01T13:26:06Z</time>
</trkpt>
<trkpt lat="45.50853" lon="13.47742">
<ele>48</ele>
<time>2011-05-01T13:26:08Z</time>
</trkpt>
<trkpt lat="45.50846" lon="13.47745">
<ele>48</ele>
<time>2011-05-01T13:26:10Z</time>
</trkpt>
<trkpt lat="45.5084" lon="13.47748">
<ele>48</ele>
<time>2011-05-01T13:26:12Z</time>
</trkpt>
<trkpt lat="45.50834" lon="13.47752">
<ele>48</ele>
<time>2011-05-01T13:26:14Z</time>
</trkpt>
<trkpt lat="45.50827" lon="13.47755">
<ele>48</ele>
<time>2011-05-01T13:26:16Z</time>
</trkpt>
<trkpt lat="45.5082" lon="13.47757">
<ele>48</ele>
<time>2011-05-01T13:26:18Z</time>
</trkpt>
<trkpt lat="45.50814" lon="13.47759">
<ele>48</ele>
<time>2011-05-01T13:26:20Z</time>
</trkpt>
<trkpt lat="45.50807" lon="13.47762">
<ele>48</ele>
<time>2011-05-01T13:26:22Z</time>
</trkpt>
<trkpt lat="45.50801" lon="13.47764">
<ele>48</ele>
<time>2011-05-01T13:26:24Z</time>
</trkpt>
<trkpt lat="45.50795" lon="13.47765">
<ele>48</ele>
<time>2011-05-01T13:26:26Z</time>
</trkpt>
<trkpt lat="45.50788" lon="13.47766">
<ele>48</ele>
<time>2011-05-01T13:26:28Z</time>
</trkpt>
<trkpt lat="45.50782" lon="13.47767">
<ele>48</ele>
<time>2011-05-01T13:26:30Z</time>
</trkpt>
<trkpt lat="45.50776" lon="13.47768">
<ele>48</ele>
<time>2011-05-01T13:26:32Z</time>
</trkpt>
<trkpt lat="45.5077" lon="13.47767">
<ele>48</ele>
<time>2011-05-01T13:26:34Z</time>
</trkpt>
<trkpt lat="45.50764" lon="13.47766">
<ele>47</ele>
<time>2011-05-01T13:26:36Z</time>
</trkpt>
<trkpt lat="45.50757" lon="13.47765">
<ele>47</ele>
<time>2011-05-01T13:26:38Z</time>
</trkpt>
<trkpt lat="45.50751" lon="13.47764">
<ele>47</ele>
<time>2011-05-01T13:26:40Z</time>
</trkpt>
<trkpt lat="45.50745" lon="13.47762">
<ele>47</ele>
<time>2011-05-01T13:26:42Z</time>
</trkpt>
<trkpt lat="45.50739" lon="13.4776">
<ele>47</ele>
<time>2011-05-01T13:26:44Z</time>
</trkpt>
<trkpt lat="45.50734" lon="13.47759">
<ele>47</ele>
<time>2011-05-01T13:26:46Z</time>
</trkpt>
<trkpt lat="45.50728" lon="13.47756">
<ele>47</ele>
<time>2011-05-01T13:26:48Z</time>
</trkpt>
<trkpt lat="45.50722" lon="13.47754">
<ele>47</ele>
<time>2011-05-01T13:26:50Z</time>
</trkpt>
<trkpt lat="45.50717" lon="13.47752">
<ele>47</ele>
<time>2011-05-01T13:26:52Z</time>
</trkpt>
<trkpt lat="45.50711" lon="13.4775">
<ele>47</ele>
<time>2011-05-01T13:26:54Z</time>
</trkpt>
<trkpt lat="45.50706" lon="13.47749">
<ele>47</ele>
<time>2011-05-01T13:26:56Z</time>
</trkpt>
<trkpt lat="45.507" lon="13.47748">
<ele>47</ele>
<time>2011-05-01T13:26:58Z</time>
</trkpt>
<trkpt lat="45.50694" lon="13.47747">
<ele>47</ele>
<time>2011-05-01T13:27:00Z</time>
</trkpt>
<trkpt lat="45.50688" lon="13.47747">
<ele>47</ele>
<time>2011-05-01T13:27:02Z</time>
</trkpt>
<trkpt lat="45.50682" lon="13.47746">
<ele>47</ele>
<time>2011-05-01T13:27:04Z</time>
</trkpt>
<trkpt lat="45.50675" lon="13.47747">
<ele>47</ele>
<time>2011-05-01T13:27:06Z</time>
</trkpt>
<trkpt lat="45.50669" lon="13.47747">
<ele>47</ele>
<time>2011-05-01T13:27:08Z</time>
</trkpt>
<trkpt lat="45.50662" lon="13.47748">
<ele>47</ele>
<time>2011-05-01T13:27:10Z</time>
</trkpt>
<trkpt lat="45.50656" lon="13.47748">
<ele>47</ele>
<time>2011-05-01T13:27:12Z</time>
</trkpt>
<trkpt lat="45.50649" lon="13.47749">
<ele>47</ele>
<time>2011-05-01T13:27:14Z</time>
</trkpt>
<trkpt lat="45.50642" lon="13.4775">
<ele>47</ele>
<time>2011-05-01T13:27:16Z</time>
</trkpt>
<trkpt lat="45.50635" lon="13.47752">
<ele>47</ele>
<time>2011-05-01T13:27:18Z</time>
</trkpt>
<trkpt lat="45.50628" lon="13.47753">
<ele>47</ele>
<time>2011-05-01T13:27:20Z</time>
</trkpt>
<trkpt lat="45.50622" lon="13.47755">
<ele>47</ele>
<time>2011-05-01T13:27:22Z</time>
</trkpt>
<trkpt lat="45.50616" lon="13.47756">
<ele>47</ele>
<time>2011-05-01T13:27:24Z</time>
</trkpt>
<trkpt lat="45.50609" lon="13.47756">
<ele>47</ele>
<time>2011-05-01T13:27:26Z</time>
</trkpt>
<trkpt lat="45.50602" lon="13.47756">
<ele>48</ele>
<time>2011-05-01T13:27:28Z</time>
</trkpt>
<trkpt lat="45.50595" lon="13.47755">
<ele>48</ele>
<time>2011-05-01T13:27:30Z</time>
</trkpt>
<trkpt lat="45.50588" lon="13.47755">
<ele>48</ele>
<time>2011-05-01T13:27:32Z</time>
</trkpt>
<trkpt lat="45.50581" lon="13.47754">
<ele>48</ele>
<time>2011-05-01T13:27:34Z</time>
</trkpt>
<trkpt lat="45.50574" lon="13.47754">
<ele>48</ele>
<time>2011-05-01T13:27:36Z</time>
</trkpt>
<trkpt lat="45.50568" lon="13.47754">
<ele>48</ele>
<time>2011-05-01T13:27:38Z</time>
</trkpt>
<trkpt lat="45.50561" lon="13.47754">
<ele>48</ele>
<time>2011-05-01T13:27:40Z</time>
</trkpt>
<trkpt lat="45.50554" lon="13.47756">
<ele>48</ele>
<time>2011-05-01T13:27:42Z</time>
</trkpt>
<trkpt lat="45.50547" lon="13.47757">
<ele>48</ele>
<time>2011-05-01T13:27:44Z</time>
</trkpt>
<trkpt lat="45.5054" lon="13.47757">
<ele>48</ele>
<time>2011-05-01T13:27:46Z</time>
</trkpt>
<trkpt lat="45.50533" lon="13.47758">
<ele>48</ele>
<time>2011-05-01T13:27:48Z</time>
</trkpt>
<trkpt lat="45.50526" lon="13.47758">
<ele>48</ele>
<time>2011-05-01T13:27:50Z</time>
</trkpt>
<trkpt lat="45.50519" lon="13.47759">
<ele>48</ele>
<time>2011-05-01T13:27:52Z</time>
</trkpt>
<trkpt lat="45.50512" lon="13.47761">
<ele>48</ele>
<time>2011-05-01T13:27:54Z</time>
</trkpt>
<trkpt lat="45.50506" lon="13.47762">
<ele>48</ele>
<time>2011-05-01T13:27:56Z</time>
</trkpt>
<trkpt lat="45.50499" lon="13.47764">
<ele>48</ele>
<time>2011-05-01T13:27:58Z</time>
</trkpt>
<trkpt lat="45.50492" lon="13.47765">
<ele>48</ele>
<time>2011-05-01T13:28:00Z</time>
</trkpt>
<trkpt lat="45.50485" lon="13.47766">
<ele>48</ele>
<time>2011-05-01T13:28:02Z</time>
</trkpt>
<trkpt lat="45.50478" lon="13.47768">
<ele>48</ele>
<time>2011-05-01T13:28:04Z</time>
</trkpt>
<trkpt lat="45.50471" lon="13.47769">
<ele>48</ele>
<time>2011-05-01T13:28:06Z</time>
</trkpt>
<trkpt lat="45.50464" lon="13.47771">
<ele>48</ele>
<time>2011-05-01T13:28:08Z</time>
</trkpt>
<trkpt lat="45.50457" lon="13.47772">
<ele>48</ele>
<time>2011-05-01T13:28:10Z</time>
</trkpt>
<trkpt lat="45.5045" lon="13.47772">
<ele>48</ele>
<time>2011-05-01T13:28:12Z</time>
</trkpt>
<trkpt lat="45.50444" lon="13.47772">
<ele>48</ele>
<time>2011-05-01T13:28:14Z</time>
</trkpt>
<trkpt lat="45.50437" lon="13.47773">
<ele>48</ele>
<time>2011-05-01T13:28:16Z</time>
</trkpt>
<trkpt lat="45.5043" lon="13.47775">
<ele>48</ele>
<time>2011-05-01T13:28:18Z</time>
</trkpt>
<trkpt lat="45.50424" lon="13.47776">
<ele>48</ele>
<time>2011-05-01T13:28:20Z</time>
</trkpt>
<trkpt lat="45.50416" lon="13.47778">
<ele>48</ele>
<time>2011-05-01T13:28:22Z</time>
</trkpt>
<trkpt lat="45.5041" lon="13.4778">
<ele>48</ele>
<time>2011-05-01T13:28:24Z</time>
</trkpt>
<trkpt lat="45.50402" lon="13.47781">
<ele>48</ele>
<time>2011-05-01T13:28:26Z</time>
</trkpt>
<trkpt lat="45.50396" lon="13.47782">
<ele>48</ele>
<time>2011-05-01T13:28:28Z</time>
</trkpt>
<trkpt lat="45.50388" lon="13.47784">
<ele>48</ele>
<time>2011-05-01T13:28:30Z</time>
</trkpt>
<trkpt lat="45.50382" lon="13.47786">
<ele>48</ele>
<time>2011-05-01T13:28:32Z</time>
</trkpt>
<trkpt lat="45.50375" lon="13.47788">
<ele>48</ele>
<time>2011-05-01T13:28:34Z</time>
</trkpt>
<trkpt lat="45.50368" lon="13.47789">
<ele>48</ele>
<time>2011-05-01T13:28:36Z</time>
</trkpt>
<trkpt lat="45.50361" lon="13.4779">
<ele>48</ele>
<time>2011-05-01T13:28:38Z</time>
</trkpt>
<trkpt lat="45.50354" lon="13.47791">
<ele>48</ele>
<time>2011-05-01T13:28:40Z</time>
</trkpt>
<trkpt lat="45.50347" lon="13.47792">
<ele>48</ele>
<time>2011-05-01T13:28:42Z</time>
</trkpt>
<trkpt lat="45.50341" lon="13.47792">
<ele>49</ele>
<time>2011-05-01T13:28:44Z</time>
</trkpt>
<trkpt lat="45.50334" lon="13.47793">
<ele>49</ele>
<time>2011-05-01T13:28:46Z</time>
</trkpt>
<trkpt lat="45.50328" lon="13.47794">
<ele>49</ele>
<time>2011-05-01T13:28:48Z</time>
</trkpt>
<trkpt lat="45.50321" lon="13.47794">
<ele>49</ele>
<time>2011-05-01T13:28:50Z</time>
</trkpt>
<trkpt lat="45.50314" lon="13.47795">
<ele>49</ele>
<time>2011-05-01T13:28:52Z</time>
</trkpt>
<trkpt lat="45.50308" lon="13.47795">
<ele>49</ele>
<time>2011-05-01T13:28:54Z</time>
</trkpt>
<trkpt lat="45.50301" lon="13.47795">
<ele>49</ele>
<time>2011-05-01T13:28:56Z</time>
</trkpt>
<trkpt lat="45.50294" lon="13.47795">
<ele>49</ele>
<time>2011-05-01T13:28:58Z</time>
</trkpt>
<trkpt lat="45.50288" lon="13.47796">
<ele>49</ele>
<time>2011-05-01T13:29:00Z</time>
</trkpt>
<trkpt lat="45.50281" lon="13.47798">
<ele>49</ele>
<time>2011-05-01T13:29:02Z</time>
</trkpt>
<trkpt lat="45.50274" lon="13.478">
<ele>49</ele>
<time>2011-05-01T13:29:04Z</time>
</trkpt>
<trkpt lat="45.50268" lon="13.47802">
<ele>49</ele>
<time>2011-05-01T13:29:06Z</time>
</trkpt>
<trkpt lat="45.50261" lon="13.47804">
<ele>48</ele>
<time>2011-05-01T13:29:08Z</time>
</trkpt>
<trkpt lat="45.50254" lon="13.47805">
<ele>48</ele>
<time>2011-05-01T13:29:10Z</time>
</trkpt>
<trkpt lat="45.50248" lon="13.47805">
<ele>48</ele>
<time>2011-05-01T13:29:12Z</time>
</trkpt>
<trkpt lat="45.50241" lon="13.47805">
<ele>48</ele>
<time>2011-05-01T13:29:14Z</time>
</trkpt>
<trkpt lat="45.50234" lon="13.47806">
<ele>48</ele>
<time>2011-05-01T13:29:16Z</time>
</trkpt>
<trkpt lat="45.50227" lon="13.47806">
<ele>48</ele>
<time>2011-05-01T13:29:18Z</time>
</trkpt>
<trkpt lat="45.5022" lon="13.47806">
<ele>48</ele>
<time>2011-05-01T13:29:20Z</time>
</trkpt>
<trkpt lat="45.50214" lon="13.47808">
<ele>48</ele>
<time>2011-05-01T13:29:22Z</time>
</trkpt>
<trkpt lat="45.50207" lon="13.47809">
<ele>48</ele>
<time>2011-05-01T13:29:24Z</time>
</trkpt>
<trkpt lat="45.502" lon="13.47811">
<ele>49</ele>
<time>2011-05-01T13:29:26Z</time>
</trkpt>
<trkpt lat="45.50193" lon="13.47812">
<ele>49</ele>
<time>2011-05-01T13:29:28Z</time>
</trkpt>
<trkpt lat="45.50187" lon="13.47813">
<ele>49</ele>
<time>2011-05-01T13:29:30Z</time>
</trkpt>
<trkpt lat="45.5018" lon="13.47814">
<ele>49</ele>
<time>2011-05-01T13:29:32Z</time>
</trkpt>
<trkpt lat="45.50173" lon="13.47814">
<ele>49</ele>
<time>2011-05-01T13:29:34Z</time>
</trkpt>
<trkpt lat="45.50166" lon="13.47814">
<ele>49</ele>
<time>2011-05-01T13:29:36Z</time>
</trkpt>
<trkpt lat="45.5016" lon="13.47814">
<ele>49</ele>
<time>2011-05-01T13:29:38Z</time>
</trkpt>
<trkpt lat="45.50153" lon="13.47815">
<ele>49</ele>
<time>2011-05-01T13:29:40Z</time>
</trkpt>
<trkpt lat="45.50146" lon="13.47816">
<ele>49</ele>
<time>2011-05-01T13:29:42Z</time>
</trkpt>
<trkpt lat="45.50139" lon="13.47816">
<ele>49</ele>
<time>2011-05-01T13:29:44Z</time>
</trkpt>
<trkpt lat="45.50132" lon="13.47818">
<ele>49</ele>
<time>2011-05-01T13:29:46Z</time>
</trkpt>
<trkpt lat="45.50125" lon="13.4782">
<ele>49</ele>
<time>2011-05-01T13:29:48Z</time>
</trkpt>
<trkpt lat="45.50118" lon="13.47822">
<ele>49</ele>
<time>2011-05-01T13:29:50Z</time>
</trkpt>
<trkpt lat="45.50111" lon="13.47825">
<ele>49</ele>
<time>2011-05-01T13:29:52Z</time>
</trkpt>
<trkpt lat="45.50104" lon="13.47828">
<ele>48</ele>
<time>2011-05-01T13:29:54Z</time>
</trkpt>
<trkpt lat="45.50098" lon="13.4783">
<ele>48</ele>
<time>2011-05-01T13:29:56Z</time>
</trkpt>
<trkpt lat="45.50091" lon="13.47833">
<ele>48</ele>
<time>2011-05-01T13:29:58Z</time>
</trkpt>
<trkpt lat="45.50084" lon="13.47835">
<ele>48</ele>
<time>2011-05-01T13:30:00Z</time>
</trkpt>
<trkpt lat="45.50077" lon="13.47838">
<ele>48</ele>
<time>2011-05-01T13:30:02Z</time>
</trkpt>
<trkpt lat="45.50071" lon="13.4784">
<ele>48</ele>
<time>2011-05-01T13:30:04Z</time>
</trkpt>
<trkpt lat="45.50064" lon="13.47842">
<ele>48</ele>
<time>2011-05-01T13:30:06Z</time>
</trkpt>
<trkpt lat="45.50058" lon="13.47844">
<ele>48</ele>
<time>2011-05-01T13:30:08Z</time>
</trkpt>
<trkpt lat="45.50051" lon="13.47847">
<ele>48</ele>
<time>2011-05-01T13:30:10Z</time>
</trkpt>
<trkpt lat="45.50044" lon="13.4785">
<ele>48</ele>
<time>2011-05-01T13:30:12Z</time>
</trkpt>
<trkpt lat="45.50038" lon="13.47853">
<ele>48</ele>
<time>2011-05-01T13:30:14Z</time>
</trkpt>
<trkpt lat="45.50032" lon="13.47855">
<ele>48</ele>
<time>2011-05-01T13:30:16Z</time>
</trkpt>
<trkpt lat="45.50025" lon="13.47857">
<ele>48</ele>
<time>2011-05-01T13:30:18Z</time>
</trkpt>
<trkpt lat="45.50019" lon="13.47858">
<ele>48</ele>
<time>2011-05-01T13:30:20Z</time>
</trkpt>
<trkpt lat="45.50012" lon="13.47858">
<ele>48</ele>
<time>2011-05-01T13:30:22Z</time>
</trkpt>
<trkpt lat="45.50006" lon="13.47858">
<ele>48</ele>
<time>2011-05-01T13:30:24Z</time>
</trkpt>
<trkpt lat="45.5" lon="13.47858">
<ele>49</ele>
<time>2011-05-01T13:30:26Z</time>
</trkpt>
<trkpt lat="45.49993" lon="13.47856">
<ele>48</ele>
<time>2011-05-01T13:30:28Z</time>
</trkpt>
<trkpt lat="45.49987" lon="13.47855">
<ele>48</ele>
<time>2011-05-01T13:30:30Z</time>
</trkpt>
<trkpt lat="45.49982" lon="13.47853">
<ele>48</ele>
<time>2011-05-01T13:30:32Z</time>
</trkpt>
<trkpt lat="45.49976" lon="13.47851">
<ele>48</ele>
<time>2011-05-01T13:30:34Z</time>
</trkpt>
<trkpt lat="45.4997" lon="13.4785">
<ele>48</ele>
<time>2011-05-01T13:30:36Z</time>
</trkpt>
<trkpt lat="45.49964" lon="13.4785">
<ele>48</ele>
<time>2011-05-01T13:30:38Z</time>
</trkpt>
<trkpt lat="45.49958" lon="13.47852">
<ele>48</ele>
<time>2011-05-01T13:30:40Z</time>
</trkpt>
<trkpt lat="45.49952" lon="13.47854">
<ele>48</ele>
<time>2011-05-01T13:30:42Z</time>
</trkpt>
<trkpt lat="45.49946" lon="13.47857">
<ele>48</ele>
<time>2011-05-01T13:30:44Z</time>
</trkpt>
<trkpt lat="45.49939" lon="13.4786">
<ele>48</ele>
<time>2011-05-01T13:30:46Z</time>
</trkpt>
<trkpt lat="45.49933" lon="13.47863">
<ele>48</ele>
<time>2011-05-01T13:30:48Z</time>
</trkpt>
<trkpt lat="45.49926" lon="13.47867">
<ele>48</ele>
<time>2011-05-01T13:30:50Z</time>
</trkpt>
<trkpt lat="45.4992" lon="13.4787">
<ele>48</ele>
<time>2011-05-01T13:30:52Z</time>
</trkpt>
<trkpt lat="45.49914" lon="13.47874">
<ele>48</ele>
<time>2011-05-01T13:30:54Z</time>
</trkpt>
<trkpt lat="45.49908" lon="13.47878">
<ele>48</ele>
<time>2011-05-01T13:30:56Z</time>
</trkpt>
<trkpt lat="45.49901" lon="13.47881">
<ele>48</ele>
<time>2011-05-01T13:30:58Z</time>
</trkpt>
<trkpt lat="45.49894" lon="13.47884">
<ele>48</ele>
<time>2011-05-01T13:31:00Z</time>
</trkpt>
<trkpt lat="45.49888" lon="13.47886">
<ele>48</ele>
<time>2011-05-01T13:31:02Z</time>
</trkpt>
<trkpt lat="45.49881" lon="13.4789">
<ele>48</ele>
<time>2011-05-01T13:31:04Z</time>
</trkpt>
<trkpt lat="45.49874" lon="13.47892">
<ele>48</ele>
<time>2011-05-01T13:31:06Z</time>
</trkpt>
<trkpt lat="45.49868" lon="13.47895">
<ele>48</ele>
<time>2011-05-01T13:31:08Z</time>
</trkpt>
<trkpt lat="45.49861" lon="13.47898">
<ele>48</ele>
<time>2011-05-01T13:31:10Z</time>
</trkpt>
<trkpt lat="45.49854" lon="13.479">
<ele>48</ele>
<time>2011-05-01T13:31:12Z</time>
</trkpt>
<trkpt lat="45.49847" lon="13.47903">
<ele>48</ele>
<time>2011-05-01T13:31:14Z</time>
</trkpt>
<trkpt lat="45.49841" lon="13.47905">
<ele>48</ele>
<time>2011-05-01T13:31:16Z</time>
</trkpt>
<trkpt lat="45.49834" lon="13.47907">
<ele>48</ele>
<time>2011-05-01T13:31:18Z</time>
</trkpt>
<trkpt lat="45.49827" lon="13.47909">
<ele>48</ele>
<time>2011-05-01T13:31:20Z</time>
</trkpt>
<trkpt lat="45.4982" lon="13.47911">
<ele>48</ele>
<time>2011-05-01T13:31:22Z</time>
</trkpt>
<trkpt lat="45.49814" lon="13.47912">
<ele>48</ele>
<time>2011-05-01T13:31:24Z</time>
</trkpt>
<trkpt lat="45.49807" lon="13.47914">
<ele>48</ele>
<time>2011-05-01T13:31:26Z</time>
</trkpt>
<trkpt lat="45.498" lon="13.47915">
<ele>48</ele>
<time>2011-05-01T13:31:28Z</time>
</trkpt>
<trkpt lat="45.49793" lon="13.47916">
<ele>48</ele>
<time>2011-05-01T13:31:30Z</time>
</trkpt>
<trkpt lat="45.49786" lon="13.47916">
<ele>48</ele>
<time>2011-05-01T13:31:32Z</time>
</trkpt>
<trkpt lat="45.4978" lon="13.47916">
<ele>48</ele>
<time>2011-05-01T13:31:34Z</time>
</trkpt>
<trkpt lat="45.49773" lon="13.47918">
<ele>48</ele>
<time>2011-05-01T13:31:36Z</time>
</trkpt>
<trkpt lat="45.49766" lon="13.47919">
<ele>48</ele>
<time>2011-05-01T13:31:38Z</time>
</trkpt>
<trkpt lat="45.49759" lon="13.47921">
<ele>48</ele>
<time>2011-05-01T13:31:40Z</time>
</trkpt>
<trkpt lat="45.49753" lon="13.47923">
<ele>48</ele>
<time>2011-05-01T13:31:42Z</time>
</trkpt>
<trkpt lat="45.49746" lon="13.47926">
<ele>48</ele>
<time>2011-05-01T13:31:44Z</time>
</trkpt>
<trkpt lat="45.49739" lon="13.47928">
<ele>48</ele>
<time>2011-05-01T13:31:46Z</time>
</trkpt>
<trkpt lat="45.49732" lon="13.47931">
<ele>48</ele>
<time>2011-05-01T13:31:48Z</time>
</trkpt>
<trkpt lat="45.49725" lon="13.47934">
<ele>48</ele>
<time>2011-05-01T13:31:50Z</time>
</trkpt>
<trkpt lat="45.49718" lon="13.47937">
<ele>48</ele>
<time>2011-05-01T13:31:52Z</time>
</trkpt>
<trkpt lat="45.49711" lon="13.47941">
<ele>48</ele>
<time>2011-05-01T13:31:54Z</time>
</trkpt>
<trkpt lat="45.49704" lon="13.47945">
<ele>48</ele>
<time>2011-05-01T13:31:56Z</time>
</trkpt>
<trkpt lat="45.49697" lon="13.47949">
<ele>48</ele>
<time>2011-05-01T13:31:58Z</time>
</trkpt>
<trkpt lat="45.4969" lon="13.47953">
<ele>48</ele>
<time>2011-05-01T13:32:00Z</time>
</trkpt>
<trkpt lat="45.49683" lon="13.47957">
<ele>48</ele>
<time>2011-05-01T13:32:02Z</time>
</trkpt>
<trkpt lat="45.49677" lon="13.47962">
<ele>48</ele>
<time>2011-05-01T13:32:04Z</time>
</trkpt>
<trkpt lat="45.4967" lon="13.47965">
<ele>48</ele>
<time>2011-05-01T13:32:06Z</time>
</trkpt>
<trkpt lat="45.49663" lon="13.47968">
<ele>48</ele>
<time>2011-05-01T13:32:08Z</time>
</trkpt>
<trkpt lat="45.49657" lon="13.47969">
<ele>48</ele>
<time>2011-05-01T13:32:10Z</time>
</trkpt>
<trkpt lat="45.4965" lon="13.47971">
<ele>48</ele>
<time>2011-05-01T13:32:12Z</time>
</trkpt>
<trkpt lat="45.49644" lon="13.47971">
<ele>48</ele>
<time>2011-05-01T13:32:14Z</time>
</trkpt>
<trkpt lat="45.49638" lon="13.4797">
<ele>48</ele>
<time>2011-05-01T13:32:16Z</time>
</trkpt>
<trkpt lat="45.49631" lon="13.47969">
<ele>48</ele>
<time>2011-05-01T13:32:18Z</time>
</trkpt>
<trkpt lat="45.49625" lon="13.47968">
<ele>48</ele>
<time>2011-05-01T13:32:20Z</time>
</trkpt>
<trkpt lat="45.49618" lon="13.47969">
<ele>48</ele>
<time>2011-05-01T13:32:22Z</time>
</trkpt>
<trkpt lat="45.49612" lon="13.4797">
<ele>48</ele>
<time>2011-05-01T13:32:24Z</time>
</trkpt>
<trkpt lat="45.49605" lon="13.47972">
<ele>48</ele>
<time>2011-05-01T13:32:26Z</time>
</trkpt>
<trkpt lat="45.49599" lon="13.47972">
<ele>48</ele>
<time>2011-05-01T13:32:28Z</time>
</trkpt>
<trkpt lat="45.49592" lon="13.47973">
<ele>48</ele>
<time>2011-05-01T13:32:30Z</time>
</trkpt>
<trkpt lat="45.49585" lon="13.47974">
<ele>48</ele>
<time>2011-05-01T13:32:32Z</time>
</trkpt>
<trkpt lat="45.49578" lon="13.47975">
<ele>48</ele>
<time>2011-05-01T13:32:34Z</time>
</trkpt>
<trkpt lat="45.49572" lon="13.47977">
<ele>48</ele>
<time>2011-05-01T13:32:36Z</time>
</trkpt>
<trkpt lat="45.49565" lon="13.47979">
<ele>48</ele>
<time>2011-05-01T13:32:38Z</time>
</trkpt>
<trkpt lat="45.49558" lon="13.47981">
<ele>48</ele>
<time>2011-05-01T13:32:40Z</time>
</trkpt>
<trkpt lat="45.49551" lon="13.47984">
<ele>48</ele>
<time>2011-05-01T13:32:42Z</time>
</trkpt>
<trkpt lat="45.49544" lon="13.47986">
<ele>48</ele>
<time>2011-05-01T13:32:44Z</time>
</trkpt>
<trkpt lat="45.49538" lon="13.47989">
<ele>49</ele>
<time>2011-05-01T13:32:46Z</time>
</trkpt>
<trkpt lat="45.49531" lon="13.47991">
<ele>49</ele>
<time>2011-05-01T13:32:48Z</time>
</trkpt>
<trkpt lat="45.49524" lon="13.47994">
<ele>49</ele>
<time>2011-05-01T13:32:50Z</time>
</trkpt>
<trkpt lat="45.49517" lon="13.47997">
<ele>49</ele>
<time>2011-05-01T13:32:52Z</time>
</trkpt>
<trkpt lat="45.49511" lon="13.48">
<ele>49</ele>
<time>2011-05-01T13:32:54Z</time>
</trkpt>
<trkpt lat="45.49504" lon="13.48003">
<ele>49</ele>
<time>2011-05-01T13:32:56Z</time>
</trkpt>
<trkpt lat="45.49497" lon="13.48006">
<ele>49</ele>
<time>2011-05-01T13:32:58Z</time>
</trkpt>
<trkpt lat="45.49491" lon="13.4801">
<ele>49</ele>
<time>2011-05-01T13:33:00Z</time>
</trkpt>
<trkpt lat="45.49484" lon="13.48014">
<ele>49</ele>
<time>2011-05-01T13:33:02Z</time>
</trkpt>
<trkpt lat="45.49478" lon="13.48018">
<ele>49</ele>
<time>2011-05-01T13:33:04Z</time>
</trkpt>
<trkpt lat="45.49471" lon="13.48022">
<ele>49</ele>
<time>2011-05-01T13:33:06Z</time>
</trkpt>
<trkpt lat="45.49465" lon="13.48026">
<ele>49</ele>
<time>2011-05-01T13:33:08Z</time>
</trkpt>
<trkpt lat="45.49459" lon="13.4803">
<ele>49</ele>
<time>2011-05-01T13:33:10Z</time>
</trkpt>
<trkpt lat="45.49452" lon="13.48034">
<ele>49</ele>
<time>2011-05-01T13:33:12Z</time>
</trkpt>
<trkpt lat="45.49446" lon="13.48037">
<ele>49</ele>
<time>2011-05-01T13:33:14Z</time>
</trkpt>
<trkpt lat="45.49439" lon="13.4804">
<ele>49</ele>
<time>2011-05-01T13:33:16Z</time>
</trkpt>
<trkpt lat="45.49432" lon="13.48043">
<ele>49</ele>
<time>2011-05-01T13:33:18Z</time>
</trkpt>
<trkpt lat="45.49425" lon="13.48046">
<ele>49</ele>
<time>2011-05-01T13:33:20Z</time>
</trkpt>
<trkpt lat="45.49419" lon="13.48049">
<ele>49</ele>
<time>2011-05-01T13:33:22Z</time>
</trkpt>
<trkpt lat="45.49412" lon="13.48052">
<ele>49</ele>
<time>2011-05-01T13:33:24Z</time>
</trkpt>
<trkpt lat="45.49405" lon="13.48054">
<ele>49</ele>
<time>2011-05-01T13:33:26Z</time>
</trkpt>
<trkpt lat="45.49398" lon="13.48057">
<ele>49</ele>
<time>2011-05-01T13:33:28Z</time>
</trkpt>
<trkpt lat="45.49391" lon="13.48059">
<ele>49</ele>
<time>2011-05-01T13:33:30Z</time>
</trkpt>
<trkpt lat="45.49384" lon="13.48061">
<ele>49</ele>
<time>2011-05-01T13:33:32Z</time>
</trkpt>
<trkpt lat="45.49377" lon="13.48063">
<ele>49</ele>
<time>2011-05-01T13:33:34Z</time>
</trkpt>
<trkpt lat="45.4937" lon="13.48064">
<ele>49</ele>
<time>2011-05-01T13:33:36Z</time>
</trkpt>
<trkpt lat="45.49364" lon="13.48066">
<ele>49</ele>
<time>2011-05-01T13:33:38Z</time>
</trkpt>
<trkpt lat="45.49357" lon="13.48067">
<ele>49</ele>
<time>2011-05-01T13:33:40Z</time>
</trkpt>
<trkpt lat="45.4935" lon="13.4807">
<ele>49</ele>
<time>2011-05-01T13:33:42Z</time>
</trkpt>
<trkpt lat="45.49343" lon="13.48072">
<ele>48</ele>
<time>2011-05-01T13:33:44Z</time>
</trkpt>
<trkpt lat="45.49336" lon="13.48074">
<ele>48</ele>
<time>2011-05-01T13:33:46Z</time>
</trkpt>
<trkpt lat="45.4933" lon="13.48076">
<ele>48</ele>
<time>2011-05-01T13:33:48Z</time>
</trkpt>
<trkpt lat="45.49323" lon="13.48079">
<ele>48</ele>
<time>2011-05-01T13:33:50Z</time>
</trkpt>
<trkpt lat="45.49316" lon="13.48082">
<ele>48</ele>
<time>2011-05-01T13:33:52Z</time>
</trkpt>
<trkpt lat="45.49309" lon="13.48085">
<ele>48</ele>
<time>2011-05-01T13:33:54Z</time>
</trkpt>
<trkpt lat="45.49303" lon="13.48088">
<ele>48</ele>
<time>2011-05-01T13:33:56Z</time>
</trkpt>
<trkpt lat="45.49296" lon="13.48092">
<ele>48</ele>
<time>2011-05-01T13:33:58Z</time>
</trkpt>
<trkpt lat="45.4929" lon="13.48098">
<ele>48</ele>
<time>2011-05-01T13:34:00Z</time>
</trkpt>
<trkpt lat="45.49284" lon="13.48103">
<ele>48</ele>
<time>2011-05-01T13:34:02Z</time>
</trkpt>
<trkpt lat="45.49279" lon="13.48109">
<ele>48</ele>
<time>2011-05-01T13:34:04Z</time>
</trkpt>
<trkpt lat="45.49273" lon="13.48113">
<ele>49</ele>
<time>2011-05-01T13:34:06Z</time>
</trkpt>
<trkpt lat="45.49267" lon="13.48117">
<ele>49</ele>
<time>2011-05-01T13:34:08Z</time>
</trkpt>
<trkpt lat="45.49261" lon="13.4812">
<ele>49</ele>
<time>2011-05-01T13:34:10Z</time>
</trkpt>
<trkpt lat="45.49256" lon="13.48124">
<ele>49</ele>
<time>2011-05-01T13:34:12Z</time>
</trkpt>
<trkpt lat="45.4925" lon="13.48128">
<ele>49</ele>
<time>2011-05-01T13:34:14Z</time>
</trkpt>
<trkpt lat="45.49244" lon="13.48132">
<ele>49</ele>
<time>2011-05-01T13:34:16Z</time>
</trkpt>
<trkpt lat="45.49239" lon="13.48136">
<ele>49</ele>
<time>2011-05-01T13:34:18Z</time>
</trkpt>
<trkpt lat="45.49233" lon="13.48138">
<ele>49</ele>
<time>2011-05-01T13:34:20Z</time>
</trkpt>
<trkpt lat="45.49228" lon="13.48141">
<ele>49</ele>
<time>2011-05-01T13:34:22Z</time>
</trkpt>
<trkpt lat="45.49222" lon="13.48143">
<ele>49</ele>
<time>2011-05-01T13:34:24Z</time>
</trkpt>
<trkpt lat="45.49216" lon="13.48144">
<ele>49</ele>
<time>2011-05-01T13:34:26Z</time>
</trkpt>
<trkpt lat="45.49209" lon="13.48145">
<ele>49</ele>
<time>2011-05-01T13:34:28Z</time>
</trkpt>
<trkpt lat="45.49203" lon="13.48146">
<ele>49</ele>
<time>2011-05-01T13:34:30Z</time>
</trkpt>
<trkpt lat="45.49197" lon="13.48147">
<ele>49</ele>
<time>2011-05-01T13:34:32Z</time>
</trkpt>
<trkpt lat="45.49191" lon="13.48146">
<ele>49</ele>
<time>2011-05-01T13:34:34Z</time>
</trkpt>
<trkpt lat="45.49184" lon="13.48144">
<ele>49</ele>
<time>2011-05-01T13:34:36Z</time>
</trkpt>
<trkpt lat="45.49178" lon="13.48143">
<ele>49</ele>
<time>2011-05-01T13:34:38Z</time>
</trkpt>
<trkpt lat="45.49172" lon="13.48143">
<ele>49</ele>
<time>2011-05-01T13:34:40Z</time>
</trkpt>
<trkpt lat="45.49165" lon="13.48143">
<ele>49</ele>
<time>2011-05-01T13:34:42Z</time>
</trkpt>
<trkpt lat="45.49159" lon="13.48143">
<ele>49</ele>
<time>2011-05-01T13:34:44Z</time>
</trkpt>
<trkpt lat="45.49152" lon="13.48142">
<ele>49</ele>
<time>2011-05-01T13:34:46Z</time>
</trkpt>
<trkpt lat="45.49146" lon="13.48141">
<ele>49</ele>
<time>2011-05-01T13:34:48Z</time>
</trkpt>
<trkpt lat="45.49139" lon="13.4814">
<ele>49</ele>
<time>2011-05-01T13:34:50Z</time>
</trkpt>
<trkpt lat="45.49133" lon="13.48139">
<ele>49</ele>
<time>2011-05-01T13:34:52Z</time>
</trkpt>
<trkpt lat="45.49126" lon="13.48138">
<ele>49</ele>
<time>2011-05-01T13:34:54Z</time>
</trkpt>
<trkpt lat="45.4912" lon="13.48136">
<ele>49</ele>
<time>2011-05-01T13:34:56Z</time>
</trkpt>
<trkpt lat="45.49114" lon="13.48134">
<ele>49</ele>
<time>2011-05-01T13:34:58Z</time>
</trkpt>
<trkpt lat="45.49108" lon="13.48132">
<ele>49</ele>
<time>2011-05-01T13:35:00Z</time>
</trkpt>
<trkpt lat="45.49102" lon="13.48131">
<ele>49</ele>
<time>2011-05-01T13:35:02Z</time>
</trkpt>
<trkpt lat="45.49096" lon="13.48129">
<ele>49</ele>
<time>2011-05-01T13:35:04Z</time>
</trkpt>
<trkpt lat="45.4909" lon="13.48127">
<ele>49</ele>
<time>2011-05-01T13:35:06Z</time>
</trkpt>
<trkpt lat="45.49084" lon="13.48125">
<ele>49</ele>
<time>2011-05-01T13:35:08Z</time>
</trkpt>
<trkpt lat="45.49078" lon="13.48124">
<ele>49</ele>
<time>2011-05-01T13:35:10Z</time>
</trkpt>
<trkpt lat="45.49072" lon="13.48123">
<ele>49</ele>
<time>2011-05-01T13:35:12Z</time>
</trkpt>
<trkpt lat="45.49066" lon="13.48121">
<ele>49</ele>
<time>2011-05-01T13:35:14Z</time>
</trkpt>
<trkpt lat="45.4906" lon="13.4812">
<ele>49</ele>
<time>2011-05-01T13:35:16Z</time>
</trkpt>
<trkpt lat="45.49054" lon="13.4812">
<ele>49</ele>
<time>2011-05-01T13:35:18Z</time>
</trkpt>
<trkpt lat="45.49049" lon="13.48118">
<ele>49</ele>
<time>2011-05-01T13:35:20Z</time>
</trkpt>
<trkpt lat="45.49043" lon="13.48117">
<ele>49</ele>
<time>2011-05-01T13:35:22Z</time>
</trkpt>
<trkpt lat="45.49037" lon="13.48115">
<ele>49</ele>
<time>2011-05-01T13:35:24Z</time>
</trkpt>
<trkpt lat="45.49031" lon="13.48113">
<ele>49</ele>
<time>2011-05-01T13:35:26Z</time>
</trkpt>
<trkpt lat="45.49026" lon="13.4811">
<ele>49</ele>
<time>2011-05-01T13:35:28Z</time>
</trkpt>
<trkpt lat="45.4902" lon="13.48108">
<ele>49</ele>
<time>2011-05-01T13:35:30Z</time>
</trkpt>
<trkpt lat="45.49014" lon="13.48105">
<ele>49</ele>
<time>2011-05-01T13:35:32Z</time>
</trkpt>
<trkpt lat="45.49009" lon="13.48103">
<ele>49</ele>
<time>2011-05-01T13:35:34Z</time>
</trkpt>
<trkpt lat="45.49004" lon="13.48101">
<ele>49</ele>
<time>2011-05-01T13:35:36Z</time>
</trkpt>
<trkpt lat="45.48998" lon="13.481">
<ele>49</ele>
<time>2011-05-01T13:35:38Z</time>
</trkpt>
<trkpt lat="45.48992" lon="13.481">
<ele>49</ele>
<time>2011-05-01T13:35:40Z</time>
</trkpt>
<trkpt lat="45.48986" lon="13.48099">
<ele>49</ele>
<time>2011-05-01T13:35:42Z</time>
</trkpt>
<trkpt lat="45.4898" lon="13.48099">
<ele>49</ele>
<time>2011-05-01T13:35:44Z</time>
</trkpt>
<trkpt lat="45.48974" lon="13.48098">
<ele>49</ele>
<time>2011-05-01T13:35:46Z</time>
</trkpt>
<trkpt lat="45.48968" lon="13.48098">
<ele>49</ele>
<time>2011-05-01T13:35:48Z</time>
</trkpt>
<trkpt lat="45.48961" lon="13.48098">
<ele>49</ele>
<time>2011-05-01T13:35:50Z</time>
</trkpt>
<trkpt lat="45.48954" lon="13.48098">
<ele>49</ele>
<time>2011-05-01T13:35:52Z</time>
</trkpt>
<trkpt lat="45.48948" lon="13.48098">
<ele>49</ele>
<time>2011-05-01T13:35:54Z</time>
</trkpt>
<trkpt lat="45.48941" lon="13.48098">
<ele>49</ele>
<time>2011-05-01T13:35:56Z</time>
</trkpt>
<trkpt lat="45.48934" lon="13.48099">
<ele>50</ele>
<time>2011-05-01T13:35:58Z</time>
</trkpt>
<trkpt lat="45.48928" lon="13.481">
<ele>50</ele>
<time>2011-05-01T13:36:00Z</time>
</trkpt>
<trkpt lat="45.48921" lon="13.48101">
<ele>50</ele>
<time>2011-05-01T13:36:02Z</time>
</trkpt>
<trkpt lat="45.48914" lon="13.48101">
<ele>50</ele>
<time>2011-05-01T13:36:04Z</time>
</trkpt>
<trkpt lat="45.48908" lon="13.48101">
<ele>50</ele>
<time>2011-05-01T13:36:06Z</time>
</trkpt>
<trkpt lat="45.48901" lon="13.481">
<ele>50</ele>
<time>2011-05-01T13:36:08Z</time>
</trkpt>
<trkpt lat="45.48894" lon="13.481">
<ele>50</ele>
<time>2011-05-01T13:36:10Z</time>
</trkpt>
<trkpt lat="45.48887" lon="13.48099">
<ele>50</ele>
<time>2011-05-01T13:36:12Z</time>
</trkpt>
<trkpt lat="45.4888" lon="13.481">
<ele>50</ele>
<time>2011-05-01T13:36:14Z</time>
</trkpt>
<trkpt lat="45.48872" lon="13.48101">
<ele>50</ele>
<time>2011-05-01T13:36:16Z</time>
</trkpt>
<trkpt lat="45.48865" lon="13.48103">
<ele>50</ele>
<time>2011-05-01T13:36:18Z</time>
</trkpt>
<trkpt lat="45.48859" lon="13.48106">
<ele>50</ele>
<time>2011-05-01T13:36:20Z</time>
</trkpt>
<trkpt lat="45.48852" lon="13.4811">
<ele>50</ele>
<time>2011-05-01T13:36:22Z</time>
</trkpt>
<trkpt lat="45.48846" lon="13.48115">
<ele>50</ele>
<time>2011-05-01T13:36:24Z</time>
</trkpt>
<trkpt lat="45.4884" lon="13.48119">
<ele>50</ele>
<time>2011-05-01T13:36:26Z</time>
</trkpt>
<trkpt lat="45.48833" lon="13.48122">
<ele>50</ele>
<time>2011-05-01T13:36:28Z</time>
</trkpt>
<trkpt lat="45.48827" lon="13.48124">
<ele>50</ele>
<time>2011-05-01T13:36:30Z</time>
</trkpt>
<trkpt lat="45.4882" lon="13.48126">
<ele>50</ele>
<time>2011-05-01T13:36:32Z</time>
</trkpt>
<trkpt lat="45.48814" lon="13.48127">
<ele>50</ele>
<time>2011-05-01T13:36:34Z</time>
</trkpt>
<trkpt lat="45.48807" lon="13.48129">
<ele>50</ele>
<time>2011-05-01T13:36:36Z</time>
</trkpt>
<trkpt lat="45.488" lon="13.48131">
<ele>50</ele>
<time>2011-05-01T13:36:38Z</time>
</trkpt>
<trkpt lat="45.48793" lon="13.48132">
<ele>50</ele>
<time>2011-05-01T13:36:40Z</time>
</trkpt>
<trkpt lat="45.48786" lon="13.48133">
<ele>50</ele>
<time>2011-05-01T13:36:42Z</time>
</trkpt>
<trkpt lat="45.48779" lon="13.48134">
<ele>50</ele>
<time>2011-05-01T13:36:44Z</time>
</trkpt>
<trkpt lat="45.48772" lon="13.48135">
<ele>49</ele>
<time>2011-05-01T13:36:46Z</time>
</trkpt>
<trkpt lat="45.48765" lon="13.48136">
<ele>49</ele>
<time>2011-05-01T13:36:48Z</time>
</trkpt>
<trkpt lat="45.48758" lon="13.48137">
<ele>49</ele>
<time>2011-05-01T13:36:50Z</time>
</trkpt>
<trkpt lat="45.48752" lon="13.48138">
<ele>49</ele>
<time>2011-05-01T13:36:52Z</time>
</trkpt>
<trkpt lat="45.48745" lon="13.4814">
<ele>49</ele>
<time>2011-05-01T13:36:54Z</time>
</trkpt>
<trkpt lat="45.48738" lon="13.48141">
<ele>49</ele>
<time>2011-05-01T13:36:56Z</time>
</trkpt>
<trkpt lat="45.48731" lon="13.48143">
<ele>49</ele>
<time>2011-05-01T13:36:58Z</time>
</trkpt>
<trkpt lat="45.48724" lon="13.48145">
<ele>49</ele>
<time>2011-05-01T13:37:00Z</time>
</trkpt>
<trkpt lat="45.48716" lon="13.48147">
<ele>49</ele>
<time>2011-05-01T13:37:02Z</time>
</trkpt>
<trkpt lat="45.4871" lon="13.48149">
<ele>49</ele>
<time>2011-05-01T13:37:04Z</time>
</trkpt>
<trkpt lat="45.48703" lon="13.48152">
<ele>49</ele>
<time>2011-05-01T13:37:06Z</time>
</trkpt>
<trkpt lat="45.48696" lon="13.48154">
<ele>49</ele>
<time>2011-05-01T13:37:08Z</time>
</trkpt>
<trkpt lat="45.48689" lon="13.48157">
<ele>49</ele>
<time>2011-05-01T13:37:10Z</time>
</trkpt>
<trkpt lat="45.48682" lon="13.48159">
<ele>49</ele>
<time>2011-05-01T13:37:12Z</time>
</trkpt>
<trkpt lat="45.48675" lon="13.4816">
<ele>49</ele>
<time>2011-05-01T13:37:14Z</time>
</trkpt>
<trkpt lat="45.48668" lon="13.48161">
<ele>49</ele>
<time>2011-05-01T13:37:16Z</time>
</trkpt>
<trkpt lat="45.48662" lon="13.48162">
<ele>49</ele>
<time>2011-05-01T13:37:18Z</time>
</trkpt>
<trkpt lat="45.48655" lon="13.48162">
<ele>49</ele>
<time>2011-05-01T13:37:20Z</time>
</trkpt>
<trkpt lat="45.48648" lon="13.48163">
<ele>49</ele>
<time>2011-05-01T13:37:22Z</time>
</trkpt>
<trkpt lat="45.48641" lon="13.48164">
<ele>49</ele>
<time>2011-05-01T13:37:24Z</time>
</trkpt>
<trkpt lat="45.48635" lon="13.48163">
<ele>49</ele>
<time>2011-05-01T13:37:26Z</time>
</trkpt>
<trkpt lat="45.48628" lon="13.48162">
<ele>48</ele>
<time>2011-05-01T13:37:28Z</time>
</trkpt>
<trkpt lat="45.48622" lon="13.4816">
<ele>48</ele>
<time>2011-05-01T13:37:30Z</time>
</trkpt>
<trkpt lat="45.48616" lon="13.48159">
<ele>48</ele>
<time>2011-05-01T13:37:32Z</time>
</trkpt>
<trkpt lat="45.48609" lon="13.48158">
<ele>48</ele>
<time>2011-05-01T13:37:34Z</time>
</trkpt>
<trkpt lat="45.48603" lon="13.48157">
<ele>48</ele>
<time>2011-05-01T13:37:36Z</time>
</trkpt>
<trkpt lat="45.48596" lon="13.48157">
<ele>48</ele>
<time>2011-05-01T13:37:38Z</time>
</trkpt>
<trkpt lat="45.48589" lon="13.48158">
<ele>48</ele>
<time>2011-05-01T13:37:40Z</time>
</trkpt>
<trkpt lat="45.48582" lon="13.48158">
<ele>48</ele>
<time>2011-05-01T13:37:42Z</time>
</trkpt>
<trkpt lat="45.48575" lon="13.48159">
<ele>48</ele>
<time>2011-05-01T13:37:44Z</time>
</trkpt>
<trkpt lat="45.48568" lon="13.48161">
<ele>48</ele>
<time>2011-05-01T13:37:46Z</time>
</trkpt>
<trkpt lat="45.48561" lon="13.48164">
<ele>48</ele>
<time>2011-05-01T13:37:48Z</time>
</trkpt>
<trkpt lat="45.48555" lon="13.48167">
<ele>48</ele>
<time>2011-05-01T13:37:50Z</time>
</trkpt>
<trkpt lat="45.48548" lon="13.4817">
<ele>48</ele>
<time>2011-05-01T13:37:52Z</time>
</trkpt>
<trkpt lat="45.48541" lon="13.48173">
<ele>48</ele>
<time>2011-05-01T13:37:54Z</time>
</trkpt>
<trkpt lat="45.48535" lon="13.48177">
<ele>48</ele>
<time>2011-05-01T13:37:56Z</time>
</trkpt>
<trkpt lat="45.48528" lon="13.48181">
<ele>48</ele>
<time>2011-05-01T13:37:58Z</time>
</trkpt>
<trkpt lat="45.48522" lon="13.48185">
<ele>48</ele>
<time>2011-05-01T13:38:00Z</time>
</trkpt>
<trkpt lat="45.48516" lon="13.4819">
<ele>48</ele>
<time>2011-05-01T13:38:02Z</time>
</trkpt>
<trkpt lat="45.4851" lon="13.48195">
<ele>48</ele>
<time>2011-05-01T13:38:04Z</time>
</trkpt>
<trkpt lat="45.48504" lon="13.482">
<ele>48</ele>
<time>2011-05-01T13:38:06Z</time>
</trkpt>
<trkpt lat="45.48498" lon="13.48205">
<ele>48</ele>
<time>2011-05-01T13:38:08Z</time>
</trkpt>
<trkpt lat="45.48492" lon="13.48209">
<ele>48</ele>
<time>2011-05-01T13:38:10Z</time>
</trkpt>
<trkpt lat="45.48486" lon="13.48211">
<ele>48</ele>
<time>2011-05-01T13:38:12Z</time>
</trkpt>
<trkpt lat="45.48479" lon="13.48214">
<ele>48</ele>
<time>2011-05-01T13:38:14Z</time>
</trkpt>
<trkpt lat="45.48473" lon="13.48215">
<ele>48</ele>
<time>2011-05-01T13:38:16Z</time>
</trkpt>
<trkpt lat="45.48466" lon="13.48217">
<ele>48</ele>
<time>2011-05-01T13:38:18Z</time>
</trkpt>
<trkpt lat="45.4846" lon="13.48219">
<ele>47</ele>
<time>2011-05-01T13:38:20Z</time>
</trkpt>
<trkpt lat="45.48453" lon="13.48221">
<ele>47</ele>
<time>2011-05-01T13:38:22Z</time>
</trkpt>
<trkpt lat="45.48447" lon="13.48224">
<ele>47</ele>
<time>2011-05-01T13:38:24Z</time>
</trkpt>
<trkpt lat="45.4844" lon="13.48226">
<ele>47</ele>
<time>2011-05-01T13:38:26Z</time>
</trkpt>
<trkpt lat="45.48433" lon="13.48228">
<ele>47</ele>
<time>2011-05-01T13:38:28Z</time>
</trkpt>
<trkpt lat="45.48427" lon="13.4823">
<ele>47</ele>
<time>2011-05-01T13:38:30Z</time>
</trkpt>
<trkpt lat="45.4842" lon="13.48232">
<ele>47</ele>
<time>2011-05-01T13:38:32Z</time>
</trkpt>
<trkpt lat="45.48413" lon="13.48235">
<ele>47</ele>
<time>2011-05-01T13:38:34Z</time>
</trkpt>
<trkpt lat="45.48407" lon="13.48237">
<ele>47</ele>
<time>2011-05-01T13:38:36Z</time>
</trkpt>
<trkpt lat="45.484" lon="13.48239">
<ele>47</ele>
<time>2011-05-01T13:38:38Z</time>
</trkpt>
<trkpt lat="45.48393" lon="13.48241">
<ele>47</ele>
<time>2011-05-01T13:38:40Z</time>
</trkpt>
<trkpt lat="45.48386" lon="13.48243">
<ele>47</ele>
<time>2011-05-01T13:38:42Z</time>
</trkpt>
<trkpt lat="45.48379" lon="13.48244">
<ele>47</ele>
<time>2011-05-01T13:38:44Z</time>
</trkpt>
<trkpt lat="45.48372" lon="13.48245">
<ele>47</ele>
<time>2011-05-01T13:38:46Z</time>
</trkpt>
<trkpt lat="45.48366" lon="13.48246">
<ele>47</ele>
<time>2011-05-01T13:38:48Z</time>
</trkpt>
<trkpt lat="45.48359" lon="13.48246">
<ele>47</ele>
<time>2011-05-01T13:38:50Z</time>
</trkpt>
<trkpt lat="45.48352" lon="13.48247">
<ele>47</ele>
<time>2011-05-01T13:38:52Z</time>
</trkpt>
<trkpt lat="45.48345" lon="13.48248">
<ele>47</ele>
<time>2011-05-01T13:38:54Z</time>
</trkpt>
<trkpt lat="45.48339" lon="13.4825">
<ele>47</ele>
<time>2011-05-01T13:38:56Z</time>
</trkpt>
<trkpt lat="45.48331" lon="13.48252">
<ele>47</ele>
<time>2011-05-01T13:38:58Z</time>
</trkpt>
<trkpt lat="45.48324" lon="13.48254">
<ele>47</ele>
<time>2011-05-01T13:39:00Z</time>
</trkpt>
<trkpt lat="45.48317" lon="13.48256">
<ele>47</ele>
<time>2011-05-01T13:39:02Z</time>
</trkpt>
<trkpt lat="45.4831" lon="13.48258">
<ele>47</ele>
<time>2011-05-01T13:39:04Z</time>
</trkpt>
<trkpt lat="45.48303" lon="13.4826">
<ele>47</ele>
<time>2011-05-01T13:39:06Z</time>
</trkpt>
<trkpt lat="45.48296" lon="13.48262">
<ele>47</ele>
<time>2011-05-01T13:39:08Z</time>
</trkpt>
<trkpt lat="45.4829" lon="13.48264">
<ele>47</ele>
<time>2011-05-01T13:39:10Z</time>
</trkpt>
<trkpt lat="45.48282" lon="13.48265">
<ele>47</ele>
<time>2011-05-01T13:39:12Z</time>
</trkpt>
<trkpt lat="45.48276" lon="13.48267">
<ele>47</ele>
<time>2011-05-01T13:39:14Z</time>
</trkpt>
<trkpt lat="45.48269" lon="13.48268">
<ele>47</ele>
<time>2011-05-01T13:39:16Z</time>
</trkpt>
<trkpt lat="45.48262" lon="13.4827">
<ele>47</ele>
<time>2011-05-01T13:39:18Z</time>
</trkpt>
<trkpt lat="45.48255" lon="13.4827">
<ele>47</ele>
<time>2011-05-01T13:39:20Z</time>
</trkpt>
<trkpt lat="45.48248" lon="13.48272">
<ele>47</ele>
<time>2011-05-01T13:39:22Z</time>
</trkpt>
<trkpt lat="45.48241" lon="13.48275">
<ele>47</ele>
<time>2011-05-01T13:39:24Z</time>
</trkpt>
<trkpt lat="45.48234" lon="13.48278">
<ele>47</ele>
<time>2011-05-01T13:39:26Z</time>
</trkpt>
<trkpt lat="45.48228" lon="13.48282">
<ele>47</ele>
<time>2011-05-01T13:39:28Z</time>
</trkpt>
<trkpt lat="45.48222" lon="13.48286">
<ele>47</ele>
<time>2011-05-01T13:39:30Z</time>
</trkpt>
<trkpt lat="45.48215" lon="13.48292">
<ele>47</ele>
<time>2011-05-01T13:39:32Z</time>
</trkpt>
<trkpt lat="45.4821" lon="13.48297">
<ele>47</ele>
<time>2011-05-01T13:39:34Z</time>
</trkpt>
<trkpt lat="45.48204" lon="13.48303">
<ele>47</ele>
<time>2011-05-01T13:39:36Z</time>
</trkpt>
<trkpt lat="45.48198" lon="13.48309">
<ele>47</ele>
<time>2011-05-01T13:39:38Z</time>
</trkpt>
<trkpt lat="45.48193" lon="13.48315">
<ele>47</ele>
<time>2011-05-01T13:39:40Z</time>
</trkpt>
<trkpt lat="45.48188" lon="13.48321">
<ele>47</ele>
<time>2011-05-01T13:39:42Z</time>
</trkpt>
<trkpt lat="45.48182" lon="13.48327">
<ele>47</ele>
<time>2011-05-01T13:39:44Z</time>
</trkpt>
<trkpt lat="45.48177" lon="13.48333">
<ele>47</ele>
<time>2011-05-01T13:39:46Z</time>
</trkpt>
<trkpt lat="45.48172" lon="13.48339">
<ele>47</ele>
<time>2011-05-01T13:39:48Z</time>
</trkpt>
<trkpt lat="45.48167" lon="13.48345">
<ele>47</ele>
<time>2011-05-01T13:39:50Z</time>
</trkpt>
<trkpt lat="45.48162" lon="13.4835">
<ele>47</ele>
<time>2011-05-01T13:39:52Z</time>
</trkpt>
<trkpt lat="45.48157" lon="13.48354">
<ele>47</ele>
<time>2011-05-01T13:39:54Z</time>
</trkpt>
<trkpt lat="45.48152" lon="13.48359">
<ele>47</ele>
<time>2011-05-01T13:39:56Z</time>
</trkpt>
<trkpt lat="45.48146" lon="13.48364">
<ele>47</ele>
<time>2011-05-01T13:39:58Z</time>
</trkpt>
<trkpt lat="45.48141" lon="13.48368">
<ele>47</ele>
<time>2011-05-01T13:40:00Z</time>
</trkpt>
<trkpt lat="45.48136" lon="13.48372">
<ele>47</ele>
<time>2011-05-01T13:40:02Z</time>
</trkpt>
<trkpt lat="45.4813" lon="13.48376">
<ele>47</ele>
<time>2011-05-01T13:40:04Z</time>
</trkpt>
<trkpt lat="45.48125" lon="13.4838">
<ele>47</ele>
<time>2011-05-01T13:40:06Z</time>
</trkpt>
<trkpt lat="45.4812" lon="13.48383">
<ele>47</ele>
<time>2011-05-01T13:40:08Z</time>
</trkpt>
<trkpt lat="45.48114" lon="13.48386">
<ele>47</ele>
<time>2011-05-01T13:40:10Z</time>
</trkpt>
<trkpt lat="45.48108" lon="13.48389">
<ele>47</ele>
<time>2011-05-01T13:40:12Z</time>
</trkpt>
<trkpt lat="45.48103" lon="13.48392">
<ele>47</ele>
<time>2011-05-01T13:40:14Z</time>
</trkpt>
<trkpt lat="45.48097" lon="13.48396">
<ele>47</ele>
<time>2011-05-01T13:40:16Z</time>
</trkpt>
<trkpt lat="45.48091" lon="13.484">
<ele>47</ele>
<time>2011-05-01T13:40:18Z</time>
</trkpt>
<trkpt lat="45.48085" lon="13.48403">
<ele>47</ele>
<time>2011-05-01T13:40:20Z</time>
</trkpt>
<trkpt lat="45.4808" lon="13.48406">
<ele>47</ele>
<time>2011-05-01T13:40:22Z</time>
</trkpt>
<trkpt lat="45.48074" lon="13.48408">
<ele>47</ele>
<time>2011-05-01T13:40:24Z</time>
</trkpt>
<trkpt lat="45.48068" lon="13.48411">
<ele>47</ele>
<time>2011-05-01T13:40:26Z</time>
</trkpt>
<trkpt lat="45.48061" lon="13.48413">
<ele>47</ele>
<time>2011-05-01T13:40:28Z</time>
</trkpt>
<trkpt lat="45.48055" lon="13.48415">
<ele>47</ele>
<time>2011-05-01T13:40:30Z</time>
</trkpt>
<trkpt lat="45.48049" lon="13.48417">
<ele>47</ele>
<time>2011-05-01T13:40:32Z</time>
</trkpt>
<trkpt lat="45.48042" lon="13.48418">
<ele>47</ele>
<time>2011-05-01T13:40:34Z</time>
</trkpt>
<trkpt lat="45.48036" lon="13.48419">
<ele>47</ele>
<time>2011-05-01T13:40:36Z</time>
</trkpt>
<trkpt lat="45.48029" lon="13.48419">
<ele>47</ele>
<time>2011-05-01T13:40:38Z</time>
</trkpt>
<trkpt lat="45.48023" lon="13.4842">
<ele>47</ele>
<time>2011-05-01T13:40:40Z</time>
</trkpt>
<trkpt lat="45.48017" lon="13.4842">
<ele>47</ele>
<time>2011-05-01T13:40:42Z</time>
</trkpt>
<trkpt lat="45.4801" lon="13.4842">
<ele>47</ele>
<time>2011-05-01T13:40:44Z</time>
</trkpt>
<trkpt lat="45.48004" lon="13.48421">
<ele>47</ele>
<time>2011-05-01T13:40:46Z</time>
</trkpt>
<trkpt lat="45.47998" lon="13.48421">
<ele>47</ele>
<time>2011-05-01T13:40:48Z</time>
</trkpt>
<trkpt lat="45.47992" lon="13.48421">
<ele>47</ele>
<time>2011-05-01T13:40:50Z</time>
</trkpt>
<trkpt lat="45.47985" lon="13.48421">
<ele>47</ele>
<time>2011-05-01T13:40:52Z</time>
</trkpt>
<trkpt lat="45.47979" lon="13.48422">
<ele>47</ele>
<time>2011-05-01T13:40:54Z</time>
</trkpt>
<trkpt lat="45.47973" lon="13.48422">
<ele>47</ele>
<time>2011-05-01T13:40:56Z</time>
</trkpt>
<trkpt lat="45.47967" lon="13.48422">
<ele>47</ele>
<time>2011-05-01T13:40:58Z</time>
</trkpt>
<trkpt lat="45.47961" lon="13.48421">
<ele>47</ele>
<time>2011-05-01T13:41:00Z</time>
</trkpt>
<trkpt lat="45.47955" lon="13.48421">
<ele>47</ele>
<time>2011-05-01T13:41:02Z</time>
</trkpt>
<trkpt lat="45.47949" lon="13.48421">
<ele>47</ele>
<time>2011-05-01T13:41:04Z</time>
</trkpt>
<trkpt lat="45.47943" lon="13.48422">
<ele>47</ele>
<time>2011-05-01T13:41:06Z</time>
</trkpt>
<trkpt lat="45.47937" lon="13.48422">
<ele>46</ele>
<time>2011-05-01T13:41:08Z</time>
</trkpt>
<trkpt lat="45.4793" lon="13.48423">
<ele>46</ele>
<time>2011-05-01T13:41:10Z</time>
</trkpt>
<trkpt lat="45.47924" lon="13.48424">
<ele>46</ele>
<time>2011-05-01T13:41:12Z</time>
</trkpt>
<trkpt lat="45.47917" lon="13.48426">
<ele>46</ele>
<time>2011-05-01T13:41:14Z</time>
</trkpt>
<trkpt lat="45.47911" lon="13.48427">
<ele>46</ele>
<time>2011-05-01T13:41:16Z</time>
</trkpt>
<trkpt lat="45.47905" lon="13.4843">
<ele>46</ele>
<time>2011-05-01T13:41:18Z</time>
</trkpt>
<trkpt lat="45.47899" lon="13.48433">
<ele>46</ele>
<time>2011-05-01T13:41:20Z</time>
</trkpt>
<trkpt lat="45.47893" lon="13.48435">
<ele>46</ele>
<time>2011-05-01T13:41:22Z</time>
</trkpt>
<trkpt lat="45.47886" lon="13.48438">
<ele>47</ele>
<time>2011-05-01T13:41:24Z</time>
</trkpt>
<trkpt lat="45.4788" lon="13.48441">
<ele>47</ele>
<time>2011-05-01T13:41:26Z</time>
</trkpt>
<trkpt lat="45.47874" lon="13.48444">
<ele>47</ele>
<time>2011-05-01T13:41:28Z</time>
</trkpt>
<trkpt lat="45.47867" lon="13.48447">
<ele>47</ele>
<time>2011-05-01T13:41:30Z</time>
</trkpt>
<trkpt lat="45.47861" lon="13.48451">
<ele>47</ele>
<time>2011-05-01T13:41:32Z</time>
</trkpt>
<trkpt lat="45.47855" lon="13.48454">
<ele>47</ele>
<time>2011-05-01T13:41:34Z</time>
</trkpt>
<trkpt lat="45.47848" lon="13.48458">
<ele>47</ele>
<time>2011-05-01T13:41:36Z</time>
</trkpt>
<trkpt lat="45.47842" lon="13.48461">
<ele>47</ele>
<time>2011-05-01T13:41:38Z</time>
</trkpt>
<trkpt lat="45.47835" lon="13.48464">
<ele>47</ele>
<time>2011-05-01T13:41:40Z</time>
</trkpt>
<trkpt lat="45.47829" lon="13.48467">
<ele>47</ele>
<time>2011-05-01T13:41:42Z</time>
</trkpt>
<trkpt lat="45.47823" lon="13.48471">
<ele>47</ele>
<time>2011-05-01T13:41:44Z</time>
</trkpt>
<trkpt lat="45.47816" lon="13.48474">
<ele>47</ele>
<time>2011-05-01T13:41:46Z</time>
</trkpt>
<trkpt lat="45.4781" lon="13.48478">
<ele>47</ele>
<time>2011-05-01T13:41:48Z</time>
</trkpt>
<trkpt lat="45.47803" lon="13.48481">
<ele>47</ele>
<time>2011-05-01T13:41:50Z</time>
</trkpt>
<trkpt lat="45.47797" lon="13.48484">
<ele>47</ele>
<time>2011-05-01T13:41:52Z</time>
</trkpt>
<trkpt lat="45.47791" lon="13.48488">
<ele>47</ele>
<time>2011-05-01T13:41:54Z</time>
</trkpt>
<trkpt lat="45.47784" lon="13.48491">
<ele>47</ele>
<time>2011-05-01T13:41:56Z</time>
</trkpt>
<trkpt lat="45.47778" lon="13.48494">
<ele>47</ele>
<time>2011-05-01T13:41:58Z</time>
</trkpt>
<trkpt lat="45.47772" lon="13.48498">
<ele>47</ele>
<time>2011-05-01T13:42:00Z</time>
</trkpt>
<trkpt lat="45.47766" lon="13.48502">
<ele>47</ele>
<time>2011-05-01T13:42:02Z</time>
</trkpt>
<trkpt lat="45.47759" lon="13.48505">
<ele>47</ele>
<time>2011-05-01T13:42:04Z</time>
</trkpt>
<trkpt lat="45.47753" lon="13.48508">
<ele>47</ele>
<time>2011-05-01T13:42:06Z</time>
</trkpt>
<trkpt lat="45.47747" lon="13.48512">
<ele>47</ele>
<time>2011-05-01T13:42:08Z</time>
</trkpt>
<trkpt lat="45.4774" lon="13.48516">
<ele>47</ele>
<time>2011-05-01T13:42:10Z</time>
</trkpt>
<trkpt lat="45.47734" lon="13.4852">
<ele>47</ele>
<time>2011-05-01T13:42:12Z</time>
</trkpt>
<trkpt lat="45.47728" lon="13.48524">
<ele>47</ele>
<time>2011-05-01T13:42:14Z</time>
</trkpt>
<trkpt lat="45.47721" lon="13.48528">
<ele>47</ele>
<time>2011-05-01T13:42:16Z</time>
</trkpt>
<trkpt lat="45.47715" lon="13.48533">
<ele>47</ele>
<time>2011-05-01T13:42:18Z</time>
</trkpt>
<trkpt lat="45.47708" lon="13.48536">
<ele>47</ele>
<time>2011-05-01T13:42:20Z</time>
</trkpt>
<trkpt lat="45.47702" lon="13.48539">
<ele>47</ele>
<time>2011-05-01T13:42:22Z</time>
</trkpt>
<trkpt lat="45.47696" lon="13.48543">
<ele>46</ele>
<time>2011-05-01T13:42:24Z</time>
</trkpt>
<trkpt lat="45.47689" lon="13.48546">
<ele>46</ele>
<time>2011-05-01T13:42:26Z</time>
</trkpt>
<trkpt lat="45.47683" lon="13.4855">
<ele>46</ele>
<time>2011-05-01T13:42:28Z</time>
</trkpt>
<trkpt lat="45.47677" lon="13.48552">
<ele>46</ele>
<time>2011-05-01T13:42:30Z</time>
</trkpt>
<trkpt lat="45.4767" lon="13.48555">
<ele>46</ele>
<time>2011-05-01T13:42:32Z</time>
</trkpt>
<trkpt lat="45.47664" lon="13.48558">
<ele>46</ele>
<time>2011-05-01T13:42:34Z</time>
</trkpt>
<trkpt lat="45.47657" lon="13.4856">
<ele>46</ele>
<time>2011-05-01T13:42:36Z</time>
</trkpt>
<trkpt lat="45.47651" lon="13.48563">
<ele>46</ele>
<time>2011-05-01T13:42:38Z</time>
</trkpt>
<trkpt lat="45.47644" lon="13.48566">
<ele>46</ele>
<time>2011-05-01T13:42:40Z</time>
</trkpt>
<trkpt lat="45.47638" lon="13.48569">
<ele>46</ele>
<time>2011-05-01T13:42:42Z</time>
</trkpt>
<trkpt lat="45.47632" lon="13.48572">
<ele>46</ele>
<time>2011-05-01T13:42:44Z</time>
</trkpt>
<trkpt lat="45.47625" lon="13.48576">
<ele>46</ele>
<time>2011-05-01T13:42:46Z</time>
</trkpt>
<trkpt lat="45.47619" lon="13.48579">
<ele>46</ele>
<time>2011-05-01T13:42:48Z</time>
</trkpt>
<trkpt lat="45.47612" lon="13.48581">
<ele>46</ele>
<time>2011-05-01T13:42:50Z</time>
</trkpt>
<trkpt lat="45.47606" lon="13.48583">
<ele>46</ele>
<time>2011-05-01T13:42:52Z</time>
</trkpt>
<trkpt lat="45.476" lon="13.48586">
<ele>46</ele>
<time>2011-05-01T13:42:54Z</time>
</trkpt>
<trkpt lat="45.47593" lon="13.48588">
<ele>46</ele>
<time>2011-05-01T13:42:56Z</time>
</trkpt>
<trkpt lat="45.47587" lon="13.48591">
<ele>46</ele>
<time>2011-05-01T13:42:58Z</time>
</trkpt>
<trkpt lat="45.47581" lon="13.48594">
<ele>46</ele>
<time>2011-05-01T13:43:00Z</time>
</trkpt>
<trkpt lat="45.47574" lon="13.48596">
<ele>46</ele>
<time>2011-05-01T13:43:02Z</time>
</trkpt>
<trkpt lat="45.47568" lon="13.48597">
<ele>46</ele>
<time>2011-05-01T13:43:04Z</time>
</trkpt>
<trkpt lat="45.47561" lon="13.48599">
<ele>46</ele>
<time>2011-05-01T13:43:06Z</time>
</trkpt>
<trkpt lat="45.47555" lon="13.48601">
<ele>46</ele>
<time>2011-05-01T13:43:08Z</time>
</trkpt>
<trkpt lat="45.47549" lon="13.48603">
<ele>45</ele>
<time>2011-05-01T13:43:10Z</time>
</trkpt>
<trkpt lat="45.47542" lon="13.48606">
<ele>45</ele>
<time>2011-05-01T13:43:12Z</time>
</trkpt>
<trkpt lat="45.47536" lon="13.48609">
<ele>45</ele>
<time>2011-05-01T13:43:14Z</time>
</trkpt>
<trkpt lat="45.47529" lon="13.48611">
<ele>45</ele>
<time>2011-05-01T13:43:16Z</time>
</trkpt>
<trkpt lat="45.47523" lon="13.48614">
<ele>45</ele>
<time>2011-05-01T13:43:18Z</time>
</trkpt>
<trkpt lat="45.47516" lon="13.48616">
<ele>45</ele>
<time>2011-05-01T13:43:20Z</time>
</trkpt>
<trkpt lat="45.47509" lon="13.48617">
<ele>45</ele>
<time>2011-05-01T13:43:22Z</time>
</trkpt>
<trkpt lat="45.47503" lon="13.48619">
<ele>45</ele>
<time>2011-05-01T13:43:24Z</time>
</trkpt>
<trkpt lat="45.47496" lon="13.48619">
<ele>45</ele>
<time>2011-05-01T13:43:26Z</time>
</trkpt>
<trkpt lat="45.47489" lon="13.48619">
<ele>45</ele>
<time>2011-05-01T13:43:28Z</time>
</trkpt>
<trkpt lat="45.47483" lon="13.4862">
<ele>45</ele>
<time>2011-05-01T13:43:30Z</time>
</trkpt>
<trkpt lat="45.47476" lon="13.48621">
<ele>45</ele>
<time>2011-05-01T13:43:32Z</time>
</trkpt>
<trkpt lat="45.47469" lon="13.48622">
<ele>45</ele>
<time>2011-05-01T13:43:34Z</time>
</trkpt>
<trkpt lat="45.47462" lon="13.48623">
<ele>45</ele>
<time>2011-05-01T13:43:36Z</time>
</trkpt>
<trkpt lat="45.47456" lon="13.48624">
<ele>45</ele>
<time>2011-05-01T13:43:38Z</time>
</trkpt>
<trkpt lat="45.47449" lon="13.48626">
<ele>45</ele>
<time>2011-05-01T13:43:40Z</time>
</trkpt>
<trkpt lat="45.47442" lon="13.48627">
<ele>45</ele>
<time>2011-05-01T13:43:42Z</time>
</trkpt>
<trkpt lat="45.47436" lon="13.48628">
<ele>45</ele>
<time>2011-05-01T13:43:44Z</time>
</trkpt>
<trkpt lat="45.47429" lon="13.4863">
<ele>45</ele>
<time>2011-05-01T13:43:46Z</time>
</trkpt>
<trkpt lat="45.47422" lon="13.48631">
<ele>45</ele>
<time>2011-05-01T13:43:48Z</time>
</trkpt>
<trkpt lat="45.47415" lon="13.48632">
<ele>45</ele>
<time>2011-05-01T13:43:50Z</time>
</trkpt>
<trkpt lat="45.47408" lon="13.48634">
<ele>45</ele>
<time>2011-05-01T13:43:52Z</time>
</trkpt>
<trkpt lat="45.47402" lon="13.48635">
<ele>45</ele>
<time>2011-05-01T13:43:54Z</time>
</trkpt>
<trkpt lat="45.47395" lon="13.48636">
<ele>45</ele>
<time>2011-05-01T13:43:56Z</time>
</trkpt>
<trkpt lat="45.47388" lon="13.48638">
<ele>45</ele>
<time>2011-05-01T13:43:58Z</time>
</trkpt>
<trkpt lat="45.47381" lon="13.48641">
<ele>45</ele>
<time>2011-05-01T13:44:00Z</time>
</trkpt>
<trkpt lat="45.47375" lon="13.48644">
<ele>45</ele>
<time>2011-05-01T13:44:02Z</time>
</trkpt>
<trkpt lat="45.47368" lon="13.48648">
<ele>45</ele>
<time>2011-05-01T13:44:04Z</time>
</trkpt>
<trkpt lat="45.47362" lon="13.48651">
<ele>45</ele>
<time>2011-05-01T13:44:06Z</time>
</trkpt>
<trkpt lat="45.47356" lon="13.48654">
<ele>45</ele>
<time>2011-05-01T13:44:08Z</time>
</trkpt>
<trkpt lat="45.47349" lon="13.48657">
<ele>45</ele>
<time>2011-05-01T13:44:10Z</time>
</trkpt>
<trkpt lat="45.47343" lon="13.4866">
<ele>45</ele>
<time>2011-05-01T13:44:12Z</time>
</trkpt>
<trkpt lat="45.47336" lon="13.48663">
<ele>45</ele>
<time>2011-05-01T13:44:14Z</time>
</trkpt>
<trkpt lat="45.4733" lon="13.48665">
<ele>45</ele>
<time>2011-05-01T13:44:16Z</time>
</trkpt>
<trkpt lat="45.47323" lon="13.48668">
<ele>45</ele>
<time>2011-05-01T13:44:18Z</time>
</trkpt>
<trkpt lat="45.47317" lon="13.48672">
<ele>45</ele>
<time>2011-05-01T13:44:20Z</time>
</trkpt>
<trkpt lat="45.47311" lon="13.48675">
<ele>45</ele>
<time>2011-05-01T13:44:22Z</time>
</trkpt>
<trkpt lat="45.47304" lon="13.48678">
<ele>45</ele>
<time>2011-05-01T13:44:24Z</time>
</trkpt>
<trkpt lat="45.47298" lon="13.48682">
<ele>45</ele>
<time>2011-05-01T13:44:26Z</time>
</trkpt>
<trkpt lat="45.47292" lon="13.48685">
<ele>45</ele>
<time>2011-05-01T13:44:28Z</time>
</trkpt>
<trkpt lat="45.47286" lon="13.48688">
<ele>46</ele>
<time>2011-05-01T13:44:30Z</time>
</trkpt>
<trkpt lat="45.47279" lon="13.48691">
<ele>46</ele>
<time>2011-05-01T13:44:32Z</time>
</trkpt>
<trkpt lat="45.47272" lon="13.48693">
<ele>46</ele>
<time>2011-05-01T13:44:34Z</time>
</trkpt>
<trkpt lat="45.47266" lon="13.48696">
<ele>46</ele>
<time>2011-05-01T13:44:36Z</time>
</trkpt>
<trkpt lat="45.47259" lon="13.48698">
<ele>46</ele>
<time>2011-05-01T13:44:38Z</time>
</trkpt>
<trkpt lat="45.47253" lon="13.48701">
<ele>46</ele>
<time>2011-05-01T13:44:40Z</time>
</trkpt>
<trkpt lat="45.47247" lon="13.48704">
<ele>46</ele>
<time>2011-05-01T13:44:42Z</time>
</trkpt>
<trkpt lat="45.4724" lon="13.48708">
<ele>46</ele>
<time>2011-05-01T13:44:44Z</time>
</trkpt>
<trkpt lat="45.47234" lon="13.48711">
<ele>46</ele>
<time>2011-05-01T13:44:46Z</time>
</trkpt>
<trkpt lat="45.47228" lon="13.48714">
<ele>46</ele>
<time>2011-05-01T13:44:48Z</time>
</trkpt>
<trkpt lat="45.47221" lon="13.48717">
<ele>46</ele>
<time>2011-05-01T13:44:50Z</time>
</trkpt>
<trkpt lat="45.47215" lon="13.4872">
<ele>46</ele>
<time>2011-05-01T13:44:52Z</time>
</trkpt>
<trkpt lat="45.47209" lon="13.48723">
<ele>46</ele>
<time>2011-05-01T13:44:54Z</time>
</trkpt>
<trkpt lat="45.47203" lon="13.48726">
<ele>46</ele>
<time>2011-05-01T13:44:56Z</time>
</trkpt>
<trkpt lat="45.47196" lon="13.48729">
<ele>46</ele>
<time>2011-05-01T13:44:58Z</time>
</trkpt>
<trkpt lat="45.4719" lon="13.48731">
<ele>46</ele>
<time>2011-05-01T13:45:00Z</time>
</trkpt>
<trkpt lat="45.47184" lon="13.48734">
<ele>46</ele>
<time>2011-05-01T13:45:02Z</time>
</trkpt>
<trkpt lat="45.47177" lon="13.48736">
<ele>46</ele>
<time>2011-05-01T13:45:04Z</time>
</trkpt>
<trkpt lat="45.47171" lon="13.48738">
<ele>46</ele>
<time>2011-05-01T13:45:06Z</time>
</trkpt>
<trkpt lat="45.47164" lon="13.48741">
<ele>46</ele>
<time>2011-05-01T13:45:08Z</time>
</trkpt>
<trkpt lat="45.47158" lon="13.48744">
<ele>46</ele>
<time>2011-05-01T13:45:10Z</time>
</trkpt>
<trkpt lat="45.47152" lon="13.48746">
<ele>46</ele>
<time>2011-05-01T13:45:12Z</time>
</trkpt>
<trkpt lat="45.47145" lon="13.48748">
<ele>46</ele>
<time>2011-05-01T13:45:14Z</time>
</trkpt>
<trkpt lat="45.47138" lon="13.4875">
<ele>46</ele>
<time>2011-05-01T13:45:16Z</time>
</trkpt>
<trkpt lat="45.47132" lon="13.48752">
<ele>46</ele>
<time>2011-05-01T13:45:18Z</time>
</trkpt>
<trkpt lat="45.47125" lon="13.48753">
<ele>46</ele>
<time>2011-05-01T13:45:20Z</time>
</trkpt>
<trkpt lat="45.47119" lon="13.48756">
<ele>46</ele>
<time>2011-05-01T13:45:22Z</time>
</trkpt>
<trkpt lat="45.47112" lon="13.48758">
<ele>46</ele>
<time>2011-05-01T13:45:24Z</time>
</trkpt>
<trkpt lat="45.47106" lon="13.48761">
<ele>46</ele>
<time>2011-05-01T13:45:26Z</time>
</trkpt>
<trkpt lat="45.47099" lon="13.48763">
<ele>46</ele>
<time>2011-05-01T13:45:28Z</time>
</trkpt>
<trkpt lat="45.47093" lon="13.48766">
<ele>46</ele>
<time>2011-05-01T13:45:30Z</time>
</trkpt>
<trkpt lat="45.47087" lon="13.48768">
<ele>46</ele>
<time>2011-05-01T13:45:32Z</time>
</trkpt>
<trkpt lat="45.4708" lon="13.48771">
<ele>46</ele>
<time>2011-05-01T13:45:34Z</time>
</trkpt>
<trkpt lat="45.47074" lon="13.48774">
<ele>46</ele>
<time>2011-05-01T13:45:36Z</time>
</trkpt>
<trkpt lat="45.47068" lon="13.48777">
<ele>46</ele>
<time>2011-05-01T13:45:38Z</time>
</trkpt>
<trkpt lat="45.47061" lon="13.48781">
<ele>46</ele>
<time>2011-05-01T13:45:40Z</time>
</trkpt>
<trkpt lat="45.47055" lon="13.48784">
<ele>46</ele>
<time>2011-05-01T13:45:42Z</time>
</trkpt>
<trkpt lat="45.47048" lon="13.48786">
<ele>46</ele>
<time>2011-05-01T13:45:44Z</time>
</trkpt>
<trkpt lat="45.47042" lon="13.48788">
<ele>46</ele>
<time>2011-05-01T13:45:46Z</time>
</trkpt>
<trkpt lat="45.47035" lon="13.48791">
<ele>46</ele>
<time>2011-05-01T13:45:48Z</time>
</trkpt>
<trkpt lat="45.47028" lon="13.48794">
<ele>46</ele>
<time>2011-05-01T13:45:50Z</time>
</trkpt>
<trkpt lat="45.47021" lon="13.48796">
<ele>46</ele>
<time>2011-05-01T13:45:52Z</time>
</trkpt>
<trkpt lat="45.47015" lon="13.48799">
<ele>46</ele>
<time>2011-05-01T13:45:54Z</time>
</trkpt>
<trkpt lat="45.47008" lon="13.48802">
<ele>46</ele>
<time>2011-05-01T13:45:56Z</time>
</trkpt>
<trkpt lat="45.47002" lon="13.48804">
<ele>46</ele>
<time>2011-05-01T13:45:58Z</time>
</trkpt>
<trkpt lat="45.46995" lon="13.48806">
<ele>46</ele>
<time>2011-05-01T13:46:00Z</time>
</trkpt>
<trkpt lat="45.46988" lon="13.48808">
<ele>46</ele>
<time>2011-05-01T13:46:02Z</time>
</trkpt>
<trkpt lat="45.46982" lon="13.48811">
<ele>46</ele>
<time>2011-05-01T13:46:04Z</time>
</trkpt>
<trkpt lat="45.46975" lon="13.48813">
<ele>46</ele>
<time>2011-05-01T13:46:06Z</time>
</trkpt>
<trkpt lat="45.46969" lon="13.48815">
<ele>46</ele>
<time>2011-05-01T13:46:08Z</time>
</trkpt>
<trkpt lat="45.46962" lon="13.48818">
<ele>46</ele>
<time>2011-05-01T13:46:10Z</time>
</trkpt>
<trkpt lat="45.46956" lon="13.4882">
<ele>46</ele>
<time>2011-05-01T13:46:12Z</time>
</trkpt>
<trkpt lat="45.4695" lon="13.48823">
<ele>46</ele>
<time>2011-05-01T13:46:14Z</time>
</trkpt>
<trkpt lat="45.46943" lon="13.48825">
<ele>46</ele>
<time>2011-05-01T13:46:16Z</time>
</trkpt>
<trkpt lat="45.46936" lon="13.48828">
<ele>46</ele>
<time>2011-05-01T13:46:18Z</time>
</trkpt>
<trkpt lat="45.4693" lon="13.48832">
<ele>46</ele>
<time>2011-05-01T13:46:20Z</time>
</trkpt>
<trkpt lat="45.46924" lon="13.48835">
<ele>46</ele>
<time>2011-05-01T13:46:22Z</time>
</trkpt>
<trkpt lat="45.46917" lon="13.48838">
<ele>46</ele>
<time>2011-05-01T13:46:24Z</time>
</trkpt>
<trkpt lat="45.46911" lon="13.48841">
<ele>46</ele>
<time>2011-05-01T13:46:26Z</time>
</trkpt>
<trkpt lat="45.46905" lon="13.48842">
<ele>46</ele>
<time>2011-05-01T13:46:28Z</time>
</trkpt>
<trkpt lat="45.46898" lon="13.48843">
<ele>46</ele>
<time>2011-05-01T13:46:30Z</time>
</trkpt>
<trkpt lat="45.46892" lon="13.48844">
<ele>46</ele>
<time>2011-05-01T13:46:32Z</time>
</trkpt>
<trkpt lat="45.46886" lon="13.48845">
<ele>46</ele>
<time>2011-05-01T13:46:34Z</time>
</trkpt>
<trkpt lat="45.4688" lon="13.48846">
<ele>46</ele>
<time>2011-05-01T13:46:36Z</time>
</trkpt>
<trkpt lat="45.46874" lon="13.48846">
<ele>46</ele>
<time>2011-05-01T13:46:38Z</time>
</trkpt>
<trkpt lat="45.46868" lon="13.48845">
<ele>46</ele>
<time>2011-05-01T13:46:40Z</time>
</trkpt>
<trkpt lat="45.46862" lon="13.48843">
<ele>46</ele>
<time>2011-05-01T13:46:42Z</time>
</trkpt>
<trkpt lat="45.46856" lon="13.48842">
<ele>46</ele>
<time>2011-05-01T13:46:44Z</time>
</trkpt>
<trkpt lat="45.46851" lon="13.48841">
<ele>46</ele>
<time>2011-05-01T13:46:46Z</time>
</trkpt>
<trkpt lat="45.46845" lon="13.4884">
<ele>46</ele>
<time>2011-05-01T13:46:48Z</time>
</trkpt>
<trkpt lat="45.4684" lon="13.4884">
<ele>46</ele>
<time>2011-05-01T13:46:50Z</time>
</trkpt>
<trkpt lat="45.46834" lon="13.4884">
<ele>46</ele>
<time>2011-05-01T13:46:52Z</time>
</trkpt>
<trkpt lat="45.46828" lon="13.4884">
<ele>46</ele>
<time>2011-05-01T13:46:54Z</time>
</trkpt>
<trkpt lat="45.46822" lon="13.48839">
<ele>46</ele>
<time>2011-05-01T13:46:56Z</time>
</trkpt>
<trkpt lat="45.46817" lon="13.48839">
<ele>46</ele>
<time>2011-05-01T13:46:58Z</time>
</trkpt>
<trkpt lat="45.46811" lon="13.48838">
<ele>46</ele>
<time>2011-05-01T13:47:00Z</time>
</trkpt>
<trkpt lat="45.46805" lon="13.48837">
<ele>46</ele>
<time>2011-05-01T13:47:02Z</time>
</trkpt>
<trkpt lat="45.46799" lon="13.48836">
<ele>46</ele>
<time>2011-05-01T13:47:04Z</time>
</trkpt>
<trkpt lat="45.46793" lon="13.48835">
<ele>46</ele>
<time>2011-05-01T13:47:06Z</time>
</trkpt>
<trkpt lat="45.46787" lon="13.48834">
<ele>45</ele>
<time>2011-05-01T13:47:08Z</time>
</trkpt>
<trkpt lat="45.46782" lon="13.48833">
<ele>45</ele>
<time>2011-05-01T13:47:10Z</time>
</trkpt>
<trkpt lat="45.46776" lon="13.48833">
<ele>45</ele>
<time>2011-05-01T13:47:12Z</time>
</trkpt>
<trkpt lat="45.4677" lon="13.48833">
<ele>45</ele>
<time>2011-05-01T13:47:14Z</time>
</trkpt>
<trkpt lat="45.46765" lon="13.48834">
<ele>45</ele>
<time>2011-05-01T13:47:16Z</time>
</trkpt>
<trkpt lat="45.46759" lon="13.48834">
<ele>45</ele>
<time>2011-05-01T13:47:18Z</time>
</trkpt>
<trkpt lat="45.46754" lon="13.48835">
<ele>45</ele>
<time>2011-05-01T13:47:20Z</time>
</trkpt>
<trkpt lat="45.46748" lon="13.48836">
<ele>45</ele>
<time>2011-05-01T13:47:22Z</time>
</trkpt>
<trkpt lat="45.46742" lon="13.48837">
<ele>45</ele>
<time>2011-05-01T13:47:24Z</time>
</trkpt>
<trkpt lat="45.46736" lon="13.48838">
<ele>45</ele>
<time>2011-05-01T13:47:26Z</time>
</trkpt>
<trkpt lat="45.4673" lon="13.48838">
<ele>45</ele>
<time>2011-05-01T13:47:28Z</time>
</trkpt>
<trkpt lat="45.46724" lon="13.48839">
<ele>45</ele>
<time>2011-05-01T13:47:30Z</time>
</trkpt>
<trkpt lat="45.46717" lon="13.4884">
<ele>45</ele>
<time>2011-05-01T13:47:32Z</time>
</trkpt>
<trkpt lat="45.46711" lon="13.48841">
<ele>45</ele>
<time>2011-05-01T13:47:34Z</time>
</trkpt>
<trkpt lat="45.46705" lon="13.48842">
<ele>45</ele>
<time>2011-05-01T13:47:36Z</time>
</trkpt>
<trkpt lat="45.46698" lon="13.48843">
<ele>45</ele>
<time>2011-05-01T13:47:38Z</time>
</trkpt>
<trkpt lat="45.46692" lon="13.48844">
<ele>45</ele>
<time>2011-05-01T13:47:40Z</time>
</trkpt>
<trkpt lat="45.46686" lon="13.48844">
<ele>45</ele>
<time>2011-05-01T13:47:42Z</time>
</trkpt>
<trkpt lat="45.46679" lon="13.48845">
<ele>45</ele>
<time>2011-05-01T13:47:44Z</time>
</trkpt>
<trkpt lat="45.46673" lon="13.48845">
<ele>45</ele>
<time>2011-05-01T13:47:46Z</time>
</trkpt>
<trkpt lat="45.46667" lon="13.48845">
<ele>45</ele>
<time>2011-05-01T13:47:48Z</time>
</trkpt>
<trkpt lat="45.46661" lon="13.48844">
<ele>45</ele>
<time>2011-05-01T13:47:50Z</time>
</trkpt>
<trkpt lat="45.46654" lon="13.48845">
<ele>45</ele>
<time>2011-05-01T13:47:52Z</time>
</trkpt>
<trkpt lat="45.46648" lon="13.48845">
<ele>45</ele>
<time>2011-05-01T13:47:54Z</time>
</trkpt>
<trkpt lat="45.46642" lon="13.48845">
<ele>45</ele>
<time>2011-05-01T13:47:56Z</time>
</trkpt>
<trkpt lat="45.46635" lon="13.48845">
<ele>45</ele>
<time>2011-05-01T13:47:58Z</time>
</trkpt>
<trkpt lat="45.46629" lon="13.48845">
<ele>45</ele>
<time>2011-05-01T13:48:00Z</time>
</trkpt>
<trkpt lat="45.46623" lon="13.48845">
<ele>45</ele>
<time>2011-05-01T13:48:02Z</time>
</trkpt>
<trkpt lat="45.46617" lon="13.48844">
<ele>45</ele>
<time>2011-05-01T13:48:04Z</time>
</trkpt>
<trkpt lat="45.46611" lon="13.48844">
<ele>45</ele>
<time>2011-05-01T13:48:06Z</time>
</trkpt>
<trkpt lat="45.46605" lon="13.48844">
<ele>45</ele>
<time>2011-05-01T13:48:08Z</time>
</trkpt>
<trkpt lat="45.46599" lon="13.48843">
<ele>45</ele>
<time>2011-05-01T13:48:10Z</time>
</trkpt>
<trkpt lat="45.46594" lon="13.48842">
<ele>45</ele>
<time>2011-05-01T13:48:12Z</time>
</trkpt>
<trkpt lat="45.46588" lon="13.48842">
<ele>45</ele>
<time>2011-05-01T13:48:14Z</time>
</trkpt>
<trkpt lat="45.46582" lon="13.48841">
<ele>45</ele>
<time>2011-05-01T13:48:16Z</time>
</trkpt>
<trkpt lat="45.46576" lon="13.4884">
<ele>45</ele>
<time>2011-05-01T13:48:18Z</time>
</trkpt>
<trkpt lat="45.4657" lon="13.4884">
<ele>45</ele>
<time>2011-05-01T13:48:20Z</time>
</trkpt>
<trkpt lat="45.46564" lon="13.4884">
<ele>45</ele>
<time>2011-05-01T13:48:22Z</time>
</trkpt>
<trkpt lat="45.46559" lon="13.48839">
<ele>45</ele>
<time>2011-05-01T13:48:24Z</time>
</trkpt>
<trkpt lat="45.46553" lon="13.48839">
<ele>45</ele>
<time>2011-05-01T13:48:26Z</time>
</trkpt>
<trkpt lat="45.46548" lon="13.48838">
<ele>45</ele>
<time>2011-05-01T13:48:28Z</time>
</trkpt>
<trkpt lat="45.46542" lon="13.48837">
<ele>45</ele>
<time>2011-05-01T13:48:30Z</time>
</trkpt>
<trkpt lat="45.46537" lon="13.48837">
<ele>45</ele>
<time>2011-05-01T13:48:32Z</time>
</trkpt>
<trkpt lat="45.46531" lon="13.48837">
<ele>45</ele>
<time>2011-05-01T13:48:34Z</time>
</trkpt>
<trkpt lat="45.46526" lon="13.48838">
<ele>45</ele>
<time>2011-05-01T13:48:36Z</time>
</trkpt>
<trkpt lat="45.4652" lon="13.48839">
<ele>45</ele>
<time>2011-05-01T13:48:38Z</time>
</trkpt>
<trkpt lat="45.46514" lon="13.4884">
<ele>45</ele>
<time>2011-05-01T13:48:40Z</time>
</trkpt>
<trkpt lat="45.46508" lon="13.48841">
<ele>45</ele>
<time>2011-05-01T13:48:42Z</time>
</trkpt>
<trkpt lat="45.46501" lon="13.48843">
<ele>45</ele>
<time>2011-05-01T13:48:44Z</time>
</trkpt>
<trkpt lat="45.46494" lon="13.48844">
<ele>45</ele>
<time>2011-05-01T13:48:46Z</time>
</trkpt>
<trkpt lat="45.46488" lon="13.48846">
<ele>45</ele>
<time>2011-05-01T13:48:48Z</time>
</trkpt>
<trkpt lat="45.46482" lon="13.48848">
<ele>45</ele>
<time>2011-05-01T13:48:50Z</time>
</trkpt>
<trkpt lat="45.46475" lon="13.48851">
<ele>45</ele>
<time>2011-05-01T13:48:52Z</time>
</trkpt>
<trkpt lat="45.46469" lon="13.48853">
<ele>45</ele>
<time>2011-05-01T13:48:54Z</time>
</trkpt>
<trkpt lat="45.46463" lon="13.48856">
<ele>45</ele>
<time>2011-05-01T13:48:56Z</time>
</trkpt>
<trkpt lat="45.46457" lon="13.48858">
<ele>45</ele>
<time>2011-05-01T13:48:58Z</time>
</trkpt>
<trkpt lat="45.46451" lon="13.48861">
<ele>45</ele>
<time>2011-05-01T13:49:00Z</time>
</trkpt>
<trkpt lat="45.46445" lon="13.48863">
<ele>45</ele>
<time>2011-05-01T13:49:02Z</time>
</trkpt>
<trkpt lat="45.46438" lon="13.48864">
<ele>45</ele>
<time>2011-05-01T13:49:04Z</time>
</trkpt>
<trkpt lat="45.46432" lon="13.48866">
<ele>45</ele>
<time>2011-05-01T13:49:06Z</time>
</trkpt>
<trkpt lat="45.46426" lon="13.48868">
<ele>45</ele>
<time>2011-05-01T13:49:08Z</time>
</trkpt>
<trkpt lat="45.46419" lon="13.4887">
<ele>45</ele>
<time>2011-05-01T13:49:10Z</time>
</trkpt>
<trkpt lat="45.46413" lon="13.48872">
<ele>46</ele>
<time>2011-05-01T13:49:12Z</time>
</trkpt>
<trkpt lat="45.46406" lon="13.48874">
<ele>46</ele>
<time>2011-05-01T13:49:14Z</time>
</trkpt>
<trkpt lat="45.464" lon="13.48876">
<ele>46</ele>
<time>2011-05-01T13:49:16Z</time>
</trkpt>
<trkpt lat="45.46393" lon="13.48878">
<ele>46</ele>
<time>2011-05-01T13:49:18Z</time>
</trkpt>
<trkpt lat="45.46387" lon="13.48879">
<ele>46</ele>
<time>2011-05-01T13:49:20Z</time>
</trkpt>
<trkpt lat="45.4638" lon="13.48882">
<ele>46</ele>
<time>2011-05-01T13:49:22Z</time>
</trkpt>
<trkpt lat="45.46374" lon="13.48883">
<ele>46</ele>
<time>2011-05-01T13:49:24Z</time>
</trkpt>
<trkpt lat="45.46367" lon="13.48885">
<ele>46</ele>
<time>2011-05-01T13:49:26Z</time>
</trkpt>
<trkpt lat="45.46361" lon="13.48887">
<ele>46</ele>
<time>2011-05-01T13:49:28Z</time>
</trkpt>
<trkpt lat="45.46354" lon="13.4889">
<ele>46</ele>
<time>2011-05-01T13:49:30Z</time>
</trkpt>
<trkpt lat="45.46348" lon="13.48892">
<ele>46</ele>
<time>2011-05-01T13:49:32Z</time>
</trkpt>
<trkpt lat="45.46342" lon="13.48894">
<ele>46</ele>
<time>2011-05-01T13:49:34Z</time>
</trkpt>
<trkpt lat="45.46335" lon="13.48896">
<ele>46</ele>
<time>2011-05-01T13:49:36Z</time>
</trkpt>
<trkpt lat="45.46329" lon="13.48898">
<ele>46</ele>
<time>2011-05-01T13:49:38Z</time>
</trkpt>
<trkpt lat="45.46323" lon="13.489">
<ele>46</ele>
<time>2011-05-01T13:49:40Z</time>
</trkpt>
<trkpt lat="45.46316" lon="13.48901">
<ele>46</ele>
<time>2011-05-01T13:49:42Z</time>
</trkpt>
<trkpt lat="45.4631" lon="13.48902">
<ele>46</ele>
<time>2011-05-01T13:49:44Z</time>
</trkpt>
<trkpt lat="45.46304" lon="13.48902">
<ele>46</ele>
<time>2011-05-01T13:49:46Z</time>
</trkpt>
<trkpt lat="45.46297" lon="13.48903">
<ele>46</ele>
<time>2011-05-01T13:49:48Z</time>
</trkpt>
<trkpt lat="45.46291" lon="13.48904">
<ele>46</ele>
<time>2011-05-01T13:49:50Z</time>
</trkpt>
<trkpt lat="45.46284" lon="13.48905">
<ele>46</ele>
<time>2011-05-01T13:49:52Z</time>
</trkpt>
<trkpt lat="45.46278" lon="13.48907">
<ele>46</ele>
<time>2011-05-01T13:49:54Z</time>
</trkpt>
<trkpt lat="45.46272" lon="13.4891">
<ele>46</ele>
<time>2011-05-01T13:49:56Z</time>
</trkpt>
<trkpt lat="45.46266" lon="13.48912">
<ele>46</ele>
<time>2011-05-01T13:49:58Z</time>
</trkpt>
<trkpt lat="45.4626" lon="13.48913">
<ele>46</ele>
<time>2011-05-01T13:50:00Z</time>
</trkpt>
<trkpt lat="45.46253" lon="13.48914">
<ele>46</ele>
<time>2011-05-01T13:50:02Z</time>
</trkpt>
<trkpt lat="45.46247" lon="13.48915">
<ele>46</ele>
<time>2011-05-01T13:50:04Z</time>
</trkpt>
<trkpt lat="45.46241" lon="13.48916">
<ele>46</ele>
<time>2011-05-01T13:50:06Z</time>
</trkpt>
<trkpt lat="45.46234" lon="13.48918">
<ele>46</ele>
<time>2011-05-01T13:50:08Z</time>
</trkpt>
<trkpt lat="45.46228" lon="13.4892">
<ele>46</ele>
<time>2011-05-01T13:50:10Z</time>
</trkpt>
<trkpt lat="45.46222" lon="13.48922">
<ele>46</ele>
<time>2011-05-01T13:50:12Z</time>
</trkpt>
<trkpt lat="45.46216" lon="13.48924">
<ele>46</ele>
<time>2011-05-01T13:50:14Z</time>
</trkpt>
<trkpt lat="45.4621" lon="13.48926">
<ele>46</ele>
<time>2011-05-01T13:50:16Z</time>
</trkpt>
<trkpt lat="45.46204" lon="13.4893">
<ele>46</ele>
<time>2011-05-01T13:50:18Z</time>
</trkpt>
<trkpt lat="45.46197" lon="13.48932">
<ele>46</ele>
<time>2011-05-01T13:50:20Z</time>
</trkpt>
<trkpt lat="45.46191" lon="13.48935">
<ele>46</ele>
<time>2011-05-01T13:50:22Z</time>
</trkpt>
<trkpt lat="45.46185" lon="13.48937">
<ele>46</ele>
<time>2011-05-01T13:50:24Z</time>
</trkpt>
<trkpt lat="45.46179" lon="13.4894">
<ele>46</ele>
<time>2011-05-01T13:50:26Z</time>
</trkpt>
<trkpt lat="45.46172" lon="13.48942">
<ele>46</ele>
<time>2011-05-01T13:50:28Z</time>
</trkpt>
<trkpt lat="45.46166" lon="13.48945">
<ele>46</ele>
<time>2011-05-01T13:50:30Z</time>
</trkpt>
<trkpt lat="45.4616" lon="13.48948">
<ele>46</ele>
<time>2011-05-01T13:50:32Z</time>
</trkpt>
<trkpt lat="45.46154" lon="13.48951">
<ele>45</ele>
<time>2011-05-01T13:50:34Z</time>
</trkpt>
<trkpt lat="45.46148" lon="13.48953">
<ele>45</ele>
<time>2011-05-01T13:50:36Z</time>
</trkpt>
<trkpt lat="45.46142" lon="13.48956">
<ele>45</ele>
<time>2011-05-01T13:50:38Z</time>
</trkpt>
<trkpt lat="45.46135" lon="13.48959">
<ele>45</ele>
<time>2011-05-01T13:50:40Z</time>
</trkpt>
<trkpt lat="45.46129" lon="13.48962">
<ele>45</ele>
<time>2011-05-01T13:50:42Z</time>
</trkpt>
<trkpt lat="45.46123" lon="13.48966">
<ele>45</ele>
<time>2011-05-01T13:50:44Z</time>
</trkpt>
<trkpt lat="45.46117" lon="13.4897">
<ele>45</ele>
<time>2011-05-01T13:50:46Z</time>
</trkpt>
<trkpt lat="45.46111" lon="13.48973">
<ele>45</ele>
<time>2011-05-01T13:50:48Z</time>
</trkpt>
<trkpt lat="45.46105" lon="13.48975">
<ele>45</ele>
<time>2011-05-01T13:50:50Z</time>
</trkpt>
<trkpt lat="45.46099" lon="13.48977">
<ele>45</ele>
<time>2011-05-01T13:50:52Z</time>
</trkpt>
<trkpt lat="45.46093" lon="13.48979">
<ele>45</ele>
<time>2011-05-01T13:50:54Z</time>
</trkpt>
<trkpt lat="45.46087" lon="13.48981">
<ele>45</ele>
<time>2011-05-01T13:50:56Z</time>
</trkpt>
<trkpt lat="45.46081" lon="13.48983">
<ele>45</ele>
<time>2011-05-01T13:50:58Z</time>
</trkpt>
<trkpt lat="45.46075" lon="13.48986">
<ele>45</ele>
<time>2011-05-01T13:51:00Z</time>
</trkpt>
<trkpt lat="45.46069" lon="13.48988">
<ele>45</ele>
<time>2011-05-01T13:51:02Z</time>
</trkpt>
<trkpt lat="45.46063" lon="13.48991">
<ele>45</ele>
<time>2011-05-01T13:51:04Z</time>
</trkpt>
<trkpt lat="45.46057" lon="13.48993">
<ele>45</ele>
<time>2011-05-01T13:51:06Z</time>
</trkpt>
<trkpt lat="45.4605" lon="13.48995">
<ele>45</ele>
<time>2011-05-01T13:51:08Z</time>
</trkpt>
<trkpt lat="45.46044" lon="13.48997">
<ele>45</ele>
<time>2011-05-01T13:51:10Z</time>
</trkpt>
<trkpt lat="45.46038" lon="13.48999">
<ele>45</ele>
<time>2011-05-01T13:51:12Z</time>
</trkpt>
<trkpt lat="45.46031" lon="13.49002">
<ele>45</ele>
<time>2011-05-01T13:51:14Z</time>
</trkpt>
<trkpt lat="45.46025" lon="13.49004">
<ele>45</ele>
<time>2011-05-01T13:51:16Z</time>
</trkpt>
<trkpt lat="45.46019" lon="13.49007">
<ele>45</ele>
<time>2011-05-01T13:51:18Z</time>
</trkpt>
<trkpt lat="45.46013" lon="13.4901">
<ele>45</ele>
<time>2011-05-01T13:51:20Z</time>
</trkpt>
<trkpt lat="45.46006" lon="13.49013">
<ele>45</ele>
<time>2011-05-01T13:51:22Z</time>
</trkpt>
<trkpt lat="45.46" lon="13.49016">
<ele>45</ele>
<time>2011-05-01T13:51:24Z</time>
</trkpt>
<trkpt lat="45.45994" lon="13.49019">
<ele>45</ele>
<time>2011-05-01T13:51:26Z</time>
</trkpt>
<trkpt lat="45.45988" lon="13.49023">
<ele>45</ele>
<time>2011-05-01T13:51:28Z</time>
</trkpt>
<trkpt lat="45.45981" lon="13.49026">
<ele>45</ele>
<time>2011-05-01T13:51:30Z</time>
</trkpt>
<trkpt lat="45.45975" lon="13.4903">
<ele>45</ele>
<time>2011-05-01T13:51:32Z</time>
</trkpt>
<trkpt lat="45.45969" lon="13.49034">
<ele>45</ele>
<time>2011-05-01T13:51:34Z</time>
</trkpt>
<trkpt lat="45.45963" lon="13.49037">
<ele>45</ele>
<time>2011-05-01T13:51:36Z</time>
</trkpt>
<trkpt lat="45.45957" lon="13.49041">
<ele>45</ele>
<time>2011-05-01T13:51:38Z</time>
</trkpt>
<trkpt lat="45.45951" lon="13.49043">
<ele>45</ele>
<time>2011-05-01T13:51:40Z</time>
</trkpt>
<trkpt lat="45.45944" lon="13.49045">
<ele>45</ele>
<time>2011-05-01T13:51:42Z</time>
</trkpt>
<trkpt lat="45.45938" lon="13.49047">
<ele>45</ele>
<time>2011-05-01T13:51:44Z</time>
</trkpt>
<trkpt lat="45.45932" lon="13.49049">
<ele>45</ele>
<time>2011-05-01T13:51:46Z</time>
</trkpt>
<trkpt lat="45.45925" lon="13.49051">
<ele>45</ele>
<time>2011-05-01T13:51:48Z</time>
</trkpt>
<trkpt lat="45.45919" lon="13.49053">
<ele>45</ele>
<time>2011-05-01T13:51:50Z</time>
</trkpt>
<trkpt lat="45.45913" lon="13.49057">
<ele>45</ele>
<time>2011-05-01T13:51:52Z</time>
</trkpt>
<trkpt lat="45.45907" lon="13.4906">
<ele>45</ele>
<time>2011-05-01T13:51:54Z</time>
</trkpt>
<trkpt lat="45.45901" lon="13.49063">
<ele>45</ele>
<time>2011-05-01T13:51:56Z</time>
</trkpt>
<trkpt lat="45.45895" lon="13.49066">
<ele>45</ele>
<time>2011-05-01T13:51:58Z</time>
</trkpt>
<trkpt lat="45.45889" lon="13.49069">
<ele>45</ele>
<time>2011-05-01T13:52:00Z</time>
</trkpt>
<trkpt lat="45.45883" lon="13.49072">
<ele>45</ele>
<time>2011-05-01T13:52:02Z</time>
</trkpt>
<trkpt lat="45.45876" lon="13.49075">
<ele>45</ele>
<time>2011-05-01T13:52:04Z</time>
</trkpt>
<trkpt lat="45.45871" lon="13.49079">
<ele>45</ele>
<time>2011-05-01T13:52:06Z</time>
</trkpt>
<trkpt lat="45.45865" lon="13.49083">
<ele>45</ele>
<time>2011-05-01T13:52:08Z</time>
</trkpt>
<trkpt lat="45.45858" lon="13.49086">
<ele>45</ele>
<time>2011-05-01T13:52:10Z</time>
</trkpt>
<trkpt lat="45.45852" lon="13.49088">
<ele>45</ele>
<time>2011-05-01T13:52:12Z</time>
</trkpt>
<trkpt lat="45.45846" lon="13.4909">
<ele>45</ele>
<time>2011-05-01T13:52:14Z</time>
</trkpt>
<trkpt lat="45.4584" lon="13.49091">
<ele>45</ele>
<time>2011-05-01T13:52:16Z</time>
</trkpt>
<trkpt lat="45.45833" lon="13.49093">
<ele>45</ele>
<time>2011-05-01T13:52:18Z</time>
</trkpt>
<trkpt lat="45.45827" lon="13.49094">
<ele>45</ele>
<time>2011-05-01T13:52:20Z</time>
</trkpt>
<trkpt lat="45.45821" lon="13.49096">
<ele>45</ele>
<time>2011-05-01T13:52:22Z</time>
</trkpt>
<trkpt lat="45.45816" lon="13.49099">
<ele>45</ele>
<time>2011-05-01T13:52:24Z</time>
</trkpt>
<trkpt lat="45.4581" lon="13.49101">
<ele>45</ele>
<time>2011-05-01T13:52:26Z</time>
</trkpt>
<trkpt lat="45.45804" lon="13.49103">
<ele>45</ele>
<time>2011-05-01T13:52:28Z</time>
</trkpt>
<trkpt lat="45.45798" lon="13.49105">
<ele>45</ele>
<time>2011-05-01T13:52:30Z</time>
</trkpt>
<trkpt lat="45.45792" lon="13.49106">
<ele>45</ele>
<time>2011-05-01T13:52:32Z</time>
</trkpt>
<trkpt lat="45.45787" lon="13.49108">
<ele>45</ele>
<time>2011-05-01T13:52:34Z</time>
</trkpt>
<trkpt lat="45.45781" lon="13.4911">
<ele>45</ele>
<time>2011-05-01T13:52:36Z</time>
</trkpt>
<trkpt lat="45.45775" lon="13.49112">
<ele>45</ele>
<time>2011-05-01T13:52:38Z</time>
</trkpt>
<trkpt lat="45.4577" lon="13.49115">
<ele>45</ele>
<time>2011-05-01T13:52:40Z</time>
</trkpt>
<trkpt lat="45.45763" lon="13.49118">
<ele>45</ele>
<time>2011-05-01T13:52:42Z</time>
</trkpt>
<trkpt lat="45.45757" lon="13.4912">
<ele>45</ele>
<time>2011-05-01T13:52:44Z</time>
</trkpt>
<trkpt lat="45.4575" lon="13.49124">
<ele>45</ele>
<time>2011-05-01T13:52:46Z</time>
</trkpt>
<trkpt lat="45.45744" lon="13.49127">
<ele>45</ele>
<time>2011-05-01T13:52:48Z</time>
</trkpt>
<trkpt lat="45.45738" lon="13.49131">
<ele>45</ele>
<time>2011-05-01T13:52:50Z</time>
</trkpt>
<trkpt lat="45.45731" lon="13.49134">
<ele>45</ele>
<time>2011-05-01T13:52:52Z</time>
</trkpt>
<trkpt lat="45.45725" lon="13.49138">
<ele>45</ele>
<time>2011-05-01T13:52:54Z</time>
</trkpt>
<trkpt lat="45.45719" lon="13.49142">
<ele>45</ele>
<time>2011-05-01T13:52:56Z</time>
</trkpt>
<trkpt lat="45.45713" lon="13.49146">
<ele>45</ele>
<time>2011-05-01T13:52:58Z</time>
</trkpt>
<trkpt lat="45.45706" lon="13.4915">
<ele>45</ele>
<time>2011-05-01T13:53:00Z</time>
</trkpt>
<trkpt lat="45.457" lon="13.49154">
<ele>45</ele>
<time>2011-05-01T13:53:02Z</time>
</trkpt>
<trkpt lat="45.45694" lon="13.49158">
<ele>45</ele>
<time>2011-05-01T13:53:04Z</time>
</trkpt>
<trkpt lat="45.45688" lon="13.49162">
<ele>45</ele>
<time>2011-05-01T13:53:06Z</time>
</trkpt>
<trkpt lat="45.45682" lon="13.49167">
<ele>45</ele>
<time>2011-05-01T13:53:08Z</time>
</trkpt>
<trkpt lat="45.45676" lon="13.49171">
<ele>45</ele>
<time>2011-05-01T13:53:10Z</time>
</trkpt>
<trkpt lat="45.45671" lon="13.49174">
<ele>45</ele>
<time>2011-05-01T13:53:12Z</time>
</trkpt>
<trkpt lat="45.45665" lon="13.49176">
<ele>45</ele>
<time>2011-05-01T13:53:14Z</time>
</trkpt>
<trkpt lat="45.45659" lon="13.49178">
<ele>45</ele>
<time>2011-05-01T13:53:16Z</time>
</trkpt>
<trkpt lat="45.45653" lon="13.4918">
<ele>45</ele>
<time>2011-05-01T13:53:18Z</time>
</trkpt>
<trkpt lat="45.45647" lon="13.49181">
<ele>45</ele>
<time>2011-05-01T13:53:20Z</time>
</trkpt>
<trkpt lat="45.45641" lon="13.49183">
<ele>45</ele>
<time>2011-05-01T13:53:22Z</time>
</trkpt>
<trkpt lat="45.45635" lon="13.49184">
<ele>45</ele>
<time>2011-05-01T13:53:24Z</time>
</trkpt>
<trkpt lat="45.45629" lon="13.49186">
<ele>45</ele>
<time>2011-05-01T13:53:26Z</time>
</trkpt>
<trkpt lat="45.45623" lon="13.49188">
<ele>46</ele>
<time>2011-05-01T13:53:28Z</time>
</trkpt>
<trkpt lat="45.45617" lon="13.49189">
<ele>46</ele>
<time>2011-05-01T13:53:30Z</time>
</trkpt>
<trkpt lat="45.45611" lon="13.4919">
<ele>46</ele>
<time>2011-05-01T13:53:32Z</time>
</trkpt>
<trkpt lat="45.45604" lon="13.49192">
<ele>46</ele>
<time>2011-05-01T13:53:34Z</time>
</trkpt>
<trkpt lat="45.45598" lon="13.49193">
<ele>46</ele>
<time>2011-05-01T13:53:36Z</time>
</trkpt>
<trkpt lat="45.45592" lon="13.49196">
<ele>46</ele>
<time>2011-05-01T13:53:38Z</time>
</trkpt>
<trkpt lat="45.45585" lon="13.49198">
<ele>46</ele>
<time>2011-05-01T13:53:40Z</time>
</trkpt>
<trkpt lat="45.45579" lon="13.492">
<ele>46</ele>
<time>2011-05-01T13:53:42Z</time>
</trkpt>
<trkpt lat="45.45573" lon="13.49202">
<ele>46</ele>
<time>2011-05-01T13:53:44Z</time>
</trkpt>
<trkpt lat="45.45567" lon="13.49204">
<ele>46</ele>
<time>2011-05-01T13:53:46Z</time>
</trkpt>
<trkpt lat="45.4556" lon="13.49207">
<ele>46</ele>
<time>2011-05-01T13:53:48Z</time>
</trkpt>
<trkpt lat="45.45554" lon="13.49209">
<ele>46</ele>
<time>2011-05-01T13:53:50Z</time>
</trkpt>
<trkpt lat="45.45548" lon="13.49213">
<ele>46</ele>
<time>2011-05-01T13:53:52Z</time>
</trkpt>
<trkpt lat="45.45542" lon="13.49216">
<ele>46</ele>
<time>2011-05-01T13:53:54Z</time>
</trkpt>
<trkpt lat="45.45535" lon="13.49219">
<ele>46</ele>
<time>2011-05-01T13:53:56Z</time>
</trkpt>
<trkpt lat="45.45529" lon="13.49222">
<ele>46</ele>
<time>2011-05-01T13:53:58Z</time>
</trkpt>
<trkpt lat="45.45523" lon="13.49224">
<ele>46</ele>
<time>2011-05-01T13:54:00Z</time>
</trkpt>
<trkpt lat="45.45516" lon="13.49227">
<ele>46</ele>
<time>2011-05-01T13:54:02Z</time>
</trkpt>
<trkpt lat="45.4551" lon="13.49228">
<ele>46</ele>
<time>2011-05-01T13:54:04Z</time>
</trkpt>
<trkpt lat="45.45504" lon="13.49231">
<ele>45</ele>
<time>2011-05-01T13:54:06Z</time>
</trkpt>
<trkpt lat="45.45498" lon="13.49233">
<ele>45</ele>
<time>2011-05-01T13:54:08Z</time>
</trkpt>
<trkpt lat="45.45491" lon="13.49234">
<ele>45</ele>
<time>2011-05-01T13:54:10Z</time>
</trkpt>
<trkpt lat="45.45485" lon="13.49235">
<ele>45</ele>
<time>2011-05-01T13:54:12Z</time>
</trkpt>
<trkpt lat="45.45478" lon="13.49236">
<ele>45</ele>
<time>2011-05-01T13:54:14Z</time>
</trkpt>
<trkpt lat="45.45472" lon="13.49238">
<ele>45</ele>
<time>2011-05-01T13:54:16Z</time>
</trkpt>
<trkpt lat="45.45466" lon="13.4924">
<ele>45</ele>
<time>2011-05-01T13:54:18Z</time>
</trkpt>
<trkpt lat="45.4546" lon="13.49241">
<ele>45</ele>
<time>2011-05-01T13:54:20Z</time>
</trkpt>
<trkpt lat="45.45454" lon="13.49242">
<ele>45</ele>
<time>2011-05-01T13:54:22Z</time>
</trkpt>
<trkpt lat="45.45448" lon="13.49243">
<ele>45</ele>
<time>2011-05-01T13:54:24Z</time>
</trkpt>
<trkpt lat="45.45442" lon="13.49245">
<ele>45</ele>
<time>2011-05-01T13:54:26Z</time>
</trkpt>
<trkpt lat="45.45437" lon="13.49246">
<ele>45</ele>
<time>2011-05-01T13:54:28Z</time>
</trkpt>
<trkpt lat="45.45431" lon="13.49247">
<ele>45</ele>
<time>2011-05-01T13:54:30Z</time>
</trkpt>
<trkpt lat="45.45425" lon="13.49249">
<ele>45</ele>
<time>2011-05-01T13:54:32Z</time>
</trkpt>
<trkpt lat="45.45419" lon="13.4925">
<ele>45</ele>
<time>2011-05-01T13:54:34Z</time>
</trkpt>
<trkpt lat="45.45413" lon="13.49253">
<ele>45</ele>
<time>2011-05-01T13:54:36Z</time>
</trkpt>
<trkpt lat="45.45408" lon="13.49256">
<ele>45</ele>
<time>2011-05-01T13:54:38Z</time>
</trkpt>
<trkpt lat="45.45402" lon="13.49259">
<ele>45</ele>
<time>2011-05-01T13:54:40Z</time>
</trkpt>
<trkpt lat="45.45396" lon="13.49262">
<ele>45</ele>
<time>2011-05-01T13:54:42Z</time>
</trkpt>
<trkpt lat="45.4539" lon="13.49265">
<ele>45</ele>
<time>2011-05-01T13:54:44Z</time>
</trkpt>
<trkpt lat="45.45384" lon="13.49267">
<ele>45</ele>
<time>2011-05-01T13:54:46Z</time>
</trkpt>
<trkpt lat="45.45378" lon="13.49269">
<ele>45</ele>
<time>2011-05-01T13:54:48Z</time>
</trkpt>
<trkpt lat="45.45372" lon="13.4927">
<ele>45</ele>
<time>2011-05-01T13:54:50Z</time>
</trkpt>
<trkpt lat="45.45366" lon="13.49273">
<ele>45</ele>
<time>2011-05-01T13:54:52Z</time>
</trkpt>
<trkpt lat="45.4536" lon="13.49275">
<ele>45</ele>
<time>2011-05-01T13:54:54Z</time>
</trkpt>
<trkpt lat="45.45354" lon="13.49278">
<ele>45</ele>
<time>2011-05-01T13:54:56Z</time>
</trkpt>
<trkpt lat="45.45348" lon="13.4928">
<ele>45</ele>
<time>2011-05-01T13:54:58Z</time>
</trkpt>
<trkpt lat="45.45341" lon="13.49283">
<ele>45</ele>
<time>2011-05-01T13:55:00Z</time>
</trkpt>
<trkpt lat="45.45335" lon="13.49285">
<ele>45</ele>
<time>2011-05-01T13:55:02Z</time>
</trkpt>
<trkpt lat="45.45329" lon="13.49288">
<ele>45</ele>
<time>2011-05-01T13:55:04Z</time>
</trkpt>
<trkpt lat="45.45323" lon="13.4929">
<ele>45</ele>
<time>2011-05-01T13:55:06Z</time>
</trkpt>
<trkpt lat="45.45317" lon="13.49292">
<ele>45</ele>
<time>2011-05-01T13:55:08Z</time>
</trkpt>
<trkpt lat="45.45311" lon="13.49295">
<ele>45</ele>
<time>2011-05-01T13:55:10Z</time>
</trkpt>
<trkpt lat="45.45304" lon="13.49298">
<ele>45</ele>
<time>2011-05-01T13:55:12Z</time>
</trkpt>
<trkpt lat="45.45298" lon="13.493">
<ele>45</ele>
<time>2011-05-01T13:55:14Z</time>
</trkpt>
<trkpt lat="45.45292" lon="13.49302">
<ele>45</ele>
<time>2011-05-01T13:55:16Z</time>
</trkpt>
<trkpt lat="45.45286" lon="13.49304">
<ele>45</ele>
<time>2011-05-01T13:55:18Z</time>
</trkpt>
<trkpt lat="45.4528" lon="13.49307">
<ele>45</ele>
<time>2011-05-01T13:55:20Z</time>
</trkpt>
<trkpt lat="45.45274" lon="13.49309">
<ele>45</ele>
<time>2011-05-01T13:55:22Z</time>
</trkpt>
<trkpt lat="45.45268" lon="13.49312">
<ele>45</ele>
<time>2011-05-01T13:55:24Z</time>
</trkpt>
<trkpt lat="45.45263" lon="13.49314">
<ele>45</ele>
<time>2011-05-01T13:55:26Z</time>
</trkpt>
<trkpt lat="45.45257" lon="13.49317">
<ele>45</ele>
<time>2011-05-01T13:55:28Z</time>
</trkpt>
<trkpt lat="45.45251" lon="13.4932">
<ele>45</ele>
<time>2011-05-01T13:55:30Z</time>
</trkpt>
<trkpt lat="45.45245" lon="13.49322">
<ele>45</ele>
<time>2011-05-01T13:55:32Z</time>
</trkpt>
<trkpt lat="45.45239" lon="13.49325">
<ele>45</ele>
<time>2011-05-01T13:55:34Z</time>
</trkpt>
<trkpt lat="45.45233" lon="13.49327">
<ele>45</ele>
<time>2011-05-01T13:55:36Z</time>
</trkpt>
<trkpt lat="45.45227" lon="13.49329">
<ele>45</ele>
<time>2011-05-01T13:55:38Z</time>
</trkpt>
<trkpt lat="45.45221" lon="13.4933">
<ele>45</ele>
<time>2011-05-01T13:55:40Z</time>
</trkpt>
<trkpt lat="45.45215" lon="13.49332">
<ele>45</ele>
<time>2011-05-01T13:55:42Z</time>
</trkpt>
<trkpt lat="45.45209" lon="13.49333">
<ele>45</ele>
<time>2011-05-01T13:55:44Z</time>
</trkpt>
<trkpt lat="45.45203" lon="13.49334">
<ele>45</ele>
<time>2011-05-01T13:55:46Z</time>
</trkpt>
<trkpt lat="45.45197" lon="13.49336">
<ele>45</ele>
<time>2011-05-01T13:55:48Z</time>
</trkpt>
<trkpt lat="45.45191" lon="13.49338">
<ele>45</ele>
<time>2011-05-01T13:55:50Z</time>
</trkpt>
<trkpt lat="45.45185" lon="13.4934">
<ele>45</ele>
<time>2011-05-01T13:55:52Z</time>
</trkpt>
<trkpt lat="45.45178" lon="13.49342">
<ele>45</ele>
<time>2011-05-01T13:55:54Z</time>
</trkpt>
<trkpt lat="45.45173" lon="13.49344">
<ele>45</ele>
<time>2011-05-01T13:55:56Z</time>
</trkpt>
<trkpt lat="45.45167" lon="13.49347">
<ele>45</ele>
<time>2011-05-01T13:55:58Z</time>
</trkpt>
<trkpt lat="45.45161" lon="13.4935">
<ele>45</ele>
<time>2011-05-01T13:56:00Z</time>
</trkpt>
<trkpt lat="45.45155" lon="13.49352">
<ele>45</ele>
<time>2011-05-01T13:56:02Z</time>
</trkpt>
<trkpt lat="45.4515" lon="13.49356">
<ele>45</ele>
<time>2011-05-01T13:56:04Z</time>
</trkpt>
<trkpt lat="45.45144" lon="13.49359">
<ele>45</ele>
<time>2011-05-01T13:56:06Z</time>
</trkpt>
<trkpt lat="45.45139" lon="13.49363">
<ele>45</ele>
<time>2011-05-01T13:56:08Z</time>
</trkpt>
<trkpt lat="45.45134" lon="13.49366">
<ele>45</ele>
<time>2011-05-01T13:56:10Z</time>
</trkpt>
<trkpt lat="45.45128" lon="13.49369">
<ele>45</ele>
<time>2011-05-01T13:56:12Z</time>
</trkpt>
<trkpt lat="45.45122" lon="13.49371">
<ele>45</ele>
<time>2011-05-01T13:56:14Z</time>
</trkpt>
<trkpt lat="45.45116" lon="13.49373">
<ele>45</ele>
<time>2011-05-01T13:56:16Z</time>
</trkpt>
<trkpt lat="45.4511" lon="13.49375">
<ele>45</ele>
<time>2011-05-01T13:56:18Z</time>
</trkpt>
<trkpt lat="45.45104" lon="13.49378">
<ele>45</ele>
<time>2011-05-01T13:56:20Z</time>
</trkpt>
<trkpt lat="45.45098" lon="13.49381">
<ele>45</ele>
<time>2011-05-01T13:56:22Z</time>
</trkpt>
<trkpt lat="45.45092" lon="13.49385">
<ele>45</ele>
<time>2011-05-01T13:56:24Z</time>
</trkpt>
<trkpt lat="45.45086" lon="13.49388">
<ele>45</ele>
<time>2011-05-01T13:56:26Z</time>
</trkpt>
<trkpt lat="45.4508" lon="13.49392">
<ele>45</ele>
<time>2011-05-01T13:56:28Z</time>
</trkpt>
<trkpt lat="45.45074" lon="13.49396">
<ele>45</ele>
<time>2011-05-01T13:56:30Z</time>
</trkpt>
<trkpt lat="45.45068" lon="13.494">
<ele>45</ele>
<time>2011-05-01T13:56:32Z</time>
</trkpt>
<trkpt lat="45.45062" lon="13.49403">
<ele>45</ele>
<time>2011-05-01T13:56:34Z</time>
</trkpt>
<trkpt lat="45.45056" lon="13.49406">
<ele>45</ele>
<time>2011-05-01T13:56:36Z</time>
</trkpt>
<trkpt lat="45.4505" lon="13.49409">
<ele>45</ele>
<time>2011-05-01T13:56:38Z</time>
</trkpt>
<trkpt lat="45.45044" lon="13.49412">
<ele>45</ele>
<time>2011-05-01T13:56:40Z</time>
</trkpt>
<trkpt lat="45.45038" lon="13.49416">
<ele>45</ele>
<time>2011-05-01T13:56:42Z</time>
</trkpt>
<trkpt lat="45.45032" lon="13.49419">
<ele>45</ele>
<time>2011-05-01T13:56:44Z</time>
</trkpt>
<trkpt lat="45.45027" lon="13.49422">
<ele>45</ele>
<time>2011-05-01T13:56:46Z</time>
</trkpt>
<trkpt lat="45.45021" lon="13.49424">
<ele>45</ele>
<time>2011-05-01T13:56:48Z</time>
</trkpt>
<trkpt lat="45.45015" lon="13.49427">
<ele>45</ele>
<time>2011-05-01T13:56:50Z</time>
</trkpt>
<trkpt lat="45.45009" lon="13.49428">
<ele>45</ele>
<time>2011-05-01T13:56:52Z</time>
</trkpt>
<trkpt lat="45.45003" lon="13.4943">
<ele>45</ele>
<time>2011-05-01T13:56:54Z</time>
</trkpt>
<trkpt lat="45.44998" lon="13.49431">
<ele>45</ele>
<time>2011-05-01T13:56:56Z</time>
</trkpt>
<trkpt lat="45.44992" lon="13.49433">
<ele>45</ele>
<time>2011-05-01T13:56:58Z</time>
</trkpt>
<trkpt lat="45.44987" lon="13.49436">
<ele>45</ele>
<time>2011-05-01T13:57:00Z</time>
</trkpt>
<trkpt lat="45.44981" lon="13.49438">
<ele>45</ele>
<time>2011-05-01T13:57:02Z</time>
</trkpt>
<trkpt lat="45.44975" lon="13.4944">
<ele>45</ele>
<time>2011-05-01T13:57:04Z</time>
</trkpt>
<trkpt lat="45.44969" lon="13.49442">
<ele>45</ele>
<time>2011-05-01T13:57:06Z</time>
</trkpt>
<trkpt lat="45.44963" lon="13.49444">
<ele>45</ele>
<time>2011-05-01T13:57:08Z</time>
</trkpt>
<trkpt lat="45.44958" lon="13.49447">
<ele>45</ele>
<time>2011-05-01T13:57:10Z</time>
</trkpt>
<trkpt lat="45.44952" lon="13.4945">
<ele>45</ele>
<time>2011-05-01T13:57:12Z</time>
</trkpt>
<trkpt lat="45.44946" lon="13.49452">
<ele>45</ele>
<time>2011-05-01T13:57:14Z</time>
</trkpt>
<trkpt lat="45.44941" lon="13.49453">
<ele>45</ele>
<time>2011-05-01T13:57:16Z</time>
</trkpt>
<trkpt lat="45.44935" lon="13.49454">
<ele>45</ele>
<time>2011-05-01T13:57:18Z</time>
</trkpt>
<trkpt lat="45.44929" lon="13.49454">
<ele>45</ele>
<time>2011-05-01T13:57:20Z</time>
</trkpt>
<trkpt lat="45.44924" lon="13.49454">
<ele>45</ele>
<time>2011-05-01T13:57:22Z</time>
</trkpt>
<trkpt lat="45.44918" lon="13.49455">
<ele>45</ele>
<time>2011-05-01T13:57:24Z</time>
</trkpt>
<trkpt lat="45.44912" lon="13.49456">
<ele>45</ele>
<time>2011-05-01T13:57:26Z</time>
</trkpt>
<trkpt lat="45.44907" lon="13.49458">
<ele>45</ele>
<time>2011-05-01T13:57:28Z</time>
</trkpt>
<trkpt lat="45.44901" lon="13.49458">
<ele>45</ele>
<time>2011-05-01T13:57:30Z</time>
</trkpt>
<trkpt lat="45.44895" lon="13.4946">
<ele>45</ele>
<time>2011-05-01T13:57:32Z</time>
</trkpt>
<trkpt lat="45.44889" lon="13.49461">
<ele>45</ele>
<time>2011-05-01T13:57:34Z</time>
</trkpt>
<trkpt lat="45.44883" lon="13.49464">
<ele>45</ele>
<time>2011-05-01T13:57:36Z</time>
</trkpt>
<trkpt lat="45.44878" lon="13.49466">
<ele>45</ele>
<time>2011-05-01T13:57:38Z</time>
</trkpt>
<trkpt lat="45.44872" lon="13.49469">
<ele>45</ele>
<time>2011-05-01T13:57:40Z</time>
</trkpt>
<trkpt lat="45.44866" lon="13.49472">
<ele>45</ele>
<time>2011-05-01T13:57:42Z</time>
</trkpt>
<trkpt lat="45.44861" lon="13.49475">
<ele>45</ele>
<time>2011-05-01T13:57:44Z</time>
</trkpt>
<trkpt lat="45.44855" lon="13.49477">
<ele>45</ele>
<time>2011-05-01T13:57:46Z</time>
</trkpt>
<trkpt lat="45.44849" lon="13.4948">
<ele>45</ele>
<time>2011-05-01T13:57:48Z</time>
</trkpt>
<trkpt lat="45.44843" lon="13.49482">
<ele>45</ele>
<time>2011-05-01T13:57:50Z</time>
</trkpt>
<trkpt lat="45.44837" lon="13.49485">
<ele>45</ele>
<time>2011-05-01T13:57:52Z</time>
</trkpt>
<trkpt lat="45.44831" lon="13.49488">
<ele>45</ele>
<time>2011-05-01T13:57:54Z</time>
</trkpt>
<trkpt lat="45.44825" lon="13.49491">
<ele>45</ele>
<time>2011-05-01T13:57:56Z</time>
</trkpt>
<trkpt lat="45.4482" lon="13.49494">
<ele>45</ele>
<time>2011-05-01T13:57:58Z</time>
</trkpt>
<trkpt lat="45.44814" lon="13.49497">
<ele>45</ele>
<time>2011-05-01T13:58:00Z</time>
</trkpt>
<trkpt lat="45.44808" lon="13.495">
<ele>45</ele>
<time>2011-05-01T13:58:02Z</time>
</trkpt>
<trkpt lat="45.44802" lon="13.49503">
<ele>45</ele>
<time>2011-05-01T13:58:04Z</time>
</trkpt>
<trkpt lat="45.44796" lon="13.49507">
<ele>45</ele>
<time>2011-05-01T13:58:06Z</time>
</trkpt>
<trkpt lat="45.4479" lon="13.4951">
<ele>45</ele>
<time>2011-05-01T13:58:08Z</time>
</trkpt>
<trkpt lat="45.44784" lon="13.49514">
<ele>45</ele>
<time>2011-05-01T13:58:10Z</time>
</trkpt>
<trkpt lat="45.44778" lon="13.49518">
<ele>45</ele>
<time>2011-05-01T13:58:12Z</time>
</trkpt>
<trkpt lat="45.44772" lon="13.49521">
<ele>45</ele>
<time>2011-05-01T13:58:14Z</time>
</trkpt>
<trkpt lat="45.44767" lon="13.49525">
<ele>45</ele>
<time>2011-05-01T13:58:16Z</time>
</trkpt>
<trkpt lat="45.44761" lon="13.49529">
<ele>45</ele>
<time>2011-05-01T13:58:18Z</time>
</trkpt>
<trkpt lat="45.44755" lon="13.49533">
<ele>45</ele>
<time>2011-05-01T13:58:20Z</time>
</trkpt>
<trkpt lat="45.44749" lon="13.49537">
<ele>45</ele>
<time>2011-05-01T13:58:22Z</time>
</trkpt>
<trkpt lat="45.44743" lon="13.49541">
<ele>45</ele>
<time>2011-05-01T13:58:24Z</time>
</trkpt>
<trkpt lat="45.44737" lon="13.49545">
<ele>45</ele>
<time>2011-05-01T13:58:26Z</time>
</trkpt>
<trkpt lat="45.44732" lon="13.4955">
<ele>45</ele>
<time>2011-05-01T13:58:28Z</time>
</trkpt>
<trkpt lat="45.44726" lon="13.49554">
<ele>45</ele>
<time>2011-05-01T13:58:30Z</time>
</trkpt>
<trkpt lat="45.4472" lon="13.49558">
<ele>45</ele>
<time>2011-05-01T13:58:32Z</time>
</trkpt>
<trkpt lat="45.44714" lon="13.49562">
<ele>45</ele>
<time>2011-05-01T13:58:34Z</time>
</trkpt>
<trkpt lat="45.44708" lon="13.49566">
<ele>45</ele>
<time>2011-05-01T13:58:36Z</time>
</trkpt>
<trkpt lat="45.44702" lon="13.49571">
<ele>45</ele>
<time>2011-05-01T13:58:38Z</time>
</trkpt>
<trkpt lat="45.44697" lon="13.49576">
<ele>45</ele>
<time>2011-05-01T13:58:40Z</time>
</trkpt>
<trkpt lat="45.44691" lon="13.49582">
<ele>45</ele>
<time>2011-05-01T13:58:42Z</time>
</trkpt>
<trkpt lat="45.44685" lon="13.49587">
<ele>45</ele>
<time>2011-05-01T13:58:44Z</time>
</trkpt>
<trkpt lat="45.4468" lon="13.49593">
<ele>45</ele>
<time>2011-05-01T13:58:46Z</time>
</trkpt>
<trkpt lat="45.44675" lon="13.49598">
<ele>45</ele>
<time>2011-05-01T13:58:48Z</time>
</trkpt>
<trkpt lat="45.4467" lon="13.49604">
<ele>45</ele>
<time>2011-05-01T13:58:50Z</time>
</trkpt>
<trkpt lat="45.44665" lon="13.4961">
<ele>45</ele>
<time>2011-05-01T13:58:52Z</time>
</trkpt>
<trkpt lat="45.44661" lon="13.49616">
<ele>45</ele>
<time>2011-05-01T13:58:54Z</time>
</trkpt>
<trkpt lat="45.44657" lon="13.49622">
<ele>45</ele>
<time>2011-05-01T13:58:56Z</time>
</trkpt>
<trkpt lat="45.44653" lon="13.49627">
<ele>45</ele>
<time>2011-05-01T13:58:58Z</time>
</trkpt>
<trkpt lat="45.44648" lon="13.49631">
<ele>45</ele>
<time>2011-05-01T13:59:00Z</time>
</trkpt>
<trkpt lat="45.44642" lon="13.49636">
<ele>45</ele>
<time>2011-05-01T13:59:02Z</time>
</trkpt>
<trkpt lat="45.44638" lon="13.4964">
<ele>45</ele>
<time>2011-05-01T13:59:04Z</time>
</trkpt>
<trkpt lat="45.44633" lon="13.49644">
<ele>45</ele>
<time>2011-05-01T13:59:06Z</time>
</trkpt>
<trkpt lat="45.44627" lon="13.49647">
<ele>45</ele>
<time>2011-05-01T13:59:08Z</time>
</trkpt>
<trkpt lat="45.44621" lon="13.49649">
<ele>45</ele>
<time>2011-05-01T13:59:10Z</time>
</trkpt>
<trkpt lat="45.44616" lon="13.49651">
<ele>45</ele>
<time>2011-05-01T13:59:12Z</time>
</trkpt>
<trkpt lat="45.4461" lon="13.49654">
<ele>45</ele>
<time>2011-05-01T13:59:14Z</time>
</trkpt>
<trkpt lat="45.44604" lon="13.49657">
<ele>45</ele>
<time>2011-05-01T13:59:16Z</time>
</trkpt>
<trkpt lat="45.44599" lon="13.4966">
<ele>45</ele>
<time>2011-05-01T13:59:18Z</time>
</trkpt>
<trkpt lat="45.44593" lon="13.49663">
<ele>45</ele>
<time>2011-05-01T13:59:20Z</time>
</trkpt>
<trkpt lat="45.44588" lon="13.49666">
<ele>45</ele>
<time>2011-05-01T13:59:22Z</time>
</trkpt>
<trkpt lat="45.44582" lon="13.49669">
<ele>45</ele>
<time>2011-05-01T13:59:24Z</time>
</trkpt>
<trkpt lat="45.44577" lon="13.49672">
<ele>45</ele>
<time>2011-05-01T13:59:26Z</time>
</trkpt>
<trkpt lat="45.44571" lon="13.49675">
<ele>45</ele>
<time>2011-05-01T13:59:28Z</time>
</trkpt>
<trkpt lat="45.44566" lon="13.49679">
<ele>45</ele>
<time>2011-05-01T13:59:30Z</time>
</trkpt>
<trkpt lat="45.4456" lon="13.49683">
<ele>45</ele>
<time>2011-05-01T13:59:32Z</time>
</trkpt>
<trkpt lat="45.44555" lon="13.49687">
<ele>45</ele>
<time>2011-05-01T13:59:34Z</time>
</trkpt>
<trkpt lat="45.4455" lon="13.4969">
<ele>45</ele>
<time>2011-05-01T13:59:36Z</time>
</trkpt>
<trkpt lat="45.44544" lon="13.49694">
<ele>45</ele>
<time>2011-05-01T13:59:38Z</time>
</trkpt>
<trkpt lat="45.44539" lon="13.49698">
<ele>45</ele>
<time>2011-05-01T13:59:40Z</time>
</trkpt>
<trkpt lat="45.44533" lon="13.49703">
<ele>45</ele>
<time>2011-05-01T13:59:42Z</time>
</trkpt>
<trkpt lat="45.44528" lon="13.49707">
<ele>45</ele>
<time>2011-05-01T13:59:44Z</time>
</trkpt>
<trkpt lat="45.44522" lon="13.49711">
<ele>45</ele>
<time>2011-05-01T13:59:46Z</time>
</trkpt>
<trkpt lat="45.44516" lon="13.49716">
<ele>45</ele>
<time>2011-05-01T13:59:48Z</time>
</trkpt>
<trkpt lat="45.44511" lon="13.4972">
<ele>45</ele>
<time>2011-05-01T13:59:50Z</time>
</trkpt>
<trkpt lat="45.44505" lon="13.49724">
<ele>45</ele>
<time>2011-05-01T13:59:52Z</time>
</trkpt>
<trkpt lat="45.44499" lon="13.49728">
<ele>45</ele>
<time>2011-05-01T13:59:54Z</time>
</trkpt>
<trkpt lat="45.44493" lon="13.49732">
<ele>45</ele>
<time>2011-05-01T13:59:56Z</time>
</trkpt>
<trkpt lat="45.44488" lon="13.49736">
<ele>45</ele>
<time>2011-05-01T13:59:58Z</time>
</trkpt>
<trkpt lat="45.44483" lon="13.49741">
<ele>45</ele>
<time>2011-05-01T14:00:00Z</time>
</trkpt>
<trkpt lat="45.44477" lon="13.49745">
<ele>45</ele>
<time>2011-05-01T14:00:02Z</time>
</trkpt>
<trkpt lat="45.44472" lon="13.49748">
<ele>45</ele>
<time>2011-05-01T14:00:04Z</time>
</trkpt>
<trkpt lat="45.44466" lon="13.49751">
<ele>45</ele>
<time>2011-05-01T14:00:06Z</time>
</trkpt>
<trkpt lat="45.4446" lon="13.49755">
<ele>45</ele>
<time>2011-05-01T14:00:08Z</time>
</trkpt>
<trkpt lat="45.44455" lon="13.49758">
<ele>45</ele>
<time>2011-05-01T14:00:10Z</time>
</trkpt>
<trkpt lat="45.4445" lon="13.49761">
<ele>45</ele>
<time>2011-05-01T14:00:12Z</time>
</trkpt>
<trkpt lat="45.44444" lon="13.49765">
<ele>45</ele>
<time>2011-05-01T14:00:14Z</time>
</trkpt>
<trkpt lat="45.44439" lon="13.49768">
<ele>46</ele>
<time>2011-05-01T14:00:16Z</time>
</trkpt>
<trkpt lat="45.44433" lon="13.49772">
<ele>46</ele>
<time>2011-05-01T14:00:18Z</time>
</trkpt>
<trkpt lat="45.44428" lon="13.49776">
<ele>46</ele>
<time>2011-05-01T14:00:20Z</time>
</trkpt>
<trkpt lat="45.44423" lon="13.4978">
<ele>46</ele>
<time>2011-05-01T14:00:22Z</time>
</trkpt>
<trkpt lat="45.44417" lon="13.49783">
<ele>46</ele>
<time>2011-05-01T14:00:24Z</time>
</trkpt>
<trkpt lat="45.44412" lon="13.49787">
<ele>46</ele>
<time>2011-05-01T14:00:26Z</time>
</trkpt>
<trkpt lat="45.44406" lon="13.4979">
<ele>46</ele>
<time>2011-05-01T14:00:28Z</time>
</trkpt>
<trkpt lat="45.44401" lon="13.49794">
<ele>46</ele>
<time>2011-05-01T14:00:30Z</time>
</trkpt>
<trkpt lat="45.44395" lon="13.49798">
<ele>46</ele>
<time>2011-05-01T14:00:32Z</time>
</trkpt>
<trkpt lat="45.44389" lon="13.49802">
<ele>46</ele>
<time>2011-05-01T14:00:34Z</time>
</trkpt>
<trkpt lat="45.44383" lon="13.49805">
<ele>46</ele>
<time>2011-05-01T14:00:36Z</time>
</trkpt>
<trkpt lat="45.44377" lon="13.49809">
<ele>46</ele>
<time>2011-05-01T14:00:38Z</time>
</trkpt>
<trkpt lat="45.44371" lon="13.49813">
<ele>46</ele>
<time>2011-05-01T14:00:40Z</time>
</trkpt>
<trkpt lat="45.44365" lon="13.49817">
<ele>46</ele>
<time>2011-05-01T14:00:42Z</time>
</trkpt>
<trkpt lat="45.4436" lon="13.49822">
<ele>46</ele>
<time>2011-05-01T14:00:44Z</time>
</trkpt>
<trkpt lat="45.44355" lon="13.49827">
<ele>46</ele>
<time>2011-05-01T14:00:46Z</time>
</trkpt>
<trkpt lat="45.4435" lon="13.49833">
<ele>46</ele>
<time>2011-05-01T14:00:48Z</time>
</trkpt>
<trkpt lat="45.44345" lon="13.49839">
<ele>46</ele>
<time>2011-05-01T14:00:50Z</time>
</trkpt>
<trkpt lat="45.4434" lon="13.49844">
<ele>46</ele>
<time>2011-05-01T14:00:52Z</time>
</trkpt>
<trkpt lat="45.44335" lon="13.49849">
<ele>46</ele>
<time>2011-05-01T14:00:54Z</time>
</trkpt>
<trkpt lat="45.44329" lon="13.49854">
<ele>46</ele>
<time>2011-05-01T14:00:56Z</time>
</trkpt>
<trkpt lat="45.44324" lon="13.49858">
<ele>46</ele>
<time>2011-05-01T14:00:58Z</time>
</trkpt>
<trkpt lat="45.44318" lon="13.49863">
<ele>46</ele>
<time>2011-05-01T14:01:00Z</time>
</trkpt>
<trkpt lat="45.44313" lon="13.49867">
<ele>46</ele>
<time>2011-05-01T14:01:02Z</time>
</trkpt>
<trkpt lat="45.44308" lon="13.49871">
<ele>46</ele>
<time>2011-05-01T14:01:04Z</time>
</trkpt>
<trkpt lat="45.44302" lon="13.49876">
<ele>46</ele>
<time>2011-05-01T14:01:06Z</time>
</trkpt>
<trkpt lat="45.44297" lon="13.4988">
<ele>46</ele>
<time>2011-05-01T14:01:08Z</time>
</trkpt>
<trkpt lat="45.44292" lon="13.49884">
<ele>46</ele>
<time>2011-05-01T14:01:10Z</time>
</trkpt>
<trkpt lat="45.44286" lon="13.49889">
<ele>46</ele>
<time>2011-05-01T14:01:12Z</time>
</trkpt>
<trkpt lat="45.44281" lon="13.49893">
<ele>46</ele>
<time>2011-05-01T14:01:14Z</time>
</trkpt>
<trkpt lat="45.44276" lon="13.49897">
<ele>46</ele>
<time>2011-05-01T14:01:16Z</time>
</trkpt>
<trkpt lat="45.4427" lon="13.49901">
<ele>46</ele>
<time>2011-05-01T14:01:18Z</time>
</trkpt>
<trkpt lat="45.44265" lon="13.49905">
<ele>46</ele>
<time>2011-05-01T14:01:20Z</time>
</trkpt>
<trkpt lat="45.4426" lon="13.49909">
<ele>46</ele>
<time>2011-05-01T14:01:22Z</time>
</trkpt>
<trkpt lat="45.44255" lon="13.49914">
<ele>46</ele>
<time>2011-05-01T14:01:24Z</time>
</trkpt>
<trkpt lat="45.4425" lon="13.49918">
<ele>46</ele>
<time>2011-05-01T14:01:26Z</time>
</trkpt>
<trkpt lat="45.44244" lon="13.49922">
<ele>46</ele>
<time>2011-05-01T14:01:28Z</time>
</trkpt>
<trkpt lat="45.44239" lon="13.49927">
<ele>46</ele>
<time>2011-05-01T14:01:30Z</time>
</trkpt>
<trkpt lat="45.44234" lon="13.49932">
<ele>45</ele>
<time>2011-05-01T14:01:32Z</time>
</trkpt>
<trkpt lat="45.44228" lon="13.49936">
<ele>45</ele>
<time>2011-05-01T14:01:34Z</time>
</trkpt>
<trkpt lat="45.44223" lon="13.49941">
<ele>45</ele>
<time>2011-05-01T14:01:36Z</time>
</trkpt>
<trkpt lat="45.44218" lon="13.49946">
<ele>45</ele>
<time>2011-05-01T14:01:38Z</time>
</trkpt>
<trkpt lat="45.44213" lon="13.49952">
<ele>45</ele>
<time>2011-05-01T14:01:40Z</time>
</trkpt>
<trkpt lat="45.44208" lon="13.49956">
<ele>45</ele>
<time>2011-05-01T14:01:42Z</time>
</trkpt>
<trkpt lat="45.44203" lon="13.49961">
<ele>45</ele>
<time>2011-05-01T14:01:44Z</time>
</trkpt>
<trkpt lat="45.44198" lon="13.49966">
<ele>45</ele>
<time>2011-05-01T14:01:46Z</time>
</trkpt>
<trkpt lat="45.44193" lon="13.49971">
<ele>45</ele>
<time>2011-05-01T14:01:48Z</time>
</trkpt>
<trkpt lat="45.44188" lon="13.49976">
<ele>45</ele>
<time>2011-05-01T14:01:50Z</time>
</trkpt>
<trkpt lat="45.44183" lon="13.49982">
<ele>45</ele>
<time>2011-05-01T14:01:52Z</time>
</trkpt>
<trkpt lat="45.44179" lon="13.49988">
<ele>45</ele>
<time>2011-05-01T14:01:54Z</time>
</trkpt>
<trkpt lat="45.44174" lon="13.49993">
<ele>45</ele>
<time>2011-05-01T14:01:56Z</time>
</trkpt>
<trkpt lat="45.4417" lon="13.49998">
<ele>45</ele>
<time>2011-05-01T14:01:58Z</time>
</trkpt>
<trkpt lat="45.44165" lon="13.50002">
<ele>45</ele>
<time>2011-05-01T14:02:00Z</time>
</trkpt>
<trkpt lat="45.4416" lon="13.50007">
<ele>45</ele>
<time>2011-05-01T14:02:02Z</time>
</trkpt>
<trkpt lat="45.44155" lon="13.50011">
<ele>45</ele>
<time>2011-05-01T14:02:04Z</time>
</trkpt>
<trkpt lat="45.4415" lon="13.50016">
<ele>45</ele>
<time>2011-05-01T14:02:06Z</time>
</trkpt>
<trkpt lat="45.44145" lon="13.5002">
<ele>45</ele>
<time>2011-05-01T14:02:08Z</time>
</trkpt>
<trkpt lat="45.4414" lon="13.50024">
<ele>45</ele>
<time>2011-05-01T14:02:10Z</time>
</trkpt>
<trkpt lat="45.44135" lon="13.50029">
<ele>45</ele>
<time>2011-05-01T14:02:12Z</time>
</trkpt>
<trkpt lat="45.4413" lon="13.50034">
<ele>45</ele>
<time>2011-05-01T14:02:14Z</time>
</trkpt>
<trkpt lat="45.44126" lon="13.50039">
<ele>45</ele>
<time>2011-05-01T14:02:16Z</time>
</trkpt>
<trkpt lat="45.44121" lon="13.50044">
<ele>45</ele>
<time>2011-05-01T14:02:18Z</time>
</trkpt>
<trkpt lat="45.44116" lon="13.50049">
<ele>45</ele>
<time>2011-05-01T14:02:20Z</time>
</trkpt>
<trkpt lat="45.44112" lon="13.50054">
<ele>45</ele>
<time>2011-05-01T14:02:22Z</time>
</trkpt>
<trkpt lat="45.44107" lon="13.50058">
<ele>45</ele>
<time>2011-05-01T14:02:24Z</time>
</trkpt>
<trkpt lat="45.44103" lon="13.50063">
<ele>45</ele>
<time>2011-05-01T14:02:26Z</time>
</trkpt>
<trkpt lat="45.44098" lon="13.50067">
<ele>45</ele>
<time>2011-05-01T14:02:28Z</time>
</trkpt>
<trkpt lat="45.44093" lon="13.50072">
<ele>45</ele>
<time>2011-05-01T14:02:30Z</time>
</trkpt>
<trkpt lat="45.44089" lon="13.50077">
<ele>45</ele>
<time>2011-05-01T14:02:32Z</time>
</trkpt>
<trkpt lat="45.44084" lon="13.50082">
<ele>45</ele>
<time>2011-05-01T14:02:34Z</time>
</trkpt>
<trkpt lat="45.4408" lon="13.50087">
<ele>45</ele>
<time>2011-05-01T14:02:36Z</time>
</trkpt>
<trkpt lat="45.44075" lon="13.50092">
<ele>45</ele>
<time>2011-05-01T14:02:38Z</time>
</trkpt>
<trkpt lat="45.44071" lon="13.50097">
<ele>45</ele>
<time>2011-05-01T14:02:40Z</time>
</trkpt>
<trkpt lat="45.44066" lon="13.50102">
<ele>45</ele>
<time>2011-05-01T14:02:42Z</time>
</trkpt>
<trkpt lat="45.44061" lon="13.50108">
<ele>45</ele>
<time>2011-05-01T14:02:44Z</time>
</trkpt>
<trkpt lat="45.44056" lon="13.50113">
<ele>45</ele>
<time>2011-05-01T14:02:46Z</time>
</trkpt>
<trkpt lat="45.44052" lon="13.50118">
<ele>45</ele>
<time>2011-05-01T14:02:48Z</time>
</trkpt>
<trkpt lat="45.44047" lon="13.50123">
<ele>45</ele>
<time>2011-05-01T14:02:50Z</time>
</trkpt>
<trkpt lat="45.44043" lon="13.50128">
<ele>45</ele>
<time>2011-05-01T14:02:52Z</time>
</trkpt>
<trkpt lat="45.44038" lon="13.50133">
<ele>45</ele>
<time>2011-05-01T14:02:54Z</time>
</trkpt>
<trkpt lat="45.44033" lon="13.50138">
<ele>45</ele>
<time>2011-05-01T14:02:56Z</time>
</trkpt>
<trkpt lat="45.44028" lon="13.50143">
<ele>45</ele>
<time>2011-05-01T14:02:58Z</time>
</trkpt>
<trkpt lat="45.44024" lon="13.50149">
<ele>45</ele>
<time>2011-05-01T14:03:00Z</time>
</trkpt>
<trkpt lat="45.44019" lon="13.50154">
<ele>45</ele>
<time>2011-05-01T14:03:02Z</time>
</trkpt>
<trkpt lat="45.44015" lon="13.5016">
<ele>45</ele>
<time>2011-05-01T14:03:04Z</time>
</trkpt>
<trkpt lat="45.44011" lon="13.50165">
<ele>45</ele>
<time>2011-05-01T14:03:06Z</time>
</trkpt>
<trkpt lat="45.44006" lon="13.50171">
<ele>45</ele>
<time>2011-05-01T14:03:08Z</time>
</trkpt>
<trkpt lat="45.44002" lon="13.50176">
<ele>45</ele>
<time>2011-05-01T14:03:10Z</time>
</trkpt>
<trkpt lat="45.43998" lon="13.50181">
<ele>45</ele>
<time>2011-05-01T14:03:12Z</time>
</trkpt>
<trkpt lat="45.43994" lon="13.50186">
<ele>45</ele>
<time>2011-05-01T14:03:14Z</time>
</trkpt>
<trkpt lat="45.43989" lon="13.50192">
<ele>45</ele>
<time>2011-05-01T14:03:16Z</time>
</trkpt>
<trkpt lat="45.43985" lon="13.50197">
<ele>45</ele>
<time>2011-05-01T14:03:18Z</time>
</trkpt>
<trkpt lat="45.43981" lon="13.50202">
<ele>45</ele>
<time>2011-05-01T14:03:20Z</time>
</trkpt>
<trkpt lat="45.43977" lon="13.50207">
<ele>45</ele>
<time>2011-05-01T14:03:22Z</time>
</trkpt>
<trkpt lat="45.43972" lon="13.50212">
<ele>46</ele>
<time>2011-05-01T14:03:24Z</time>
</trkpt>
<trkpt lat="45.43968" lon="13.50218">
<ele>46</ele>
<time>2011-05-01T14:03:26Z</time>
</trkpt>
<trkpt lat="45.43964" lon="13.50223">
<ele>46</ele>
<time>2011-05-01T14:03:28Z</time>
</trkpt>
<trkpt lat="45.4396" lon="13.50228">
<ele>46</ele>
<time>2011-05-01T14:03:30Z</time>
</trkpt>
<trkpt lat="45.43956" lon="13.50232">
<ele>46</ele>
<time>2011-05-01T14:03:32Z</time>
</trkpt>
<trkpt lat="45.43952" lon="13.50237">
<ele>46</ele>
<time>2011-05-01T14:03:34Z</time>
</trkpt>
<trkpt lat="45.43948" lon="13.50243">
<ele>46</ele>
<time>2011-05-01T14:03:36Z</time>
</trkpt>
<trkpt lat="45.43944" lon="13.50248">
<ele>46</ele>
<time>2011-05-01T14:03:38Z</time>
</trkpt>
<trkpt lat="45.4394" lon="13.50254">
<ele>46</ele>
<time>2011-05-01T14:03:40Z</time>
</trkpt>
<trkpt lat="45.43936" lon="13.50259">
<ele>46</ele>
<time>2011-05-01T14:03:42Z</time>
</trkpt>
<trkpt lat="45.43932" lon="13.50264">
<ele>46</ele>
<time>2011-05-01T14:03:44Z</time>
</trkpt>
<trkpt lat="45.43928" lon="13.50269">
<ele>46</ele>
<time>2011-05-01T14:03:46Z</time>
</trkpt>
<trkpt lat="45.43924" lon="13.50275">
<ele>46</ele>
<time>2011-05-01T14:03:48Z</time>
</trkpt>
<trkpt lat="45.4392" lon="13.5028">
<ele>46</ele>
<time>2011-05-01T14:03:50Z</time>
</trkpt>
<trkpt lat="45.43916" lon="13.50285">
<ele>46</ele>
<time>2011-05-01T14:03:52Z</time>
</trkpt>
<trkpt lat="45.43912" lon="13.5029">
<ele>46</ele>
<time>2011-05-01T14:03:54Z</time>
</trkpt>
<trkpt lat="45.43908" lon="13.50295">
<ele>46</ele>
<time>2011-05-01T14:03:56Z</time>
</trkpt>
<trkpt lat="45.43904" lon="13.50301">
<ele>46</ele>
<time>2011-05-01T14:03:58Z</time>
</trkpt>
<trkpt lat="45.43901" lon="13.50306">
<ele>46</ele>
<time>2011-05-01T14:04:00Z</time>
</trkpt>
<trkpt lat="45.43897" lon="13.50312">
<ele>46</ele>
<time>2011-05-01T14:04:02Z</time>
</trkpt>
<trkpt lat="45.43893" lon="13.50317">
<ele>46</ele>
<time>2011-05-01T14:04:04Z</time>
</trkpt>
<trkpt lat="45.43889" lon="13.50322">
<ele>46</ele>
<time>2011-05-01T14:04:06Z</time>
</trkpt>
<trkpt lat="45.43886" lon="13.50328">
<ele>46</ele>
<time>2011-05-01T14:04:08Z</time>
</trkpt>
<trkpt lat="45.43882" lon="13.50333">
<ele>46</ele>
<time>2011-05-01T14:04:10Z</time>
</trkpt>
<trkpt lat="45.43878" lon="13.50339">
<ele>46</ele>
<time>2011-05-01T14:04:12Z</time>
</trkpt>
<trkpt lat="45.43875" lon="13.50345">
<ele>46</ele>
<time>2011-05-01T14:04:14Z</time>
</trkpt>
<trkpt lat="45.43872" lon="13.50351">
<ele>46</ele>
<time>2011-05-01T14:04:16Z</time>
</trkpt>
<trkpt lat="45.43869" lon="13.50357">
<ele>46</ele>
<time>2011-05-01T14:04:18Z</time>
</trkpt>
<trkpt lat="45.43866" lon="13.50363">
<ele>46</ele>
<time>2011-05-01T14:04:20Z</time>
</trkpt>
<trkpt lat="45.43863" lon="13.50369">
<ele>46</ele>
<time>2011-05-01T14:04:22Z</time>
</trkpt>
<trkpt lat="45.4386" lon="13.50375">
<ele>46</ele>
<time>2011-05-01T14:04:24Z</time>
</trkpt>
<trkpt lat="45.43858" lon="13.5038">
<ele>46</ele>
<time>2011-05-01T14:04:26Z</time>
</trkpt>
<trkpt lat="45.43855" lon="13.50386">
<ele>46</ele>
<time>2011-05-01T14:04:28Z</time>
</trkpt>
<trkpt lat="45.43852" lon="13.50391">
<ele>46</ele>
<time>2011-05-01T14:04:30Z</time>
</trkpt>
<trkpt lat="45.43849" lon="13.50397">
<ele>46</ele>
<time>2011-05-01T14:04:32Z</time>
</trkpt>
<trkpt lat="45.43846" lon="13.50403">
<ele>46</ele>
<time>2011-05-01T14:04:34Z</time>
</trkpt>
<trkpt lat="45.43844" lon="13.50409">
<ele>46</ele>
<time>2011-05-01T14:04:36Z</time>
</trkpt>
<trkpt lat="45.43841" lon="13.50414">
<ele>46</ele>
<time>2011-05-01T14:04:38Z</time>
</trkpt>
<trkpt lat="45.43839" lon="13.5042">
<ele>46</ele>
<time>2011-05-01T14:04:40Z</time>
</trkpt>
<trkpt lat="45.43837" lon="13.50426">
<ele>46</ele>
<time>2011-05-01T14:04:42Z</time>
</trkpt>
<trkpt lat="45.43834" lon="13.50432">
<ele>46</ele>
<time>2011-05-01T14:04:44Z</time>
</trkpt>
<trkpt lat="45.43832" lon="13.50438">
<ele>46</ele>
<time>2011-05-01T14:04:46Z</time>
</trkpt>
<trkpt lat="45.4383" lon="13.50444">
<ele>46</ele>
<time>2011-05-01T14:04:48Z</time>
</trkpt>
<trkpt lat="45.43828" lon="13.5045">
<ele>46</ele>
<time>2011-05-01T14:04:50Z</time>
</trkpt>
<trkpt lat="45.43825" lon="13.50455">
<ele>46</ele>
<time>2011-05-01T14:04:52Z</time>
</trkpt>
<trkpt lat="45.43822" lon="13.50461">
<ele>46</ele>
<time>2011-05-01T14:04:54Z</time>
</trkpt>
<trkpt lat="45.4382" lon="13.50466">
<ele>47</ele>
<time>2011-05-01T14:04:56Z</time>
</trkpt>
<trkpt lat="45.43817" lon="13.50472">
<ele>47</ele>
<time>2011-05-01T14:04:58Z</time>
</trkpt>
<trkpt lat="45.43814" lon="13.50477">
<ele>47</ele>
<time>2011-05-01T14:05:00Z</time>
</trkpt>
<trkpt lat="45.4381" lon="13.50482">
<ele>47</ele>
<time>2011-05-01T14:05:02Z</time>
</trkpt>
<trkpt lat="45.43807" lon="13.50488">
<ele>47</ele>
<time>2011-05-01T14:05:04Z</time>
</trkpt>
<trkpt lat="45.43804" lon="13.50494">
<ele>47</ele>
<time>2011-05-01T14:05:06Z</time>
</trkpt>
<trkpt lat="45.438" lon="13.50499">
<ele>47</ele>
<time>2011-05-01T14:05:08Z</time>
</trkpt>
<trkpt lat="45.43797" lon="13.50505">
<ele>47</ele>
<time>2011-05-01T14:05:10Z</time>
</trkpt>
<trkpt lat="45.43794" lon="13.50511">
<ele>47</ele>
<time>2011-05-01T14:05:12Z</time>
</trkpt>
<trkpt lat="45.43791" lon="13.50516">
<ele>47</ele>
<time>2011-05-01T14:05:14Z</time>
</trkpt>
<trkpt lat="45.43788" lon="13.50522">
<ele>47</ele>
<time>2011-05-01T14:05:16Z</time>
</trkpt>
<trkpt lat="45.43785" lon="13.50528">
<ele>47</ele>
<time>2011-05-01T14:05:18Z</time>
</trkpt>
<trkpt lat="45.43782" lon="13.50534">
<ele>47</ele>
<time>2011-05-01T14:05:20Z</time>
</trkpt>
<trkpt lat="45.43779" lon="13.5054">
<ele>47</ele>
<time>2011-05-01T14:05:22Z</time>
</trkpt>
<trkpt lat="45.43777" lon="13.50546">
<ele>47</ele>
<time>2011-05-01T14:05:24Z</time>
</trkpt>
<trkpt lat="45.43774" lon="13.50552">
<ele>47</ele>
<time>2011-05-01T14:05:26Z</time>
</trkpt>
<trkpt lat="45.43772" lon="13.50558">
<ele>47</ele>
<time>2011-05-01T14:05:28Z</time>
</trkpt>
<trkpt lat="45.43769" lon="13.50564">
<ele>48</ele>
<time>2011-05-01T14:05:30Z</time>
</trkpt>
<trkpt lat="45.43767" lon="13.50569">
<ele>48</ele>
<time>2011-05-01T14:05:32Z</time>
</trkpt>
<trkpt lat="45.43765" lon="13.50575">
<ele>48</ele>
<time>2011-05-01T14:05:34Z</time>
</trkpt>
<trkpt lat="45.43762" lon="13.50581">
<ele>48</ele>
<time>2011-05-01T14:05:36Z</time>
</trkpt>
<trkpt lat="45.4376" lon="13.50587">
<ele>48</ele>
<time>2011-05-01T14:05:38Z</time>
</trkpt>
<trkpt lat="45.43758" lon="13.50592">
<ele>48</ele>
<time>2011-05-01T14:05:40Z</time>
</trkpt>
<trkpt lat="45.43755" lon="13.50598">
<ele>48</ele>
<time>2011-05-01T14:05:42Z</time>
</trkpt>
<trkpt lat="45.43753" lon="13.50604">
<ele>48</ele>
<time>2011-05-01T14:05:44Z</time>
</trkpt>
<trkpt lat="45.4375" lon="13.5061">
<ele>48</ele>
<time>2011-05-01T14:05:46Z</time>
</trkpt>
<trkpt lat="45.43748" lon="13.50615">
<ele>48</ele>
<time>2011-05-01T14:05:48Z</time>
</trkpt>
<trkpt lat="45.43746" lon="13.50621">
<ele>48</ele>
<time>2011-05-01T14:05:50Z</time>
</trkpt>
<trkpt lat="45.43743" lon="13.50626">
<ele>48</ele>
<time>2011-05-01T14:05:52Z</time>
</trkpt>
<trkpt lat="45.43741" lon="13.50632">
<ele>48</ele>
<time>2011-05-01T14:05:54Z</time>
</trkpt>
<trkpt lat="45.43738" lon="13.5064">
<ele>48</ele>
<time>2011-05-01T14:05:57Z</time>
</trkpt>
<trkpt lat="45.43735" lon="13.50646">
<ele>48</ele>
<time>2011-05-01T14:05:59Z</time>
</trkpt>
<trkpt lat="45.43731" lon="13.50654">
<ele>48</ele>
<time>2011-05-01T14:06:02Z</time>
</trkpt>
<trkpt lat="45.43729" lon="13.50659">
<ele>48</ele>
<time>2011-05-01T14:06:04Z</time>
</trkpt>
<trkpt lat="45.43726" lon="13.50664">
<ele>48</ele>
<time>2011-05-01T14:06:06Z</time>
</trkpt>
<trkpt lat="45.43723" lon="13.5067">
<ele>48</ele>
<time>2011-05-01T14:06:08Z</time>
</trkpt>
<trkpt lat="45.43721" lon="13.50675">
<ele>48</ele>
<time>2011-05-01T14:06:10Z</time>
</trkpt>
<trkpt lat="45.43717" lon="13.50683">
<ele>49</ele>
<time>2011-05-01T14:06:13Z</time>
</trkpt>
<trkpt lat="45.43714" lon="13.50689">
<ele>49</ele>
<time>2011-05-01T14:06:15Z</time>
</trkpt>
<trkpt lat="45.43712" lon="13.50695">
<ele>49</ele>
<time>2011-05-01T14:06:17Z</time>
</trkpt>
<trkpt lat="45.4371" lon="13.507">
<ele>49</ele>
<time>2011-05-01T14:06:19Z</time>
</trkpt>
<trkpt lat="45.43707" lon="13.50706">
<ele>49</ele>
<time>2011-05-01T14:06:21Z</time>
</trkpt>
<trkpt lat="45.43705" lon="13.50712">
<ele>49</ele>
<time>2011-05-01T14:06:23Z</time>
</trkpt>
<trkpt lat="45.43702" lon="13.5072">
<ele>49</ele>
<time>2011-05-01T14:06:26Z</time>
</trkpt>
<trkpt lat="45.437" lon="13.50726">
<ele>49</ele>
<time>2011-05-01T14:06:28Z</time>
</trkpt>
<trkpt lat="45.43698" lon="13.50732">
<ele>49</ele>
<time>2011-05-01T14:06:30Z</time>
</trkpt>
<trkpt lat="45.43694" lon="13.5074">
<ele>49</ele>
<time>2011-05-01T14:06:33Z</time>
</trkpt>
<trkpt lat="45.43691" lon="13.50748">
<ele>49</ele>
<time>2011-05-01T14:06:36Z</time>
</trkpt>
<trkpt lat="45.43687" lon="13.50756">
<ele>49</ele>
<time>2011-05-01T14:06:39Z</time>
</trkpt>
<trkpt lat="45.43684" lon="13.50764">
<ele>49</ele>
<time>2011-05-01T14:06:42Z</time>
</trkpt>
<trkpt lat="45.43682" lon="13.5077">
<ele>49</ele>
<time>2011-05-01T14:06:44Z</time>
</trkpt>
<trkpt lat="45.43678" lon="13.50778">
<ele>49</ele>
<time>2011-05-01T14:06:47Z</time>
</trkpt>
<trkpt lat="45.43675" lon="13.50786">
<ele>49</ele>
<time>2011-05-01T14:06:50Z</time>
</trkpt>
<trkpt lat="45.43671" lon="13.50794">
<ele>49</ele>
<time>2011-05-01T14:06:53Z</time>
</trkpt>
<trkpt lat="45.43668" lon="13.50801">
<ele>49</ele>
<time>2011-05-01T14:06:56Z</time>
</trkpt>
<trkpt lat="45.43664" lon="13.50808">
<ele>49</ele>
<time>2011-05-01T14:06:59Z</time>
</trkpt>
<trkpt lat="45.4366" lon="13.50814">
<ele>49</ele>
<time>2011-05-01T14:07:02Z</time>
</trkpt>
<trkpt lat="45.43655" lon="13.50821">
<ele>49</ele>
<time>2011-05-01T14:07:05Z</time>
</trkpt>
<trkpt lat="45.43651" lon="13.50827">
<ele>49</ele>
<time>2011-05-01T14:07:08Z</time>
</trkpt>
<trkpt lat="45.43646" lon="13.50834">
<ele>49</ele>
<time>2011-05-01T14:07:11Z</time>
</trkpt>
<trkpt lat="45.43643" lon="13.50839">
<ele>49</ele>
<time>2011-05-01T14:07:13Z</time>
</trkpt>
<trkpt lat="45.4364" lon="13.50844">
<ele>49</ele>
<time>2011-05-01T14:07:15Z</time>
</trkpt>
<trkpt lat="45.43637" lon="13.50849">
<ele>49</ele>
<time>2011-05-01T14:07:17Z</time>
</trkpt>
<trkpt lat="45.43634" lon="13.50854">
<ele>49</ele>
<time>2011-05-01T14:07:19Z</time>
</trkpt>
<trkpt lat="45.4363" lon="13.50858">
<ele>49</ele>
<time>2011-05-01T14:07:21Z</time>
</trkpt>
<trkpt lat="45.43627" lon="13.50864">
<ele>49</ele>
<time>2011-05-01T14:07:23Z</time>
</trkpt>
<trkpt lat="45.43624" lon="13.50869">
<ele>49</ele>
<time>2011-05-01T14:07:25Z</time>
</trkpt>
<trkpt lat="45.43621" lon="13.50874">
<ele>49</ele>
<time>2011-05-01T14:07:27Z</time>
</trkpt>
<trkpt lat="45.43617" lon="13.50879">
<ele>49</ele>
<time>2011-05-01T14:07:29Z</time>
</trkpt>
<trkpt lat="45.43614" lon="13.50884">
<ele>49</ele>
<time>2011-05-01T14:07:31Z</time>
</trkpt>
<trkpt lat="45.43611" lon="13.5089">
<ele>49</ele>
<time>2011-05-01T14:07:33Z</time>
</trkpt>
<trkpt lat="45.43608" lon="13.50896">
<ele>49</ele>
<time>2011-05-01T14:07:35Z</time>
</trkpt>
<trkpt lat="45.43605" lon="13.50901">
<ele>49</ele>
<time>2011-05-01T14:07:37Z</time>
</trkpt>
<trkpt lat="45.43602" lon="13.50906">
<ele>49</ele>
<time>2011-05-01T14:07:39Z</time>
</trkpt>
<trkpt lat="45.43599" lon="13.50911">
<ele>49</ele>
<time>2011-05-01T14:07:41Z</time>
</trkpt>
<trkpt lat="45.43596" lon="13.50916">
<ele>49</ele>
<time>2011-05-01T14:07:43Z</time>
</trkpt>
<trkpt lat="45.43592" lon="13.5092">
<ele>49</ele>
<time>2011-05-01T14:07:45Z</time>
</trkpt>
<trkpt lat="45.43588" lon="13.50924">
<ele>49</ele>
<time>2011-05-01T14:07:47Z</time>
</trkpt>
<trkpt lat="45.43584" lon="13.50928">
<ele>49</ele>
<time>2011-05-01T14:07:49Z</time>
</trkpt>
<trkpt lat="45.4358" lon="13.50932">
<ele>49</ele>
<time>2011-05-01T14:07:51Z</time>
</trkpt>
<trkpt lat="45.43576" lon="13.50936">
<ele>49</ele>
<time>2011-05-01T14:07:53Z</time>
</trkpt>
<trkpt lat="45.43572" lon="13.5094">
<ele>49</ele>
<time>2011-05-01T14:07:55Z</time>
</trkpt>
<trkpt lat="45.43568" lon="13.50945">
<ele>49</ele>
<time>2011-05-01T14:07:57Z</time>
</trkpt>
<trkpt lat="45.43565" lon="13.50949">
<ele>49</ele>
<time>2011-05-01T14:07:59Z</time>
</trkpt>
<trkpt lat="45.43561" lon="13.50953">
<ele>49</ele>
<time>2011-05-01T14:08:01Z</time>
</trkpt>
<trkpt lat="45.43557" lon="13.50957">
<ele>49</ele>
<time>2011-05-01T14:08:03Z</time>
</trkpt>
<trkpt lat="45.43552" lon="13.50962">
<ele>49</ele>
<time>2011-05-01T14:08:06Z</time>
</trkpt>
<trkpt lat="45.43547" lon="13.50968">
<ele>49</ele>
<time>2011-05-01T14:08:09Z</time>
</trkpt>
<trkpt lat="45.43543" lon="13.50972">
<ele>49</ele>
<time>2011-05-01T14:08:11Z</time>
</trkpt>
<trkpt lat="45.43538" lon="13.50977">
<ele>49</ele>
<time>2011-05-01T14:08:14Z</time>
</trkpt>
<trkpt lat="45.43534" lon="13.50981">
<ele>49</ele>
<time>2011-05-01T14:08:16Z</time>
</trkpt>
<trkpt lat="45.4353" lon="13.50987">
<ele>49</ele>
<time>2011-05-01T14:08:19Z</time>
</trkpt>
<trkpt lat="45.43525" lon="13.50993">
<ele>49</ele>
<time>2011-05-01T14:08:22Z</time>
</trkpt>
<trkpt lat="45.4352" lon="13.50999">
<ele>49</ele>
<time>2011-05-01T14:08:25Z</time>
</trkpt>
<trkpt lat="45.43515" lon="13.51004">
<ele>49</ele>
<time>2011-05-01T14:08:28Z</time>
</trkpt>
<trkpt lat="45.43511" lon="13.51009">
<ele>49</ele>
<time>2011-05-01T14:08:31Z</time>
</trkpt>
<trkpt lat="45.43506" lon="13.51013">
<ele>49</ele>
<time>2011-05-01T14:08:34Z</time>
</trkpt>
<trkpt lat="45.43502" lon="13.51016">
<ele>50</ele>
<time>2011-05-01T14:08:37Z</time>
</trkpt>
<trkpt lat="45.43497" lon="13.51019">
<ele>50</ele>
<time>2011-05-01T14:08:40Z</time>
</trkpt>
<trkpt lat="45.43492" lon="13.51021">
<ele>50</ele>
<time>2011-05-01T14:08:43Z</time>
</trkpt>
<trkpt lat="45.43487" lon="13.51023">
<ele>50</ele>
<time>2011-05-01T14:08:46Z</time>
</trkpt>
<trkpt lat="45.43482" lon="13.51025">
<ele>49</ele>
<time>2011-05-01T14:08:49Z</time>
</trkpt>
<trkpt lat="45.43478" lon="13.51027">
<ele>49</ele>
<time>2011-05-01T14:08:52Z</time>
</trkpt>
<trkpt lat="45.43473" lon="13.51029">
<ele>49</ele>
<time>2011-05-01T14:08:55Z</time>
</trkpt>
<trkpt lat="45.43468" lon="13.51031">
<ele>49</ele>
<time>2011-05-01T14:08:58Z</time>
</trkpt>
<trkpt lat="45.43463" lon="13.51034">
<ele>49</ele>
<time>2011-05-01T14:09:01Z</time>
</trkpt>
<trkpt lat="45.43458" lon="13.51037">
<ele>49</ele>
<time>2011-05-01T14:09:04Z</time>
</trkpt>
<trkpt lat="45.43454" lon="13.5104">
<ele>49</ele>
<time>2011-05-01T14:09:07Z</time>
</trkpt>
<trkpt lat="45.43449" lon="13.51042">
<ele>49</ele>
<time>2011-05-01T14:09:10Z</time>
</trkpt>
<trkpt lat="45.43444" lon="13.51044">
<ele>49</ele>
<time>2011-05-01T14:09:13Z</time>
</trkpt>
<trkpt lat="45.43439" lon="13.51044">
<ele>49</ele>
<time>2011-05-01T14:09:17Z</time>
</trkpt>
<trkpt lat="45.43434" lon="13.51044">
<ele>49</ele>
<time>2011-05-01T14:09:21Z</time>
</trkpt>
<trkpt lat="45.43429" lon="13.51042">
<ele>49</ele>
<time>2011-05-01T14:09:26Z</time>
</trkpt>
<trkpt lat="45.43424" lon="13.51041">
<ele>48</ele>
<time>2011-05-01T14:09:33Z</time>
</trkpt>
<trkpt lat="45.4342" lon="13.51039">
<ele>48</ele>
<time>2011-05-01T14:09:41Z</time>
</trkpt>
<trkpt lat="45.43418" lon="13.51045">
<ele>48</ele>
<time>2011-05-01T14:10:08Z</time>
</trkpt>
<trkpt lat="45.43419" lon="13.51052">
<ele>48</ele>
<time>2011-05-01T14:10:18Z</time>
</trkpt>
<trkpt lat="45.43419" lon="13.51058">
<ele>48</ele>
<time>2011-05-01T14:10:29Z</time>
</trkpt>
<trkpt lat="45.43415" lon="13.51061">
<ele>47</ele>
<time>2011-05-01T14:10:37Z</time>
</trkpt>
<trkpt lat="45.4341" lon="13.51059">
<ele>47</ele>
<time>2011-05-01T14:10:43Z</time>
</trkpt>
<trkpt lat="45.43408" lon="13.51053">
<ele>47</ele>
<time>2011-05-01T14:10:47Z</time>
</trkpt>
<trkpt lat="45.43407" lon="13.51046">
<ele>47</ele>
<time>2011-05-01T14:10:51Z</time>
</trkpt>
<trkpt lat="45.43407" lon="13.51039">
<ele>47</ele>
<time>2011-05-01T14:10:56Z</time>
</trkpt>
<trkpt lat="45.43407" lon="13.51032">
<ele>48</ele>
<time>2011-05-01T14:11:02Z</time>
</trkpt>
<trkpt lat="45.43406" lon="13.51024">
<ele>48</ele>
<time>2011-05-01T14:11:08Z</time>
</trkpt>
<trkpt lat="45.43405" lon="13.51017">
<ele>48</ele>
<time>2011-05-01T14:11:14Z</time>
</trkpt>
<trkpt lat="45.43404" lon="13.5101">
<ele>48</ele>
<time>2011-05-01T14:11:20Z</time>
</trkpt>
<trkpt lat="45.43402" lon="13.51003">
<ele>48</ele>
<time>2011-05-01T14:11:29Z</time>
</trkpt>
<trkpt lat="45.434" lon="13.50997">
<ele>48</ele>
<time>2011-05-01T14:11:39Z</time>
</trkpt>
<trkpt lat="45.43398" lon="13.50991">
<ele>49</ele>
<time>2011-05-01T14:11:46Z</time>
</trkpt>
<trkpt lat="45.43396" lon="13.50984">
<ele>49</ele>
<time>2011-05-01T14:11:53Z</time>
</trkpt>
<trkpt lat="45.43394" lon="13.50977">
<ele>49</ele>
<time>2011-05-01T14:12:00Z</time>
</trkpt>
<trkpt lat="45.43394" lon="13.5097">
<ele>49</ele>
<time>2011-05-01T14:12:05Z</time>
</trkpt>
<trkpt lat="45.43394" lon="13.50963">
<ele>49</ele>
<time>2011-05-01T14:12:09Z</time>
</trkpt>
<trkpt lat="45.43396" lon="13.50956">
<ele>49</ele>
<time>2011-05-01T14:12:13Z</time>
</trkpt>
<trkpt lat="45.434" lon="13.50951">
<ele>49</ele>
<time>2011-05-01T14:12:16Z</time>
</trkpt>
<trkpt lat="45.43404" lon="13.50949">
<ele>49</ele>
<time>2011-05-01T14:12:19Z</time>
</trkpt>
<trkpt lat="45.4341" lon="13.5095">
<ele>49</ele>
<time>2011-05-01T14:12:22Z</time>
</trkpt>
<trkpt lat="45.43416" lon="13.50952">
<ele>49</ele>
<time>2011-05-01T14:12:25Z</time>
</trkpt>
<trkpt lat="45.43422" lon="13.50955">
<ele>50</ele>
<time>2011-05-01T14:12:28Z</time>
</trkpt>
<trkpt lat="45.43427" lon="13.50958">
<ele>50</ele>
<time>2011-05-01T14:12:31Z</time>
</trkpt>
<trkpt lat="45.43433" lon="13.5096">
<ele>50</ele>
<time>2011-05-01T14:12:34Z</time>
</trkpt>
<trkpt lat="45.43438" lon="13.50962">
<ele>50</ele>
<time>2011-05-01T14:12:37Z</time>
</trkpt>
<trkpt lat="45.43442" lon="13.50964">
<ele>50</ele>
<time>2011-05-01T14:12:40Z</time>
</trkpt>
<trkpt lat="45.43446" lon="13.50967">
<ele>50</ele>
<time>2011-05-01T14:12:43Z</time>
</trkpt>
<trkpt lat="45.4345" lon="13.5097">
<ele>50</ele>
<time>2011-05-01T14:12:46Z</time>
</trkpt>
<trkpt lat="45.43454" lon="13.50973">
<ele>50</ele>
<time>2011-05-01T14:12:49Z</time>
</trkpt>
<trkpt lat="45.43459" lon="13.50978">
<ele>50</ele>
<time>2011-05-01T14:12:53Z</time>
</trkpt>
<trkpt lat="45.43464" lon="13.50982">
<ele>50</ele>
<time>2011-05-01T14:12:57Z</time>
</trkpt>
<trkpt lat="45.43469" lon="13.50987">
<ele>50</ele>
<time>2011-05-01T14:13:01Z</time>
</trkpt>
<trkpt lat="45.43474" lon="13.50991">
<ele>50</ele>
<time>2011-05-01T14:13:05Z</time>
</trkpt>
<trkpt lat="45.43478" lon="13.50997">
<ele>50</ele>
<time>2011-05-01T14:13:09Z</time>
</trkpt>
<trkpt lat="45.43482" lon="13.51002">
<ele>50</ele>
<time>2011-05-01T14:13:13Z</time>
</trkpt>
<trkpt lat="45.43487" lon="13.51006">
<ele>50</ele>
<time>2011-05-01T14:13:17Z</time>
</trkpt>
<trkpt lat="45.43492" lon="13.5101">
<ele>50</ele>
<time>2011-05-01T14:13:21Z</time>
</trkpt>
<trkpt lat="45.43498" lon="13.51014">
<ele>50</ele>
<time>2011-05-01T14:13:25Z</time>
</trkpt>
<trkpt lat="45.43501" lon="13.51018">
<ele>50</ele>
<time>2011-05-01T14:13:28Z</time>
</trkpt>
<trkpt lat="45.43505" lon="13.51022">
<ele>50</ele>
<time>2011-05-01T14:13:31Z</time>
</trkpt>
<trkpt lat="45.43509" lon="13.51026">
<ele>50</ele>
<time>2011-05-01T14:13:34Z</time>
</trkpt>
<trkpt lat="45.43513" lon="13.5103">
<ele>50</ele>
<time>2011-05-01T14:13:37Z</time>
</trkpt>
<trkpt lat="45.43517" lon="13.51033">
<ele>50</ele>
<time>2011-05-01T14:13:40Z</time>
</trkpt>
<trkpt lat="45.43521" lon="13.51036">
<ele>50</ele>
<time>2011-05-01T14:13:43Z</time>
</trkpt>
<trkpt lat="45.43526" lon="13.5104">
<ele>50</ele>
<time>2011-05-01T14:13:47Z</time>
</trkpt>
<trkpt lat="45.43531" lon="13.51044">
<ele>50</ele>
<time>2011-05-01T14:13:51Z</time>
</trkpt>
<trkpt lat="45.43535" lon="13.51049">
<ele>50</ele>
<time>2011-05-01T14:13:55Z</time>
</trkpt>
<trkpt lat="45.43539" lon="13.51053">
<ele>50</ele>
<time>2011-05-01T14:13:58Z</time>
</trkpt>
<trkpt lat="45.43544" lon="13.51058">
<ele>50</ele>
<time>2011-05-01T14:14:02Z</time>
</trkpt>
<trkpt lat="45.43548" lon="13.51063">
<ele>50</ele>
<time>2011-05-01T14:14:06Z</time>
</trkpt>
<trkpt lat="45.43553" lon="13.51067">
<ele>50</ele>
<time>2011-05-01T14:14:10Z</time>
</trkpt>
<trkpt lat="45.43558" lon="13.51072">
<ele>50</ele>
<time>2011-05-01T14:14:14Z</time>
</trkpt>
<trkpt lat="45.43563" lon="13.51076">
<ele>50</ele>
<time>2011-05-01T14:14:18Z</time>
</trkpt>
<trkpt lat="45.43566" lon="13.5108">
<ele>50</ele>
<time>2011-05-01T14:14:21Z</time>
</trkpt>
<trkpt lat="45.4357" lon="13.51084">
<ele>50</ele>
<time>2011-05-01T14:14:24Z</time>
</trkpt>
<trkpt lat="45.43574" lon="13.51088">
<ele>50</ele>
<time>2011-05-01T14:14:27Z</time>
</trkpt>
<trkpt lat="45.43577" lon="13.51092">
<ele>50</ele>
<time>2011-05-01T14:14:30Z</time>
</trkpt>
<trkpt lat="45.43582" lon="13.51097">
<ele>50</ele>
<time>2011-05-01T14:14:34Z</time>
</trkpt>
<trkpt lat="45.43585" lon="13.51101">
<ele>50</ele>
<time>2011-05-01T14:14:37Z</time>
</trkpt>
<trkpt lat="45.43588" lon="13.51106">
<ele>50</ele>
<time>2011-05-01T14:14:40Z</time>
</trkpt>
<trkpt lat="45.43591" lon="13.5111">
<ele>50</ele>
<time>2011-05-01T14:14:43Z</time>
</trkpt>
<trkpt lat="45.43595" lon="13.51117">
<ele>50</ele>
<time>2011-05-01T14:14:47Z</time>
</trkpt>
<trkpt lat="45.43598" lon="13.51122">
<ele>50</ele>
<time>2011-05-01T14:14:50Z</time>
</trkpt>
<trkpt lat="45.43599" lon="13.51129">
<ele>50</ele>
<time>2011-05-01T14:14:53Z</time>
</trkpt>
<trkpt lat="45.43601" lon="13.51136">
<ele>50</ele>
<time>2011-05-01T14:14:56Z</time>
</trkpt>
<trkpt lat="45.43603" lon="13.51142">
<ele>50</ele>
<time>2011-05-01T14:14:59Z</time>
</trkpt>
<trkpt lat="45.43605" lon="13.51148">
<ele>50</ele>
<time>2011-05-01T14:15:02Z</time>
</trkpt>
<trkpt lat="45.43607" lon="13.51155">
<ele>50</ele>
<time>2011-05-01T14:15:05Z</time>
</trkpt>
<trkpt lat="45.43609" lon="13.51161">
<ele>50</ele>
<time>2011-05-01T14:15:08Z</time>
</trkpt>
<trkpt lat="45.43612" lon="13.51168">
<ele>50</ele>
<time>2011-05-01T14:15:11Z</time>
</trkpt>
<trkpt lat="45.43614" lon="13.51176">
<ele>50</ele>
<time>2011-05-01T14:15:14Z</time>
</trkpt>
<trkpt lat="45.43617" lon="13.51182">
<ele>50</ele>
<time>2011-05-01T14:15:17Z</time>
</trkpt>
<trkpt lat="45.4362" lon="13.5119">
<ele>50</ele>
<time>2011-05-01T14:15:20Z</time>
</trkpt>
<trkpt lat="45.43623" lon="13.51197">
<ele>50</ele>
<time>2011-05-01T14:15:23Z</time>
</trkpt>
<trkpt lat="45.43626" lon="13.51204">
<ele>50</ele>
<time>2011-05-01T14:15:26Z</time>
</trkpt>
<trkpt lat="45.43629" lon="13.51212">
<ele>50</ele>
<time>2011-05-01T14:15:29Z</time>
</trkpt>
<trkpt lat="45.43632" lon="13.51219">
<ele>50</ele>
<time>2011-05-01T14:15:32Z</time>
</trkpt>
<trkpt lat="45.43634" lon="13.51226">
<ele>50</ele>
<time>2011-05-01T14:15:35Z</time>
</trkpt>
<trkpt lat="45.43636" lon="13.51233">
<ele>50</ele>
<time>2011-05-01T14:15:38Z</time>
</trkpt>
<trkpt lat="45.43639" lon="13.51241">
<ele>50</ele>
<time>2011-05-01T14:15:41Z</time>
</trkpt>
<trkpt lat="45.43641" lon="13.51248">
<ele>50</ele>
<time>2011-05-01T14:15:44Z</time>
</trkpt>
<trkpt lat="45.43644" lon="13.51256">
<ele>50</ele>
<time>2011-05-01T14:15:47Z</time>
</trkpt>
<trkpt lat="45.43646" lon="13.51263">
<ele>50</ele>
<time>2011-05-01T14:15:50Z</time>
</trkpt>
<trkpt lat="45.43648" lon="13.51271">
<ele>50</ele>
<time>2011-05-01T14:15:53Z</time>
</trkpt>
<trkpt lat="45.43651" lon="13.51279">
<ele>50</ele>
<time>2011-05-01T14:15:56Z</time>
</trkpt>
<trkpt lat="45.43653" lon="13.51287">
<ele>50</ele>
<time>2011-05-01T14:15:59Z</time>
</trkpt>
<trkpt lat="45.43656" lon="13.51295">
<ele>50</ele>
<time>2011-05-01T14:16:02Z</time>
</trkpt>
<trkpt lat="45.43658" lon="13.51303">
<ele>50</ele>
<time>2011-05-01T14:16:05Z</time>
</trkpt>
<trkpt lat="45.43661" lon="13.51311">
<ele>50</ele>
<time>2011-05-01T14:16:08Z</time>
</trkpt>
<trkpt lat="45.43663" lon="13.5132">
<ele>50</ele>
<time>2011-05-01T14:16:11Z</time>
</trkpt>
<trkpt lat="45.43665" lon="13.51328">
<ele>50</ele>
<time>2011-05-01T14:16:14Z</time>
</trkpt>
<trkpt lat="45.43667" lon="13.51337">
<ele>50</ele>
<time>2011-05-01T14:16:17Z</time>
</trkpt>
<trkpt lat="45.43669" lon="13.51345">
<ele>50</ele>
<time>2011-05-01T14:16:20Z</time>
</trkpt>
<trkpt lat="45.4367" lon="13.51353">
<ele>50</ele>
<time>2011-05-01T14:16:23Z</time>
</trkpt>
<trkpt lat="45.43671" lon="13.51362">
<ele>50</ele>
<time>2011-05-01T14:16:26Z</time>
</trkpt>
<trkpt lat="45.43672" lon="13.5137">
<ele>50</ele>
<time>2011-05-01T14:16:29Z</time>
</trkpt>
<trkpt lat="45.43674" lon="13.51378">
<ele>50</ele>
<time>2011-05-01T14:16:32Z</time>
</trkpt>
<trkpt lat="45.43676" lon="13.51386">
<ele>50</ele>
<time>2011-05-01T14:16:35Z</time>
</trkpt>
<trkpt lat="45.43678" lon="13.51394">
<ele>50</ele>
<time>2011-05-01T14:16:38Z</time>
</trkpt>
<trkpt lat="45.4368" lon="13.51402">
<ele>50</ele>
<time>2011-05-01T14:16:41Z</time>
</trkpt>
<trkpt lat="45.43683" lon="13.51409">
<ele>50</ele>
<time>2011-05-01T14:16:44Z</time>
</trkpt>
<trkpt lat="45.43686" lon="13.51417">
<ele>50</ele>
<time>2011-05-01T14:16:47Z</time>
</trkpt>
<trkpt lat="45.43689" lon="13.51424">
<ele>50</ele>
<time>2011-05-01T14:16:50Z</time>
</trkpt>
<trkpt lat="45.43692" lon="13.51431">
<ele>50</ele>
<time>2011-05-01T14:16:53Z</time>
</trkpt>
<trkpt lat="45.43696" lon="13.51438">
<ele>50</ele>
<time>2011-05-01T14:16:56Z</time>
</trkpt>
<trkpt lat="45.43698" lon="13.51445">
<ele>50</ele>
<time>2011-05-01T14:16:59Z</time>
</trkpt>
<trkpt lat="45.43701" lon="13.51453">
<ele>50</ele>
<time>2011-05-01T14:17:02Z</time>
</trkpt>
<trkpt lat="45.43704" lon="13.5146">
<ele>50</ele>
<time>2011-05-01T14:17:05Z</time>
</trkpt>
<trkpt lat="45.43707" lon="13.51467">
<ele>50</ele>
<time>2011-05-01T14:17:08Z</time>
</trkpt>
<trkpt lat="45.43711" lon="13.51474">
<ele>50</ele>
<time>2011-05-01T14:17:11Z</time>
</trkpt>
<trkpt lat="45.43715" lon="13.5148">
<ele>50</ele>
<time>2011-05-01T14:17:14Z</time>
</trkpt>
<trkpt lat="45.43719" lon="13.51487">
<ele>50</ele>
<time>2011-05-01T14:17:17Z</time>
</trkpt>
<trkpt lat="45.43722" lon="13.51494">
<ele>50</ele>
<time>2011-05-01T14:17:20Z</time>
</trkpt>
<trkpt lat="45.43725" lon="13.51502">
<ele>50</ele>
<time>2011-05-01T14:17:23Z</time>
</trkpt>
<trkpt lat="45.43728" lon="13.5151">
<ele>50</ele>
<time>2011-05-01T14:17:26Z</time>
</trkpt>
<trkpt lat="45.43729" lon="13.51518">
<ele>50</ele>
<time>2011-05-01T14:17:29Z</time>
</trkpt>
<trkpt lat="45.43731" lon="13.51526">
<ele>50</ele>
<time>2011-05-01T14:17:32Z</time>
</trkpt>
<trkpt lat="45.43732" lon="13.51535">
<ele>50</ele>
<time>2011-05-01T14:17:35Z</time>
</trkpt>
<trkpt lat="45.43734" lon="13.51543">
<ele>50</ele>
<time>2011-05-01T14:17:38Z</time>
</trkpt>
<trkpt lat="45.43736" lon="13.51551">
<ele>50</ele>
<time>2011-05-01T14:17:41Z</time>
</trkpt>
<trkpt lat="45.43738" lon="13.51559">
<ele>50</ele>
<time>2011-05-01T14:17:44Z</time>
</trkpt>
<trkpt lat="45.43741" lon="13.51566">
<ele>50</ele>
<time>2011-05-01T14:17:47Z</time>
</trkpt>
<trkpt lat="45.43743" lon="13.51574">
<ele>50</ele>
<time>2011-05-01T14:17:50Z</time>
</trkpt>
<trkpt lat="45.43745" lon="13.51582">
<ele>50</ele>
<time>2011-05-01T14:17:53Z</time>
</trkpt>
<trkpt lat="45.43747" lon="13.5159">
<ele>50</ele>
<time>2011-05-01T14:17:56Z</time>
</trkpt>
<trkpt lat="45.43749" lon="13.51597">
<ele>50</ele>
<time>2011-05-01T14:17:59Z</time>
</trkpt>
<trkpt lat="45.4375" lon="13.51604">
<ele>50</ele>
<time>2011-05-01T14:18:02Z</time>
</trkpt>
<trkpt lat="45.43752" lon="13.51611">
<ele>50</ele>
<time>2011-05-01T14:18:05Z</time>
</trkpt>
<trkpt lat="45.43753" lon="13.51618">
<ele>50</ele>
<time>2011-05-01T14:18:08Z</time>
</trkpt>
<trkpt lat="45.43753" lon="13.51624">
<ele>50</ele>
<time>2011-05-01T14:18:11Z</time>
</trkpt>
<trkpt lat="45.43755" lon="13.51632">
<ele>50</ele>
<time>2011-05-01T14:18:15Z</time>
</trkpt>
<trkpt lat="45.43757" lon="13.5164">
<ele>50</ele>
<time>2011-05-01T14:18:19Z</time>
</trkpt>
<trkpt lat="45.4376" lon="13.51647">
<ele>50</ele>
<time>2011-05-01T14:18:23Z</time>
</trkpt>
<trkpt lat="45.43764" lon="13.5165">
<ele>49</ele>
<time>2011-05-01T14:18:26Z</time>
</trkpt>
<trkpt lat="45.43768" lon="13.51652">
<ele>49</ele>
<time>2011-05-01T14:18:29Z</time>
</trkpt>
<trkpt lat="45.43774" lon="13.51652">
<ele>49</ele>
<time>2011-05-01T14:18:33Z</time>
</trkpt>
<trkpt lat="45.43779" lon="13.51649">
<ele>49</ele>
<time>2011-05-01T14:18:37Z</time>
</trkpt>
<trkpt lat="45.43784" lon="13.51647">
<ele>49</ele>
<time>2011-05-01T14:18:41Z</time>
</trkpt>
<trkpt lat="45.43788" lon="13.51643">
<ele>49</ele>
<time>2011-05-01T14:18:46Z</time>
</trkpt>
<trkpt lat="45.43792" lon="13.51639">
<ele>49</ele>
<time>2011-05-01T14:18:52Z</time>
</trkpt>
<trkpt lat="45.43794" lon="13.51633">
<ele>49</ele>
<time>2011-05-01T14:19:01Z</time>
</trkpt>
<trkpt lat="45.43798" lon="13.51629">
<ele>49</ele>
<time>2011-05-01T14:19:11Z</time>
</trkpt>
<trkpt lat="45.43802" lon="13.51625">
<ele>49</ele>
<time>2011-05-01T14:19:19Z</time>
</trkpt>
<trkpt lat="45.43805" lon="13.51619">
<ele>49</ele>
<time>2011-05-01T14:19:26Z</time>
</trkpt>
<trkpt lat="45.43806" lon="13.51612">
<ele>49</ele>
<time>2011-05-01T14:19:35Z</time>
</trkpt>
<trkpt lat="45.43808" lon="13.51606">
<ele>49</ele>
<time>2011-05-01T14:19:44Z</time>
</trkpt>
<trkpt lat="45.4381" lon="13.516">
<ele>49</ele>
<time>2011-05-01T14:19:52Z</time>
</trkpt>
<trkpt lat="45.43812" lon="13.51594">
<ele>49</ele>
<time>2011-05-01T14:20:06Z</time>
</trkpt>
<trkpt lat="45.43812" lon="13.51587">
<ele>49</ele>
<time>2011-05-01T14:20:21Z</time>
</trkpt>
<trkpt lat="45.43816" lon="13.51587">
<ele>48</ele>
<time>2011-05-01T14:32:24Z</time>
</trkpt>
<trkpt lat="45.43813" lon="13.51582">
<ele>48</ele>
<time>2011-05-01T14:50:46Z</time>
</trkpt>
<trkpt lat="45.43811" lon="13.51576">
<ele>48</ele>
<time>2011-05-01T14:50:52Z</time>
</trkpt>
<trkpt lat="45.43809" lon="13.5157">
<ele>48</ele>
<time>2011-05-01T14:50:58Z</time>
</trkpt>
<trkpt lat="45.43807" lon="13.51564">
<ele>47</ele>
<time>2011-05-01T14:51:05Z</time>
</trkpt>
<trkpt lat="45.43807" lon="13.51557">
<ele>48</ele>
<time>2011-05-01T14:51:12Z</time>
</trkpt>
<trkpt lat="45.43806" lon="13.5155">
<ele>48</ele>
<time>2011-05-01T14:51:20Z</time>
</trkpt>
<trkpt lat="45.43808" lon="13.51544">
<ele>48</ele>
<time>2011-05-01T14:51:31Z</time>
</trkpt>
<trkpt lat="45.43813" lon="13.51542">
<ele>47</ele>
<time>2011-05-01T14:51:37Z</time>
</trkpt>
<trkpt lat="45.43817" lon="13.51538">
<ele>47</ele>
<time>2011-05-01T14:51:43Z</time>
</trkpt>
<trkpt lat="45.43822" lon="13.51535">
<ele>47</ele>
<time>2011-05-01T14:51:48Z</time>
</trkpt>
<trkpt lat="45.43826" lon="13.51532">
<ele>47</ele>
<time>2011-05-01T14:51:53Z</time>
</trkpt>
<trkpt lat="45.43831" lon="13.5153">
<ele>47</ele>
<time>2011-05-01T14:51:58Z</time>
</trkpt>
<trkpt lat="45.43837" lon="13.51528">
<ele>48</ele>
<time>2011-05-01T14:52:03Z</time>
</trkpt>
<trkpt lat="45.43841" lon="13.51529">
<ele>48</ele>
<time>2011-05-01T14:52:07Z</time>
</trkpt>
<trkpt lat="45.43846" lon="13.5153">
<ele>48</ele>
<time>2011-05-01T14:52:11Z</time>
</trkpt>
<trkpt lat="45.4385" lon="13.51531">
<ele>48</ele>
<time>2011-05-01T14:52:15Z</time>
</trkpt>
<trkpt lat="45.43856" lon="13.5153">
<ele>48</ele>
<time>2011-05-01T14:52:19Z</time>
</trkpt>
<trkpt lat="45.4386" lon="13.51528">
<ele>48</ele>
<time>2011-05-01T14:52:23Z</time>
</trkpt>
<trkpt lat="45.43864" lon="13.51525">
<ele>48</ele>
<time>2011-05-01T14:52:28Z</time>
</trkpt>
<trkpt lat="45.43864" lon="13.51532">
<ele>48</ele>
<time>2011-05-01T14:52:41Z</time>
</trkpt>
<trkpt lat="45.43863" lon="13.51539">
<ele>48</ele>
<time>2011-05-01T14:52:47Z</time>
</trkpt>
<trkpt lat="45.4386" lon="13.51545">
<ele>48</ele>
<time>2011-05-01T14:52:52Z</time>
</trkpt>
<trkpt lat="45.43857" lon="13.51551">
<ele>48</ele>
<time>2011-05-01T14:52:57Z</time>
</trkpt>
<trkpt lat="45.43855" lon="13.51557">
<ele>48</ele>
<time>2011-05-01T14:53:02Z</time>
</trkpt>
<trkpt lat="45.43854" lon="13.51564">
<ele>48</ele>
<time>2011-05-01T14:53:07Z</time>
</trkpt>
<trkpt lat="45.43854" lon="13.51571">
<ele>48</ele>
<time>2011-05-01T14:53:11Z</time>
</trkpt>
<trkpt lat="45.43855" lon="13.51578">
<ele>48</ele>
<time>2011-05-01T14:53:15Z</time>
</trkpt>
<trkpt lat="45.43856" lon="13.51584">
<ele>48</ele>
<time>2011-05-01T14:53:19Z</time>
</trkpt>
<trkpt lat="45.43858" lon="13.51591">
<ele>48</ele>
<time>2011-05-01T14:53:23Z</time>
</trkpt>
<trkpt lat="45.4386" lon="13.51598">
<ele>48</ele>
<time>2011-05-01T14:53:27Z</time>
</trkpt>
<trkpt lat="45.4386" lon="13.51605">
<ele>48</ele>
<time>2011-05-01T14:53:31Z</time>
</trkpt>
<trkpt lat="45.43862" lon="13.51612">
<ele>48</ele>
<time>2011-05-01T14:53:35Z</time>
</trkpt>
<trkpt lat="45.43863" lon="13.51619">
<ele>48</ele>
<time>2011-05-01T14:53:39Z</time>
</trkpt>
<trkpt lat="45.43864" lon="13.51626">
<ele>48</ele>
<time>2011-05-01T14:53:43Z</time>
</trkpt>
<trkpt lat="45.43866" lon="13.51633">
<ele>48</ele>
<time>2011-05-01T14:53:47Z</time>
</trkpt>
<trkpt lat="45.43867" lon="13.5164">
<ele>48</ele>
<time>2011-05-01T14:53:51Z</time>
</trkpt>
<trkpt lat="45.43868" lon="13.51647">
<ele>48</ele>
<time>2011-05-01T14:53:55Z</time>
</trkpt>
<trkpt lat="45.43869" lon="13.51654">
<ele>48</ele>
<time>2011-05-01T14:53:59Z</time>
</trkpt>
<trkpt lat="45.43869" lon="13.51661">
<ele>48</ele>
<time>2011-05-01T14:54:03Z</time>
</trkpt>
<trkpt lat="45.4387" lon="13.51668">
<ele>49</ele>
<time>2011-05-01T14:54:07Z</time>
</trkpt>
<trkpt lat="45.43869" lon="13.51675">
<ele>49</ele>
<time>2011-05-01T14:54:12Z</time>
</trkpt>
<trkpt lat="45.43868" lon="13.51683">
<ele>49</ele>
<time>2011-05-01T14:54:17Z</time>
</trkpt>
<trkpt lat="45.43867" lon="13.51689">
<ele>49</ele>
<time>2011-05-01T14:54:22Z</time>
</trkpt>
<trkpt lat="45.43866" lon="13.51696">
<ele>49</ele>
<time>2011-05-01T14:54:27Z</time>
</trkpt>
<trkpt lat="45.43863" lon="13.51702">
<ele>49</ele>
<time>2011-05-01T14:54:34Z</time>
</trkpt>
<trkpt lat="45.43858" lon="13.51705">
<ele>49</ele>
<time>2011-05-01T14:54:41Z</time>
</trkpt>
<trkpt lat="45.43854" lon="13.51708">
<ele>49</ele>
<time>2011-05-01T14:54:49Z</time>
</trkpt>
<trkpt lat="45.43849" lon="13.5171">
<ele>49</ele>
<time>2011-05-01T14:55:02Z</time>
</trkpt>
<trkpt lat="45.43845" lon="13.51708">
<ele>49</ele>
<time>2011-05-01T14:57:01Z</time>
</trkpt>
</trkseg>
</trk>
</gpx>
